<?xml version="1.0" encoding="UTF-8" standalone="no" ?>
<gpx xmlns="http://www.topografix.com/GPX/1/1" xmlns:xsi="http://www.w3.org/2001/XMLSchema-instance" xsi:schemaLocation="http://www.topografix.com/GPX/1/1 http://www.topografix.com/GPX/1/1/gpx.xsd" version="1.1" creator="VisuGPX - https://www.visugpx.com">
  <metadata>
    <name>GTJ-3</name>
    <desc><![CDATA[US-CERGY-CYCLO]]></desc>
  </metadata>
  <trk>
    <name><![CDATA[20150630_GTJ-3_35]]></name>
    <trkseg>
      <trkpt lat="46.60161" lon="6.11354">
        <ele>1061.91</ele>
        <time>2015-06-30T07:13:16Z</time>
      </trkpt>
      <trkpt lat="46.60161" lon="6.11354">
        <ele>1061.91</ele>
        <time>2015-06-30T07:13:17Z</time>
      </trkpt>
      <trkpt lat="46.60172" lon="6.11358">
        <ele>1061.43</ele>
        <time>2015-06-30T07:13:36Z</time>
      </trkpt>
      <trkpt lat="46.60169" lon="6.11359">
        <ele>1065.28</ele>
        <time>2015-06-30T07:13:39Z</time>
      </trkpt>
      <trkpt lat="46.60168" lon="6.11361">
        <ele>1071.05</ele>
        <time>2015-06-30T07:13:42Z</time>
      </trkpt>
      <trkpt lat="46.60167" lon="6.11362">
        <ele>1075.85</ele>
        <time>2015-06-30T07:13:45Z</time>
      </trkpt>
      <trkpt lat="46.60167" lon="6.11362">
        <ele>1075.37</ele>
        <time>2015-06-30T07:13:46Z</time>
      </trkpt>
      <trkpt lat="46.60167" lon="6.11362">
        <ele>1078.74</ele>
        <time>2015-06-30T07:13:47Z</time>
      </trkpt>
      <trkpt lat="46.60167" lon="6.11363">
        <ele>1078.26</ele>
        <time>2015-06-30T07:13:49Z</time>
      </trkpt>
      <trkpt lat="46.60167" lon="6.11363">
        <ele>1083.06</ele>
        <time>2015-06-30T07:13:50Z</time>
      </trkpt>
      <trkpt lat="46.60167" lon="6.11364">
        <ele>1086.91</ele>
        <time>2015-06-30T07:13:53Z</time>
      </trkpt>
      <trkpt lat="46.60165" lon="6.11363">
        <ele>1090.75</ele>
        <time>2015-06-30T07:13:57Z</time>
      </trkpt>
      <trkpt lat="46.60163" lon="6.11361">
        <ele>1093.16</ele>
        <time>2015-06-30T07:14:01Z</time>
      </trkpt>
      <trkpt lat="46.6016" lon="6.11359">
        <ele>1096.04</ele>
        <time>2015-06-30T07:14:11Z</time>
      </trkpt>
      <trkpt lat="46.6016" lon="6.11356">
        <ele>1095.56</ele>
        <time>2015-06-30T07:14:27Z</time>
      </trkpt>
      <trkpt lat="46.60166" lon="6.1136">
        <ele>1096.04</ele>
        <time>2015-06-30T07:14:42Z</time>
      </trkpt>
      <trkpt lat="46.60183" lon="6.1137">
        <ele>1096.04</ele>
        <time>2015-06-30T07:14:49Z</time>
      </trkpt>
      <trkpt lat="46.60209" lon="6.11351">
        <ele>1096.52</ele>
        <time>2015-06-30T07:15:00Z</time>
      </trkpt>
      <trkpt lat="46.60227" lon="6.11332">
        <ele>1097</ele>
        <time>2015-06-30T07:15:08Z</time>
      </trkpt>
      <trkpt lat="46.60282" lon="6.11288">
        <ele>1095.08</ele>
        <time>2015-06-30T07:15:24Z</time>
      </trkpt>
      <trkpt lat="46.60306" lon="6.11269">
        <ele>1094.6</ele>
        <time>2015-06-30T07:15:39Z</time>
      </trkpt>
      <trkpt lat="46.60335" lon="6.11246">
        <ele>1096.04</ele>
        <time>2015-06-30T07:15:52Z</time>
      </trkpt>
      <trkpt lat="46.60366" lon="6.11218">
        <ele>1097.96</ele>
        <time>2015-06-30T07:16:08Z</time>
      </trkpt>
      <trkpt lat="46.60394" lon="6.11179">
        <ele>1098.44</ele>
        <time>2015-06-30T07:16:22Z</time>
      </trkpt>
      <trkpt lat="46.60437" lon="6.11156">
        <ele>1099.4</ele>
        <time>2015-06-30T07:16:39Z</time>
      </trkpt>
      <trkpt lat="46.60479" lon="6.11157">
        <ele>1099.89</ele>
        <time>2015-06-30T07:16:53Z</time>
      </trkpt>
      <trkpt lat="46.6053" lon="6.11173">
        <ele>1101.33</ele>
        <time>2015-06-30T07:17:10Z</time>
      </trkpt>
      <trkpt lat="46.60585" lon="6.11208">
        <ele>1101.81</ele>
        <time>2015-06-30T07:17:26Z</time>
      </trkpt>
      <trkpt lat="46.60638" lon="6.11245">
        <ele>1102.29</ele>
        <time>2015-06-30T07:17:43Z</time>
      </trkpt>
      <trkpt lat="46.60672" lon="6.11271">
        <ele>1102.77</ele>
        <time>2015-06-30T07:17:55Z</time>
      </trkpt>
      <trkpt lat="46.60701" lon="6.11282">
        <ele>1103.73</ele>
        <time>2015-06-30T07:18:06Z</time>
      </trkpt>
      <trkpt lat="46.60739" lon="6.11298">
        <ele>1105.65</ele>
        <time>2015-06-30T07:18:19Z</time>
      </trkpt>
      <trkpt lat="46.60776" lon="6.11318">
        <ele>1108.06</ele>
        <time>2015-06-30T07:18:33Z</time>
      </trkpt>
      <trkpt lat="46.60799" lon="6.1136">
        <ele>1109.98</ele>
        <time>2015-06-30T07:18:48Z</time>
      </trkpt>
      <trkpt lat="46.60832" lon="6.11401">
        <ele>1109.02</ele>
        <time>2015-06-30T07:19:04Z</time>
      </trkpt>
      <trkpt lat="46.60849" lon="6.11438">
        <ele>1106.61</ele>
        <time>2015-06-30T07:19:12Z</time>
      </trkpt>
      <trkpt lat="46.60851" lon="6.11444">
        <ele>1107.58</ele>
        <time>2015-06-30T07:19:13Z</time>
      </trkpt>
      <trkpt lat="46.60852" lon="6.1145">
        <ele>1107.58</ele>
        <time>2015-06-30T07:19:14Z</time>
      </trkpt>
      <trkpt lat="46.60845" lon="6.11488">
        <ele>1108.54</ele>
        <time>2015-06-30T07:19:24Z</time>
      </trkpt>
      <trkpt lat="46.60831" lon="6.11511">
        <ele>1110.46</ele>
        <time>2015-06-30T07:19:33Z</time>
      </trkpt>
      <trkpt lat="46.60825" lon="6.11529">
        <ele>1110.94</ele>
        <time>2015-06-30T07:19:39Z</time>
      </trkpt>
      <trkpt lat="46.60824" lon="6.11531">
        <ele>1110.94</ele>
        <time>2015-06-30T07:19:40Z</time>
      </trkpt>
      <trkpt lat="46.60823" lon="6.11534">
        <ele>1110.94</ele>
        <time>2015-06-30T07:19:41Z</time>
      </trkpt>
      <trkpt lat="46.60822" lon="6.11536">
        <ele>1111.42</ele>
        <time>2015-06-30T07:19:42Z</time>
      </trkpt>
      <trkpt lat="46.60821" lon="6.11539">
        <ele>1111.42</ele>
        <time>2015-06-30T07:19:43Z</time>
      </trkpt>
      <trkpt lat="46.6082" lon="6.11542">
        <ele>1111.42</ele>
        <time>2015-06-30T07:19:44Z</time>
      </trkpt>
      <trkpt lat="46.60819" lon="6.11545">
        <ele>1111.42</ele>
        <time>2015-06-30T07:19:45Z</time>
      </trkpt>
      <trkpt lat="46.6081" lon="6.11562">
        <ele>1112.38</ele>
        <time>2015-06-30T07:19:52Z</time>
      </trkpt>
      <trkpt lat="46.60808" lon="6.11565">
        <ele>1112.38</ele>
        <time>2015-06-30T07:19:53Z</time>
      </trkpt>
      <trkpt lat="46.60791" lon="6.11607">
        <ele>1112.38</ele>
        <time>2015-06-30T07:20:06Z</time>
      </trkpt>
      <trkpt lat="46.60785" lon="6.11644">
        <ele>1111.42</ele>
        <time>2015-06-30T07:20:15Z</time>
      </trkpt>
      <trkpt lat="46.60783" lon="6.11648">
        <ele>1111.9</ele>
        <time>2015-06-30T07:20:16Z</time>
      </trkpt>
      <trkpt lat="46.60783" lon="6.11653">
        <ele>1111.9</ele>
        <time>2015-06-30T07:20:17Z</time>
      </trkpt>
      <trkpt lat="46.60782" lon="6.11659">
        <ele>1111.42</ele>
        <time>2015-06-30T07:20:18Z</time>
      </trkpt>
      <trkpt lat="46.60781" lon="6.11664">
        <ele>1111.9</ele>
        <time>2015-06-30T07:20:19Z</time>
      </trkpt>
      <trkpt lat="46.60782" lon="6.11669">
        <ele>1111.9</ele>
        <time>2015-06-30T07:20:20Z</time>
      </trkpt>
      <trkpt lat="46.60782" lon="6.11674">
        <ele>1111.9</ele>
        <time>2015-06-30T07:20:21Z</time>
      </trkpt>
      <trkpt lat="46.60809" lon="6.11735">
        <ele>1111.9</ele>
        <time>2015-06-30T07:20:33Z</time>
      </trkpt>
      <trkpt lat="46.60814" lon="6.11749">
        <ele>1111.42</ele>
        <time>2015-06-30T07:20:36Z</time>
      </trkpt>
      <trkpt lat="46.60814" lon="6.11753">
        <ele>1111.9</ele>
        <time>2015-06-30T07:20:37Z</time>
      </trkpt>
      <trkpt lat="46.60815" lon="6.11758">
        <ele>1112.38</ele>
        <time>2015-06-30T07:20:38Z</time>
      </trkpt>
      <trkpt lat="46.60816" lon="6.11763">
        <ele>1112.38</ele>
        <time>2015-06-30T07:20:39Z</time>
      </trkpt>
      <trkpt lat="46.60818" lon="6.11769">
        <ele>1112.38</ele>
        <time>2015-06-30T07:20:40Z</time>
      </trkpt>
      <trkpt lat="46.6082" lon="6.11773">
        <ele>1113.34</ele>
        <time>2015-06-30T07:20:41Z</time>
      </trkpt>
      <trkpt lat="46.60823" lon="6.11778">
        <ele>1113.82</ele>
        <time>2015-06-30T07:20:42Z</time>
      </trkpt>
      <trkpt lat="46.60825" lon="6.11783">
        <ele>1113.82</ele>
        <time>2015-06-30T07:20:43Z</time>
      </trkpt>
      <trkpt lat="46.60845" lon="6.11826">
        <ele>1115.27</ele>
        <time>2015-06-30T07:20:56Z</time>
      </trkpt>
      <trkpt lat="46.60859" lon="6.11862">
        <ele>1115.75</ele>
        <time>2015-06-30T07:21:07Z</time>
      </trkpt>
      <trkpt lat="46.60862" lon="6.11877">
        <ele>1115.27</ele>
        <time>2015-06-30T07:21:10Z</time>
      </trkpt>
      <trkpt lat="46.60862" lon="6.11884">
        <ele>1114.31</ele>
        <time>2015-06-30T07:21:11Z</time>
      </trkpt>
      <trkpt lat="46.60864" lon="6.11895">
        <ele>1114.31</ele>
        <time>2015-06-30T07:21:13Z</time>
      </trkpt>
      <trkpt lat="46.60866" lon="6.11901">
        <ele>1114.31</ele>
        <time>2015-06-30T07:21:14Z</time>
      </trkpt>
      <trkpt lat="46.60869" lon="6.11907">
        <ele>1114.31</ele>
        <time>2015-06-30T07:21:15Z</time>
      </trkpt>
      <trkpt lat="46.60876" lon="6.11918">
        <ele>1113.82</ele>
        <time>2015-06-30T07:21:17Z</time>
      </trkpt>
      <trkpt lat="46.60891" lon="6.11951">
        <ele>1114.31</ele>
        <time>2015-06-30T07:21:24Z</time>
      </trkpt>
      <trkpt lat="46.60892" lon="6.11955">
        <ele>1114.31</ele>
        <time>2015-06-30T07:21:25Z</time>
      </trkpt>
      <trkpt lat="46.60894" lon="6.11959">
        <ele>1114.31</ele>
        <time>2015-06-30T07:21:26Z</time>
      </trkpt>
      <trkpt lat="46.609" lon="6.11974">
        <ele>1114.79</ele>
        <time>2015-06-30T07:21:30Z</time>
      </trkpt>
      <trkpt lat="46.60902" lon="6.11977">
        <ele>1114.79</ele>
        <time>2015-06-30T07:21:31Z</time>
      </trkpt>
      <trkpt lat="46.60905" lon="6.11981">
        <ele>1114.79</ele>
        <time>2015-06-30T07:21:32Z</time>
      </trkpt>
      <trkpt lat="46.60906" lon="6.11984">
        <ele>1114.79</ele>
        <time>2015-06-30T07:21:33Z</time>
      </trkpt>
      <trkpt lat="46.60908" lon="6.11988">
        <ele>1114.79</ele>
        <time>2015-06-30T07:21:34Z</time>
      </trkpt>
      <trkpt lat="46.6091" lon="6.11991">
        <ele>1114.79</ele>
        <time>2015-06-30T07:21:35Z</time>
      </trkpt>
      <trkpt lat="46.6094" lon="6.12026">
        <ele>1116.23</ele>
        <time>2015-06-30T07:21:48Z</time>
      </trkpt>
      <trkpt lat="46.60955" lon="6.1203">
        <ele>1115.75</ele>
        <time>2015-06-30T07:21:54Z</time>
      </trkpt>
      <trkpt lat="46.60957" lon="6.12032">
        <ele>1116.23</ele>
        <time>2015-06-30T07:21:55Z</time>
      </trkpt>
      <trkpt lat="46.60961" lon="6.12034">
        <ele>1115.75</ele>
        <time>2015-06-30T07:21:56Z</time>
      </trkpt>
      <trkpt lat="46.60964" lon="6.12036">
        <ele>1115.75</ele>
        <time>2015-06-30T07:21:57Z</time>
      </trkpt>
      <trkpt lat="46.60967" lon="6.12039">
        <ele>1115.27</ele>
        <time>2015-06-30T07:21:58Z</time>
      </trkpt>
      <trkpt lat="46.61001" lon="6.12081">
        <ele>1114.31</ele>
        <time>2015-06-30T07:22:09Z</time>
      </trkpt>
      <trkpt lat="46.61035" lon="6.12134">
        <ele>1112.38</ele>
        <time>2015-06-30T07:22:20Z</time>
      </trkpt>
      <trkpt lat="46.61039" lon="6.12141">
        <ele>1111.9</ele>
        <time>2015-06-30T07:22:21Z</time>
      </trkpt>
      <trkpt lat="46.61043" lon="6.12148">
        <ele>1111.9</ele>
        <time>2015-06-30T07:22:22Z</time>
      </trkpt>
      <trkpt lat="46.61047" lon="6.12154">
        <ele>1111.9</ele>
        <time>2015-06-30T07:22:23Z</time>
      </trkpt>
      <trkpt lat="46.61051" lon="6.12159">
        <ele>1111.9</ele>
        <time>2015-06-30T07:22:24Z</time>
      </trkpt>
      <trkpt lat="46.61061" lon="6.12167">
        <ele>1111.42</ele>
        <time>2015-06-30T07:22:26Z</time>
      </trkpt>
      <trkpt lat="46.61065" lon="6.12171">
        <ele>1111.42</ele>
        <time>2015-06-30T07:22:27Z</time>
      </trkpt>
      <trkpt lat="46.61098" lon="6.12191">
        <ele>1112.86</ele>
        <time>2015-06-30T07:22:37Z</time>
      </trkpt>
      <trkpt lat="46.611" lon="6.12193">
        <ele>1112.38</ele>
        <time>2015-06-30T07:22:38Z</time>
      </trkpt>
      <trkpt lat="46.61125" lon="6.12229">
        <ele>1112.86</ele>
        <time>2015-06-30T07:22:50Z</time>
      </trkpt>
      <trkpt lat="46.61147" lon="6.12247">
        <ele>1114.31</ele>
        <time>2015-06-30T07:23:02Z</time>
      </trkpt>
      <trkpt lat="46.61167" lon="6.1225">
        <ele>1116.23</ele>
        <time>2015-06-30T07:23:15Z</time>
      </trkpt>
      <trkpt lat="46.61171" lon="6.12247">
        <ele>1116.23</ele>
        <time>2015-06-30T07:23:18Z</time>
      </trkpt>
      <trkpt lat="46.61195" lon="6.12235">
        <ele>1116.71</ele>
        <time>2015-06-30T07:23:27Z</time>
      </trkpt>
      <trkpt lat="46.61221" lon="6.12222">
        <ele>1116.71</ele>
        <time>2015-06-30T07:23:37Z</time>
      </trkpt>
      <trkpt lat="46.61243" lon="6.12207">
        <ele>1117.67</ele>
        <time>2015-06-30T07:23:47Z</time>
      </trkpt>
      <trkpt lat="46.61257" lon="6.12198">
        <ele>1120.55</ele>
        <time>2015-06-30T07:23:58Z</time>
      </trkpt>
      <trkpt lat="46.61276" lon="6.12193">
        <ele>1120.55</ele>
        <time>2015-06-30T07:24:06Z</time>
      </trkpt>
      <trkpt lat="46.61279" lon="6.12193">
        <ele>1120.55</ele>
        <time>2015-06-30T07:24:07Z</time>
      </trkpt>
      <trkpt lat="46.61281" lon="6.12193">
        <ele>1121.03</ele>
        <time>2015-06-30T07:24:08Z</time>
      </trkpt>
      <trkpt lat="46.61284" lon="6.12191">
        <ele>1121.03</ele>
        <time>2015-06-30T07:24:09Z</time>
      </trkpt>
      <trkpt lat="46.61287" lon="6.1219">
        <ele>1120.55</ele>
        <time>2015-06-30T07:24:11Z</time>
      </trkpt>
      <trkpt lat="46.61289" lon="6.12189">
        <ele>1120.55</ele>
        <time>2015-06-30T07:24:12Z</time>
      </trkpt>
      <trkpt lat="46.61294" lon="6.12183">
        <ele>1121.52</ele>
        <time>2015-06-30T07:24:15Z</time>
      </trkpt>
      <trkpt lat="46.61317" lon="6.12162">
        <ele>1123.44</ele>
        <time>2015-06-30T07:24:27Z</time>
      </trkpt>
      <trkpt lat="46.61334" lon="6.12144">
        <ele>1124.4</ele>
        <time>2015-06-30T07:24:37Z</time>
      </trkpt>
      <trkpt lat="46.61335" lon="6.12141">
        <ele>1124.4</ele>
        <time>2015-06-30T07:24:38Z</time>
      </trkpt>
      <trkpt lat="46.61337" lon="6.1214">
        <ele>1125.84</ele>
        <time>2015-06-30T07:24:39Z</time>
      </trkpt>
      <trkpt lat="46.61339" lon="6.12138">
        <ele>1125.36</ele>
        <time>2015-06-30T07:24:40Z</time>
      </trkpt>
      <trkpt lat="46.61343" lon="6.12136">
        <ele>1125.84</ele>
        <time>2015-06-30T07:24:43Z</time>
      </trkpt>
      <trkpt lat="46.61352" lon="6.12133">
        <ele>1125.36</ele>
        <time>2015-06-30T07:24:49Z</time>
      </trkpt>
      <trkpt lat="46.61368" lon="6.1213">
        <ele>1126.8</ele>
        <time>2015-06-30T07:25:00Z</time>
      </trkpt>
      <trkpt lat="46.61369" lon="6.1213">
        <ele>1126.8</ele>
        <time>2015-06-30T07:25:01Z</time>
      </trkpt>
      <trkpt lat="46.61372" lon="6.12128">
        <ele>1126.32</ele>
        <time>2015-06-30T07:25:02Z</time>
      </trkpt>
      <trkpt lat="46.61376" lon="6.12125">
        <ele>1125.84</ele>
        <time>2015-06-30T07:25:03Z</time>
      </trkpt>
      <trkpt lat="46.61379" lon="6.12123">
        <ele>1126.8</ele>
        <time>2015-06-30T07:25:04Z</time>
      </trkpt>
      <trkpt lat="46.61382" lon="6.1212">
        <ele>1126.32</ele>
        <time>2015-06-30T07:25:05Z</time>
      </trkpt>
      <trkpt lat="46.61403" lon="6.12097">
        <ele>1126.32</ele>
        <time>2015-06-30T07:25:13Z</time>
      </trkpt>
      <trkpt lat="46.61426" lon="6.12071">
        <ele>1126.32</ele>
        <time>2015-06-30T07:25:22Z</time>
      </trkpt>
      <trkpt lat="46.61444" lon="6.12047">
        <ele>1125.84</ele>
        <time>2015-06-30T07:25:32Z</time>
      </trkpt>
      <trkpt lat="46.61468" lon="6.12033">
        <ele>1127.28</ele>
        <time>2015-06-30T07:25:41Z</time>
      </trkpt>
      <trkpt lat="46.6149" lon="6.12021">
        <ele>1126.32</ele>
        <time>2015-06-30T07:25:48Z</time>
      </trkpt>
      <trkpt lat="46.61497" lon="6.12021">
        <ele>1125.84</ele>
        <time>2015-06-30T07:25:49Z</time>
      </trkpt>
      <trkpt lat="46.61503" lon="6.12022">
        <ele>1125.84</ele>
        <time>2015-06-30T07:25:50Z</time>
      </trkpt>
      <trkpt lat="46.6151" lon="6.12024">
        <ele>1125.36</ele>
        <time>2015-06-30T07:25:51Z</time>
      </trkpt>
      <trkpt lat="46.61516" lon="6.12026">
        <ele>1125.36</ele>
        <time>2015-06-30T07:25:52Z</time>
      </trkpt>
      <trkpt lat="46.61548" lon="6.12024">
        <ele>1126.8</ele>
        <time>2015-06-30T07:26:00Z</time>
      </trkpt>
      <trkpt lat="46.61555" lon="6.12021">
        <ele>1127.28</ele>
        <time>2015-06-30T07:26:03Z</time>
      </trkpt>
      <trkpt lat="46.61557" lon="6.12019">
        <ele>1127.28</ele>
        <time>2015-06-30T07:26:04Z</time>
      </trkpt>
      <trkpt lat="46.61559" lon="6.12017">
        <ele>1127.28</ele>
        <time>2015-06-30T07:26:05Z</time>
      </trkpt>
      <trkpt lat="46.61561" lon="6.12015">
        <ele>1127.28</ele>
        <time>2015-06-30T07:26:06Z</time>
      </trkpt>
      <trkpt lat="46.61564" lon="6.12013">
        <ele>1126.8</ele>
        <time>2015-06-30T07:26:07Z</time>
      </trkpt>
      <trkpt lat="46.61566" lon="6.1201">
        <ele>1127.76</ele>
        <time>2015-06-30T07:26:08Z</time>
      </trkpt>
      <trkpt lat="46.61568" lon="6.12007">
        <ele>1127.28</ele>
        <time>2015-06-30T07:26:09Z</time>
      </trkpt>
      <trkpt lat="46.6157" lon="6.12003">
        <ele>1127.76</ele>
        <time>2015-06-30T07:26:10Z</time>
      </trkpt>
      <trkpt lat="46.61572" lon="6.12001">
        <ele>1127.76</ele>
        <time>2015-06-30T07:26:11Z</time>
      </trkpt>
      <trkpt lat="46.61575" lon="6.11998">
        <ele>1127.76</ele>
        <time>2015-06-30T07:26:12Z</time>
      </trkpt>
      <trkpt lat="46.61578" lon="6.11994">
        <ele>1127.76</ele>
        <time>2015-06-30T07:26:13Z</time>
      </trkpt>
      <trkpt lat="46.6158" lon="6.1199">
        <ele>1127.76</ele>
        <time>2015-06-30T07:26:14Z</time>
      </trkpt>
      <trkpt lat="46.61606" lon="6.11956">
        <ele>1127.28</ele>
        <time>2015-06-30T07:26:24Z</time>
      </trkpt>
      <trkpt lat="46.61637" lon="6.11945">
        <ele>1127.76</ele>
        <time>2015-06-30T07:26:35Z</time>
      </trkpt>
      <trkpt lat="46.61667" lon="6.11938">
        <ele>1128.73</ele>
        <time>2015-06-30T07:26:46Z</time>
      </trkpt>
      <trkpt lat="46.61691" lon="6.11935">
        <ele>1129.69</ele>
        <time>2015-06-30T07:26:55Z</time>
      </trkpt>
      <trkpt lat="46.61713" lon="6.11927">
        <ele>1129.69</ele>
        <time>2015-06-30T07:27:02Z</time>
      </trkpt>
      <trkpt lat="46.61743" lon="6.11901">
        <ele>1130.17</ele>
        <time>2015-06-30T07:27:12Z</time>
      </trkpt>
      <trkpt lat="46.61762" lon="6.11869">
        <ele>1130.17</ele>
        <time>2015-06-30T07:27:21Z</time>
      </trkpt>
      <trkpt lat="46.61763" lon="6.11867">
        <ele>1130.17</ele>
        <time>2015-06-30T07:27:22Z</time>
      </trkpt>
      <trkpt lat="46.61774" lon="6.11833">
        <ele>1129.69</ele>
        <time>2015-06-30T07:27:35Z</time>
      </trkpt>
      <trkpt lat="46.61789" lon="6.11791">
        <ele>1129.69</ele>
        <time>2015-06-30T07:27:45Z</time>
      </trkpt>
      <trkpt lat="46.6181" lon="6.11744">
        <ele>1128.73</ele>
        <time>2015-06-30T07:27:57Z</time>
      </trkpt>
      <trkpt lat="46.61827" lon="6.11696">
        <ele>1128.73</ele>
        <time>2015-06-30T07:28:09Z</time>
      </trkpt>
      <trkpt lat="46.61839" lon="6.11664">
        <ele>1128.24</ele>
        <time>2015-06-30T07:28:16Z</time>
      </trkpt>
      <trkpt lat="46.61839" lon="6.1166">
        <ele>1128.24</ele>
        <time>2015-06-30T07:28:17Z</time>
      </trkpt>
      <trkpt lat="46.6184" lon="6.11655">
        <ele>1128.24</ele>
        <time>2015-06-30T07:28:18Z</time>
      </trkpt>
      <trkpt lat="46.61855" lon="6.11615">
        <ele>1127.28</ele>
        <time>2015-06-30T07:28:28Z</time>
      </trkpt>
      <trkpt lat="46.61863" lon="6.11568">
        <ele>1128.24</ele>
        <time>2015-06-30T07:28:38Z</time>
      </trkpt>
      <trkpt lat="46.61868" lon="6.11539">
        <ele>1127.28</ele>
        <time>2015-06-30T07:28:45Z</time>
      </trkpt>
      <trkpt lat="46.61869" lon="6.11537">
        <ele>1128.24</ele>
        <time>2015-06-30T07:28:46Z</time>
      </trkpt>
      <trkpt lat="46.6187" lon="6.11535">
        <ele>1127.76</ele>
        <time>2015-06-30T07:28:47Z</time>
      </trkpt>
      <trkpt lat="46.6187" lon="6.11533">
        <ele>1127.76</ele>
        <time>2015-06-30T07:28:48Z</time>
      </trkpt>
      <trkpt lat="46.61874" lon="6.11525">
        <ele>1127.76</ele>
        <time>2015-06-30T07:28:52Z</time>
      </trkpt>
      <trkpt lat="46.61876" lon="6.11524">
        <ele>1127.76</ele>
        <time>2015-06-30T07:28:53Z</time>
      </trkpt>
      <trkpt lat="46.61875" lon="6.1152">
        <ele>1127.28</ele>
        <time>2015-06-30T07:28:54Z</time>
      </trkpt>
      <trkpt lat="46.61876" lon="6.11519">
        <ele>1127.28</ele>
        <time>2015-06-30T07:28:55Z</time>
      </trkpt>
      <trkpt lat="46.61877" lon="6.11519">
        <ele>1127.76</ele>
        <time>2015-06-30T07:28:56Z</time>
      </trkpt>
      <trkpt lat="46.61879" lon="6.11519">
        <ele>1128.24</ele>
        <time>2015-06-30T07:28:57Z</time>
      </trkpt>
      <trkpt lat="46.6188" lon="6.11519">
        <ele>1127.76</ele>
        <time>2015-06-30T07:28:58Z</time>
      </trkpt>
      <trkpt lat="46.61883" lon="6.11519">
        <ele>1128.24</ele>
        <time>2015-06-30T07:28:59Z</time>
      </trkpt>
      <trkpt lat="46.61902" lon="6.11523">
        <ele>1129.69</ele>
        <time>2015-06-30T07:29:08Z</time>
      </trkpt>
      <trkpt lat="46.61923" lon="6.11528">
        <ele>1130.17</ele>
        <time>2015-06-30T07:29:18Z</time>
      </trkpt>
      <trkpt lat="46.61949" lon="6.11538">
        <ele>1131.13</ele>
        <time>2015-06-30T07:29:28Z</time>
      </trkpt>
      <trkpt lat="46.61969" lon="6.11546">
        <ele>1131.13</ele>
        <time>2015-06-30T07:29:38Z</time>
      </trkpt>
      <trkpt lat="46.61988" lon="6.11593">
        <ele>1130.65</ele>
        <time>2015-06-30T07:29:49Z</time>
      </trkpt>
      <trkpt lat="46.61995" lon="6.11602">
        <ele>1131.13</ele>
        <time>2015-06-30T07:29:52Z</time>
      </trkpt>
      <trkpt lat="46.61997" lon="6.11605">
        <ele>1131.13</ele>
        <time>2015-06-30T07:29:53Z</time>
      </trkpt>
      <trkpt lat="46.61999" lon="6.11608">
        <ele>1131.13</ele>
        <time>2015-06-30T07:29:54Z</time>
      </trkpt>
      <trkpt lat="46.62" lon="6.1161">
        <ele>1131.13</ele>
        <time>2015-06-30T07:29:55Z</time>
      </trkpt>
      <trkpt lat="46.62002" lon="6.11612">
        <ele>1131.61</ele>
        <time>2015-06-30T07:29:56Z</time>
      </trkpt>
      <trkpt lat="46.6201" lon="6.11624">
        <ele>1134.01</ele>
        <time>2015-06-30T07:30:03Z</time>
      </trkpt>
      <trkpt lat="46.62011" lon="6.11626">
        <ele>1134.01</ele>
        <time>2015-06-30T07:30:04Z</time>
      </trkpt>
      <trkpt lat="46.62015" lon="6.11631">
        <ele>1134.97</ele>
        <time>2015-06-30T07:30:14Z</time>
      </trkpt>
      <trkpt lat="46.62016" lon="6.11639">
        <ele>1136.9</ele>
        <time>2015-06-30T07:30:26Z</time>
      </trkpt>
      <trkpt lat="46.62019" lon="6.11649">
        <ele>1138.82</ele>
        <time>2015-06-30T07:30:37Z</time>
      </trkpt>
      <trkpt lat="46.62024" lon="6.11661">
        <ele>1140.26</ele>
        <time>2015-06-30T07:30:49Z</time>
      </trkpt>
      <trkpt lat="46.62029" lon="6.11669">
        <ele>1141.7</ele>
        <time>2015-06-30T07:31:01Z</time>
      </trkpt>
      <trkpt lat="46.62032" lon="6.11671">
        <ele>1141.22</ele>
        <time>2015-06-30T07:31:04Z</time>
      </trkpt>
      <trkpt lat="46.62034" lon="6.11672">
        <ele>1141.7</ele>
        <time>2015-06-30T07:31:05Z</time>
      </trkpt>
      <trkpt lat="46.62036" lon="6.11673">
        <ele>1141.7</ele>
        <time>2015-06-30T07:31:06Z</time>
      </trkpt>
      <trkpt lat="46.62037" lon="6.11674">
        <ele>1141.7</ele>
        <time>2015-06-30T07:31:07Z</time>
      </trkpt>
      <trkpt lat="46.62039" lon="6.11674">
        <ele>1141.22</ele>
        <time>2015-06-30T07:31:08Z</time>
      </trkpt>
      <trkpt lat="46.62041" lon="6.11674">
        <ele>1141.7</ele>
        <time>2015-06-30T07:31:09Z</time>
      </trkpt>
      <trkpt lat="46.62043" lon="6.11675">
        <ele>1141.22</ele>
        <time>2015-06-30T07:31:10Z</time>
      </trkpt>
      <trkpt lat="46.62045" lon="6.11676">
        <ele>1141.22</ele>
        <time>2015-06-30T07:31:11Z</time>
      </trkpt>
      <trkpt lat="46.62053" lon="6.11679">
        <ele>1141.22</ele>
        <time>2015-06-30T07:31:14Z</time>
      </trkpt>
      <trkpt lat="46.62071" lon="6.11697">
        <ele>1141.7</ele>
        <time>2015-06-30T07:31:26Z</time>
      </trkpt>
      <trkpt lat="46.62078" lon="6.11706">
        <ele>1143.14</ele>
        <time>2015-06-30T07:31:32Z</time>
      </trkpt>
      <trkpt lat="46.62079" lon="6.11708">
        <ele>1143.14</ele>
        <time>2015-06-30T07:31:33Z</time>
      </trkpt>
      <trkpt lat="46.62094" lon="6.11722">
        <ele>1144.59</ele>
        <time>2015-06-30T07:31:45Z</time>
      </trkpt>
      <trkpt lat="46.62096" lon="6.11723">
        <ele>1144.59</ele>
        <time>2015-06-30T07:31:46Z</time>
      </trkpt>
      <trkpt lat="46.62098" lon="6.11725">
        <ele>1145.07</ele>
        <time>2015-06-30T07:31:47Z</time>
      </trkpt>
      <trkpt lat="46.62099" lon="6.11726">
        <ele>1144.59</ele>
        <time>2015-06-30T07:31:48Z</time>
      </trkpt>
      <trkpt lat="46.621" lon="6.11727">
        <ele>1145.07</ele>
        <time>2015-06-30T07:31:49Z</time>
      </trkpt>
      <trkpt lat="46.62101" lon="6.11729">
        <ele>1145.55</ele>
        <time>2015-06-30T07:31:50Z</time>
      </trkpt>
      <trkpt lat="46.62103" lon="6.1173">
        <ele>1146.03</ele>
        <time>2015-06-30T07:31:51Z</time>
      </trkpt>
      <trkpt lat="46.62104" lon="6.11731">
        <ele>1146.03</ele>
        <time>2015-06-30T07:31:52Z</time>
      </trkpt>
      <trkpt lat="46.62105" lon="6.11733">
        <ele>1145.55</ele>
        <time>2015-06-30T07:31:53Z</time>
      </trkpt>
      <trkpt lat="46.62107" lon="6.11735">
        <ele>1146.51</ele>
        <time>2015-06-30T07:31:54Z</time>
      </trkpt>
      <trkpt lat="46.62109" lon="6.11736">
        <ele>1146.03</ele>
        <time>2015-06-30T07:31:55Z</time>
      </trkpt>
      <trkpt lat="46.6211" lon="6.11738">
        <ele>1146.03</ele>
        <time>2015-06-30T07:31:56Z</time>
      </trkpt>
      <trkpt lat="46.62112" lon="6.1174">
        <ele>1146.03</ele>
        <time>2015-06-30T07:31:57Z</time>
      </trkpt>
      <trkpt lat="46.62113" lon="6.11741">
        <ele>1146.03</ele>
        <time>2015-06-30T07:31:58Z</time>
      </trkpt>
      <trkpt lat="46.62115" lon="6.11743">
        <ele>1146.03</ele>
        <time>2015-06-30T07:31:59Z</time>
      </trkpt>
      <trkpt lat="46.62116" lon="6.11744">
        <ele>1146.51</ele>
        <time>2015-06-30T07:32:00Z</time>
      </trkpt>
      <trkpt lat="46.62118" lon="6.11746">
        <ele>1146.51</ele>
        <time>2015-06-30T07:32:01Z</time>
      </trkpt>
      <trkpt lat="46.62124" lon="6.1176">
        <ele>1148.91</ele>
        <time>2015-06-30T07:32:09Z</time>
      </trkpt>
      <trkpt lat="46.62126" lon="6.11762">
        <ele>1149.39</ele>
        <time>2015-06-30T07:32:10Z</time>
      </trkpt>
      <trkpt lat="46.62138" lon="6.11778">
        <ele>1150.84</ele>
        <time>2015-06-30T07:32:18Z</time>
      </trkpt>
      <trkpt lat="46.62139" lon="6.11779">
        <ele>1151.32</ele>
        <time>2015-06-30T07:32:19Z</time>
      </trkpt>
      <trkpt lat="46.6214" lon="6.11781">
        <ele>1151.32</ele>
        <time>2015-06-30T07:32:20Z</time>
      </trkpt>
      <trkpt lat="46.62141" lon="6.11782">
        <ele>1151.32</ele>
        <time>2015-06-30T07:32:21Z</time>
      </trkpt>
      <trkpt lat="46.62142" lon="6.11783">
        <ele>1150.84</ele>
        <time>2015-06-30T07:32:22Z</time>
      </trkpt>
      <trkpt lat="46.62151" lon="6.11791">
        <ele>1152.28</ele>
        <time>2015-06-30T07:32:29Z</time>
      </trkpt>
      <trkpt lat="46.62164" lon="6.11813">
        <ele>1154.68</ele>
        <time>2015-06-30T07:32:41Z</time>
      </trkpt>
      <trkpt lat="46.62184" lon="6.1184">
        <ele>1154.2</ele>
        <time>2015-06-30T07:32:54Z</time>
      </trkpt>
      <trkpt lat="46.62187" lon="6.1184">
        <ele>1154.2</ele>
        <time>2015-06-30T07:32:55Z</time>
      </trkpt>
      <trkpt lat="46.62189" lon="6.11841">
        <ele>1154.68</ele>
        <time>2015-06-30T07:32:56Z</time>
      </trkpt>
      <trkpt lat="46.62203" lon="6.11837">
        <ele>1156.6</ele>
        <time>2015-06-30T07:33:06Z</time>
      </trkpt>
      <trkpt lat="46.62209" lon="6.11831">
        <ele>1158.05</ele>
        <time>2015-06-30T07:33:19Z</time>
      </trkpt>
      <trkpt lat="46.62215" lon="6.11826">
        <ele>1160.45</ele>
        <time>2015-06-30T07:33:34Z</time>
      </trkpt>
      <trkpt lat="46.62223" lon="6.11821">
        <ele>1160.45</ele>
        <time>2015-06-30T07:33:46Z</time>
      </trkpt>
      <trkpt lat="46.6224" lon="6.11809">
        <ele>1160.45</ele>
        <time>2015-06-30T07:33:58Z</time>
      </trkpt>
      <trkpt lat="46.6226" lon="6.11774">
        <ele>1160.45</ele>
        <time>2015-06-30T07:34:09Z</time>
      </trkpt>
      <trkpt lat="46.62289" lon="6.11758">
        <ele>1159.01</ele>
        <time>2015-06-30T07:34:17Z</time>
      </trkpt>
      <trkpt lat="46.62302" lon="6.11755">
        <ele>1158.05</ele>
        <time>2015-06-30T07:34:19Z</time>
      </trkpt>
      <trkpt lat="46.62314" lon="6.11754">
        <ele>1158.05</ele>
        <time>2015-06-30T07:34:21Z</time>
      </trkpt>
      <trkpt lat="46.62325" lon="6.11756">
        <ele>1158.53</ele>
        <time>2015-06-30T07:34:23Z</time>
      </trkpt>
      <trkpt lat="46.6233" lon="6.11758">
        <ele>1159.01</ele>
        <time>2015-06-30T07:34:24Z</time>
      </trkpt>
      <trkpt lat="46.62333" lon="6.11761">
        <ele>1159.97</ele>
        <time>2015-06-30T07:34:25Z</time>
      </trkpt>
      <trkpt lat="46.62335" lon="6.11764">
        <ele>1160.45</ele>
        <time>2015-06-30T07:34:26Z</time>
      </trkpt>
      <trkpt lat="46.62337" lon="6.11767">
        <ele>1160.45</ele>
        <time>2015-06-30T07:34:27Z</time>
      </trkpt>
      <trkpt lat="46.62338" lon="6.11772">
        <ele>1160.45</ele>
        <time>2015-06-30T07:34:28Z</time>
      </trkpt>
      <trkpt lat="46.62339" lon="6.11777">
        <ele>1160.45</ele>
        <time>2015-06-30T07:34:29Z</time>
      </trkpt>
      <trkpt lat="46.62339" lon="6.11781">
        <ele>1161.41</ele>
        <time>2015-06-30T07:34:30Z</time>
      </trkpt>
      <trkpt lat="46.62339" lon="6.11788">
        <ele>1162.37</ele>
        <time>2015-06-30T07:34:32Z</time>
      </trkpt>
      <trkpt lat="46.62342" lon="6.118">
        <ele>1162.37</ele>
        <time>2015-06-30T07:34:35Z</time>
      </trkpt>
      <trkpt lat="46.62345" lon="6.11805">
        <ele>1161.89</ele>
        <time>2015-06-30T07:34:36Z</time>
      </trkpt>
      <trkpt lat="46.62348" lon="6.11809">
        <ele>1162.37</ele>
        <time>2015-06-30T07:34:37Z</time>
      </trkpt>
      <trkpt lat="46.62351" lon="6.11813">
        <ele>1162.85</ele>
        <time>2015-06-30T07:34:38Z</time>
      </trkpt>
      <trkpt lat="46.62353" lon="6.11815">
        <ele>1163.33</ele>
        <time>2015-06-30T07:34:39Z</time>
      </trkpt>
      <trkpt lat="46.62355" lon="6.11816">
        <ele>1163.33</ele>
        <time>2015-06-30T07:34:40Z</time>
      </trkpt>
      <trkpt lat="46.62357" lon="6.11816">
        <ele>1163.81</ele>
        <time>2015-06-30T07:34:41Z</time>
      </trkpt>
      <trkpt lat="46.62359" lon="6.11817">
        <ele>1163.81</ele>
        <time>2015-06-30T07:34:42Z</time>
      </trkpt>
      <trkpt lat="46.62361" lon="6.11818">
        <ele>1163.81</ele>
        <time>2015-06-30T07:34:43Z</time>
      </trkpt>
      <trkpt lat="46.62382" lon="6.11825">
        <ele>1164.77</ele>
        <time>2015-06-30T07:34:55Z</time>
      </trkpt>
      <trkpt lat="46.6239" lon="6.11825">
        <ele>1163.81</ele>
        <time>2015-06-30T07:34:57Z</time>
      </trkpt>
      <trkpt lat="46.62393" lon="6.11823">
        <ele>1163.33</ele>
        <time>2015-06-30T07:34:58Z</time>
      </trkpt>
      <trkpt lat="46.62405" lon="6.11814">
        <ele>1161.41</ele>
        <time>2015-06-30T07:35:01Z</time>
      </trkpt>
      <trkpt lat="46.62415" lon="6.11802">
        <ele>1159.97</ele>
        <time>2015-06-30T07:35:04Z</time>
      </trkpt>
      <trkpt lat="46.62419" lon="6.11797">
        <ele>1159.01</ele>
        <time>2015-06-30T07:35:05Z</time>
      </trkpt>
      <trkpt lat="46.62421" lon="6.11791">
        <ele>1158.53</ele>
        <time>2015-06-30T07:35:06Z</time>
      </trkpt>
      <trkpt lat="46.62422" lon="6.11785">
        <ele>1158.05</ele>
        <time>2015-06-30T07:35:07Z</time>
      </trkpt>
      <trkpt lat="46.62423" lon="6.1178">
        <ele>1157.56</ele>
        <time>2015-06-30T07:35:08Z</time>
      </trkpt>
      <trkpt lat="46.62425" lon="6.11774">
        <ele>1156.6</ele>
        <time>2015-06-30T07:35:09Z</time>
      </trkpt>
      <trkpt lat="46.62424" lon="6.11767">
        <ele>1156.12</ele>
        <time>2015-06-30T07:35:10Z</time>
      </trkpt>
      <trkpt lat="46.62423" lon="6.1176">
        <ele>1155.64</ele>
        <time>2015-06-30T07:35:11Z</time>
      </trkpt>
      <trkpt lat="46.62415" lon="6.1173">
        <ele>1153.72</ele>
        <time>2015-06-30T07:35:15Z</time>
      </trkpt>
      <trkpt lat="46.62412" lon="6.11718">
        <ele>1152.28</ele>
        <time>2015-06-30T07:35:17Z</time>
      </trkpt>
      <trkpt lat="46.62409" lon="6.11706">
        <ele>1150.84</ele>
        <time>2015-06-30T07:35:19Z</time>
      </trkpt>
      <trkpt lat="46.62406" lon="6.11689">
        <ele>1149.39</ele>
        <time>2015-06-30T07:35:22Z</time>
      </trkpt>
      <trkpt lat="46.62407" lon="6.11677">
        <ele>1147.47</ele>
        <time>2015-06-30T07:35:24Z</time>
      </trkpt>
      <trkpt lat="46.62407" lon="6.1167">
        <ele>1146.03</ele>
        <time>2015-06-30T07:35:25Z</time>
      </trkpt>
      <trkpt lat="46.62407" lon="6.11664">
        <ele>1145.07</ele>
        <time>2015-06-30T07:35:26Z</time>
      </trkpt>
      <trkpt lat="46.62408" lon="6.11658">
        <ele>1144.59</ele>
        <time>2015-06-30T07:35:27Z</time>
      </trkpt>
      <trkpt lat="46.62408" lon="6.11653">
        <ele>1145.07</ele>
        <time>2015-06-30T07:35:28Z</time>
      </trkpt>
      <trkpt lat="46.62414" lon="6.11625">
        <ele>1142.18</ele>
        <time>2015-06-30T07:35:33Z</time>
      </trkpt>
      <trkpt lat="46.62414" lon="6.11619">
        <ele>1141.7</ele>
        <time>2015-06-30T07:35:34Z</time>
      </trkpt>
      <trkpt lat="46.62414" lon="6.11612">
        <ele>1140.74</ele>
        <time>2015-06-30T07:35:35Z</time>
      </trkpt>
      <trkpt lat="46.62415" lon="6.11605">
        <ele>1140.74</ele>
        <time>2015-06-30T07:35:36Z</time>
      </trkpt>
      <trkpt lat="46.62414" lon="6.11599">
        <ele>1139.78</ele>
        <time>2015-06-30T07:35:37Z</time>
      </trkpt>
      <trkpt lat="46.62414" lon="6.11594">
        <ele>1139.3</ele>
        <time>2015-06-30T07:35:38Z</time>
      </trkpt>
      <trkpt lat="46.62414" lon="6.1159">
        <ele>1139.3</ele>
        <time>2015-06-30T07:35:39Z</time>
      </trkpt>
      <trkpt lat="46.62413" lon="6.11561">
        <ele>1137.38</ele>
        <time>2015-06-30T07:35:44Z</time>
      </trkpt>
      <trkpt lat="46.62403" lon="6.11517">
        <ele>1134.01</ele>
        <time>2015-06-30T07:35:51Z</time>
      </trkpt>
      <trkpt lat="46.624" lon="6.11511">
        <ele>1133.53</ele>
        <time>2015-06-30T07:35:52Z</time>
      </trkpt>
      <trkpt lat="46.62393" lon="6.11489">
        <ele>1131.61</ele>
        <time>2015-06-30T07:35:55Z</time>
      </trkpt>
      <trkpt lat="46.62392" lon="6.11481">
        <ele>1131.13</ele>
        <time>2015-06-30T07:35:56Z</time>
      </trkpt>
      <trkpt lat="46.62392" lon="6.11472">
        <ele>1130.65</ele>
        <time>2015-06-30T07:35:57Z</time>
      </trkpt>
      <trkpt lat="46.62389" lon="6.11444">
        <ele>1130.65</ele>
        <time>2015-06-30T07:36:00Z</time>
      </trkpt>
      <trkpt lat="46.6238" lon="6.11377">
        <ele>1130.17</ele>
        <time>2015-06-30T07:36:07Z</time>
      </trkpt>
      <trkpt lat="46.62377" lon="6.1136">
        <ele>1130.65</ele>
        <time>2015-06-30T07:36:09Z</time>
      </trkpt>
      <trkpt lat="46.62375" lon="6.11342">
        <ele>1131.13</ele>
        <time>2015-06-30T07:36:11Z</time>
      </trkpt>
      <trkpt lat="46.62368" lon="6.11302">
        <ele>1130.65</ele>
        <time>2015-06-30T07:36:18Z</time>
      </trkpt>
      <trkpt lat="46.62368" lon="6.11299">
        <ele>1130.65</ele>
        <time>2015-06-30T07:36:19Z</time>
      </trkpt>
      <trkpt lat="46.62369" lon="6.11297">
        <ele>1131.13</ele>
        <time>2015-06-30T07:36:20Z</time>
      </trkpt>
      <trkpt lat="46.6237" lon="6.11295">
        <ele>1131.13</ele>
        <time>2015-06-30T07:36:21Z</time>
      </trkpt>
      <trkpt lat="46.6237" lon="6.11291">
        <ele>1131.13</ele>
        <time>2015-06-30T07:36:22Z</time>
      </trkpt>
      <trkpt lat="46.6237" lon="6.11288">
        <ele>1131.13</ele>
        <time>2015-06-30T07:36:23Z</time>
      </trkpt>
      <trkpt lat="46.62372" lon="6.11287">
        <ele>1130.65</ele>
        <time>2015-06-30T07:36:24Z</time>
      </trkpt>
      <trkpt lat="46.62397" lon="6.11286">
        <ele>1132.09</ele>
        <time>2015-06-30T07:36:37Z</time>
      </trkpt>
      <trkpt lat="46.62431" lon="6.11283">
        <ele>1134.01</ele>
        <time>2015-06-30T07:36:51Z</time>
      </trkpt>
      <trkpt lat="46.62474" lon="6.11288">
        <ele>1134.49</ele>
        <time>2015-06-30T07:37:05Z</time>
      </trkpt>
      <trkpt lat="46.62518" lon="6.1129">
        <ele>1135.45</ele>
        <time>2015-06-30T07:37:19Z</time>
      </trkpt>
      <trkpt lat="46.62545" lon="6.11295">
        <ele>1136.42</ele>
        <time>2015-06-30T07:37:30Z</time>
      </trkpt>
      <trkpt lat="46.62595" lon="6.11316">
        <ele>1137.38</ele>
        <time>2015-06-30T07:37:45Z</time>
      </trkpt>
      <trkpt lat="46.62631" lon="6.11317">
        <ele>1137.86</ele>
        <time>2015-06-30T07:37:57Z</time>
      </trkpt>
      <trkpt lat="46.6266" lon="6.11307">
        <ele>1138.34</ele>
        <time>2015-06-30T07:38:10Z</time>
      </trkpt>
      <trkpt lat="46.62665" lon="6.11301">
        <ele>1137.86</ele>
        <time>2015-06-30T07:38:11Z</time>
      </trkpt>
      <trkpt lat="46.62668" lon="6.11298">
        <ele>1138.82</ele>
        <time>2015-06-30T07:38:12Z</time>
      </trkpt>
      <trkpt lat="46.62677" lon="6.11297">
        <ele>1138.82</ele>
        <time>2015-06-30T07:38:16Z</time>
      </trkpt>
      <trkpt lat="46.62678" lon="6.11298">
        <ele>1140.26</ele>
        <time>2015-06-30T07:38:19Z</time>
      </trkpt>
      <trkpt lat="46.62683" lon="6.11298">
        <ele>1140.74</ele>
        <time>2015-06-30T07:38:22Z</time>
      </trkpt>
      <trkpt lat="46.62684" lon="6.11298">
        <ele>1140.74</ele>
        <time>2015-06-30T07:38:23Z</time>
      </trkpt>
      <trkpt lat="46.62694" lon="6.11296">
        <ele>1142.18</ele>
        <time>2015-06-30T07:38:28Z</time>
      </trkpt>
      <trkpt lat="46.62695" lon="6.11296">
        <ele>1142.66</ele>
        <time>2015-06-30T07:38:29Z</time>
      </trkpt>
      <trkpt lat="46.62697" lon="6.11297">
        <ele>1142.18</ele>
        <time>2015-06-30T07:38:30Z</time>
      </trkpt>
      <trkpt lat="46.62699" lon="6.11298">
        <ele>1142.66</ele>
        <time>2015-06-30T07:38:31Z</time>
      </trkpt>
      <trkpt lat="46.62705" lon="6.11302">
        <ele>1144.11</ele>
        <time>2015-06-30T07:38:36Z</time>
      </trkpt>
      <trkpt lat="46.6271" lon="6.11305">
        <ele>1146.03</ele>
        <time>2015-06-30T07:38:48Z</time>
      </trkpt>
      <trkpt lat="46.62714" lon="6.11305">
        <ele>1147.47</ele>
        <time>2015-06-30T07:39:01Z</time>
      </trkpt>
      <trkpt lat="46.62721" lon="6.11311">
        <ele>1148.91</ele>
        <time>2015-06-30T07:39:11Z</time>
      </trkpt>
      <trkpt lat="46.62743" lon="6.11327">
        <ele>1150.84</ele>
        <time>2015-06-30T07:39:22Z</time>
      </trkpt>
      <trkpt lat="46.62746" lon="6.11329">
        <ele>1150.84</ele>
        <time>2015-06-30T07:39:25Z</time>
      </trkpt>
      <trkpt lat="46.62756" lon="6.11338">
        <ele>1151.32</ele>
        <time>2015-06-30T07:39:37Z</time>
      </trkpt>
      <trkpt lat="46.62761" lon="6.11344">
        <ele>1152.28</ele>
        <time>2015-06-30T07:39:42Z</time>
      </trkpt>
      <trkpt lat="46.62762" lon="6.11347">
        <ele>1151.8</ele>
        <time>2015-06-30T07:39:44Z</time>
      </trkpt>
      <trkpt lat="46.62779" lon="6.11372">
        <ele>1150.35</ele>
        <time>2015-06-30T07:39:55Z</time>
      </trkpt>
      <trkpt lat="46.62794" lon="6.11386">
        <ele>1148.91</ele>
        <time>2015-06-30T07:39:58Z</time>
      </trkpt>
      <trkpt lat="46.62797" lon="6.11392">
        <ele>1148.91</ele>
        <time>2015-06-30T07:39:59Z</time>
      </trkpt>
      <trkpt lat="46.628" lon="6.11399">
        <ele>1148.91</ele>
        <time>2015-06-30T07:40:00Z</time>
      </trkpt>
      <trkpt lat="46.62801" lon="6.11405">
        <ele>1149.87</ele>
        <time>2015-06-30T07:40:01Z</time>
      </trkpt>
      <trkpt lat="46.62802" lon="6.1141">
        <ele>1149.87</ele>
        <time>2015-06-30T07:40:02Z</time>
      </trkpt>
      <trkpt lat="46.62803" lon="6.11413">
        <ele>1149.87</ele>
        <time>2015-06-30T07:40:03Z</time>
      </trkpt>
      <trkpt lat="46.62803" lon="6.11415">
        <ele>1150.35</ele>
        <time>2015-06-30T07:40:04Z</time>
      </trkpt>
      <trkpt lat="46.62803" lon="6.11417">
        <ele>1150.84</ele>
        <time>2015-06-30T07:40:05Z</time>
      </trkpt>
      <trkpt lat="46.62802" lon="6.11419">
        <ele>1150.84</ele>
        <time>2015-06-30T07:40:06Z</time>
      </trkpt>
      <trkpt lat="46.62801" lon="6.11422">
        <ele>1150.84</ele>
        <time>2015-06-30T07:40:07Z</time>
      </trkpt>
      <trkpt lat="46.628" lon="6.11424">
        <ele>1150.35</ele>
        <time>2015-06-30T07:40:08Z</time>
      </trkpt>
      <trkpt lat="46.628" lon="6.11427">
        <ele>1151.32</ele>
        <time>2015-06-30T07:40:09Z</time>
      </trkpt>
      <trkpt lat="46.62799" lon="6.1143">
        <ele>1150.84</ele>
        <time>2015-06-30T07:40:10Z</time>
      </trkpt>
      <trkpt lat="46.62798" lon="6.11433">
        <ele>1150.84</ele>
        <time>2015-06-30T07:40:11Z</time>
      </trkpt>
      <trkpt lat="46.62797" lon="6.11436">
        <ele>1150.84</ele>
        <time>2015-06-30T07:40:12Z</time>
      </trkpt>
      <trkpt lat="46.62797" lon="6.11439">
        <ele>1151.32</ele>
        <time>2015-06-30T07:40:13Z</time>
      </trkpt>
      <trkpt lat="46.62797" lon="6.11443">
        <ele>1151.32</ele>
        <time>2015-06-30T07:40:14Z</time>
      </trkpt>
      <trkpt lat="46.62797" lon="6.11447">
        <ele>1151.32</ele>
        <time>2015-06-30T07:40:15Z</time>
      </trkpt>
      <trkpt lat="46.62795" lon="6.11485">
        <ele>1151.32</ele>
        <time>2015-06-30T07:40:26Z</time>
      </trkpt>
      <trkpt lat="46.62797" lon="6.11517">
        <ele>1152.28</ele>
        <time>2015-06-30T07:40:34Z</time>
      </trkpt>
      <trkpt lat="46.62797" lon="6.1152">
        <ele>1151.8</ele>
        <time>2015-06-30T07:40:35Z</time>
      </trkpt>
      <trkpt lat="46.62797" lon="6.11527">
        <ele>1152.76</ele>
        <time>2015-06-30T07:40:38Z</time>
      </trkpt>
      <trkpt lat="46.628" lon="6.11531">
        <ele>1153.24</ele>
        <time>2015-06-30T07:40:39Z</time>
      </trkpt>
      <trkpt lat="46.62801" lon="6.11534">
        <ele>1152.76</ele>
        <time>2015-06-30T07:40:40Z</time>
      </trkpt>
      <trkpt lat="46.62802" lon="6.11537">
        <ele>1153.72</ele>
        <time>2015-06-30T07:40:41Z</time>
      </trkpt>
      <trkpt lat="46.62804" lon="6.1154">
        <ele>1153.72</ele>
        <time>2015-06-30T07:40:42Z</time>
      </trkpt>
      <trkpt lat="46.62807" lon="6.11551">
        <ele>1154.68</ele>
        <time>2015-06-30T07:40:46Z</time>
      </trkpt>
      <trkpt lat="46.62808" lon="6.11553">
        <ele>1155.64</ele>
        <time>2015-06-30T07:40:47Z</time>
      </trkpt>
      <trkpt lat="46.62808" lon="6.11556">
        <ele>1155.16</ele>
        <time>2015-06-30T07:40:48Z</time>
      </trkpt>
      <trkpt lat="46.62809" lon="6.11559">
        <ele>1155.64</ele>
        <time>2015-06-30T07:40:49Z</time>
      </trkpt>
      <trkpt lat="46.6281" lon="6.11563">
        <ele>1155.64</ele>
        <time>2015-06-30T07:40:50Z</time>
      </trkpt>
      <trkpt lat="46.6282" lon="6.1159">
        <ele>1156.6</ele>
        <time>2015-06-30T07:41:01Z</time>
      </trkpt>
      <trkpt lat="46.62832" lon="6.11628">
        <ele>1157.08</ele>
        <time>2015-06-30T07:41:12Z</time>
      </trkpt>
      <trkpt lat="46.62833" lon="6.11666">
        <ele>1158.53</ele>
        <time>2015-06-30T07:41:24Z</time>
      </trkpt>
      <trkpt lat="46.62833" lon="6.11677">
        <ele>1159.01</ele>
        <time>2015-06-30T07:41:27Z</time>
      </trkpt>
      <trkpt lat="46.62835" lon="6.11681">
        <ele>1159.01</ele>
        <time>2015-06-30T07:41:28Z</time>
      </trkpt>
      <trkpt lat="46.62849" lon="6.11709">
        <ele>1159.01</ele>
        <time>2015-06-30T07:41:38Z</time>
      </trkpt>
      <trkpt lat="46.62861" lon="6.1174">
        <ele>1159.01</ele>
        <time>2015-06-30T07:41:50Z</time>
      </trkpt>
      <trkpt lat="46.62862" lon="6.11742">
        <ele>1159.97</ele>
        <time>2015-06-30T07:41:51Z</time>
      </trkpt>
      <trkpt lat="46.6286" lon="6.11745">
        <ele>1159.01</ele>
        <time>2015-06-30T07:42:01Z</time>
      </trkpt>
      <trkpt lat="46.62856" lon="6.11753">
        <ele>1159.49</ele>
        <time>2015-06-30T07:42:13Z</time>
      </trkpt>
      <trkpt lat="46.62853" lon="6.11767">
        <ele>1159.97</ele>
        <time>2015-06-30T07:42:25Z</time>
      </trkpt>
      <trkpt lat="46.62853" lon="6.1177">
        <ele>1159.97</ele>
        <time>2015-06-30T07:42:51Z</time>
      </trkpt>
      <trkpt lat="46.62844" lon="6.11778">
        <ele>1159.97</ele>
        <time>2015-06-30T07:42:58Z</time>
      </trkpt>
      <trkpt lat="46.6284" lon="6.11786">
        <ele>1159.97</ele>
        <time>2015-06-30T07:43:01Z</time>
      </trkpt>
      <trkpt lat="46.62837" lon="6.11807">
        <ele>1160.93</ele>
        <time>2015-06-30T07:43:07Z</time>
      </trkpt>
      <trkpt lat="46.62827" lon="6.11845">
        <ele>1160.93</ele>
        <time>2015-06-30T07:43:18Z</time>
      </trkpt>
      <trkpt lat="46.6283" lon="6.11878">
        <ele>1162.85</ele>
        <time>2015-06-30T07:43:24Z</time>
      </trkpt>
      <trkpt lat="46.62827" lon="6.11894">
        <ele>1164.77</ele>
        <time>2015-06-30T07:43:29Z</time>
      </trkpt>
      <trkpt lat="46.62829" lon="6.11905">
        <ele>1165.26</ele>
        <time>2015-06-30T07:43:32Z</time>
      </trkpt>
      <trkpt lat="46.62832" lon="6.1193">
        <ele>1165.74</ele>
        <time>2015-06-30T07:43:37Z</time>
      </trkpt>
      <trkpt lat="46.62835" lon="6.11953">
        <ele>1166.7</ele>
        <time>2015-06-30T07:43:44Z</time>
      </trkpt>
      <trkpt lat="46.62843" lon="6.11971">
        <ele>1166.7</ele>
        <time>2015-06-30T07:43:50Z</time>
      </trkpt>
      <trkpt lat="46.62849" lon="6.11994">
        <ele>1167.66</ele>
        <time>2015-06-30T07:43:58Z</time>
      </trkpt>
      <trkpt lat="46.62848" lon="6.12004">
        <ele>1168.62</ele>
        <time>2015-06-30T07:44:02Z</time>
      </trkpt>
      <trkpt lat="46.62851" lon="6.12011">
        <ele>1168.62</ele>
        <time>2015-06-30T07:44:05Z</time>
      </trkpt>
      <trkpt lat="46.62847" lon="6.12021">
        <ele>1170.06</ele>
        <time>2015-06-30T07:44:11Z</time>
      </trkpt>
      <trkpt lat="46.62845" lon="6.12034">
        <ele>1171.5</ele>
        <time>2015-06-30T07:44:18Z</time>
      </trkpt>
      <trkpt lat="46.62842" lon="6.12051">
        <ele>1172.95</ele>
        <time>2015-06-30T07:44:28Z</time>
      </trkpt>
      <trkpt lat="46.62842" lon="6.12062">
        <ele>1173.91</ele>
        <time>2015-06-30T07:44:41Z</time>
      </trkpt>
      <trkpt lat="46.62843" lon="6.12069">
        <ele>1174.87</ele>
        <time>2015-06-30T07:44:46Z</time>
      </trkpt>
      <trkpt lat="46.62854" lon="6.12081">
        <ele>1175.83</ele>
        <time>2015-06-30T07:44:59Z</time>
      </trkpt>
      <trkpt lat="46.6286" lon="6.12087">
        <ele>1176.79</ele>
        <time>2015-06-30T07:45:12Z</time>
      </trkpt>
      <trkpt lat="46.62861" lon="6.12088">
        <ele>1176.31</ele>
        <time>2015-06-30T07:45:19Z</time>
      </trkpt>
      <trkpt lat="46.62877" lon="6.12098">
        <ele>1175.83</ele>
        <time>2015-06-30T07:45:25Z</time>
      </trkpt>
      <trkpt lat="46.62889" lon="6.12114">
        <ele>1176.79</ele>
        <time>2015-06-30T07:45:32Z</time>
      </trkpt>
      <trkpt lat="46.62896" lon="6.12142">
        <ele>1178.23</ele>
        <time>2015-06-30T07:45:43Z</time>
      </trkpt>
      <trkpt lat="46.62903" lon="6.12172">
        <ele>1179.67</ele>
        <time>2015-06-30T07:45:54Z</time>
      </trkpt>
      <trkpt lat="46.6291" lon="6.12188">
        <ele>1180.16</ele>
        <time>2015-06-30T07:46:00Z</time>
      </trkpt>
      <trkpt lat="46.62916" lon="6.122">
        <ele>1180.16</ele>
        <time>2015-06-30T07:46:05Z</time>
      </trkpt>
      <trkpt lat="46.62932" lon="6.12232">
        <ele>1180.64</ele>
        <time>2015-06-30T07:46:16Z</time>
      </trkpt>
      <trkpt lat="46.6295" lon="6.12252">
        <ele>1180.64</ele>
        <time>2015-06-30T07:46:26Z</time>
      </trkpt>
      <trkpt lat="46.62956" lon="6.1227">
        <ele>1181.12</ele>
        <time>2015-06-30T07:46:38Z</time>
      </trkpt>
      <trkpt lat="46.62955" lon="6.12278">
        <ele>1181.6</ele>
        <time>2015-06-30T07:46:41Z</time>
      </trkpt>
      <trkpt lat="46.62958" lon="6.12286">
        <ele>1181.12</ele>
        <time>2015-06-30T07:46:44Z</time>
      </trkpt>
      <trkpt lat="46.62961" lon="6.12324">
        <ele>1181.6</ele>
        <time>2015-06-30T07:46:56Z</time>
      </trkpt>
      <trkpt lat="46.62966" lon="6.1234">
        <ele>1182.08</ele>
        <time>2015-06-30T07:47:02Z</time>
      </trkpt>
      <trkpt lat="46.62968" lon="6.12349">
        <ele>1182.08</ele>
        <time>2015-06-30T07:47:06Z</time>
      </trkpt>
      <trkpt lat="46.62971" lon="6.1236">
        <ele>1183.04</ele>
        <time>2015-06-30T07:47:11Z</time>
      </trkpt>
      <trkpt lat="46.62976" lon="6.12392">
        <ele>1184</ele>
        <time>2015-06-30T07:47:24Z</time>
      </trkpt>
      <trkpt lat="46.62978" lon="6.12397">
        <ele>1184</ele>
        <time>2015-06-30T07:47:26Z</time>
      </trkpt>
      <trkpt lat="46.62986" lon="6.12422">
        <ele>1184.96</ele>
        <time>2015-06-30T07:47:37Z</time>
      </trkpt>
      <trkpt lat="46.62988" lon="6.12428">
        <ele>1185.92</ele>
        <time>2015-06-30T07:47:40Z</time>
      </trkpt>
      <trkpt lat="46.63005" lon="6.12446">
        <ele>1186.88</ele>
        <time>2015-06-30T07:47:52Z</time>
      </trkpt>
      <trkpt lat="46.63033" lon="6.12452">
        <ele>1186.4</ele>
        <time>2015-06-30T07:48:02Z</time>
      </trkpt>
      <trkpt lat="46.63056" lon="6.12458">
        <ele>1186.4</ele>
        <time>2015-06-30T07:48:11Z</time>
      </trkpt>
      <trkpt lat="46.63057" lon="6.1246">
        <ele>1186.88</ele>
        <time>2015-06-30T07:48:13Z</time>
      </trkpt>
      <trkpt lat="46.63068" lon="6.12462">
        <ele>1187.37</ele>
        <time>2015-06-30T07:48:18Z</time>
      </trkpt>
      <trkpt lat="46.6308" lon="6.12467">
        <ele>1187.85</ele>
        <time>2015-06-30T07:48:23Z</time>
      </trkpt>
      <trkpt lat="46.63099" lon="6.12478">
        <ele>1189.29</ele>
        <time>2015-06-30T07:48:31Z</time>
      </trkpt>
      <trkpt lat="46.63125" lon="6.125">
        <ele>1188.81</ele>
        <time>2015-06-30T07:48:40Z</time>
      </trkpt>
      <trkpt lat="46.63129" lon="6.12504">
        <ele>1188.33</ele>
        <time>2015-06-30T07:48:41Z</time>
      </trkpt>
      <trkpt lat="46.63149" lon="6.12538">
        <ele>1185.92</ele>
        <time>2015-06-30T07:48:48Z</time>
      </trkpt>
      <trkpt lat="46.63152" lon="6.12544">
        <ele>1185.92</ele>
        <time>2015-06-30T07:48:49Z</time>
      </trkpt>
      <trkpt lat="46.63155" lon="6.12551">
        <ele>1185.44</ele>
        <time>2015-06-30T07:48:50Z</time>
      </trkpt>
      <trkpt lat="46.63156" lon="6.12558">
        <ele>1184.96</ele>
        <time>2015-06-30T07:48:51Z</time>
      </trkpt>
      <trkpt lat="46.63159" lon="6.12564">
        <ele>1184.48</ele>
        <time>2015-06-30T07:48:52Z</time>
      </trkpt>
      <trkpt lat="46.63162" lon="6.12569">
        <ele>1184.96</ele>
        <time>2015-06-30T07:48:53Z</time>
      </trkpt>
      <trkpt lat="46.63165" lon="6.12574">
        <ele>1184.96</ele>
        <time>2015-06-30T07:48:54Z</time>
      </trkpt>
      <trkpt lat="46.63169" lon="6.12579">
        <ele>1184.48</ele>
        <time>2015-06-30T07:48:55Z</time>
      </trkpt>
      <trkpt lat="46.63175" lon="6.12592">
        <ele>1183.52</ele>
        <time>2015-06-30T07:48:57Z</time>
      </trkpt>
      <trkpt lat="46.63178" lon="6.12599">
        <ele>1183.52</ele>
        <time>2015-06-30T07:48:58Z</time>
      </trkpt>
      <trkpt lat="46.63186" lon="6.12624">
        <ele>1182.56</ele>
        <time>2015-06-30T07:49:02Z</time>
      </trkpt>
      <trkpt lat="46.63189" lon="6.12629">
        <ele>1182.56</ele>
        <time>2015-06-30T07:49:03Z</time>
      </trkpt>
      <trkpt lat="46.63192" lon="6.12634">
        <ele>1181.6</ele>
        <time>2015-06-30T07:49:04Z</time>
      </trkpt>
      <trkpt lat="46.63195" lon="6.12638">
        <ele>1182.08</ele>
        <time>2015-06-30T07:49:05Z</time>
      </trkpt>
      <trkpt lat="46.63198" lon="6.12644">
        <ele>1182.08</ele>
        <time>2015-06-30T07:49:06Z</time>
      </trkpt>
      <trkpt lat="46.632" lon="6.12649">
        <ele>1181.6</ele>
        <time>2015-06-30T07:49:07Z</time>
      </trkpt>
      <trkpt lat="46.632" lon="6.12655">
        <ele>1181.6</ele>
        <time>2015-06-30T07:49:08Z</time>
      </trkpt>
      <trkpt lat="46.63201" lon="6.12662">
        <ele>1180.64</ele>
        <time>2015-06-30T07:49:09Z</time>
      </trkpt>
      <trkpt lat="46.63202" lon="6.1267">
        <ele>1180.16</ele>
        <time>2015-06-30T07:49:10Z</time>
      </trkpt>
      <trkpt lat="46.63203" lon="6.12677">
        <ele>1180.16</ele>
        <time>2015-06-30T07:49:11Z</time>
      </trkpt>
      <trkpt lat="46.63204" lon="6.12684">
        <ele>1179.19</ele>
        <time>2015-06-30T07:49:12Z</time>
      </trkpt>
      <trkpt lat="46.63207" lon="6.12691">
        <ele>1179.67</ele>
        <time>2015-06-30T07:49:13Z</time>
      </trkpt>
      <trkpt lat="46.6321" lon="6.12697">
        <ele>1179.67</ele>
        <time>2015-06-30T07:49:14Z</time>
      </trkpt>
      <trkpt lat="46.63214" lon="6.12702">
        <ele>1179.19</ele>
        <time>2015-06-30T07:49:15Z</time>
      </trkpt>
      <trkpt lat="46.63236" lon="6.12734">
        <ele>1181.12</ele>
        <time>2015-06-30T07:49:25Z</time>
      </trkpt>
      <trkpt lat="46.63267" lon="6.12758">
        <ele>1179.19</ele>
        <time>2015-06-30T07:49:36Z</time>
      </trkpt>
      <trkpt lat="46.63299" lon="6.12792">
        <ele>1179.67</ele>
        <time>2015-06-30T07:49:48Z</time>
      </trkpt>
      <trkpt lat="46.63333" lon="6.12829">
        <ele>1179.19</ele>
        <time>2015-06-30T07:50:01Z</time>
      </trkpt>
      <trkpt lat="46.63357" lon="6.12861">
        <ele>1180.16</ele>
        <time>2015-06-30T07:50:12Z</time>
      </trkpt>
      <trkpt lat="46.63379" lon="6.12902">
        <ele>1180.16</ele>
        <time>2015-06-30T07:50:23Z</time>
      </trkpt>
      <trkpt lat="46.63393" lon="6.1293">
        <ele>1179.67</ele>
        <time>2015-06-30T07:50:31Z</time>
      </trkpt>
      <trkpt lat="46.63395" lon="6.12933">
        <ele>1179.19</ele>
        <time>2015-06-30T07:50:32Z</time>
      </trkpt>
      <trkpt lat="46.63398" lon="6.12935">
        <ele>1179.19</ele>
        <time>2015-06-30T07:50:33Z</time>
      </trkpt>
      <trkpt lat="46.634" lon="6.12937">
        <ele>1179.19</ele>
        <time>2015-06-30T07:50:34Z</time>
      </trkpt>
      <trkpt lat="46.63403" lon="6.12939">
        <ele>1179.67</ele>
        <time>2015-06-30T07:50:35Z</time>
      </trkpt>
      <trkpt lat="46.63405" lon="6.12941">
        <ele>1179.19</ele>
        <time>2015-06-30T07:50:36Z</time>
      </trkpt>
      <trkpt lat="46.63411" lon="6.12953">
        <ele>1178.71</ele>
        <time>2015-06-30T07:50:39Z</time>
      </trkpt>
      <trkpt lat="46.63413" lon="6.12972">
        <ele>1178.71</ele>
        <time>2015-06-30T07:50:42Z</time>
      </trkpt>
      <trkpt lat="46.63415" lon="6.12993">
        <ele>1178.23</ele>
        <time>2015-06-30T07:50:45Z</time>
      </trkpt>
      <trkpt lat="46.63414" lon="6.13">
        <ele>1178.23</ele>
        <time>2015-06-30T07:50:46Z</time>
      </trkpt>
      <trkpt lat="46.63407" lon="6.13041">
        <ele>1178.23</ele>
        <time>2015-06-30T07:50:54Z</time>
      </trkpt>
      <trkpt lat="46.63409" lon="6.13054">
        <ele>1178.71</ele>
        <time>2015-06-30T07:50:57Z</time>
      </trkpt>
      <trkpt lat="46.6341" lon="6.13058">
        <ele>1178.71</ele>
        <time>2015-06-30T07:50:58Z</time>
      </trkpt>
      <trkpt lat="46.63412" lon="6.13061">
        <ele>1179.19</ele>
        <time>2015-06-30T07:50:59Z</time>
      </trkpt>
      <trkpt lat="46.63413" lon="6.13065">
        <ele>1179.19</ele>
        <time>2015-06-30T07:51:00Z</time>
      </trkpt>
      <trkpt lat="46.63414" lon="6.1307">
        <ele>1179.67</ele>
        <time>2015-06-30T07:51:01Z</time>
      </trkpt>
      <trkpt lat="46.63415" lon="6.13074">
        <ele>1179.19</ele>
        <time>2015-06-30T07:51:02Z</time>
      </trkpt>
      <trkpt lat="46.63415" lon="6.13079">
        <ele>1178.71</ele>
        <time>2015-06-30T07:51:03Z</time>
      </trkpt>
      <trkpt lat="46.63415" lon="6.13104">
        <ele>1178.71</ele>
        <time>2015-06-30T07:51:08Z</time>
      </trkpt>
      <trkpt lat="46.63426" lon="6.13141">
        <ele>1177.75</ele>
        <time>2015-06-30T07:51:15Z</time>
      </trkpt>
      <trkpt lat="46.63427" lon="6.13145">
        <ele>1177.27</ele>
        <time>2015-06-30T07:51:16Z</time>
      </trkpt>
      <trkpt lat="46.63438" lon="6.13188">
        <ele>1176.31</ele>
        <time>2015-06-30T07:51:25Z</time>
      </trkpt>
      <trkpt lat="46.63439" lon="6.13193">
        <ele>1176.31</ele>
        <time>2015-06-30T07:51:26Z</time>
      </trkpt>
      <trkpt lat="46.63449" lon="6.13216">
        <ele>1175.83</ele>
        <time>2015-06-30T07:51:31Z</time>
      </trkpt>
      <trkpt lat="46.63449" lon="6.1322">
        <ele>1175.83</ele>
        <time>2015-06-30T07:51:32Z</time>
      </trkpt>
      <trkpt lat="46.6345" lon="6.13222">
        <ele>1176.31</ele>
        <time>2015-06-30T07:51:33Z</time>
      </trkpt>
      <trkpt lat="46.6345" lon="6.13225">
        <ele>1176.31</ele>
        <time>2015-06-30T07:51:34Z</time>
      </trkpt>
      <trkpt lat="46.63451" lon="6.13241">
        <ele>1176.31</ele>
        <time>2015-06-30T07:51:44Z</time>
      </trkpt>
      <trkpt lat="46.63453" lon="6.13239">
        <ele>1176.31</ele>
        <time>2015-06-30T07:51:57Z</time>
      </trkpt>
      <trkpt lat="46.63454" lon="6.13239">
        <ele>1176.31</ele>
        <time>2015-06-30T07:51:58Z</time>
      </trkpt>
      <trkpt lat="46.63455" lon="6.13238">
        <ele>1176.79</ele>
        <time>2015-06-30T07:51:59Z</time>
      </trkpt>
      <trkpt lat="46.63456" lon="6.13236">
        <ele>1176.79</ele>
        <time>2015-06-30T07:52:00Z</time>
      </trkpt>
      <trkpt lat="46.63457" lon="6.13234">
        <ele>1176.79</ele>
        <time>2015-06-30T07:52:01Z</time>
      </trkpt>
      <trkpt lat="46.63457" lon="6.13232">
        <ele>1175.83</ele>
        <time>2015-06-30T07:52:02Z</time>
      </trkpt>
      <trkpt lat="46.63458" lon="6.13231">
        <ele>1175.83</ele>
        <time>2015-06-30T07:52:03Z</time>
      </trkpt>
      <trkpt lat="46.63461" lon="6.13231">
        <ele>1175.83</ele>
        <time>2015-06-30T07:52:04Z</time>
      </trkpt>
      <trkpt lat="46.63463" lon="6.13233">
        <ele>1175.83</ele>
        <time>2015-06-30T07:52:16Z</time>
      </trkpt>
      <trkpt lat="46.63464" lon="6.13232">
        <ele>1174.87</ele>
        <time>2015-06-30T07:52:43Z</time>
      </trkpt>
      <trkpt lat="46.63464" lon="6.13233">
        <ele>1175.35</ele>
        <time>2015-06-30T07:53:00Z</time>
      </trkpt>
      <trkpt lat="46.63464" lon="6.13233">
        <ele>1175.35</ele>
        <time>2015-06-30T07:53:30Z</time>
      </trkpt>
      <trkpt lat="46.63464" lon="6.13233">
        <ele>1175.35</ele>
        <time>2015-06-30T07:53:56Z</time>
      </trkpt>
      <trkpt lat="46.63473" lon="6.1324">
        <ele>1173.91</ele>
        <time>2015-06-30T07:54:15Z</time>
      </trkpt>
      <trkpt lat="46.63474" lon="6.13245">
        <ele>1173.91</ele>
        <time>2015-06-30T07:54:17Z</time>
      </trkpt>
      <trkpt lat="46.63475" lon="6.13247">
        <ele>1173.43</ele>
        <time>2015-06-30T07:54:18Z</time>
      </trkpt>
      <trkpt lat="46.63476" lon="6.13249">
        <ele>1172.95</ele>
        <time>2015-06-30T07:54:19Z</time>
      </trkpt>
      <trkpt lat="46.63485" lon="6.13264">
        <ele>1169.1</ele>
        <time>2015-06-30T07:54:26Z</time>
      </trkpt>
      <trkpt lat="46.63488" lon="6.13266">
        <ele>1168.62</ele>
        <time>2015-06-30T07:54:27Z</time>
      </trkpt>
      <trkpt lat="46.63497" lon="6.13283">
        <ele>1165.26</ele>
        <time>2015-06-30T07:54:31Z</time>
      </trkpt>
      <trkpt lat="46.6351" lon="6.13296">
        <ele>1162.37</ele>
        <time>2015-06-30T07:54:35Z</time>
      </trkpt>
      <trkpt lat="46.63513" lon="6.13301">
        <ele>1161.89</ele>
        <time>2015-06-30T07:54:36Z</time>
      </trkpt>
      <trkpt lat="46.63516" lon="6.13307">
        <ele>1160.93</ele>
        <time>2015-06-30T07:54:38Z</time>
      </trkpt>
      <trkpt lat="46.6352" lon="6.13311">
        <ele>1159.97</ele>
        <time>2015-06-30T07:54:39Z</time>
      </trkpt>
      <trkpt lat="46.63525" lon="6.13316">
        <ele>1159.97</ele>
        <time>2015-06-30T07:54:40Z</time>
      </trkpt>
      <trkpt lat="46.63529" lon="6.1332">
        <ele>1159.01</ele>
        <time>2015-06-30T07:54:41Z</time>
      </trkpt>
      <trkpt lat="46.63545" lon="6.13331">
        <ele>1158.05</ele>
        <time>2015-06-30T07:54:45Z</time>
      </trkpt>
      <trkpt lat="46.63549" lon="6.13332">
        <ele>1157.56</ele>
        <time>2015-06-30T07:54:46Z</time>
      </trkpt>
      <trkpt lat="46.63553" lon="6.13331">
        <ele>1157.56</ele>
        <time>2015-06-30T07:54:47Z</time>
      </trkpt>
      <trkpt lat="46.63558" lon="6.13331">
        <ele>1157.56</ele>
        <time>2015-06-30T07:54:48Z</time>
      </trkpt>
      <trkpt lat="46.63562" lon="6.13329">
        <ele>1157.08</ele>
        <time>2015-06-30T07:54:49Z</time>
      </trkpt>
      <trkpt lat="46.63566" lon="6.13328">
        <ele>1156.12</ele>
        <time>2015-06-30T07:54:50Z</time>
      </trkpt>
      <trkpt lat="46.6361" lon="6.13316">
        <ele>1157.08</ele>
        <time>2015-06-30T07:55:00Z</time>
      </trkpt>
      <trkpt lat="46.63637" lon="6.13306">
        <ele>1159.01</ele>
        <time>2015-06-30T07:55:09Z</time>
      </trkpt>
      <trkpt lat="46.63658" lon="6.13309">
        <ele>1159.01</ele>
        <time>2015-06-30T07:55:16Z</time>
      </trkpt>
      <trkpt lat="46.63662" lon="6.13311">
        <ele>1158.53</ele>
        <time>2015-06-30T07:55:17Z</time>
      </trkpt>
      <trkpt lat="46.63687" lon="6.1334">
        <ele>1157.56</ele>
        <time>2015-06-30T07:55:26Z</time>
      </trkpt>
      <trkpt lat="46.63694" lon="6.13343">
        <ele>1157.08</ele>
        <time>2015-06-30T07:55:28Z</time>
      </trkpt>
      <trkpt lat="46.63699" lon="6.13344">
        <ele>1156.6</ele>
        <time>2015-06-30T07:55:29Z</time>
      </trkpt>
      <trkpt lat="46.63705" lon="6.13344">
        <ele>1156.12</ele>
        <time>2015-06-30T07:55:30Z</time>
      </trkpt>
      <trkpt lat="46.6371" lon="6.13344">
        <ele>1156.12</ele>
        <time>2015-06-30T07:55:31Z</time>
      </trkpt>
      <trkpt lat="46.63715" lon="6.13345">
        <ele>1155.64</ele>
        <time>2015-06-30T07:55:32Z</time>
      </trkpt>
      <trkpt lat="46.6372" lon="6.13345">
        <ele>1155.64</ele>
        <time>2015-06-30T07:55:33Z</time>
      </trkpt>
      <trkpt lat="46.63725" lon="6.13344">
        <ele>1155.16</ele>
        <time>2015-06-30T07:55:34Z</time>
      </trkpt>
      <trkpt lat="46.63741" lon="6.13342">
        <ele>1155.16</ele>
        <time>2015-06-30T07:55:37Z</time>
      </trkpt>
      <trkpt lat="46.63797" lon="6.13341">
        <ele>1155.16</ele>
        <time>2015-06-30T07:55:49Z</time>
      </trkpt>
      <trkpt lat="46.63838" lon="6.13354">
        <ele>1155.64</ele>
        <time>2015-06-30T07:56:00Z</time>
      </trkpt>
      <trkpt lat="46.63873" lon="6.13375">
        <ele>1153.72</ele>
        <time>2015-06-30T07:56:09Z</time>
      </trkpt>
      <trkpt lat="46.63885" lon="6.1339">
        <ele>1153.72</ele>
        <time>2015-06-30T07:56:24Z</time>
      </trkpt>
      <trkpt lat="46.63884" lon="6.13393">
        <ele>1153.24</ele>
        <time>2015-06-30T07:56:42Z</time>
      </trkpt>
      <trkpt lat="46.63885" lon="6.13395">
        <ele>1153.24</ele>
        <time>2015-06-30T07:56:43Z</time>
      </trkpt>
      <trkpt lat="46.63886" lon="6.13398">
        <ele>1153.24</ele>
        <time>2015-06-30T07:56:44Z</time>
      </trkpt>
      <trkpt lat="46.63887" lon="6.13401">
        <ele>1153.24</ele>
        <time>2015-06-30T07:56:45Z</time>
      </trkpt>
      <trkpt lat="46.63888" lon="6.13405">
        <ele>1153.24</ele>
        <time>2015-06-30T07:56:46Z</time>
      </trkpt>
      <trkpt lat="46.63889" lon="6.1341">
        <ele>1152.76</ele>
        <time>2015-06-30T07:56:47Z</time>
      </trkpt>
      <trkpt lat="46.63889" lon="6.13415">
        <ele>1152.76</ele>
        <time>2015-06-30T07:56:48Z</time>
      </trkpt>
      <trkpt lat="46.63888" lon="6.13475">
        <ele>1150.35</ele>
        <time>2015-06-30T07:56:59Z</time>
      </trkpt>
      <trkpt lat="46.63887" lon="6.13481">
        <ele>1150.35</ele>
        <time>2015-06-30T07:57:00Z</time>
      </trkpt>
      <trkpt lat="46.63885" lon="6.1351">
        <ele>1149.87</ele>
        <time>2015-06-30T07:57:04Z</time>
      </trkpt>
      <trkpt lat="46.6388" lon="6.13538">
        <ele>1148.91</ele>
        <time>2015-06-30T07:57:08Z</time>
      </trkpt>
      <trkpt lat="46.63878" lon="6.13544">
        <ele>1148.43</ele>
        <time>2015-06-30T07:57:09Z</time>
      </trkpt>
      <trkpt lat="46.63874" lon="6.13557">
        <ele>1148.91</ele>
        <time>2015-06-30T07:57:11Z</time>
      </trkpt>
      <trkpt lat="46.63867" lon="6.13594">
        <ele>1148.91</ele>
        <time>2015-06-30T07:57:17Z</time>
      </trkpt>
      <trkpt lat="46.63866" lon="6.13608">
        <ele>1147.95</ele>
        <time>2015-06-30T07:57:19Z</time>
      </trkpt>
      <trkpt lat="46.63866" lon="6.13614">
        <ele>1147.95</ele>
        <time>2015-06-30T07:57:20Z</time>
      </trkpt>
      <trkpt lat="46.63867" lon="6.1362">
        <ele>1147.95</ele>
        <time>2015-06-30T07:57:21Z</time>
      </trkpt>
      <trkpt lat="46.63868" lon="6.13626">
        <ele>1147.95</ele>
        <time>2015-06-30T07:57:22Z</time>
      </trkpt>
      <trkpt lat="46.63869" lon="6.13632">
        <ele>1147.95</ele>
        <time>2015-06-30T07:57:23Z</time>
      </trkpt>
      <trkpt lat="46.6387" lon="6.13642">
        <ele>1147.47</ele>
        <time>2015-06-30T07:57:25Z</time>
      </trkpt>
      <trkpt lat="46.63872" lon="6.13647">
        <ele>1146.99</ele>
        <time>2015-06-30T07:57:26Z</time>
      </trkpt>
      <trkpt lat="46.63873" lon="6.13653">
        <ele>1146.51</ele>
        <time>2015-06-30T07:57:27Z</time>
      </trkpt>
      <trkpt lat="46.63874" lon="6.13659">
        <ele>1146.03</ele>
        <time>2015-06-30T07:57:28Z</time>
      </trkpt>
      <trkpt lat="46.63876" lon="6.13665">
        <ele>1145.55</ele>
        <time>2015-06-30T07:57:29Z</time>
      </trkpt>
      <trkpt lat="46.63878" lon="6.13672">
        <ele>1145.07</ele>
        <time>2015-06-30T07:57:30Z</time>
      </trkpt>
      <trkpt lat="46.63883" lon="6.13697">
        <ele>1144.11</ele>
        <time>2015-06-30T07:57:33Z</time>
      </trkpt>
      <trkpt lat="46.63884" lon="6.13735">
        <ele>1141.7</ele>
        <time>2015-06-30T07:57:37Z</time>
      </trkpt>
      <trkpt lat="46.63883" lon="6.13745">
        <ele>1141.7</ele>
        <time>2015-06-30T07:57:38Z</time>
      </trkpt>
      <trkpt lat="46.6388" lon="6.13755">
        <ele>1139.78</ele>
        <time>2015-06-30T07:57:39Z</time>
      </trkpt>
      <trkpt lat="46.63852" lon="6.13828">
        <ele>1139.78</ele>
        <time>2015-06-30T07:57:47Z</time>
      </trkpt>
      <trkpt lat="46.6385" lon="6.13836">
        <ele>1139.78</ele>
        <time>2015-06-30T07:57:48Z</time>
      </trkpt>
      <trkpt lat="46.63848" lon="6.13844">
        <ele>1140.26</ele>
        <time>2015-06-30T07:57:49Z</time>
      </trkpt>
      <trkpt lat="46.6384" lon="6.13896">
        <ele>1143.14</ele>
        <time>2015-06-30T07:57:58Z</time>
      </trkpt>
      <trkpt lat="46.63845" lon="6.13964">
        <ele>1144.11</ele>
        <time>2015-06-30T07:58:10Z</time>
      </trkpt>
      <trkpt lat="46.63852" lon="6.14026">
        <ele>1141.22</ele>
        <time>2015-06-30T07:58:22Z</time>
      </trkpt>
      <trkpt lat="46.63853" lon="6.14032">
        <ele>1140.74</ele>
        <time>2015-06-30T07:58:23Z</time>
      </trkpt>
      <trkpt lat="46.63855" lon="6.14055">
        <ele>1138.82</ele>
        <time>2015-06-30T07:58:27Z</time>
      </trkpt>
      <trkpt lat="46.63849" lon="6.14101">
        <ele>1139.78</ele>
        <time>2015-06-30T07:58:39Z</time>
      </trkpt>
      <trkpt lat="46.63835" lon="6.14147">
        <ele>1141.22</ele>
        <time>2015-06-30T07:58:51Z</time>
      </trkpt>
      <trkpt lat="46.63824" lon="6.14173">
        <ele>1142.18</ele>
        <time>2015-06-30T07:58:59Z</time>
      </trkpt>
      <trkpt lat="46.63821" lon="6.14182">
        <ele>1142.18</ele>
        <time>2015-06-30T07:59:02Z</time>
      </trkpt>
      <trkpt lat="46.63819" lon="6.14186">
        <ele>1142.18</ele>
        <time>2015-06-30T07:59:03Z</time>
      </trkpt>
      <trkpt lat="46.63817" lon="6.1419">
        <ele>1142.66</ele>
        <time>2015-06-30T07:59:04Z</time>
      </trkpt>
      <trkpt lat="46.63789" lon="6.14231">
        <ele>1143.63</ele>
        <time>2015-06-30T07:59:17Z</time>
      </trkpt>
      <trkpt lat="46.6378" lon="6.14247">
        <ele>1143.63</ele>
        <time>2015-06-30T07:59:22Z</time>
      </trkpt>
      <trkpt lat="46.63778" lon="6.14249">
        <ele>1144.11</ele>
        <time>2015-06-30T07:59:23Z</time>
      </trkpt>
      <trkpt lat="46.63776" lon="6.14252">
        <ele>1144.11</ele>
        <time>2015-06-30T07:59:24Z</time>
      </trkpt>
      <trkpt lat="46.63775" lon="6.14254">
        <ele>1144.59</ele>
        <time>2015-06-30T07:59:25Z</time>
      </trkpt>
      <trkpt lat="46.63774" lon="6.14256">
        <ele>1144.59</ele>
        <time>2015-06-30T07:59:26Z</time>
      </trkpt>
      <trkpt lat="46.63757" lon="6.14274">
        <ele>1146.99</ele>
        <time>2015-06-30T07:59:38Z</time>
      </trkpt>
      <trkpt lat="46.63739" lon="6.1429">
        <ele>1149.87</ele>
        <time>2015-06-30T07:59:52Z</time>
      </trkpt>
      <trkpt lat="46.63723" lon="6.14299">
        <ele>1152.76</ele>
        <time>2015-06-30T08:00:06Z</time>
      </trkpt>
      <trkpt lat="46.6372" lon="6.14302">
        <ele>1152.76</ele>
        <time>2015-06-30T08:00:09Z</time>
      </trkpt>
      <trkpt lat="46.63699" lon="6.1432">
        <ele>1154.2</ele>
        <time>2015-06-30T08:00:22Z</time>
      </trkpt>
      <trkpt lat="46.63692" lon="6.14332">
        <ele>1153.72</ele>
        <time>2015-06-30T08:00:27Z</time>
      </trkpt>
      <trkpt lat="46.63673" lon="6.14354">
        <ele>1152.76</ele>
        <time>2015-06-30T08:00:33Z</time>
      </trkpt>
      <trkpt lat="46.63669" lon="6.1436">
        <ele>1152.28</ele>
        <time>2015-06-30T08:00:34Z</time>
      </trkpt>
      <trkpt lat="46.63666" lon="6.14366">
        <ele>1152.28</ele>
        <time>2015-06-30T08:00:35Z</time>
      </trkpt>
      <trkpt lat="46.63662" lon="6.14372">
        <ele>1151.8</ele>
        <time>2015-06-30T08:00:36Z</time>
      </trkpt>
      <trkpt lat="46.63659" lon="6.14378">
        <ele>1151.8</ele>
        <time>2015-06-30T08:00:37Z</time>
      </trkpt>
      <trkpt lat="46.63651" lon="6.1439">
        <ele>1151.8</ele>
        <time>2015-06-30T08:00:39Z</time>
      </trkpt>
      <trkpt lat="46.63647" lon="6.14397">
        <ele>1150.84</ele>
        <time>2015-06-30T08:00:40Z</time>
      </trkpt>
      <trkpt lat="46.63642" lon="6.14403">
        <ele>1151.32</ele>
        <time>2015-06-30T08:00:41Z</time>
      </trkpt>
      <trkpt lat="46.63632" lon="6.14412">
        <ele>1150.84</ele>
        <time>2015-06-30T08:00:43Z</time>
      </trkpt>
      <trkpt lat="46.63622" lon="6.14419">
        <ele>1151.32</ele>
        <time>2015-06-30T08:00:45Z</time>
      </trkpt>
      <trkpt lat="46.63617" lon="6.14421">
        <ele>1150.84</ele>
        <time>2015-06-30T08:00:46Z</time>
      </trkpt>
      <trkpt lat="46.63612" lon="6.14423">
        <ele>1151.32</ele>
        <time>2015-06-30T08:00:47Z</time>
      </trkpt>
      <trkpt lat="46.63604" lon="6.14426">
        <ele>1151.32</ele>
        <time>2015-06-30T08:00:49Z</time>
      </trkpt>
      <trkpt lat="46.636" lon="6.14427">
        <ele>1151.32</ele>
        <time>2015-06-30T08:00:50Z</time>
      </trkpt>
      <trkpt lat="46.63596" lon="6.14429">
        <ele>1151.32</ele>
        <time>2015-06-30T08:00:51Z</time>
      </trkpt>
      <trkpt lat="46.63587" lon="6.14433">
        <ele>1150.84</ele>
        <time>2015-06-30T08:00:53Z</time>
      </trkpt>
      <trkpt lat="46.63583" lon="6.14435">
        <ele>1150.84</ele>
        <time>2015-06-30T08:00:54Z</time>
      </trkpt>
      <trkpt lat="46.63552" lon="6.14453">
        <ele>1150.35</ele>
        <time>2015-06-30T08:01:01Z</time>
      </trkpt>
      <trkpt lat="46.6354" lon="6.14465">
        <ele>1150.84</ele>
        <time>2015-06-30T08:01:04Z</time>
      </trkpt>
      <trkpt lat="46.63537" lon="6.14469">
        <ele>1150.84</ele>
        <time>2015-06-30T08:01:05Z</time>
      </trkpt>
      <trkpt lat="46.63508" lon="6.14517">
        <ele>1153.24</ele>
        <time>2015-06-30T08:01:16Z</time>
      </trkpt>
      <trkpt lat="46.63505" lon="6.1452">
        <ele>1153.72</ele>
        <time>2015-06-30T08:01:17Z</time>
      </trkpt>
      <trkpt lat="46.63503" lon="6.14521">
        <ele>1153.72</ele>
        <time>2015-06-30T08:01:18Z</time>
      </trkpt>
      <trkpt lat="46.63479" lon="6.1456">
        <ele>1154.68</ele>
        <time>2015-06-30T08:01:28Z</time>
      </trkpt>
      <trkpt lat="46.63449" lon="6.14608">
        <ele>1155.16</ele>
        <time>2015-06-30T08:01:41Z</time>
      </trkpt>
      <trkpt lat="46.63422" lon="6.14639">
        <ele>1156.6</ele>
        <time>2015-06-30T08:01:52Z</time>
      </trkpt>
      <trkpt lat="46.63396" lon="6.14667">
        <ele>1158.05</ele>
        <time>2015-06-30T08:02:05Z</time>
      </trkpt>
      <trkpt lat="46.63381" lon="6.14693">
        <ele>1160.93</ele>
        <time>2015-06-30T08:02:17Z</time>
      </trkpt>
      <trkpt lat="46.6336" lon="6.14714">
        <ele>1162.37</ele>
        <time>2015-06-30T08:02:29Z</time>
      </trkpt>
      <trkpt lat="46.63358" lon="6.14715">
        <ele>1162.85</ele>
        <time>2015-06-30T08:02:30Z</time>
      </trkpt>
      <trkpt lat="46.63356" lon="6.14716">
        <ele>1162.85</ele>
        <time>2015-06-30T08:02:31Z</time>
      </trkpt>
      <trkpt lat="46.63355" lon="6.14717">
        <ele>1161.89</ele>
        <time>2015-06-30T08:02:32Z</time>
      </trkpt>
      <trkpt lat="46.63353" lon="6.14717">
        <ele>1162.85</ele>
        <time>2015-06-30T08:02:33Z</time>
      </trkpt>
      <trkpt lat="46.63351" lon="6.14718">
        <ele>1162.85</ele>
        <time>2015-06-30T08:02:34Z</time>
      </trkpt>
      <trkpt lat="46.63349" lon="6.14718">
        <ele>1163.81</ele>
        <time>2015-06-30T08:02:35Z</time>
      </trkpt>
      <trkpt lat="46.63348" lon="6.14719">
        <ele>1163.81</ele>
        <time>2015-06-30T08:02:36Z</time>
      </trkpt>
      <trkpt lat="46.63328" lon="6.14734">
        <ele>1166.22</ele>
        <time>2015-06-30T08:02:48Z</time>
      </trkpt>
      <trkpt lat="46.63326" lon="6.14738">
        <ele>1166.22</ele>
        <time>2015-06-30T08:02:50Z</time>
      </trkpt>
      <trkpt lat="46.63325" lon="6.1474">
        <ele>1166.7</ele>
        <time>2015-06-30T08:02:51Z</time>
      </trkpt>
      <trkpt lat="46.63324" lon="6.14743">
        <ele>1167.18</ele>
        <time>2015-06-30T08:02:52Z</time>
      </trkpt>
      <trkpt lat="46.63313" lon="6.14754">
        <ele>1167.66</ele>
        <time>2015-06-30T08:03:00Z</time>
      </trkpt>
      <trkpt lat="46.63312" lon="6.14757">
        <ele>1167.66</ele>
        <time>2015-06-30T08:03:01Z</time>
      </trkpt>
      <trkpt lat="46.63311" lon="6.1476">
        <ele>1168.14</ele>
        <time>2015-06-30T08:03:02Z</time>
      </trkpt>
      <trkpt lat="46.6331" lon="6.14761">
        <ele>1168.14</ele>
        <time>2015-06-30T08:03:03Z</time>
      </trkpt>
      <trkpt lat="46.63309" lon="6.14762">
        <ele>1168.14</ele>
        <time>2015-06-30T08:03:04Z</time>
      </trkpt>
      <trkpt lat="46.63307" lon="6.14763">
        <ele>1168.14</ele>
        <time>2015-06-30T08:03:05Z</time>
      </trkpt>
      <trkpt lat="46.63296" lon="6.14767">
        <ele>1168.14</ele>
        <time>2015-06-30T08:03:11Z</time>
      </trkpt>
      <trkpt lat="46.63295" lon="6.14766">
        <ele>1168.62</ele>
        <time>2015-06-30T08:03:13Z</time>
      </trkpt>
      <trkpt lat="46.63293" lon="6.14766">
        <ele>1168.62</ele>
        <time>2015-06-30T08:03:14Z</time>
      </trkpt>
      <trkpt lat="46.63291" lon="6.14766">
        <ele>1169.1</ele>
        <time>2015-06-30T08:03:15Z</time>
      </trkpt>
      <trkpt lat="46.63289" lon="6.14766">
        <ele>1168.62</ele>
        <time>2015-06-30T08:03:16Z</time>
      </trkpt>
      <trkpt lat="46.63287" lon="6.14765">
        <ele>1169.58</ele>
        <time>2015-06-30T08:03:17Z</time>
      </trkpt>
      <trkpt lat="46.63285" lon="6.14765">
        <ele>1169.1</ele>
        <time>2015-06-30T08:03:18Z</time>
      </trkpt>
      <trkpt lat="46.63282" lon="6.14764">
        <ele>1169.58</ele>
        <time>2015-06-30T08:03:19Z</time>
      </trkpt>
      <trkpt lat="46.63255" lon="6.14764">
        <ele>1170.06</ele>
        <time>2015-06-30T08:03:32Z</time>
      </trkpt>
      <trkpt lat="46.63241" lon="6.14765">
        <ele>1171.02</ele>
        <time>2015-06-30T08:03:40Z</time>
      </trkpt>
      <trkpt lat="46.63239" lon="6.14765">
        <ele>1171.98</ele>
        <time>2015-06-30T08:03:41Z</time>
      </trkpt>
      <trkpt lat="46.63238" lon="6.14765">
        <ele>1171.5</ele>
        <time>2015-06-30T08:03:42Z</time>
      </trkpt>
      <trkpt lat="46.63236" lon="6.14765">
        <ele>1171.5</ele>
        <time>2015-06-30T08:03:43Z</time>
      </trkpt>
      <trkpt lat="46.63235" lon="6.14765">
        <ele>1172.47</ele>
        <time>2015-06-30T08:03:44Z</time>
      </trkpt>
      <trkpt lat="46.63234" lon="6.14765">
        <ele>1172.47</ele>
        <time>2015-06-30T08:03:45Z</time>
      </trkpt>
      <trkpt lat="46.63221" lon="6.14765">
        <ele>1174.39</ele>
        <time>2015-06-30T08:03:56Z</time>
      </trkpt>
      <trkpt lat="46.63207" lon="6.14763">
        <ele>1176.79</ele>
        <time>2015-06-30T08:04:06Z</time>
      </trkpt>
      <trkpt lat="46.63202" lon="6.14762">
        <ele>1177.75</ele>
        <time>2015-06-30T08:04:10Z</time>
      </trkpt>
      <trkpt lat="46.63191" lon="6.14759">
        <ele>1180.16</ele>
        <time>2015-06-30T08:04:19Z</time>
      </trkpt>
      <trkpt lat="46.63189" lon="6.14758">
        <ele>1179.67</ele>
        <time>2015-06-30T08:04:20Z</time>
      </trkpt>
      <trkpt lat="46.63188" lon="6.14757">
        <ele>1180.64</ele>
        <time>2015-06-30T08:04:21Z</time>
      </trkpt>
      <trkpt lat="46.63185" lon="6.14755">
        <ele>1180.64</ele>
        <time>2015-06-30T08:04:24Z</time>
      </trkpt>
      <trkpt lat="46.63184" lon="6.14753">
        <ele>1181.12</ele>
        <time>2015-06-30T08:04:25Z</time>
      </trkpt>
      <trkpt lat="46.63183" lon="6.14752">
        <ele>1181.6</ele>
        <time>2015-06-30T08:04:26Z</time>
      </trkpt>
      <trkpt lat="46.63182" lon="6.14751">
        <ele>1181.6</ele>
        <time>2015-06-30T08:04:27Z</time>
      </trkpt>
      <trkpt lat="46.63181" lon="6.1475">
        <ele>1181.6</ele>
        <time>2015-06-30T08:04:28Z</time>
      </trkpt>
      <trkpt lat="46.63181" lon="6.14748">
        <ele>1181.6</ele>
        <time>2015-06-30T08:04:29Z</time>
      </trkpt>
      <trkpt lat="46.6318" lon="6.14747">
        <ele>1181.6</ele>
        <time>2015-06-30T08:04:30Z</time>
      </trkpt>
      <trkpt lat="46.63178" lon="6.14745">
        <ele>1182.08</ele>
        <time>2015-06-30T08:04:31Z</time>
      </trkpt>
      <trkpt lat="46.63166" lon="6.14717">
        <ele>1183.04</ele>
        <time>2015-06-30T08:04:45Z</time>
      </trkpt>
      <trkpt lat="46.63155" lon="6.14675">
        <ele>1184.48</ele>
        <time>2015-06-30T08:05:00Z</time>
      </trkpt>
      <trkpt lat="46.63136" lon="6.14644">
        <ele>1185.92</ele>
        <time>2015-06-30T08:05:16Z</time>
      </trkpt>
      <trkpt lat="46.63115" lon="6.1463">
        <ele>1188.33</ele>
        <time>2015-06-30T08:05:29Z</time>
      </trkpt>
      <trkpt lat="46.63114" lon="6.1463">
        <ele>1188.33</ele>
        <time>2015-06-30T08:05:30Z</time>
      </trkpt>
      <trkpt lat="46.63112" lon="6.1463">
        <ele>1187.85</ele>
        <time>2015-06-30T08:05:31Z</time>
      </trkpt>
      <trkpt lat="46.63075" lon="6.14632">
        <ele>1189.29</ele>
        <time>2015-06-30T08:05:46Z</time>
      </trkpt>
      <trkpt lat="46.63038" lon="6.14642">
        <ele>1191.21</ele>
        <time>2015-06-30T08:05:59Z</time>
      </trkpt>
      <trkpt lat="46.63033" lon="6.14641">
        <ele>1190.73</ele>
        <time>2015-06-30T08:06:01Z</time>
      </trkpt>
      <trkpt lat="46.63031" lon="6.14641">
        <ele>1190.73</ele>
        <time>2015-06-30T08:06:02Z</time>
      </trkpt>
      <trkpt lat="46.63028" lon="6.14642">
        <ele>1191.21</ele>
        <time>2015-06-30T08:06:03Z</time>
      </trkpt>
      <trkpt lat="46.63026" lon="6.14642">
        <ele>1191.21</ele>
        <time>2015-06-30T08:06:04Z</time>
      </trkpt>
      <trkpt lat="46.63023" lon="6.14642">
        <ele>1191.21</ele>
        <time>2015-06-30T08:06:05Z</time>
      </trkpt>
      <trkpt lat="46.63019" lon="6.14643">
        <ele>1191.21</ele>
        <time>2015-06-30T08:06:06Z</time>
      </trkpt>
      <trkpt lat="46.63017" lon="6.14643">
        <ele>1192.17</ele>
        <time>2015-06-30T08:06:07Z</time>
      </trkpt>
      <trkpt lat="46.62991" lon="6.14659">
        <ele>1193.13</ele>
        <time>2015-06-30T08:06:18Z</time>
      </trkpt>
      <trkpt lat="46.6299" lon="6.14661">
        <ele>1193.13</ele>
        <time>2015-06-30T08:06:19Z</time>
      </trkpt>
      <trkpt lat="46.62989" lon="6.14662">
        <ele>1193.13</ele>
        <time>2015-06-30T08:06:20Z</time>
      </trkpt>
      <trkpt lat="46.62987" lon="6.14664">
        <ele>1193.61</ele>
        <time>2015-06-30T08:06:21Z</time>
      </trkpt>
      <trkpt lat="46.62986" lon="6.14666">
        <ele>1194.09</ele>
        <time>2015-06-30T08:06:22Z</time>
      </trkpt>
      <trkpt lat="46.62984" lon="6.14668">
        <ele>1194.09</ele>
        <time>2015-06-30T08:06:23Z</time>
      </trkpt>
      <trkpt lat="46.62983" lon="6.1467">
        <ele>1194.09</ele>
        <time>2015-06-30T08:06:24Z</time>
      </trkpt>
      <trkpt lat="46.62982" lon="6.14672">
        <ele>1194.58</ele>
        <time>2015-06-30T08:06:25Z</time>
      </trkpt>
      <trkpt lat="46.62979" lon="6.14676">
        <ele>1195.06</ele>
        <time>2015-06-30T08:06:28Z</time>
      </trkpt>
      <trkpt lat="46.62978" lon="6.14677">
        <ele>1195.54</ele>
        <time>2015-06-30T08:06:29Z</time>
      </trkpt>
      <trkpt lat="46.62977" lon="6.14679">
        <ele>1195.54</ele>
        <time>2015-06-30T08:06:30Z</time>
      </trkpt>
      <trkpt lat="46.62967" lon="6.14702">
        <ele>1196.5</ele>
        <time>2015-06-30T08:06:40Z</time>
      </trkpt>
      <trkpt lat="46.62945" lon="6.14728">
        <ele>1198.9</ele>
        <time>2015-06-30T08:06:54Z</time>
      </trkpt>
      <trkpt lat="46.62915" lon="6.14752">
        <ele>1200.34</ele>
        <time>2015-06-30T08:07:10Z</time>
      </trkpt>
      <trkpt lat="46.62913" lon="6.14754">
        <ele>1199.38</ele>
        <time>2015-06-30T08:07:11Z</time>
      </trkpt>
      <trkpt lat="46.62912" lon="6.14757">
        <ele>1199.86</ele>
        <time>2015-06-30T08:07:12Z</time>
      </trkpt>
      <trkpt lat="46.62911" lon="6.14758">
        <ele>1199.86</ele>
        <time>2015-06-30T08:07:13Z</time>
      </trkpt>
      <trkpt lat="46.62882" lon="6.14784">
        <ele>1200.82</ele>
        <time>2015-06-30T08:07:27Z</time>
      </trkpt>
      <trkpt lat="46.62881" lon="6.14786">
        <ele>1201.3</ele>
        <time>2015-06-30T08:07:28Z</time>
      </trkpt>
      <trkpt lat="46.6288" lon="6.1479">
        <ele>1201.3</ele>
        <time>2015-06-30T08:07:29Z</time>
      </trkpt>
      <trkpt lat="46.62864" lon="6.14832">
        <ele>1203.23</ele>
        <time>2015-06-30T08:07:42Z</time>
      </trkpt>
      <trkpt lat="46.62852" lon="6.14877">
        <ele>1204.19</ele>
        <time>2015-06-30T08:07:54Z</time>
      </trkpt>
      <trkpt lat="46.62832" lon="6.14912">
        <ele>1206.59</ele>
        <time>2015-06-30T08:08:05Z</time>
      </trkpt>
      <trkpt lat="46.62813" lon="6.14932">
        <ele>1208.03</ele>
        <time>2015-06-30T08:08:15Z</time>
      </trkpt>
      <trkpt lat="46.62786" lon="6.14942">
        <ele>1209</ele>
        <time>2015-06-30T08:08:27Z</time>
      </trkpt>
      <trkpt lat="46.62756" lon="6.14952">
        <ele>1209.48</ele>
        <time>2015-06-30T08:08:40Z</time>
      </trkpt>
      <trkpt lat="46.62727" lon="6.14955">
        <ele>1210.44</ele>
        <time>2015-06-30T08:08:51Z</time>
      </trkpt>
      <trkpt lat="46.62724" lon="6.14955">
        <ele>1210.92</ele>
        <time>2015-06-30T08:08:52Z</time>
      </trkpt>
      <trkpt lat="46.62722" lon="6.14955">
        <ele>1210.44</ele>
        <time>2015-06-30T08:08:53Z</time>
      </trkpt>
      <trkpt lat="46.6269" lon="6.14934">
        <ele>1212.84</ele>
        <time>2015-06-30T08:09:07Z</time>
      </trkpt>
      <trkpt lat="46.62687" lon="6.14934">
        <ele>1212.36</ele>
        <time>2015-06-30T08:09:08Z</time>
      </trkpt>
      <trkpt lat="46.62685" lon="6.14933">
        <ele>1212.36</ele>
        <time>2015-06-30T08:09:09Z</time>
      </trkpt>
      <trkpt lat="46.62683" lon="6.14933">
        <ele>1213.32</ele>
        <time>2015-06-30T08:09:10Z</time>
      </trkpt>
      <trkpt lat="46.6268" lon="6.14933">
        <ele>1212.84</ele>
        <time>2015-06-30T08:09:11Z</time>
      </trkpt>
      <trkpt lat="46.62678" lon="6.14933">
        <ele>1212.84</ele>
        <time>2015-06-30T08:09:12Z</time>
      </trkpt>
      <trkpt lat="46.62676" lon="6.14934">
        <ele>1213.32</ele>
        <time>2015-06-30T08:09:13Z</time>
      </trkpt>
      <trkpt lat="46.62673" lon="6.14934">
        <ele>1213.32</ele>
        <time>2015-06-30T08:09:14Z</time>
      </trkpt>
      <trkpt lat="46.62671" lon="6.14934">
        <ele>1213.32</ele>
        <time>2015-06-30T08:09:15Z</time>
      </trkpt>
      <trkpt lat="46.62668" lon="6.14934">
        <ele>1213.32</ele>
        <time>2015-06-30T08:09:16Z</time>
      </trkpt>
      <trkpt lat="46.62666" lon="6.14935">
        <ele>1213.8</ele>
        <time>2015-06-30T08:09:17Z</time>
      </trkpt>
      <trkpt lat="46.62663" lon="6.14935">
        <ele>1214.28</ele>
        <time>2015-06-30T08:09:18Z</time>
      </trkpt>
      <trkpt lat="46.62661" lon="6.14936">
        <ele>1213.8</ele>
        <time>2015-06-30T08:09:19Z</time>
      </trkpt>
      <trkpt lat="46.62659" lon="6.14936">
        <ele>1214.76</ele>
        <time>2015-06-30T08:09:20Z</time>
      </trkpt>
      <trkpt lat="46.6264" lon="6.14939">
        <ele>1215.72</ele>
        <time>2015-06-30T08:09:32Z</time>
      </trkpt>
      <trkpt lat="46.62625" lon="6.14942">
        <ele>1217.17</ele>
        <time>2015-06-30T08:09:40Z</time>
      </trkpt>
      <trkpt lat="46.62613" lon="6.14942">
        <ele>1218.61</ele>
        <time>2015-06-30T08:09:47Z</time>
      </trkpt>
      <trkpt lat="46.62596" lon="6.14938">
        <ele>1221.49</ele>
        <time>2015-06-30T08:09:59Z</time>
      </trkpt>
      <trkpt lat="46.62588" lon="6.14936">
        <ele>1222.93</ele>
        <time>2015-06-30T08:10:12Z</time>
      </trkpt>
      <trkpt lat="46.6257" lon="6.14931">
        <ele>1223.9</ele>
        <time>2015-06-30T08:10:25Z</time>
      </trkpt>
      <trkpt lat="46.62559" lon="6.14935">
        <ele>1225.34</ele>
        <time>2015-06-30T08:10:37Z</time>
      </trkpt>
      <trkpt lat="46.62547" lon="6.14936">
        <ele>1226.3</ele>
        <time>2015-06-30T08:10:49Z</time>
      </trkpt>
      <trkpt lat="46.62531" lon="6.14936">
        <ele>1227.74</ele>
        <time>2015-06-30T08:11:04Z</time>
      </trkpt>
      <trkpt lat="46.62519" lon="6.14931">
        <ele>1229.18</ele>
        <time>2015-06-30T08:11:18Z</time>
      </trkpt>
      <trkpt lat="46.62507" lon="6.14928">
        <ele>1230.14</ele>
        <time>2015-06-30T08:11:26Z</time>
      </trkpt>
      <trkpt lat="46.62496" lon="6.14925">
        <ele>1232.07</ele>
        <time>2015-06-30T08:11:33Z</time>
      </trkpt>
      <trkpt lat="46.62494" lon="6.14924">
        <ele>1232.07</ele>
        <time>2015-06-30T08:11:34Z</time>
      </trkpt>
      <trkpt lat="46.62493" lon="6.14924">
        <ele>1232.07</ele>
        <time>2015-06-30T08:11:35Z</time>
      </trkpt>
      <trkpt lat="46.62491" lon="6.14923">
        <ele>1232.07</ele>
        <time>2015-06-30T08:11:36Z</time>
      </trkpt>
      <trkpt lat="46.6249" lon="6.14922">
        <ele>1232.55</ele>
        <time>2015-06-30T08:11:37Z</time>
      </trkpt>
      <trkpt lat="46.62488" lon="6.14921">
        <ele>1233.03</ele>
        <time>2015-06-30T08:11:38Z</time>
      </trkpt>
      <trkpt lat="46.62487" lon="6.14921">
        <ele>1232.55</ele>
        <time>2015-06-30T08:11:39Z</time>
      </trkpt>
      <trkpt lat="46.62485" lon="6.1492">
        <ele>1232.55</ele>
        <time>2015-06-30T08:11:40Z</time>
      </trkpt>
      <trkpt lat="46.62466" lon="6.14923">
        <ele>1235.43</ele>
        <time>2015-06-30T08:11:56Z</time>
      </trkpt>
      <trkpt lat="46.62464" lon="6.14935">
        <ele>1236.87</ele>
        <time>2015-06-30T08:12:02Z</time>
      </trkpt>
      <trkpt lat="46.62465" lon="6.14937">
        <ele>1236.87</ele>
        <time>2015-06-30T08:12:03Z</time>
      </trkpt>
      <trkpt lat="46.62465" lon="6.14943">
        <ele>1237.83</ele>
        <time>2015-06-30T08:12:06Z</time>
      </trkpt>
      <trkpt lat="46.62465" lon="6.14951">
        <ele>1238.32</ele>
        <time>2015-06-30T08:12:10Z</time>
      </trkpt>
      <trkpt lat="46.62465" lon="6.14953">
        <ele>1237.83</ele>
        <time>2015-06-30T08:12:11Z</time>
      </trkpt>
      <trkpt lat="46.62466" lon="6.14955">
        <ele>1238.32</ele>
        <time>2015-06-30T08:12:12Z</time>
      </trkpt>
      <trkpt lat="46.62466" lon="6.14957">
        <ele>1237.83</ele>
        <time>2015-06-30T08:12:13Z</time>
      </trkpt>
      <trkpt lat="46.62466" lon="6.1496">
        <ele>1238.32</ele>
        <time>2015-06-30T08:12:14Z</time>
      </trkpt>
      <trkpt lat="46.62466" lon="6.14962">
        <ele>1238.8</ele>
        <time>2015-06-30T08:12:15Z</time>
      </trkpt>
      <trkpt lat="46.62466" lon="6.14964">
        <ele>1238.32</ele>
        <time>2015-06-30T08:12:16Z</time>
      </trkpt>
      <trkpt lat="46.62469" lon="6.14993">
        <ele>1239.76</ele>
        <time>2015-06-30T08:12:31Z</time>
      </trkpt>
      <trkpt lat="46.62469" lon="6.15024">
        <ele>1242.16</ele>
        <time>2015-06-30T08:12:47Z</time>
      </trkpt>
      <trkpt lat="46.62468" lon="6.15032">
        <ele>1243.12</ele>
        <time>2015-06-30T08:12:51Z</time>
      </trkpt>
      <trkpt lat="46.62459" lon="6.15057">
        <ele>1245.53</ele>
        <time>2015-06-30T08:13:05Z</time>
      </trkpt>
      <trkpt lat="46.62453" lon="6.15067">
        <ele>1246.97</ele>
        <time>2015-06-30T08:13:11Z</time>
      </trkpt>
      <trkpt lat="46.62452" lon="6.15069">
        <ele>1246.49</ele>
        <time>2015-06-30T08:13:12Z</time>
      </trkpt>
      <trkpt lat="46.62451" lon="6.1507">
        <ele>1246.49</ele>
        <time>2015-06-30T08:13:13Z</time>
      </trkpt>
      <trkpt lat="46.62451" lon="6.15072">
        <ele>1246.97</ele>
        <time>2015-06-30T08:13:14Z</time>
      </trkpt>
      <trkpt lat="46.6245" lon="6.15074">
        <ele>1246.97</ele>
        <time>2015-06-30T08:13:15Z</time>
      </trkpt>
      <trkpt lat="46.62441" lon="6.15091">
        <ele>1248.89</ele>
        <time>2015-06-30T08:13:25Z</time>
      </trkpt>
      <trkpt lat="46.6244" lon="6.15092">
        <ele>1248.41</ele>
        <time>2015-06-30T08:13:26Z</time>
      </trkpt>
      <trkpt lat="46.62439" lon="6.15094">
        <ele>1248.41</ele>
        <time>2015-06-30T08:13:27Z</time>
      </trkpt>
      <trkpt lat="46.62437" lon="6.15099">
        <ele>1248.89</ele>
        <time>2015-06-30T08:13:30Z</time>
      </trkpt>
      <trkpt lat="46.62435" lon="6.151">
        <ele>1249.37</ele>
        <time>2015-06-30T08:13:31Z</time>
      </trkpt>
      <trkpt lat="46.62435" lon="6.15102">
        <ele>1249.37</ele>
        <time>2015-06-30T08:13:32Z</time>
      </trkpt>
      <trkpt lat="46.62418" lon="6.15127">
        <ele>1250.33</ele>
        <time>2015-06-30T08:13:46Z</time>
      </trkpt>
      <trkpt lat="46.62416" lon="6.15128">
        <ele>1250.33</ele>
        <time>2015-06-30T08:13:47Z</time>
      </trkpt>
      <trkpt lat="46.62415" lon="6.15131">
        <ele>1249.85</ele>
        <time>2015-06-30T08:13:48Z</time>
      </trkpt>
      <trkpt lat="46.62414" lon="6.15132">
        <ele>1249.85</ele>
        <time>2015-06-30T08:13:49Z</time>
      </trkpt>
      <trkpt lat="46.62412" lon="6.15135">
        <ele>1249.85</ele>
        <time>2015-06-30T08:13:50Z</time>
      </trkpt>
      <trkpt lat="46.6241" lon="6.15137">
        <ele>1250.33</ele>
        <time>2015-06-30T08:13:51Z</time>
      </trkpt>
      <trkpt lat="46.62408" lon="6.15139">
        <ele>1249.85</ele>
        <time>2015-06-30T08:13:52Z</time>
      </trkpt>
      <trkpt lat="46.62406" lon="6.15141">
        <ele>1250.33</ele>
        <time>2015-06-30T08:13:53Z</time>
      </trkpt>
      <trkpt lat="46.6238" lon="6.15157">
        <ele>1250.81</ele>
        <time>2015-06-30T08:14:04Z</time>
      </trkpt>
      <trkpt lat="46.62363" lon="6.15167">
        <ele>1251.77</ele>
        <time>2015-06-30T08:14:11Z</time>
      </trkpt>
      <trkpt lat="46.62361" lon="6.15169">
        <ele>1251.77</ele>
        <time>2015-06-30T08:14:12Z</time>
      </trkpt>
      <trkpt lat="46.62339" lon="6.15188">
        <ele>1252.74</ele>
        <time>2015-06-30T08:14:24Z</time>
      </trkpt>
      <trkpt lat="46.62315" lon="6.15215">
        <ele>1253.7</ele>
        <time>2015-06-30T08:14:36Z</time>
      </trkpt>
      <trkpt lat="46.62294" lon="6.15246">
        <ele>1254.18</ele>
        <time>2015-06-30T08:14:47Z</time>
      </trkpt>
      <trkpt lat="46.62272" lon="6.15271">
        <ele>1256.1</ele>
        <time>2015-06-30T08:14:58Z</time>
      </trkpt>
      <trkpt lat="46.62249" lon="6.1529">
        <ele>1257.06</ele>
        <time>2015-06-30T08:15:10Z</time>
      </trkpt>
      <trkpt lat="46.6223" lon="6.15305">
        <ele>1258.98</ele>
        <time>2015-06-30T08:15:22Z</time>
      </trkpt>
      <trkpt lat="46.62212" lon="6.15324">
        <ele>1260.43</ele>
        <time>2015-06-30T08:15:35Z</time>
      </trkpt>
      <trkpt lat="46.62189" lon="6.15342">
        <ele>1262.83</ele>
        <time>2015-06-30T08:15:50Z</time>
      </trkpt>
      <trkpt lat="46.62172" lon="6.15349">
        <ele>1263.79</ele>
        <time>2015-06-30T08:16:03Z</time>
      </trkpt>
      <trkpt lat="46.62166" lon="6.15348">
        <ele>1264.27</ele>
        <time>2015-06-30T08:16:07Z</time>
      </trkpt>
      <trkpt lat="46.62164" lon="6.15347">
        <ele>1263.79</ele>
        <time>2015-06-30T08:16:08Z</time>
      </trkpt>
      <trkpt lat="46.62136" lon="6.15349">
        <ele>1262.83</ele>
        <time>2015-06-30T08:16:17Z</time>
      </trkpt>
      <trkpt lat="46.62119" lon="6.1535">
        <ele>1262.83</ele>
        <time>2015-06-30T08:16:20Z</time>
      </trkpt>
      <trkpt lat="46.62115" lon="6.15351">
        <ele>1263.31</ele>
        <time>2015-06-30T08:16:21Z</time>
      </trkpt>
      <trkpt lat="46.62111" lon="6.15352">
        <ele>1263.79</ele>
        <time>2015-06-30T08:16:22Z</time>
      </trkpt>
      <trkpt lat="46.62108" lon="6.15354">
        <ele>1263.79</ele>
        <time>2015-06-30T08:16:23Z</time>
      </trkpt>
      <trkpt lat="46.62105" lon="6.15356">
        <ele>1263.31</ele>
        <time>2015-06-30T08:16:24Z</time>
      </trkpt>
      <trkpt lat="46.62102" lon="6.15358">
        <ele>1263.79</ele>
        <time>2015-06-30T08:16:25Z</time>
      </trkpt>
      <trkpt lat="46.62099" lon="6.15362">
        <ele>1263.79</ele>
        <time>2015-06-30T08:16:26Z</time>
      </trkpt>
      <trkpt lat="46.62095" lon="6.15365">
        <ele>1263.31</ele>
        <time>2015-06-30T08:16:27Z</time>
      </trkpt>
      <trkpt lat="46.62091" lon="6.15368">
        <ele>1263.31</ele>
        <time>2015-06-30T08:16:28Z</time>
      </trkpt>
      <trkpt lat="46.62087" lon="6.15371">
        <ele>1263.31</ele>
        <time>2015-06-30T08:16:29Z</time>
      </trkpt>
      <trkpt lat="46.62083" lon="6.15373">
        <ele>1263.31</ele>
        <time>2015-06-30T08:16:30Z</time>
      </trkpt>
      <trkpt lat="46.62047" lon="6.15389">
        <ele>1265.71</ele>
        <time>2015-06-30T08:16:41Z</time>
      </trkpt>
      <trkpt lat="46.62021" lon="6.15386">
        <ele>1266.67</ele>
        <time>2015-06-30T08:16:51Z</time>
      </trkpt>
      <trkpt lat="46.61993" lon="6.15363">
        <ele>1266.67</ele>
        <time>2015-06-30T08:17:02Z</time>
      </trkpt>
      <trkpt lat="46.61966" lon="6.15335">
        <ele>1267.64</ele>
        <time>2015-06-30T08:17:15Z</time>
      </trkpt>
      <trkpt lat="46.61956" lon="6.15316">
        <ele>1268.6</ele>
        <time>2015-06-30T08:17:23Z</time>
      </trkpt>
      <trkpt lat="46.61954" lon="6.15315">
        <ele>1269.08</ele>
        <time>2015-06-30T08:17:24Z</time>
      </trkpt>
      <trkpt lat="46.61953" lon="6.15313">
        <ele>1269.56</ele>
        <time>2015-06-30T08:17:25Z</time>
      </trkpt>
      <trkpt lat="46.61951" lon="6.15311">
        <ele>1269.08</ele>
        <time>2015-06-30T08:17:26Z</time>
      </trkpt>
      <trkpt lat="46.6195" lon="6.15309">
        <ele>1269.56</ele>
        <time>2015-06-30T08:17:27Z</time>
      </trkpt>
      <trkpt lat="46.61929" lon="6.15279">
        <ele>1270.52</ele>
        <time>2015-06-30T08:17:41Z</time>
      </trkpt>
      <trkpt lat="46.61927" lon="6.15275">
        <ele>1271</ele>
        <time>2015-06-30T08:17:43Z</time>
      </trkpt>
      <trkpt lat="46.61926" lon="6.15274">
        <ele>1271.48</ele>
        <time>2015-06-30T08:17:44Z</time>
      </trkpt>
      <trkpt lat="46.61926" lon="6.15272">
        <ele>1271.48</ele>
        <time>2015-06-30T08:17:45Z</time>
      </trkpt>
      <trkpt lat="46.6192" lon="6.15265">
        <ele>1271.48</ele>
        <time>2015-06-30T08:17:56Z</time>
      </trkpt>
      <trkpt lat="46.61919" lon="6.15264">
        <ele>1271.48</ele>
        <time>2015-06-30T08:18:23Z</time>
      </trkpt>
      <trkpt lat="46.61919" lon="6.15264">
        <ele>1271</ele>
        <time>2015-06-30T08:18:34Z</time>
      </trkpt>
      <trkpt lat="46.61921" lon="6.15266">
        <ele>1271</ele>
        <time>2015-06-30T08:19:15Z</time>
      </trkpt>
      <trkpt lat="46.61921" lon="6.15265">
        <ele>1271.48</ele>
        <time>2015-06-30T08:19:40Z</time>
      </trkpt>
      <trkpt lat="46.61921" lon="6.15263">
        <ele>1271.96</ele>
        <time>2015-06-30T08:20:10Z</time>
      </trkpt>
      <trkpt lat="46.61919" lon="6.15264">
        <ele>1271.48</ele>
        <time>2015-06-30T08:20:43Z</time>
      </trkpt>
      <trkpt lat="46.61918" lon="6.15264">
        <ele>1271.48</ele>
        <time>2015-06-30T08:21:15Z</time>
      </trkpt>
      <trkpt lat="46.61918" lon="6.15264">
        <ele>1271.48</ele>
        <time>2015-06-30T08:21:45Z</time>
      </trkpt>
      <trkpt lat="46.61918" lon="6.15265">
        <ele>1271.96</ele>
        <time>2015-06-30T08:22:15Z</time>
      </trkpt>
      <trkpt lat="46.61917" lon="6.15264">
        <ele>1272.44</ele>
        <time>2015-06-30T08:22:44Z</time>
      </trkpt>
      <trkpt lat="46.61916" lon="6.15264">
        <ele>1272.44</ele>
        <time>2015-06-30T08:23:15Z</time>
      </trkpt>
      <trkpt lat="46.61915" lon="6.15263">
        <ele>1272.92</ele>
        <time>2015-06-30T08:23:50Z</time>
      </trkpt>
      <trkpt lat="46.61918" lon="6.15264">
        <ele>1273.4</ele>
        <time>2015-06-30T08:24:22Z</time>
      </trkpt>
      <trkpt lat="46.61917" lon="6.15262">
        <ele>1273.4</ele>
        <time>2015-06-30T08:24:55Z</time>
      </trkpt>
      <trkpt lat="46.61916" lon="6.15263">
        <ele>1273.4</ele>
        <time>2015-06-30T08:25:22Z</time>
      </trkpt>
      <trkpt lat="46.61916" lon="6.15263">
        <ele>1273.4</ele>
        <time>2015-06-30T08:25:55Z</time>
      </trkpt>
      <trkpt lat="46.61917" lon="6.15263">
        <ele>1274.36</ele>
        <time>2015-06-30T08:26:30Z</time>
      </trkpt>
      <trkpt lat="46.61916" lon="6.15262">
        <ele>1274.36</ele>
        <time>2015-06-30T08:27:02Z</time>
      </trkpt>
      <trkpt lat="46.61916" lon="6.15261">
        <ele>1274.85</ele>
        <time>2015-06-30T08:27:32Z</time>
      </trkpt>
      <trkpt lat="46.61918" lon="6.15261">
        <ele>1274.85</ele>
        <time>2015-06-30T08:28:03Z</time>
      </trkpt>
      <trkpt lat="46.61918" lon="6.15262">
        <ele>1274.85</ele>
        <time>2015-06-30T08:28:34Z</time>
      </trkpt>
      <trkpt lat="46.61917" lon="6.15261">
        <ele>1275.33</ele>
        <time>2015-06-30T08:29:03Z</time>
      </trkpt>
      <trkpt lat="46.61917" lon="6.15261">
        <ele>1275.81</ele>
        <time>2015-06-30T08:29:39Z</time>
      </trkpt>
      <trkpt lat="46.61916" lon="6.1526">
        <ele>1276.29</ele>
        <time>2015-06-30T08:30:14Z</time>
      </trkpt>
      <trkpt lat="46.61914" lon="6.15261">
        <ele>1275.81</ele>
        <time>2015-06-30T08:30:43Z</time>
      </trkpt>
      <trkpt lat="46.61913" lon="6.15262">
        <ele>1276.29</ele>
        <time>2015-06-30T08:31:18Z</time>
      </trkpt>
      <trkpt lat="46.61914" lon="6.15263">
        <ele>1276.29</ele>
        <time>2015-06-30T08:31:52Z</time>
      </trkpt>
      <trkpt lat="46.61914" lon="6.15264">
        <ele>1277.25</ele>
        <time>2015-06-30T08:32:16Z</time>
      </trkpt>
      <trkpt lat="46.61913" lon="6.15259">
        <ele>1277.25</ele>
        <time>2015-06-30T08:32:40Z</time>
      </trkpt>
      <trkpt lat="46.61912" lon="6.15257">
        <ele>1277.25</ele>
        <time>2015-06-30T08:32:41Z</time>
      </trkpt>
      <trkpt lat="46.61911" lon="6.15255">
        <ele>1277.73</ele>
        <time>2015-06-30T08:32:42Z</time>
      </trkpt>
      <trkpt lat="46.619" lon="6.15238">
        <ele>1277.25</ele>
        <time>2015-06-30T08:32:50Z</time>
      </trkpt>
      <trkpt lat="46.61874" lon="6.15201">
        <ele>1279.17</ele>
        <time>2015-06-30T08:33:02Z</time>
      </trkpt>
      <trkpt lat="46.61855" lon="6.1516">
        <ele>1278.69</ele>
        <time>2015-06-30T08:33:13Z</time>
      </trkpt>
      <trkpt lat="46.61827" lon="6.15107">
        <ele>1278.69</ele>
        <time>2015-06-30T08:33:26Z</time>
      </trkpt>
      <trkpt lat="46.6182" lon="6.15105">
        <ele>1279.17</ele>
        <time>2015-06-30T08:33:28Z</time>
      </trkpt>
      <trkpt lat="46.61776" lon="6.15111">
        <ele>1278.69</ele>
        <time>2015-06-30T08:33:40Z</time>
      </trkpt>
      <trkpt lat="46.61753" lon="6.15115">
        <ele>1278.21</ele>
        <time>2015-06-30T08:33:47Z</time>
      </trkpt>
      <trkpt lat="46.61749" lon="6.15117">
        <ele>1278.21</ele>
        <time>2015-06-30T08:33:48Z</time>
      </trkpt>
      <trkpt lat="46.61746" lon="6.1512">
        <ele>1278.21</ele>
        <time>2015-06-30T08:33:49Z</time>
      </trkpt>
      <trkpt lat="46.61743" lon="6.15121">
        <ele>1278.69</ele>
        <time>2015-06-30T08:33:50Z</time>
      </trkpt>
      <trkpt lat="46.6174" lon="6.15123">
        <ele>1278.69</ele>
        <time>2015-06-30T08:33:51Z</time>
      </trkpt>
      <trkpt lat="46.61737" lon="6.15125">
        <ele>1278.69</ele>
        <time>2015-06-30T08:33:52Z</time>
      </trkpt>
      <trkpt lat="46.61734" lon="6.15127">
        <ele>1278.69</ele>
        <time>2015-06-30T08:33:53Z</time>
      </trkpt>
      <trkpt lat="46.61711" lon="6.15153">
        <ele>1281.57</ele>
        <time>2015-06-30T08:34:07Z</time>
      </trkpt>
      <trkpt lat="46.61706" lon="6.15158">
        <ele>1281.57</ele>
        <time>2015-06-30T08:34:10Z</time>
      </trkpt>
      <trkpt lat="46.61704" lon="6.15161">
        <ele>1282.06</ele>
        <time>2015-06-30T08:34:11Z</time>
      </trkpt>
      <trkpt lat="46.61703" lon="6.15163">
        <ele>1282.06</ele>
        <time>2015-06-30T08:34:12Z</time>
      </trkpt>
      <trkpt lat="46.61701" lon="6.15164">
        <ele>1283.02</ele>
        <time>2015-06-30T08:34:13Z</time>
      </trkpt>
      <trkpt lat="46.61699" lon="6.15166">
        <ele>1282.06</ele>
        <time>2015-06-30T08:34:14Z</time>
      </trkpt>
      <trkpt lat="46.61698" lon="6.15168">
        <ele>1283.02</ele>
        <time>2015-06-30T08:34:15Z</time>
      </trkpt>
      <trkpt lat="46.61696" lon="6.1517">
        <ele>1283.02</ele>
        <time>2015-06-30T08:34:16Z</time>
      </trkpt>
      <trkpt lat="46.61695" lon="6.15172">
        <ele>1283.5</ele>
        <time>2015-06-30T08:34:17Z</time>
      </trkpt>
      <trkpt lat="46.61694" lon="6.15174">
        <ele>1283.5</ele>
        <time>2015-06-30T08:34:18Z</time>
      </trkpt>
      <trkpt lat="46.61692" lon="6.15176">
        <ele>1283.02</ele>
        <time>2015-06-30T08:34:19Z</time>
      </trkpt>
      <trkpt lat="46.61669" lon="6.15193">
        <ele>1285.42</ele>
        <time>2015-06-30T08:34:34Z</time>
      </trkpt>
      <trkpt lat="46.61648" lon="6.15217">
        <ele>1286.86</ele>
        <time>2015-06-30T08:34:48Z</time>
      </trkpt>
      <trkpt lat="46.61621" lon="6.15248">
        <ele>1287.34</ele>
        <time>2015-06-30T08:35:02Z</time>
      </trkpt>
      <trkpt lat="46.61605" lon="6.15298">
        <ele>1287.82</ele>
        <time>2015-06-30T08:35:13Z</time>
      </trkpt>
      <trkpt lat="46.61595" lon="6.15316">
        <ele>1287.34</ele>
        <time>2015-06-30T08:35:17Z</time>
      </trkpt>
      <trkpt lat="46.61591" lon="6.15317">
        <ele>1286.86</ele>
        <time>2015-06-30T08:35:18Z</time>
      </trkpt>
      <trkpt lat="46.61588" lon="6.15317">
        <ele>1286.86</ele>
        <time>2015-06-30T08:35:19Z</time>
      </trkpt>
      <trkpt lat="46.61585" lon="6.15316">
        <ele>1286.86</ele>
        <time>2015-06-30T08:35:20Z</time>
      </trkpt>
      <trkpt lat="46.61582" lon="6.15315">
        <ele>1287.34</ele>
        <time>2015-06-30T08:35:21Z</time>
      </trkpt>
      <trkpt lat="46.61567" lon="6.15294">
        <ele>1286.86</ele>
        <time>2015-06-30T08:35:26Z</time>
      </trkpt>
      <trkpt lat="46.61564" lon="6.15289">
        <ele>1287.34</ele>
        <time>2015-06-30T08:35:27Z</time>
      </trkpt>
      <trkpt lat="46.61551" lon="6.15263">
        <ele>1290.23</ele>
        <time>2015-06-30T08:35:36Z</time>
      </trkpt>
      <trkpt lat="46.61539" lon="6.15235">
        <ele>1291.19</ele>
        <time>2015-06-30T08:35:48Z</time>
      </trkpt>
      <trkpt lat="46.61536" lon="6.15231">
        <ele>1292.15</ele>
        <time>2015-06-30T08:35:50Z</time>
      </trkpt>
      <trkpt lat="46.6152" lon="6.15204">
        <ele>1293.59</ele>
        <time>2015-06-30T08:36:03Z</time>
      </trkpt>
      <trkpt lat="46.61501" lon="6.1518">
        <ele>1294.55</ele>
        <time>2015-06-30T08:36:14Z</time>
      </trkpt>
      <trkpt lat="46.61493" lon="6.15171">
        <ele>1295.03</ele>
        <time>2015-06-30T08:36:18Z</time>
      </trkpt>
      <trkpt lat="46.61491" lon="6.15169">
        <ele>1295.51</ele>
        <time>2015-06-30T08:36:19Z</time>
      </trkpt>
      <trkpt lat="46.61489" lon="6.15166">
        <ele>1294.55</ele>
        <time>2015-06-30T08:36:20Z</time>
      </trkpt>
      <trkpt lat="46.61486" lon="6.15164">
        <ele>1294.55</ele>
        <time>2015-06-30T08:36:21Z</time>
      </trkpt>
      <trkpt lat="46.61483" lon="6.15161">
        <ele>1294.07</ele>
        <time>2015-06-30T08:36:22Z</time>
      </trkpt>
      <trkpt lat="46.61477" lon="6.15152">
        <ele>1293.59</ele>
        <time>2015-06-30T08:36:24Z</time>
      </trkpt>
      <trkpt lat="46.61473" lon="6.15148">
        <ele>1292.63</ele>
        <time>2015-06-30T08:36:25Z</time>
      </trkpt>
      <trkpt lat="46.61462" lon="6.15139">
        <ele>1292.15</ele>
        <time>2015-06-30T08:36:27Z</time>
      </trkpt>
      <trkpt lat="46.61456" lon="6.15135">
        <ele>1291.19</ele>
        <time>2015-06-30T08:36:28Z</time>
      </trkpt>
      <trkpt lat="46.61424" lon="6.15122">
        <ele>1288.3</ele>
        <time>2015-06-30T08:36:34Z</time>
      </trkpt>
      <trkpt lat="46.61419" lon="6.15116">
        <ele>1287.82</ele>
        <time>2015-06-30T08:36:35Z</time>
      </trkpt>
      <trkpt lat="46.61413" lon="6.1511">
        <ele>1287.82</ele>
        <time>2015-06-30T08:36:36Z</time>
      </trkpt>
      <trkpt lat="46.61399" lon="6.1509">
        <ele>1286.38</ele>
        <time>2015-06-30T08:36:39Z</time>
      </trkpt>
      <trkpt lat="46.61394" lon="6.15083">
        <ele>1286.38</ele>
        <time>2015-06-30T08:36:40Z</time>
      </trkpt>
      <trkpt lat="46.61388" lon="6.15076">
        <ele>1285.9</ele>
        <time>2015-06-30T08:36:41Z</time>
      </trkpt>
      <trkpt lat="46.61382" lon="6.1507">
        <ele>1284.94</ele>
        <time>2015-06-30T08:36:42Z</time>
      </trkpt>
      <trkpt lat="46.61376" lon="6.15064">
        <ele>1284.46</ele>
        <time>2015-06-30T08:36:43Z</time>
      </trkpt>
      <trkpt lat="46.61369" lon="6.1506">
        <ele>1284.94</ele>
        <time>2015-06-30T08:36:44Z</time>
      </trkpt>
      <trkpt lat="46.61362" lon="6.15057">
        <ele>1284.46</ele>
        <time>2015-06-30T08:36:45Z</time>
      </trkpt>
      <trkpt lat="46.61356" lon="6.15055">
        <ele>1284.46</ele>
        <time>2015-06-30T08:36:46Z</time>
      </trkpt>
      <trkpt lat="46.6135" lon="6.15055">
        <ele>1284.94</ele>
        <time>2015-06-30T08:36:47Z</time>
      </trkpt>
      <trkpt lat="46.61345" lon="6.15055">
        <ele>1284.94</ele>
        <time>2015-06-30T08:36:48Z</time>
      </trkpt>
      <trkpt lat="46.6134" lon="6.15055">
        <ele>1285.9</ele>
        <time>2015-06-30T08:36:49Z</time>
      </trkpt>
      <trkpt lat="46.61335" lon="6.15056">
        <ele>1285.9</ele>
        <time>2015-06-30T08:36:50Z</time>
      </trkpt>
      <trkpt lat="46.61331" lon="6.15055">
        <ele>1286.38</ele>
        <time>2015-06-30T08:36:51Z</time>
      </trkpt>
      <trkpt lat="46.61327" lon="6.15055">
        <ele>1285.9</ele>
        <time>2015-06-30T08:36:52Z</time>
      </trkpt>
      <trkpt lat="46.61322" lon="6.15055">
        <ele>1285.42</ele>
        <time>2015-06-30T08:36:53Z</time>
      </trkpt>
      <trkpt lat="46.61318" lon="6.15055">
        <ele>1285.9</ele>
        <time>2015-06-30T08:36:54Z</time>
      </trkpt>
      <trkpt lat="46.61314" lon="6.15055">
        <ele>1285.9</ele>
        <time>2015-06-30T08:36:55Z</time>
      </trkpt>
      <trkpt lat="46.613" lon="6.15054">
        <ele>1285.9</ele>
        <time>2015-06-30T08:36:58Z</time>
      </trkpt>
      <trkpt lat="46.61295" lon="6.15054">
        <ele>1285.9</ele>
        <time>2015-06-30T08:36:59Z</time>
      </trkpt>
      <trkpt lat="46.6129" lon="6.15054">
        <ele>1285.42</ele>
        <time>2015-06-30T08:37:00Z</time>
      </trkpt>
      <trkpt lat="46.6128" lon="6.15056">
        <ele>1285.42</ele>
        <time>2015-06-30T08:37:02Z</time>
      </trkpt>
      <trkpt lat="46.61248" lon="6.15059">
        <ele>1285.42</ele>
        <time>2015-06-30T08:37:10Z</time>
      </trkpt>
      <trkpt lat="46.61244" lon="6.15057">
        <ele>1284.94</ele>
        <time>2015-06-30T08:37:11Z</time>
      </trkpt>
      <trkpt lat="46.61234" lon="6.15049">
        <ele>1284.94</ele>
        <time>2015-06-30T08:37:13Z</time>
      </trkpt>
      <trkpt lat="46.6123" lon="6.15044">
        <ele>1284.94</ele>
        <time>2015-06-30T08:37:14Z</time>
      </trkpt>
      <trkpt lat="46.61222" lon="6.15037">
        <ele>1284.94</ele>
        <time>2015-06-30T08:37:16Z</time>
      </trkpt>
      <trkpt lat="46.61218" lon="6.15033">
        <ele>1284.46</ele>
        <time>2015-06-30T08:37:17Z</time>
      </trkpt>
      <trkpt lat="46.61213" lon="6.15029">
        <ele>1284.46</ele>
        <time>2015-06-30T08:37:18Z</time>
      </trkpt>
      <trkpt lat="46.61193" lon="6.15006">
        <ele>1284.94</ele>
        <time>2015-06-30T08:37:23Z</time>
      </trkpt>
      <trkpt lat="46.6119" lon="6.15002">
        <ele>1285.42</ele>
        <time>2015-06-30T08:37:24Z</time>
      </trkpt>
      <trkpt lat="46.61187" lon="6.14998">
        <ele>1284.94</ele>
        <time>2015-06-30T08:37:25Z</time>
      </trkpt>
      <trkpt lat="46.61183" lon="6.14995">
        <ele>1285.42</ele>
        <time>2015-06-30T08:37:26Z</time>
      </trkpt>
      <trkpt lat="46.6118" lon="6.1499">
        <ele>1285.42</ele>
        <time>2015-06-30T08:37:27Z</time>
      </trkpt>
      <trkpt lat="46.61178" lon="6.14985">
        <ele>1285.42</ele>
        <time>2015-06-30T08:37:28Z</time>
      </trkpt>
      <trkpt lat="46.61174" lon="6.1498">
        <ele>1284.94</ele>
        <time>2015-06-30T08:37:29Z</time>
      </trkpt>
      <trkpt lat="46.61145" lon="6.14928">
        <ele>1282.06</ele>
        <time>2015-06-30T08:37:37Z</time>
      </trkpt>
      <trkpt lat="46.61118" lon="6.14881">
        <ele>1279.17</ele>
        <time>2015-06-30T08:37:42Z</time>
      </trkpt>
      <trkpt lat="46.61092" lon="6.14846">
        <ele>1277.73</ele>
        <time>2015-06-30T08:37:46Z</time>
      </trkpt>
      <trkpt lat="46.61085" lon="6.14838">
        <ele>1276.77</ele>
        <time>2015-06-30T08:37:47Z</time>
      </trkpt>
      <trkpt lat="46.6107" lon="6.14821">
        <ele>1275.81</ele>
        <time>2015-06-30T08:37:49Z</time>
      </trkpt>
      <trkpt lat="46.61044" lon="6.1479">
        <ele>1277.25</ele>
        <time>2015-06-30T08:37:53Z</time>
      </trkpt>
      <trkpt lat="46.61016" lon="6.14744">
        <ele>1277.25</ele>
        <time>2015-06-30T08:37:59Z</time>
      </trkpt>
      <trkpt lat="46.61011" lon="6.14738">
        <ele>1277.73</ele>
        <time>2015-06-30T08:38:00Z</time>
      </trkpt>
      <trkpt lat="46.61007" lon="6.14732">
        <ele>1277.73</ele>
        <time>2015-06-30T08:38:01Z</time>
      </trkpt>
      <trkpt lat="46.60985" lon="6.147">
        <ele>1280.13</ele>
        <time>2015-06-30T08:38:10Z</time>
      </trkpt>
      <trkpt lat="46.60965" lon="6.14673">
        <ele>1281.57</ele>
        <time>2015-06-30T08:38:21Z</time>
      </trkpt>
      <trkpt lat="46.6095" lon="6.14655">
        <ele>1282.06</ele>
        <time>2015-06-30T08:38:29Z</time>
      </trkpt>
      <trkpt lat="46.60947" lon="6.14654">
        <ele>1282.06</ele>
        <time>2015-06-30T08:38:30Z</time>
      </trkpt>
      <trkpt lat="46.60945" lon="6.14652">
        <ele>1282.06</ele>
        <time>2015-06-30T08:38:31Z</time>
      </trkpt>
      <trkpt lat="46.60943" lon="6.14651">
        <ele>1282.06</ele>
        <time>2015-06-30T08:38:32Z</time>
      </trkpt>
      <trkpt lat="46.60941" lon="6.14649">
        <ele>1282.54</ele>
        <time>2015-06-30T08:38:33Z</time>
      </trkpt>
      <trkpt lat="46.60938" lon="6.14646">
        <ele>1282.06</ele>
        <time>2015-06-30T08:38:34Z</time>
      </trkpt>
      <trkpt lat="46.60914" lon="6.14626">
        <ele>1283.98</ele>
        <time>2015-06-30T08:38:48Z</time>
      </trkpt>
      <trkpt lat="46.60913" lon="6.14626">
        <ele>1283.98</ele>
        <time>2015-06-30T08:38:49Z</time>
      </trkpt>
      <trkpt lat="46.60911" lon="6.14626">
        <ele>1284.46</ele>
        <time>2015-06-30T08:38:50Z</time>
      </trkpt>
      <trkpt lat="46.6091" lon="6.14626">
        <ele>1283.98</ele>
        <time>2015-06-30T08:38:51Z</time>
      </trkpt>
      <trkpt lat="46.60906" lon="6.14627">
        <ele>1284.46</ele>
        <time>2015-06-30T08:38:54Z</time>
      </trkpt>
      <trkpt lat="46.60904" lon="6.14628">
        <ele>1284.94</ele>
        <time>2015-06-30T08:38:55Z</time>
      </trkpt>
      <trkpt lat="46.60889" lon="6.14636">
        <ele>1285.9</ele>
        <time>2015-06-30T08:39:06Z</time>
      </trkpt>
      <trkpt lat="46.6087" lon="6.14638">
        <ele>1288.3</ele>
        <time>2015-06-30T08:39:18Z</time>
      </trkpt>
      <trkpt lat="46.60869" lon="6.14637">
        <ele>1287.82</ele>
        <time>2015-06-30T08:39:19Z</time>
      </trkpt>
      <trkpt lat="46.60867" lon="6.14637">
        <ele>1288.3</ele>
        <time>2015-06-30T08:39:20Z</time>
      </trkpt>
      <trkpt lat="46.60866" lon="6.14636">
        <ele>1288.78</ele>
        <time>2015-06-30T08:39:21Z</time>
      </trkpt>
      <trkpt lat="46.60864" lon="6.14635">
        <ele>1288.3</ele>
        <time>2015-06-30T08:39:22Z</time>
      </trkpt>
      <trkpt lat="46.60863" lon="6.14634">
        <ele>1288.78</ele>
        <time>2015-06-30T08:39:23Z</time>
      </trkpt>
      <trkpt lat="46.60861" lon="6.14634">
        <ele>1289.27</ele>
        <time>2015-06-30T08:39:24Z</time>
      </trkpt>
      <trkpt lat="46.6086" lon="6.14634">
        <ele>1289.75</ele>
        <time>2015-06-30T08:39:25Z</time>
      </trkpt>
      <trkpt lat="46.60858" lon="6.14634">
        <ele>1289.75</ele>
        <time>2015-06-30T08:39:26Z</time>
      </trkpt>
      <trkpt lat="46.60857" lon="6.14632">
        <ele>1289.75</ele>
        <time>2015-06-30T08:39:27Z</time>
      </trkpt>
      <trkpt lat="46.60855" lon="6.14631">
        <ele>1290.23</ele>
        <time>2015-06-30T08:39:28Z</time>
      </trkpt>
      <trkpt lat="46.60853" lon="6.14629">
        <ele>1290.23</ele>
        <time>2015-06-30T08:39:30Z</time>
      </trkpt>
      <trkpt lat="46.60849" lon="6.14621">
        <ele>1292.15</ele>
        <time>2015-06-30T08:39:39Z</time>
      </trkpt>
      <trkpt lat="46.60848" lon="6.14618">
        <ele>1292.15</ele>
        <time>2015-06-30T08:39:41Z</time>
      </trkpt>
      <trkpt lat="46.6084" lon="6.14608">
        <ele>1293.59</ele>
        <time>2015-06-30T08:39:51Z</time>
      </trkpt>
      <trkpt lat="46.6083" lon="6.14595">
        <ele>1295.51</ele>
        <time>2015-06-30T08:40:04Z</time>
      </trkpt>
      <trkpt lat="46.60827" lon="6.14585">
        <ele>1296.48</ele>
        <time>2015-06-30T08:40:15Z</time>
      </trkpt>
      <trkpt lat="46.60826" lon="6.14581">
        <ele>1296.96</ele>
        <time>2015-06-30T08:40:21Z</time>
      </trkpt>
      <trkpt lat="46.60824" lon="6.14579">
        <ele>1297.44</ele>
        <time>2015-06-30T08:40:23Z</time>
      </trkpt>
      <trkpt lat="46.60822" lon="6.14574">
        <ele>1297.44</ele>
        <time>2015-06-30T08:40:26Z</time>
      </trkpt>
      <trkpt lat="46.60822" lon="6.14571">
        <ele>1297.44</ele>
        <time>2015-06-30T08:40:27Z</time>
      </trkpt>
      <trkpt lat="46.60821" lon="6.14569">
        <ele>1297.44</ele>
        <time>2015-06-30T08:40:28Z</time>
      </trkpt>
      <trkpt lat="46.60813" lon="6.14554">
        <ele>1297.92</ele>
        <time>2015-06-30T08:40:34Z</time>
      </trkpt>
      <trkpt lat="46.60802" lon="6.14537">
        <ele>1298.4</ele>
        <time>2015-06-30T08:40:41Z</time>
      </trkpt>
      <trkpt lat="46.60801" lon="6.14534">
        <ele>1298.4</ele>
        <time>2015-06-30T08:40:42Z</time>
      </trkpt>
      <trkpt lat="46.608" lon="6.14531">
        <ele>1298.4</ele>
        <time>2015-06-30T08:40:43Z</time>
      </trkpt>
      <trkpt lat="46.60796" lon="6.14522">
        <ele>1298.4</ele>
        <time>2015-06-30T08:40:46Z</time>
      </trkpt>
      <trkpt lat="46.60769" lon="6.14492">
        <ele>1298.88</ele>
        <time>2015-06-30T08:40:58Z</time>
      </trkpt>
      <trkpt lat="46.60752" lon="6.14483">
        <ele>1300.8</ele>
        <time>2015-06-30T08:41:05Z</time>
      </trkpt>
      <trkpt lat="46.6075" lon="6.1448">
        <ele>1301.76</ele>
        <time>2015-06-30T08:41:06Z</time>
      </trkpt>
      <trkpt lat="46.60748" lon="6.14478">
        <ele>1301.28</ele>
        <time>2015-06-30T08:41:07Z</time>
      </trkpt>
      <trkpt lat="46.60745" lon="6.14474">
        <ele>1301.76</ele>
        <time>2015-06-30T08:41:08Z</time>
      </trkpt>
      <trkpt lat="46.60743" lon="6.14471">
        <ele>1302.24</ele>
        <time>2015-06-30T08:41:09Z</time>
      </trkpt>
      <trkpt lat="46.60742" lon="6.14468">
        <ele>1302.72</ele>
        <time>2015-06-30T08:41:10Z</time>
      </trkpt>
      <trkpt lat="46.6074" lon="6.14466">
        <ele>1302.24</ele>
        <time>2015-06-30T08:41:11Z</time>
      </trkpt>
      <trkpt lat="46.60738" lon="6.14464">
        <ele>1302.72</ele>
        <time>2015-06-30T08:41:12Z</time>
      </trkpt>
      <trkpt lat="46.60715" lon="6.14424">
        <ele>1303.2</ele>
        <time>2015-06-30T08:41:26Z</time>
      </trkpt>
      <trkpt lat="46.60694" lon="6.1439">
        <ele>1304.17</ele>
        <time>2015-06-30T08:41:39Z</time>
      </trkpt>
      <trkpt lat="46.60685" lon="6.14377">
        <ele>1306.09</ele>
        <time>2015-06-30T08:41:47Z</time>
      </trkpt>
      <trkpt lat="46.60682" lon="6.14373">
        <ele>1307.53</ele>
        <time>2015-06-30T08:41:53Z</time>
      </trkpt>
      <trkpt lat="46.6068" lon="6.14372">
        <ele>1307.53</ele>
        <time>2015-06-30T08:41:54Z</time>
      </trkpt>
      <trkpt lat="46.60678" lon="6.14371">
        <ele>1307.53</ele>
        <time>2015-06-30T08:41:55Z</time>
      </trkpt>
      <trkpt lat="46.60676" lon="6.1437">
        <ele>1308.01</ele>
        <time>2015-06-30T08:41:56Z</time>
      </trkpt>
      <trkpt lat="46.60675" lon="6.1437">
        <ele>1308.49</ele>
        <time>2015-06-30T08:41:57Z</time>
      </trkpt>
      <trkpt lat="46.6067" lon="6.1437">
        <ele>1308.49</ele>
        <time>2015-06-30T08:41:59Z</time>
      </trkpt>
      <trkpt lat="46.60668" lon="6.1437">
        <ele>1308.49</ele>
        <time>2015-06-30T08:42:00Z</time>
      </trkpt>
      <trkpt lat="46.60666" lon="6.14369">
        <ele>1308.49</ele>
        <time>2015-06-30T08:42:01Z</time>
      </trkpt>
      <trkpt lat="46.60664" lon="6.14369">
        <ele>1308.49</ele>
        <time>2015-06-30T08:42:02Z</time>
      </trkpt>
      <trkpt lat="46.60663" lon="6.14369">
        <ele>1308.97</ele>
        <time>2015-06-30T08:42:03Z</time>
      </trkpt>
      <trkpt lat="46.6066" lon="6.14368">
        <ele>1308.97</ele>
        <time>2015-06-30T08:42:05Z</time>
      </trkpt>
      <trkpt lat="46.60658" lon="6.14367">
        <ele>1309.45</ele>
        <time>2015-06-30T08:42:06Z</time>
      </trkpt>
      <trkpt lat="46.60656" lon="6.14366">
        <ele>1308.97</ele>
        <time>2015-06-30T08:42:07Z</time>
      </trkpt>
      <trkpt lat="46.60637" lon="6.14361">
        <ele>1310.41</ele>
        <time>2015-06-30T08:42:18Z</time>
      </trkpt>
      <trkpt lat="46.60636" lon="6.14362">
        <ele>1310.41</ele>
        <time>2015-06-30T08:42:19Z</time>
      </trkpt>
      <trkpt lat="46.60635" lon="6.14363">
        <ele>1311.38</ele>
        <time>2015-06-30T08:42:20Z</time>
      </trkpt>
      <trkpt lat="46.60616" lon="6.14366">
        <ele>1312.34</ele>
        <time>2015-06-30T08:42:33Z</time>
      </trkpt>
      <trkpt lat="46.60615" lon="6.14366">
        <ele>1312.82</ele>
        <time>2015-06-30T08:42:34Z</time>
      </trkpt>
      <trkpt lat="46.60612" lon="6.14365">
        <ele>1312.82</ele>
        <time>2015-06-30T08:42:36Z</time>
      </trkpt>
      <trkpt lat="46.60594" lon="6.14336">
        <ele>1314.74</ele>
        <time>2015-06-30T08:42:49Z</time>
      </trkpt>
      <trkpt lat="46.60584" lon="6.14309">
        <ele>1317.14</ele>
        <time>2015-06-30T08:43:03Z</time>
      </trkpt>
      <trkpt lat="46.60563" lon="6.14284">
        <ele>1318.1</ele>
        <time>2015-06-30T08:43:17Z</time>
      </trkpt>
      <trkpt lat="46.60558" lon="6.1428">
        <ele>1318.1</ele>
        <time>2015-06-30T08:43:19Z</time>
      </trkpt>
      <trkpt lat="46.60556" lon="6.14277">
        <ele>1317.62</ele>
        <time>2015-06-30T08:43:20Z</time>
      </trkpt>
      <trkpt lat="46.60545" lon="6.14257">
        <ele>1318.59</ele>
        <time>2015-06-30T08:43:27Z</time>
      </trkpt>
      <trkpt lat="46.60545" lon="6.14254">
        <ele>1318.59</ele>
        <time>2015-06-30T08:43:28Z</time>
      </trkpt>
      <trkpt lat="46.60545" lon="6.14252">
        <ele>1318.59</ele>
        <time>2015-06-30T08:43:29Z</time>
      </trkpt>
      <trkpt lat="46.60544" lon="6.14249">
        <ele>1319.07</ele>
        <time>2015-06-30T08:43:30Z</time>
      </trkpt>
      <trkpt lat="46.60543" lon="6.14247">
        <ele>1318.59</ele>
        <time>2015-06-30T08:43:31Z</time>
      </trkpt>
      <trkpt lat="46.60532" lon="6.14213">
        <ele>1317.62</ele>
        <time>2015-06-30T08:43:40Z</time>
      </trkpt>
      <trkpt lat="46.60532" lon="6.14207">
        <ele>1317.62</ele>
        <time>2015-06-30T08:43:41Z</time>
      </trkpt>
      <trkpt lat="46.60531" lon="6.14194">
        <ele>1317.14</ele>
        <time>2015-06-30T08:43:43Z</time>
      </trkpt>
      <trkpt lat="46.60531" lon="6.14187">
        <ele>1316.18</ele>
        <time>2015-06-30T08:43:44Z</time>
      </trkpt>
      <trkpt lat="46.60529" lon="6.14169">
        <ele>1315.22</ele>
        <time>2015-06-30T08:43:46Z</time>
      </trkpt>
      <trkpt lat="46.60526" lon="6.14145">
        <ele>1313.78</ele>
        <time>2015-06-30T08:43:48Z</time>
      </trkpt>
      <trkpt lat="46.60523" lon="6.14134">
        <ele>1312.34</ele>
        <time>2015-06-30T08:43:49Z</time>
      </trkpt>
      <trkpt lat="46.60518" lon="6.14123">
        <ele>1311.86</ele>
        <time>2015-06-30T08:43:50Z</time>
      </trkpt>
      <trkpt lat="46.60513" lon="6.14114">
        <ele>1311.86</ele>
        <time>2015-06-30T08:43:51Z</time>
      </trkpt>
      <trkpt lat="46.60508" lon="6.14107">
        <ele>1312.82</ele>
        <time>2015-06-30T08:43:52Z</time>
      </trkpt>
      <trkpt lat="46.60504" lon="6.14103">
        <ele>1313.3</ele>
        <time>2015-06-30T08:43:53Z</time>
      </trkpt>
      <trkpt lat="46.60501" lon="6.14102">
        <ele>1313.3</ele>
        <time>2015-06-30T08:43:54Z</time>
      </trkpt>
      <trkpt lat="46.60498" lon="6.14102">
        <ele>1314.26</ele>
        <time>2015-06-30T08:43:55Z</time>
      </trkpt>
      <trkpt lat="46.60495" lon="6.14102">
        <ele>1314.74</ele>
        <time>2015-06-30T08:43:56Z</time>
      </trkpt>
      <trkpt lat="46.60493" lon="6.14103">
        <ele>1315.22</ele>
        <time>2015-06-30T08:43:57Z</time>
      </trkpt>
      <trkpt lat="46.60485" lon="6.14101">
        <ele>1316.18</ele>
        <time>2015-06-30T08:44:01Z</time>
      </trkpt>
      <trkpt lat="46.60484" lon="6.14102">
        <ele>1316.18</ele>
        <time>2015-06-30T08:44:02Z</time>
      </trkpt>
      <trkpt lat="46.60482" lon="6.14102">
        <ele>1316.66</ele>
        <time>2015-06-30T08:44:03Z</time>
      </trkpt>
      <trkpt lat="46.60473" lon="6.14104">
        <ele>1318.59</ele>
        <time>2015-06-30T08:44:09Z</time>
      </trkpt>
      <trkpt lat="46.60471" lon="6.14104">
        <ele>1318.1</ele>
        <time>2015-06-30T08:44:10Z</time>
      </trkpt>
      <trkpt lat="46.60445" lon="6.14106">
        <ele>1319.07</ele>
        <time>2015-06-30T08:44:24Z</time>
      </trkpt>
      <trkpt lat="46.60444" lon="6.14107">
        <ele>1319.07</ele>
        <time>2015-06-30T08:44:25Z</time>
      </trkpt>
      <trkpt lat="46.60442" lon="6.14108">
        <ele>1319.07</ele>
        <time>2015-06-30T08:44:26Z</time>
      </trkpt>
      <trkpt lat="46.6042" lon="6.14124">
        <ele>1320.03</ele>
        <time>2015-06-30T08:44:39Z</time>
      </trkpt>
      <trkpt lat="46.60399" lon="6.14123">
        <ele>1320.99</ele>
        <time>2015-06-30T08:44:50Z</time>
      </trkpt>
      <trkpt lat="46.60382" lon="6.1413">
        <ele>1322.91</ele>
        <time>2015-06-30T08:45:03Z</time>
      </trkpt>
      <trkpt lat="46.60379" lon="6.14131">
        <ele>1323.39</ele>
        <time>2015-06-30T08:45:05Z</time>
      </trkpt>
      <trkpt lat="46.60377" lon="6.14131">
        <ele>1324.35</ele>
        <time>2015-06-30T08:45:06Z</time>
      </trkpt>
      <trkpt lat="46.60375" lon="6.14131">
        <ele>1323.39</ele>
        <time>2015-06-30T08:45:07Z</time>
      </trkpt>
      <trkpt lat="46.60367" lon="6.14134">
        <ele>1325.31</ele>
        <time>2015-06-30T08:45:12Z</time>
      </trkpt>
      <trkpt lat="46.60366" lon="6.14134">
        <ele>1325.31</ele>
        <time>2015-06-30T08:45:13Z</time>
      </trkpt>
      <trkpt lat="46.60364" lon="6.14135">
        <ele>1325.31</ele>
        <time>2015-06-30T08:45:14Z</time>
      </trkpt>
      <trkpt lat="46.60362" lon="6.14135">
        <ele>1325.8</ele>
        <time>2015-06-30T08:45:15Z</time>
      </trkpt>
      <trkpt lat="46.6036" lon="6.14136">
        <ele>1325.31</ele>
        <time>2015-06-30T08:45:16Z</time>
      </trkpt>
      <trkpt lat="46.60359" lon="6.14136">
        <ele>1325.8</ele>
        <time>2015-06-30T08:45:17Z</time>
      </trkpt>
      <trkpt lat="46.60358" lon="6.14136">
        <ele>1325.8</ele>
        <time>2015-06-30T08:45:18Z</time>
      </trkpt>
      <trkpt lat="46.60356" lon="6.14136">
        <ele>1326.28</ele>
        <time>2015-06-30T08:45:19Z</time>
      </trkpt>
      <trkpt lat="46.60355" lon="6.14136">
        <ele>1325.8</ele>
        <time>2015-06-30T08:45:20Z</time>
      </trkpt>
      <trkpt lat="46.60353" lon="6.14136">
        <ele>1326.76</ele>
        <time>2015-06-30T08:45:21Z</time>
      </trkpt>
      <trkpt lat="46.60352" lon="6.14136">
        <ele>1326.28</ele>
        <time>2015-06-30T08:45:22Z</time>
      </trkpt>
      <trkpt lat="46.6035" lon="6.14137">
        <ele>1326.28</ele>
        <time>2015-06-30T08:45:23Z</time>
      </trkpt>
      <trkpt lat="46.60349" lon="6.14138">
        <ele>1325.8</ele>
        <time>2015-06-30T08:45:24Z</time>
      </trkpt>
      <trkpt lat="46.60332" lon="6.14135">
        <ele>1326.76</ele>
        <time>2015-06-30T08:45:33Z</time>
      </trkpt>
      <trkpt lat="46.60331" lon="6.14135">
        <ele>1326.76</ele>
        <time>2015-06-30T08:45:34Z</time>
      </trkpt>
      <trkpt lat="46.60329" lon="6.14135">
        <ele>1327.24</ele>
        <time>2015-06-30T08:45:35Z</time>
      </trkpt>
      <trkpt lat="46.60328" lon="6.14135">
        <ele>1327.24</ele>
        <time>2015-06-30T08:45:36Z</time>
      </trkpt>
      <trkpt lat="46.60319" lon="6.14131">
        <ele>1328.2</ele>
        <time>2015-06-30T08:45:42Z</time>
      </trkpt>
      <trkpt lat="46.60318" lon="6.14131">
        <ele>1328.2</ele>
        <time>2015-06-30T08:45:43Z</time>
      </trkpt>
      <trkpt lat="46.60316" lon="6.14131">
        <ele>1328.2</ele>
        <time>2015-06-30T08:45:44Z</time>
      </trkpt>
      <trkpt lat="46.60312" lon="6.14129">
        <ele>1329.16</ele>
        <time>2015-06-30T08:45:47Z</time>
      </trkpt>
      <trkpt lat="46.60311" lon="6.14127">
        <ele>1329.16</ele>
        <time>2015-06-30T08:45:48Z</time>
      </trkpt>
      <trkpt lat="46.60309" lon="6.14125">
        <ele>1328.2</ele>
        <time>2015-06-30T08:45:49Z</time>
      </trkpt>
      <trkpt lat="46.60308" lon="6.14121">
        <ele>1329.16</ele>
        <time>2015-06-30T08:45:50Z</time>
      </trkpt>
      <trkpt lat="46.60306" lon="6.1412">
        <ele>1329.16</ele>
        <time>2015-06-30T08:45:51Z</time>
      </trkpt>
      <trkpt lat="46.60305" lon="6.14118">
        <ele>1329.64</ele>
        <time>2015-06-30T08:45:52Z</time>
      </trkpt>
      <trkpt lat="46.60303" lon="6.14116">
        <ele>1329.16</ele>
        <time>2015-06-30T08:45:53Z</time>
      </trkpt>
      <trkpt lat="46.60301" lon="6.14115">
        <ele>1329.16</ele>
        <time>2015-06-30T08:45:54Z</time>
      </trkpt>
      <trkpt lat="46.60299" lon="6.14115">
        <ele>1329.64</ele>
        <time>2015-06-30T08:45:55Z</time>
      </trkpt>
      <trkpt lat="46.60296" lon="6.14115">
        <ele>1329.16</ele>
        <time>2015-06-30T08:45:56Z</time>
      </trkpt>
      <trkpt lat="46.60294" lon="6.14114">
        <ele>1329.16</ele>
        <time>2015-06-30T08:45:57Z</time>
      </trkpt>
      <trkpt lat="46.60292" lon="6.14114">
        <ele>1329.16</ele>
        <time>2015-06-30T08:45:58Z</time>
      </trkpt>
      <trkpt lat="46.60289" lon="6.14114">
        <ele>1329.16</ele>
        <time>2015-06-30T08:45:59Z</time>
      </trkpt>
      <trkpt lat="46.60286" lon="6.14114">
        <ele>1329.16</ele>
        <time>2015-06-30T08:46:00Z</time>
      </trkpt>
      <trkpt lat="46.60284" lon="6.14114">
        <ele>1329.16</ele>
        <time>2015-06-30T08:46:01Z</time>
      </trkpt>
      <trkpt lat="46.60282" lon="6.14114">
        <ele>1329.64</ele>
        <time>2015-06-30T08:46:02Z</time>
      </trkpt>
      <trkpt lat="46.60259" lon="6.14124">
        <ele>1330.6</ele>
        <time>2015-06-30T08:46:12Z</time>
      </trkpt>
      <trkpt lat="46.60255" lon="6.14125">
        <ele>1330.12</ele>
        <time>2015-06-30T08:46:13Z</time>
      </trkpt>
      <trkpt lat="46.60252" lon="6.14126">
        <ele>1329.64</ele>
        <time>2015-06-30T08:46:14Z</time>
      </trkpt>
      <trkpt lat="46.6025" lon="6.14128">
        <ele>1330.6</ele>
        <time>2015-06-30T08:46:15Z</time>
      </trkpt>
      <trkpt lat="46.60247" lon="6.14129">
        <ele>1330.12</ele>
        <time>2015-06-30T08:46:16Z</time>
      </trkpt>
      <trkpt lat="46.60229" lon="6.14135">
        <ele>1329.64</ele>
        <time>2015-06-30T08:46:21Z</time>
      </trkpt>
      <trkpt lat="46.60226" lon="6.14135">
        <ele>1329.64</ele>
        <time>2015-06-30T08:46:22Z</time>
      </trkpt>
      <trkpt lat="46.60222" lon="6.14135">
        <ele>1329.64</ele>
        <time>2015-06-30T08:46:23Z</time>
      </trkpt>
      <trkpt lat="46.60219" lon="6.14134">
        <ele>1330.12</ele>
        <time>2015-06-30T08:46:24Z</time>
      </trkpt>
      <trkpt lat="46.60215" lon="6.14132">
        <ele>1329.64</ele>
        <time>2015-06-30T08:46:25Z</time>
      </trkpt>
      <trkpt lat="46.60212" lon="6.14129">
        <ele>1329.64</ele>
        <time>2015-06-30T08:46:26Z</time>
      </trkpt>
      <trkpt lat="46.6021" lon="6.14127">
        <ele>1330.12</ele>
        <time>2015-06-30T08:46:27Z</time>
      </trkpt>
      <trkpt lat="46.60207" lon="6.14123">
        <ele>1329.64</ele>
        <time>2015-06-30T08:46:28Z</time>
      </trkpt>
      <trkpt lat="46.60206" lon="6.14119">
        <ele>1329.64</ele>
        <time>2015-06-30T08:46:29Z</time>
      </trkpt>
      <trkpt lat="46.60204" lon="6.14112">
        <ele>1329.16</ele>
        <time>2015-06-30T08:46:30Z</time>
      </trkpt>
      <trkpt lat="46.60204" lon="6.14104">
        <ele>1328.68</ele>
        <time>2015-06-30T08:46:31Z</time>
      </trkpt>
      <trkpt lat="46.60203" lon="6.14095">
        <ele>1327.72</ele>
        <time>2015-06-30T08:46:32Z</time>
      </trkpt>
      <trkpt lat="46.60202" lon="6.14085">
        <ele>1327.24</ele>
        <time>2015-06-30T08:46:33Z</time>
      </trkpt>
      <trkpt lat="46.60194" lon="6.14025">
        <ele>1326.76</ele>
        <time>2015-06-30T08:46:40Z</time>
      </trkpt>
      <trkpt lat="46.60194" lon="6.14017">
        <ele>1327.24</ele>
        <time>2015-06-30T08:46:41Z</time>
      </trkpt>
      <trkpt lat="46.60194" lon="6.14004">
        <ele>1328.2</ele>
        <time>2015-06-30T08:46:43Z</time>
      </trkpt>
      <trkpt lat="46.60195" lon="6.13974">
        <ele>1330.6</ele>
        <time>2015-06-30T08:46:49Z</time>
      </trkpt>
      <trkpt lat="46.60195" lon="6.13971">
        <ele>1331.08</ele>
        <time>2015-06-30T08:46:50Z</time>
      </trkpt>
      <trkpt lat="46.60196" lon="6.13957">
        <ele>1332.04</ele>
        <time>2015-06-30T08:46:57Z</time>
      </trkpt>
      <trkpt lat="46.60196" lon="6.13952">
        <ele>1331.56</ele>
        <time>2015-06-30T08:46:58Z</time>
      </trkpt>
      <trkpt lat="46.60197" lon="6.13948">
        <ele>1331.56</ele>
        <time>2015-06-30T08:46:59Z</time>
      </trkpt>
      <trkpt lat="46.60196" lon="6.13944">
        <ele>1331.08</ele>
        <time>2015-06-30T08:47:00Z</time>
      </trkpt>
      <trkpt lat="46.60195" lon="6.1394">
        <ele>1330.6</ele>
        <time>2015-06-30T08:47:01Z</time>
      </trkpt>
      <trkpt lat="46.60195" lon="6.13933">
        <ele>1330.6</ele>
        <time>2015-06-30T08:47:02Z</time>
      </trkpt>
      <trkpt lat="46.60194" lon="6.13925">
        <ele>1330.6</ele>
        <time>2015-06-30T08:47:03Z</time>
      </trkpt>
      <trkpt lat="46.60194" lon="6.13918">
        <ele>1330.12</ele>
        <time>2015-06-30T08:47:04Z</time>
      </trkpt>
      <trkpt lat="46.60194" lon="6.13911">
        <ele>1329.64</ele>
        <time>2015-06-30T08:47:05Z</time>
      </trkpt>
      <trkpt lat="46.60196" lon="6.13895">
        <ele>1329.16</ele>
        <time>2015-06-30T08:47:07Z</time>
      </trkpt>
      <trkpt lat="46.60197" lon="6.13887">
        <ele>1329.16</ele>
        <time>2015-06-30T08:47:08Z</time>
      </trkpt>
      <trkpt lat="46.60197" lon="6.13878">
        <ele>1329.64</ele>
        <time>2015-06-30T08:47:09Z</time>
      </trkpt>
      <trkpt lat="46.60197" lon="6.13869">
        <ele>1329.16</ele>
        <time>2015-06-30T08:47:10Z</time>
      </trkpt>
      <trkpt lat="46.60196" lon="6.13861">
        <ele>1329.16</ele>
        <time>2015-06-30T08:47:11Z</time>
      </trkpt>
      <trkpt lat="46.60194" lon="6.13853">
        <ele>1328.68</ele>
        <time>2015-06-30T08:47:12Z</time>
      </trkpt>
      <trkpt lat="46.60193" lon="6.13844">
        <ele>1328.2</ele>
        <time>2015-06-30T08:47:13Z</time>
      </trkpt>
      <trkpt lat="46.60188" lon="6.13815">
        <ele>1328.2</ele>
        <time>2015-06-30T08:47:16Z</time>
      </trkpt>
      <trkpt lat="46.60188" lon="6.13806">
        <ele>1328.68</ele>
        <time>2015-06-30T08:47:17Z</time>
      </trkpt>
      <trkpt lat="46.60187" lon="6.13797">
        <ele>1329.16</ele>
        <time>2015-06-30T08:47:18Z</time>
      </trkpt>
      <trkpt lat="46.60185" lon="6.13781">
        <ele>1330.6</ele>
        <time>2015-06-30T08:47:21Z</time>
      </trkpt>
      <trkpt lat="46.60182" lon="6.13767">
        <ele>1330.6</ele>
        <time>2015-06-30T08:47:25Z</time>
      </trkpt>
      <trkpt lat="46.60181" lon="6.13763">
        <ele>1331.08</ele>
        <time>2015-06-30T08:47:26Z</time>
      </trkpt>
      <trkpt lat="46.6018" lon="6.1376">
        <ele>1331.08</ele>
        <time>2015-06-30T08:47:27Z</time>
      </trkpt>
      <trkpt lat="46.60173" lon="6.13731">
        <ele>1330.12</ele>
        <time>2015-06-30T08:47:38Z</time>
      </trkpt>
      <trkpt lat="46.60173" lon="6.1373">
        <ele>1330.12</ele>
        <time>2015-06-30T08:47:51Z</time>
      </trkpt>
      <trkpt lat="46.60172" lon="6.13734">
        <ele>1330.12</ele>
        <time>2015-06-30T08:48:25Z</time>
      </trkpt>
      <trkpt lat="46.60172" lon="6.13734">
        <ele>1330.6</ele>
        <time>2015-06-30T08:49:06Z</time>
      </trkpt>
      <trkpt lat="46.60169" lon="6.1373">
        <ele>1330.12</ele>
        <time>2015-06-30T08:49:22Z</time>
      </trkpt>
      <trkpt lat="46.60167" lon="6.13727">
        <ele>1328.68</ele>
        <time>2015-06-30T08:49:44Z</time>
      </trkpt>
      <trkpt lat="46.60166" lon="6.13725">
        <ele>1331.08</ele>
        <time>2015-06-30T08:50:10Z</time>
      </trkpt>
      <trkpt lat="46.60166" lon="6.13725">
        <ele>1327.24</ele>
        <time>2015-06-30T08:50:31Z</time>
      </trkpt>
      <trkpt lat="46.60166" lon="6.13725">
        <ele>1327.24</ele>
        <time>2015-06-30T08:50:32Z</time>
      </trkpt>
      <trkpt lat="46.60166" lon="6.13725">
        <ele>1331.56</ele>
        <time>2015-06-30T08:50:33Z</time>
      </trkpt>
      <trkpt lat="46.60166" lon="6.13725">
        <ele>1331.08</ele>
        <time>2015-06-30T08:50:34Z</time>
      </trkpt>
      <trkpt lat="46.6016" lon="6.13714">
        <ele>1330.6</ele>
        <time>2015-06-30T08:50:49Z</time>
      </trkpt>
      <trkpt lat="46.60158" lon="6.13711">
        <ele>1330.6</ele>
        <time>2015-06-30T08:50:50Z</time>
      </trkpt>
      <trkpt lat="46.60157" lon="6.13709">
        <ele>1330.6</ele>
        <time>2015-06-30T08:50:51Z</time>
      </trkpt>
      <trkpt lat="46.60132" lon="6.13704">
        <ele>1330.6</ele>
        <time>2015-06-30T08:51:02Z</time>
      </trkpt>
      <trkpt lat="46.60126" lon="6.13705">
        <ele>1329.64</ele>
        <time>2015-06-30T08:51:04Z</time>
      </trkpt>
      <trkpt lat="46.60096" lon="6.13713">
        <ele>1328.2</ele>
        <time>2015-06-30T08:51:13Z</time>
      </trkpt>
      <trkpt lat="46.6008" lon="6.13712">
        <ele>1326.76</ele>
        <time>2015-06-30T08:51:16Z</time>
      </trkpt>
      <trkpt lat="46.60064" lon="6.13699">
        <ele>1327.72</ele>
        <time>2015-06-30T08:51:21Z</time>
      </trkpt>
      <trkpt lat="46.60063" lon="6.13696">
        <ele>1328.68</ele>
        <time>2015-06-30T08:51:22Z</time>
      </trkpt>
      <trkpt lat="46.60061" lon="6.13694">
        <ele>1328.68</ele>
        <time>2015-06-30T08:51:23Z</time>
      </trkpt>
      <trkpt lat="46.6006" lon="6.13692">
        <ele>1328.2</ele>
        <time>2015-06-30T08:51:24Z</time>
      </trkpt>
      <trkpt lat="46.60059" lon="6.13689">
        <ele>1328.2</ele>
        <time>2015-06-30T08:51:25Z</time>
      </trkpt>
      <trkpt lat="46.60057" lon="6.13687">
        <ele>1328.68</ele>
        <time>2015-06-30T08:51:26Z</time>
      </trkpt>
      <trkpt lat="46.60056" lon="6.13684">
        <ele>1328.68</ele>
        <time>2015-06-30T08:51:27Z</time>
      </trkpt>
      <trkpt lat="46.60055" lon="6.13681">
        <ele>1328.2</ele>
        <time>2015-06-30T08:51:28Z</time>
      </trkpt>
      <trkpt lat="46.60042" lon="6.13655">
        <ele>1327.72</ele>
        <time>2015-06-30T08:51:36Z</time>
      </trkpt>
      <trkpt lat="46.60042" lon="6.1365">
        <ele>1327.72</ele>
        <time>2015-06-30T08:51:37Z</time>
      </trkpt>
      <trkpt lat="46.60043" lon="6.13644">
        <ele>1327.24</ele>
        <time>2015-06-30T08:51:38Z</time>
      </trkpt>
      <trkpt lat="46.60043" lon="6.13638">
        <ele>1327.24</ele>
        <time>2015-06-30T08:51:39Z</time>
      </trkpt>
      <trkpt lat="46.60043" lon="6.13632">
        <ele>1327.72</ele>
        <time>2015-06-30T08:51:40Z</time>
      </trkpt>
      <trkpt lat="46.60045" lon="6.13611">
        <ele>1329.16</ele>
        <time>2015-06-30T08:51:44Z</time>
      </trkpt>
      <trkpt lat="46.60046" lon="6.13608">
        <ele>1329.64</ele>
        <time>2015-06-30T08:51:45Z</time>
      </trkpt>
      <trkpt lat="46.60052" lon="6.1359">
        <ele>1330.6</ele>
        <time>2015-06-30T08:51:55Z</time>
      </trkpt>
      <trkpt lat="46.60054" lon="6.13586">
        <ele>1330.12</ele>
        <time>2015-06-30T08:51:57Z</time>
      </trkpt>
      <trkpt lat="46.60056" lon="6.13574">
        <ele>1330.12</ele>
        <time>2015-06-30T08:52:02Z</time>
      </trkpt>
      <trkpt lat="46.60056" lon="6.13572">
        <ele>1330.6</ele>
        <time>2015-06-30T08:52:03Z</time>
      </trkpt>
      <trkpt lat="46.60056" lon="6.1357">
        <ele>1330.6</ele>
        <time>2015-06-30T08:52:04Z</time>
      </trkpt>
      <trkpt lat="46.60057" lon="6.13567">
        <ele>1330.12</ele>
        <time>2015-06-30T08:52:05Z</time>
      </trkpt>
      <trkpt lat="46.60057" lon="6.13564">
        <ele>1330.12</ele>
        <time>2015-06-30T08:52:06Z</time>
      </trkpt>
      <trkpt lat="46.60057" lon="6.13559">
        <ele>1330.12</ele>
        <time>2015-06-30T08:52:07Z</time>
      </trkpt>
      <trkpt lat="46.60056" lon="6.13529">
        <ele>1327.72</ele>
        <time>2015-06-30T08:52:15Z</time>
      </trkpt>
      <trkpt lat="46.60056" lon="6.13527">
        <ele>1327.24</ele>
        <time>2015-06-30T08:52:16Z</time>
      </trkpt>
      <trkpt lat="46.60054" lon="6.13525">
        <ele>1326.76</ele>
        <time>2015-06-30T08:52:17Z</time>
      </trkpt>
      <trkpt lat="46.60054" lon="6.13523">
        <ele>1327.24</ele>
        <time>2015-06-30T08:52:18Z</time>
      </trkpt>
      <trkpt lat="46.60043" lon="6.13508">
        <ele>1328.2</ele>
        <time>2015-06-30T08:52:26Z</time>
      </trkpt>
      <trkpt lat="46.6004" lon="6.13503">
        <ele>1328.2</ele>
        <time>2015-06-30T08:52:35Z</time>
      </trkpt>
      <trkpt lat="46.60032" lon="6.13498">
        <ele>1330.6</ele>
        <time>2015-06-30T08:52:47Z</time>
      </trkpt>
      <trkpt lat="46.60024" lon="6.13497">
        <ele>1333.01</ele>
        <time>2015-06-30T08:53:00Z</time>
      </trkpt>
      <trkpt lat="46.60015" lon="6.13495">
        <ele>1334.45</ele>
        <time>2015-06-30T08:53:15Z</time>
      </trkpt>
      <trkpt lat="46.60013" lon="6.13494">
        <ele>1333.97</ele>
        <time>2015-06-30T08:53:21Z</time>
      </trkpt>
      <trkpt lat="46.60012" lon="6.13494">
        <ele>1334.93</ele>
        <time>2015-06-30T08:53:22Z</time>
      </trkpt>
      <trkpt lat="46.6001" lon="6.13494">
        <ele>1334.93</ele>
        <time>2015-06-30T08:53:23Z</time>
      </trkpt>
      <trkpt lat="46.60009" lon="6.13494">
        <ele>1334.93</ele>
        <time>2015-06-30T08:53:24Z</time>
      </trkpt>
      <trkpt lat="46.60008" lon="6.13494">
        <ele>1335.41</ele>
        <time>2015-06-30T08:53:25Z</time>
      </trkpt>
      <trkpt lat="46.60006" lon="6.13494">
        <ele>1335.41</ele>
        <time>2015-06-30T08:53:26Z</time>
      </trkpt>
      <trkpt lat="46.60003" lon="6.13493">
        <ele>1335.89</ele>
        <time>2015-06-30T08:53:29Z</time>
      </trkpt>
      <trkpt lat="46.60002" lon="6.13494">
        <ele>1335.89</ele>
        <time>2015-06-30T08:53:30Z</time>
      </trkpt>
      <trkpt lat="46.6" lon="6.13494">
        <ele>1335.89</ele>
        <time>2015-06-30T08:53:31Z</time>
      </trkpt>
      <trkpt lat="46.59999" lon="6.13494">
        <ele>1336.37</ele>
        <time>2015-06-30T08:53:32Z</time>
      </trkpt>
      <trkpt lat="46.59997" lon="6.13495">
        <ele>1336.37</ele>
        <time>2015-06-30T08:53:33Z</time>
      </trkpt>
      <trkpt lat="46.59996" lon="6.13495">
        <ele>1336.37</ele>
        <time>2015-06-30T08:53:34Z</time>
      </trkpt>
      <trkpt lat="46.59994" lon="6.13495">
        <ele>1336.37</ele>
        <time>2015-06-30T08:53:35Z</time>
      </trkpt>
      <trkpt lat="46.59993" lon="6.13495">
        <ele>1336.37</ele>
        <time>2015-06-30T08:53:36Z</time>
      </trkpt>
      <trkpt lat="46.5999" lon="6.13495">
        <ele>1336.85</ele>
        <time>2015-06-30T08:53:38Z</time>
      </trkpt>
      <trkpt lat="46.59988" lon="6.13495">
        <ele>1337.33</ele>
        <time>2015-06-30T08:53:40Z</time>
      </trkpt>
      <trkpt lat="46.59987" lon="6.13495">
        <ele>1336.85</ele>
        <time>2015-06-30T08:53:41Z</time>
      </trkpt>
      <trkpt lat="46.59984" lon="6.13496">
        <ele>1337.33</ele>
        <time>2015-06-30T08:53:44Z</time>
      </trkpt>
      <trkpt lat="46.59983" lon="6.13497">
        <ele>1337.33</ele>
        <time>2015-06-30T08:53:45Z</time>
      </trkpt>
      <trkpt lat="46.59981" lon="6.13497">
        <ele>1337.81</ele>
        <time>2015-06-30T08:53:46Z</time>
      </trkpt>
      <trkpt lat="46.59971" lon="6.13492">
        <ele>1339.25</ele>
        <time>2015-06-30T08:53:56Z</time>
      </trkpt>
      <trkpt lat="46.59959" lon="6.13473">
        <ele>1340.22</ele>
        <time>2015-06-30T08:54:06Z</time>
      </trkpt>
      <trkpt lat="46.59957" lon="6.1347">
        <ele>1339.73</ele>
        <time>2015-06-30T08:54:08Z</time>
      </trkpt>
      <trkpt lat="46.59956" lon="6.13468">
        <ele>1339.73</ele>
        <time>2015-06-30T08:54:09Z</time>
      </trkpt>
      <trkpt lat="46.59955" lon="6.13466">
        <ele>1340.22</ele>
        <time>2015-06-30T08:54:10Z</time>
      </trkpt>
      <trkpt lat="46.59953" lon="6.13463">
        <ele>1339.73</ele>
        <time>2015-06-30T08:54:11Z</time>
      </trkpt>
      <trkpt lat="46.59952" lon="6.13461">
        <ele>1340.22</ele>
        <time>2015-06-30T08:54:12Z</time>
      </trkpt>
      <trkpt lat="46.59947" lon="6.13447">
        <ele>1340.7</ele>
        <time>2015-06-30T08:54:17Z</time>
      </trkpt>
      <trkpt lat="46.59943" lon="6.13437">
        <ele>1340.22</ele>
        <time>2015-06-30T08:54:20Z</time>
      </trkpt>
      <trkpt lat="46.59942" lon="6.13433">
        <ele>1339.73</ele>
        <time>2015-06-30T08:54:21Z</time>
      </trkpt>
      <trkpt lat="46.5993" lon="6.13372">
        <ele>1338.77</ele>
        <time>2015-06-30T08:54:34Z</time>
      </trkpt>
      <trkpt lat="46.59923" lon="6.13362">
        <ele>1337.81</ele>
        <time>2015-06-30T08:54:37Z</time>
      </trkpt>
      <trkpt lat="46.5992" lon="6.13361">
        <ele>1337.81</ele>
        <time>2015-06-30T08:54:38Z</time>
      </trkpt>
      <trkpt lat="46.59918" lon="6.13362">
        <ele>1338.29</ele>
        <time>2015-06-30T08:54:39Z</time>
      </trkpt>
      <trkpt lat="46.59915" lon="6.13362">
        <ele>1337.81</ele>
        <time>2015-06-30T08:54:40Z</time>
      </trkpt>
      <trkpt lat="46.59913" lon="6.13363">
        <ele>1337.81</ele>
        <time>2015-06-30T08:54:41Z</time>
      </trkpt>
      <trkpt lat="46.5991" lon="6.13364">
        <ele>1337.81</ele>
        <time>2015-06-30T08:54:42Z</time>
      </trkpt>
      <trkpt lat="46.59909" lon="6.13364">
        <ele>1337.33</ele>
        <time>2015-06-30T08:54:43Z</time>
      </trkpt>
      <trkpt lat="46.59907" lon="6.13364">
        <ele>1336.85</ele>
        <time>2015-06-30T08:54:44Z</time>
      </trkpt>
      <trkpt lat="46.59906" lon="6.13364">
        <ele>1336.85</ele>
        <time>2015-06-30T08:54:45Z</time>
      </trkpt>
      <trkpt lat="46.59899" lon="6.13366">
        <ele>1334.45</ele>
        <time>2015-06-30T08:54:50Z</time>
      </trkpt>
      <trkpt lat="46.59897" lon="6.13368">
        <ele>1333.97</ele>
        <time>2015-06-30T08:54:51Z</time>
      </trkpt>
      <trkpt lat="46.59882" lon="6.13376">
        <ele>1333.01</ele>
        <time>2015-06-30T08:54:58Z</time>
      </trkpt>
      <trkpt lat="46.59879" lon="6.13374">
        <ele>1332.52</ele>
        <time>2015-06-30T08:54:59Z</time>
      </trkpt>
      <trkpt lat="46.59877" lon="6.13374">
        <ele>1332.52</ele>
        <time>2015-06-30T08:55:00Z</time>
      </trkpt>
      <trkpt lat="46.59874" lon="6.13375">
        <ele>1332.04</ele>
        <time>2015-06-30T08:55:01Z</time>
      </trkpt>
      <trkpt lat="46.59872" lon="6.13375">
        <ele>1333.01</ele>
        <time>2015-06-30T08:55:02Z</time>
      </trkpt>
      <trkpt lat="46.5987" lon="6.13374">
        <ele>1332.04</ele>
        <time>2015-06-30T08:55:03Z</time>
      </trkpt>
      <trkpt lat="46.59868" lon="6.13372">
        <ele>1332.52</ele>
        <time>2015-06-30T08:55:04Z</time>
      </trkpt>
      <trkpt lat="46.59865" lon="6.1337">
        <ele>1332.52</ele>
        <time>2015-06-30T08:55:05Z</time>
      </trkpt>
      <trkpt lat="46.59859" lon="6.13365">
        <ele>1333.01</ele>
        <time>2015-06-30T08:55:08Z</time>
      </trkpt>
      <trkpt lat="46.59857" lon="6.13363">
        <ele>1333.97</ele>
        <time>2015-06-30T08:55:09Z</time>
      </trkpt>
      <trkpt lat="46.59856" lon="6.13361">
        <ele>1333.97</ele>
        <time>2015-06-30T08:55:10Z</time>
      </trkpt>
      <trkpt lat="46.59855" lon="6.13359">
        <ele>1334.45</ele>
        <time>2015-06-30T08:55:11Z</time>
      </trkpt>
      <trkpt lat="46.59854" lon="6.13357">
        <ele>1334.93</ele>
        <time>2015-06-30T08:55:12Z</time>
      </trkpt>
      <trkpt lat="46.59853" lon="6.13355">
        <ele>1334.93</ele>
        <time>2015-06-30T08:55:13Z</time>
      </trkpt>
      <trkpt lat="46.59852" lon="6.13351">
        <ele>1335.41</ele>
        <time>2015-06-30T08:55:14Z</time>
      </trkpt>
      <trkpt lat="46.59851" lon="6.1335">
        <ele>1335.41</ele>
        <time>2015-06-30T08:55:15Z</time>
      </trkpt>
      <trkpt lat="46.59849" lon="6.1334">
        <ele>1336.37</ele>
        <time>2015-06-30T08:55:20Z</time>
      </trkpt>
      <trkpt lat="46.59847" lon="6.13339">
        <ele>1336.37</ele>
        <time>2015-06-30T08:55:21Z</time>
      </trkpt>
      <trkpt lat="46.59845" lon="6.13338">
        <ele>1336.37</ele>
        <time>2015-06-30T08:55:22Z</time>
      </trkpt>
      <trkpt lat="46.59843" lon="6.13336">
        <ele>1336.37</ele>
        <time>2015-06-30T08:55:23Z</time>
      </trkpt>
      <trkpt lat="46.59841" lon="6.13334">
        <ele>1336.37</ele>
        <time>2015-06-30T08:55:24Z</time>
      </trkpt>
      <trkpt lat="46.59839" lon="6.13332">
        <ele>1336.37</ele>
        <time>2015-06-30T08:55:25Z</time>
      </trkpt>
      <trkpt lat="46.59838" lon="6.13332">
        <ele>1336.37</ele>
        <time>2015-06-30T08:55:26Z</time>
      </trkpt>
      <trkpt lat="46.59836" lon="6.13332">
        <ele>1336.37</ele>
        <time>2015-06-30T08:55:27Z</time>
      </trkpt>
      <trkpt lat="46.59835" lon="6.13333">
        <ele>1336.85</ele>
        <time>2015-06-30T08:55:28Z</time>
      </trkpt>
      <trkpt lat="46.59834" lon="6.13333">
        <ele>1336.37</ele>
        <time>2015-06-30T08:55:29Z</time>
      </trkpt>
      <trkpt lat="46.59832" lon="6.13334">
        <ele>1336.85</ele>
        <time>2015-06-30T08:55:30Z</time>
      </trkpt>
      <trkpt lat="46.59831" lon="6.13334">
        <ele>1336.37</ele>
        <time>2015-06-30T08:55:31Z</time>
      </trkpt>
      <trkpt lat="46.59829" lon="6.13335">
        <ele>1336.37</ele>
        <time>2015-06-30T08:55:32Z</time>
      </trkpt>
      <trkpt lat="46.59819" lon="6.13341">
        <ele>1336.37</ele>
        <time>2015-06-30T08:55:39Z</time>
      </trkpt>
      <trkpt lat="46.59818" lon="6.13342">
        <ele>1336.85</ele>
        <time>2015-06-30T08:55:40Z</time>
      </trkpt>
      <trkpt lat="46.59814" lon="6.13349">
        <ele>1338.29</ele>
        <time>2015-06-30T08:55:51Z</time>
      </trkpt>
      <trkpt lat="46.59808" lon="6.13358">
        <ele>1339.73</ele>
        <time>2015-06-30T08:56:04Z</time>
      </trkpt>
      <trkpt lat="46.59798" lon="6.13365">
        <ele>1341.66</ele>
        <time>2015-06-30T08:56:17Z</time>
      </trkpt>
      <trkpt lat="46.5979" lon="6.13365">
        <ele>1343.58</ele>
        <time>2015-06-30T08:56:29Z</time>
      </trkpt>
      <trkpt lat="46.59789" lon="6.13365">
        <ele>1344.06</ele>
        <time>2015-06-30T08:56:37Z</time>
      </trkpt>
      <trkpt lat="46.59787" lon="6.13365">
        <ele>1343.58</ele>
        <time>2015-06-30T08:56:38Z</time>
      </trkpt>
      <trkpt lat="46.59786" lon="6.13364">
        <ele>1343.1</ele>
        <time>2015-06-30T08:56:39Z</time>
      </trkpt>
      <trkpt lat="46.59783" lon="6.13363">
        <ele>1342.62</ele>
        <time>2015-06-30T08:56:40Z</time>
      </trkpt>
      <trkpt lat="46.5978" lon="6.13363">
        <ele>1342.62</ele>
        <time>2015-06-30T08:56:41Z</time>
      </trkpt>
      <trkpt lat="46.59777" lon="6.13362">
        <ele>1342.14</ele>
        <time>2015-06-30T08:56:42Z</time>
      </trkpt>
      <trkpt lat="46.59775" lon="6.13362">
        <ele>1341.18</ele>
        <time>2015-06-30T08:56:43Z</time>
      </trkpt>
      <trkpt lat="46.59774" lon="6.13362">
        <ele>1340.7</ele>
        <time>2015-06-30T08:56:44Z</time>
      </trkpt>
      <trkpt lat="46.59772" lon="6.13362">
        <ele>1340.7</ele>
        <time>2015-06-30T08:56:45Z</time>
      </trkpt>
      <trkpt lat="46.59771" lon="6.13361">
        <ele>1340.7</ele>
        <time>2015-06-30T08:56:46Z</time>
      </trkpt>
      <trkpt lat="46.59769" lon="6.13362">
        <ele>1340.22</ele>
        <time>2015-06-30T08:56:47Z</time>
      </trkpt>
      <trkpt lat="46.59768" lon="6.13361">
        <ele>1340.22</ele>
        <time>2015-06-30T08:56:48Z</time>
      </trkpt>
      <trkpt lat="46.59767" lon="6.13362">
        <ele>1339.73</ele>
        <time>2015-06-30T08:56:49Z</time>
      </trkpt>
      <trkpt lat="46.59758" lon="6.13366">
        <ele>1340.22</ele>
        <time>2015-06-30T08:56:58Z</time>
      </trkpt>
      <trkpt lat="46.59753" lon="6.13369">
        <ele>1339.73</ele>
        <time>2015-06-30T08:57:05Z</time>
      </trkpt>
      <trkpt lat="46.59749" lon="6.13369">
        <ele>1340.22</ele>
        <time>2015-06-30T08:57:09Z</time>
      </trkpt>
      <trkpt lat="46.59739" lon="6.13366">
        <ele>1340.7</ele>
        <time>2015-06-30T08:57:19Z</time>
      </trkpt>
      <trkpt lat="46.59737" lon="6.13365">
        <ele>1340.7</ele>
        <time>2015-06-30T08:57:27Z</time>
      </trkpt>
      <trkpt lat="46.59723" lon="6.13367">
        <ele>1342.14</ele>
        <time>2015-06-30T08:57:37Z</time>
      </trkpt>
      <trkpt lat="46.59717" lon="6.13367">
        <ele>1343.58</ele>
        <time>2015-06-30T08:57:41Z</time>
      </trkpt>
      <trkpt lat="46.59702" lon="6.13371">
        <ele>1346.46</ele>
        <time>2015-06-30T08:57:52Z</time>
      </trkpt>
      <trkpt lat="46.59698" lon="6.13372">
        <ele>1346.46</ele>
        <time>2015-06-30T08:57:56Z</time>
      </trkpt>
      <trkpt lat="46.59693" lon="6.13373">
        <ele>1347.43</ele>
        <time>2015-06-30T08:58:01Z</time>
      </trkpt>
      <trkpt lat="46.59691" lon="6.13374">
        <ele>1347.43</ele>
        <time>2015-06-30T08:58:03Z</time>
      </trkpt>
      <trkpt lat="46.59676" lon="6.13372">
        <ele>1348.39</ele>
        <time>2015-06-30T08:58:14Z</time>
      </trkpt>
      <trkpt lat="46.5966" lon="6.13371">
        <ele>1347.91</ele>
        <time>2015-06-30T08:58:24Z</time>
      </trkpt>
      <trkpt lat="46.59651" lon="6.13368">
        <ele>1345.98</ele>
        <time>2015-06-30T08:58:32Z</time>
      </trkpt>
      <trkpt lat="46.59649" lon="6.13372">
        <ele>1345.5</ele>
        <time>2015-06-30T08:58:35Z</time>
      </trkpt>
      <trkpt lat="46.59626" lon="6.13369">
        <ele>1343.1</ele>
        <time>2015-06-30T08:58:42Z</time>
      </trkpt>
      <trkpt lat="46.59578" lon="6.13343">
        <ele>1345.02</ele>
        <time>2015-06-30T08:58:54Z</time>
      </trkpt>
      <trkpt lat="46.59574" lon="6.13342">
        <ele>1345.5</ele>
        <time>2015-06-30T08:58:56Z</time>
      </trkpt>
      <trkpt lat="46.59563" lon="6.13337">
        <ele>1345.98</ele>
        <time>2015-06-30T08:59:03Z</time>
      </trkpt>
      <trkpt lat="46.59547" lon="6.13331">
        <ele>1345.98</ele>
        <time>2015-06-30T08:59:14Z</time>
      </trkpt>
      <trkpt lat="46.59534" lon="6.1332">
        <ele>1346.94</ele>
        <time>2015-06-30T08:59:26Z</time>
      </trkpt>
      <trkpt lat="46.59528" lon="6.13309">
        <ele>1345.02</ele>
        <time>2015-06-30T08:59:32Z</time>
      </trkpt>
      <trkpt lat="46.59526" lon="6.133">
        <ele>1344.54</ele>
        <time>2015-06-30T08:59:35Z</time>
      </trkpt>
      <trkpt lat="46.59526" lon="6.13292">
        <ele>1343.1</ele>
        <time>2015-06-30T08:59:39Z</time>
      </trkpt>
      <trkpt lat="46.59522" lon="6.13256">
        <ele>1343.1</ele>
        <time>2015-06-30T08:59:48Z</time>
      </trkpt>
      <trkpt lat="46.59522" lon="6.13247">
        <ele>1344.06</ele>
        <time>2015-06-30T08:59:51Z</time>
      </trkpt>
      <trkpt lat="46.59518" lon="6.13241">
        <ele>1344.54</ele>
        <time>2015-06-30T08:59:55Z</time>
      </trkpt>
      <trkpt lat="46.59511" lon="6.13237">
        <ele>1345.5</ele>
        <time>2015-06-30T09:00:01Z</time>
      </trkpt>
      <trkpt lat="46.59498" lon="6.13203">
        <ele>1344.06</ele>
        <time>2015-06-30T09:00:13Z</time>
      </trkpt>
      <trkpt lat="46.59498" lon="6.132">
        <ele>1344.06</ele>
        <time>2015-06-30T09:00:14Z</time>
      </trkpt>
      <trkpt lat="46.59483" lon="6.13174">
        <ele>1343.1</ele>
        <time>2015-06-30T09:00:24Z</time>
      </trkpt>
      <trkpt lat="46.59473" lon="6.13164">
        <ele>1343.58</ele>
        <time>2015-06-30T09:00:31Z</time>
      </trkpt>
      <trkpt lat="46.59462" lon="6.1316">
        <ele>1344.54</ele>
        <time>2015-06-30T09:00:38Z</time>
      </trkpt>
      <trkpt lat="46.59458" lon="6.13158">
        <ele>1344.54</ele>
        <time>2015-06-30T09:00:41Z</time>
      </trkpt>
      <trkpt lat="46.5944" lon="6.13132">
        <ele>1345.5</ele>
        <time>2015-06-30T09:00:51Z</time>
      </trkpt>
      <trkpt lat="46.59428" lon="6.13121">
        <ele>1345.02</ele>
        <time>2015-06-30T09:00:56Z</time>
      </trkpt>
      <trkpt lat="46.59416" lon="6.13101">
        <ele>1345.5</ele>
        <time>2015-06-30T09:01:05Z</time>
      </trkpt>
      <trkpt lat="46.59408" lon="6.13085">
        <ele>1344.54</ele>
        <time>2015-06-30T09:01:11Z</time>
      </trkpt>
      <trkpt lat="46.59382" lon="6.13043">
        <ele>1345.02</ele>
        <time>2015-06-30T09:01:23Z</time>
      </trkpt>
      <trkpt lat="46.59365" lon="6.13013">
        <ele>1345.02</ele>
        <time>2015-06-30T09:01:32Z</time>
      </trkpt>
      <trkpt lat="46.59357" lon="6.12997">
        <ele>1345.02</ele>
        <time>2015-06-30T09:01:37Z</time>
      </trkpt>
      <trkpt lat="46.59345" lon="6.12984">
        <ele>1345.02</ele>
        <time>2015-06-30T09:01:49Z</time>
      </trkpt>
      <trkpt lat="46.59341" lon="6.12982">
        <ele>1344.54</ele>
        <time>2015-06-30T09:01:53Z</time>
      </trkpt>
      <trkpt lat="46.59335" lon="6.12978">
        <ele>1345.02</ele>
        <time>2015-06-30T09:01:57Z</time>
      </trkpt>
      <trkpt lat="46.59331" lon="6.12973">
        <ele>1345.02</ele>
        <time>2015-06-30T09:02:00Z</time>
      </trkpt>
      <trkpt lat="46.59326" lon="6.12966">
        <ele>1345.02</ele>
        <time>2015-06-30T09:02:04Z</time>
      </trkpt>
      <trkpt lat="46.59312" lon="6.12957">
        <ele>1345.5</ele>
        <time>2015-06-30T09:02:10Z</time>
      </trkpt>
      <trkpt lat="46.59296" lon="6.12948">
        <ele>1346.46</ele>
        <time>2015-06-30T09:02:17Z</time>
      </trkpt>
      <trkpt lat="46.59286" lon="6.12945">
        <ele>1346.46</ele>
        <time>2015-06-30T09:02:22Z</time>
      </trkpt>
      <trkpt lat="46.59262" lon="6.12929">
        <ele>1346.46</ele>
        <time>2015-06-30T09:02:33Z</time>
      </trkpt>
      <trkpt lat="46.59255" lon="6.12926">
        <ele>1346.46</ele>
        <time>2015-06-30T09:02:37Z</time>
      </trkpt>
      <trkpt lat="46.59251" lon="6.12925">
        <ele>1346.46</ele>
        <time>2015-06-30T09:02:44Z</time>
      </trkpt>
      <trkpt lat="46.59241" lon="6.12928">
        <ele>1344.06</ele>
        <time>2015-06-30T09:02:50Z</time>
      </trkpt>
      <trkpt lat="46.59225" lon="6.12918">
        <ele>1341.66</ele>
        <time>2015-06-30T09:02:57Z</time>
      </trkpt>
      <trkpt lat="46.59222" lon="6.12912">
        <ele>1341.66</ele>
        <time>2015-06-30T09:02:58Z</time>
      </trkpt>
      <trkpt lat="46.59219" lon="6.12907">
        <ele>1341.18</ele>
        <time>2015-06-30T09:02:59Z</time>
      </trkpt>
      <trkpt lat="46.59205" lon="6.12876">
        <ele>1340.7</ele>
        <time>2015-06-30T09:03:05Z</time>
      </trkpt>
      <trkpt lat="46.59205" lon="6.1287">
        <ele>1340.22</ele>
        <time>2015-06-30T09:03:06Z</time>
      </trkpt>
      <trkpt lat="46.59196" lon="6.12827">
        <ele>1340.7</ele>
        <time>2015-06-30T09:03:15Z</time>
      </trkpt>
      <trkpt lat="46.59193" lon="6.12825">
        <ele>1340.7</ele>
        <time>2015-06-30T09:03:16Z</time>
      </trkpt>
      <trkpt lat="46.59191" lon="6.12824">
        <ele>1340.7</ele>
        <time>2015-06-30T09:03:17Z</time>
      </trkpt>
      <trkpt lat="46.59188" lon="6.12824">
        <ele>1340.7</ele>
        <time>2015-06-30T09:03:18Z</time>
      </trkpt>
      <trkpt lat="46.59186" lon="6.12824">
        <ele>1340.7</ele>
        <time>2015-06-30T09:03:19Z</time>
      </trkpt>
      <trkpt lat="46.59184" lon="6.12824">
        <ele>1341.18</ele>
        <time>2015-06-30T09:03:20Z</time>
      </trkpt>
      <trkpt lat="46.59182" lon="6.12825">
        <ele>1340.7</ele>
        <time>2015-06-30T09:03:21Z</time>
      </trkpt>
      <trkpt lat="46.59177" lon="6.12827">
        <ele>1341.18</ele>
        <time>2015-06-30T09:03:24Z</time>
      </trkpt>
      <trkpt lat="46.59175" lon="6.12828">
        <ele>1341.18</ele>
        <time>2015-06-30T09:03:25Z</time>
      </trkpt>
      <trkpt lat="46.59174" lon="6.12829">
        <ele>1341.66</ele>
        <time>2015-06-30T09:03:26Z</time>
      </trkpt>
      <trkpt lat="46.5917" lon="6.12834">
        <ele>1341.66</ele>
        <time>2015-06-30T09:03:29Z</time>
      </trkpt>
      <trkpt lat="46.5917" lon="6.12835">
        <ele>1342.14</ele>
        <time>2015-06-30T09:03:30Z</time>
      </trkpt>
      <trkpt lat="46.59168" lon="6.12837">
        <ele>1342.14</ele>
        <time>2015-06-30T09:03:31Z</time>
      </trkpt>
      <trkpt lat="46.59167" lon="6.12838">
        <ele>1342.62</ele>
        <time>2015-06-30T09:03:32Z</time>
      </trkpt>
      <trkpt lat="46.59166" lon="6.12839">
        <ele>1342.62</ele>
        <time>2015-06-30T09:03:33Z</time>
      </trkpt>
      <trkpt lat="46.59164" lon="6.1284">
        <ele>1343.1</ele>
        <time>2015-06-30T09:03:34Z</time>
      </trkpt>
      <trkpt lat="46.59162" lon="6.12841">
        <ele>1342.62</ele>
        <time>2015-06-30T09:03:35Z</time>
      </trkpt>
      <trkpt lat="46.5916" lon="6.12842">
        <ele>1343.1</ele>
        <time>2015-06-30T09:03:36Z</time>
      </trkpt>
      <trkpt lat="46.59159" lon="6.12843">
        <ele>1342.62</ele>
        <time>2015-06-30T09:03:37Z</time>
      </trkpt>
      <trkpt lat="46.59157" lon="6.12844">
        <ele>1342.62</ele>
        <time>2015-06-30T09:03:38Z</time>
      </trkpt>
      <trkpt lat="46.59156" lon="6.12843">
        <ele>1343.1</ele>
        <time>2015-06-30T09:03:39Z</time>
      </trkpt>
      <trkpt lat="46.59154" lon="6.12844">
        <ele>1343.1</ele>
        <time>2015-06-30T09:03:40Z</time>
      </trkpt>
      <trkpt lat="46.59152" lon="6.12844">
        <ele>1343.1</ele>
        <time>2015-06-30T09:03:41Z</time>
      </trkpt>
      <trkpt lat="46.5915" lon="6.12845">
        <ele>1342.62</ele>
        <time>2015-06-30T09:03:42Z</time>
      </trkpt>
      <trkpt lat="46.59148" lon="6.12845">
        <ele>1342.62</ele>
        <time>2015-06-30T09:03:43Z</time>
      </trkpt>
      <trkpt lat="46.59146" lon="6.12845">
        <ele>1343.58</ele>
        <time>2015-06-30T09:03:44Z</time>
      </trkpt>
      <trkpt lat="46.59144" lon="6.12844">
        <ele>1343.1</ele>
        <time>2015-06-30T09:03:45Z</time>
      </trkpt>
      <trkpt lat="46.59138" lon="6.12846">
        <ele>1343.58</ele>
        <time>2015-06-30T09:03:51Z</time>
      </trkpt>
      <trkpt lat="46.59135" lon="6.12844">
        <ele>1343.1</ele>
        <time>2015-06-30T09:03:52Z</time>
      </trkpt>
      <trkpt lat="46.59133" lon="6.12841">
        <ele>1343.1</ele>
        <time>2015-06-30T09:03:53Z</time>
      </trkpt>
      <trkpt lat="46.59132" lon="6.12838">
        <ele>1343.1</ele>
        <time>2015-06-30T09:03:54Z</time>
      </trkpt>
      <trkpt lat="46.59131" lon="6.12836">
        <ele>1343.1</ele>
        <time>2015-06-30T09:03:55Z</time>
      </trkpt>
      <trkpt lat="46.5913" lon="6.12834">
        <ele>1343.58</ele>
        <time>2015-06-30T09:03:56Z</time>
      </trkpt>
      <trkpt lat="46.59129" lon="6.1283">
        <ele>1343.58</ele>
        <time>2015-06-30T09:03:58Z</time>
      </trkpt>
      <trkpt lat="46.59128" lon="6.12828">
        <ele>1343.58</ele>
        <time>2015-06-30T09:03:59Z</time>
      </trkpt>
      <trkpt lat="46.59127" lon="6.12826">
        <ele>1344.06</ele>
        <time>2015-06-30T09:04:00Z</time>
      </trkpt>
      <trkpt lat="46.59113" lon="6.128">
        <ele>1344.06</ele>
        <time>2015-06-30T09:04:10Z</time>
      </trkpt>
      <trkpt lat="46.59109" lon="6.12786">
        <ele>1342.62</ele>
        <time>2015-06-30T09:04:14Z</time>
      </trkpt>
      <trkpt lat="46.59109" lon="6.1278">
        <ele>1343.1</ele>
        <time>2015-06-30T09:04:17Z</time>
      </trkpt>
      <trkpt lat="46.5911" lon="6.12777">
        <ele>1342.62</ele>
        <time>2015-06-30T09:04:18Z</time>
      </trkpt>
      <trkpt lat="46.5911" lon="6.12774">
        <ele>1343.1</ele>
        <time>2015-06-30T09:04:19Z</time>
      </trkpt>
      <trkpt lat="46.59111" lon="6.12767">
        <ele>1342.62</ele>
        <time>2015-06-30T09:04:32Z</time>
      </trkpt>
      <trkpt lat="46.59113" lon="6.12762">
        <ele>1343.1</ele>
        <time>2015-06-30T09:05:07Z</time>
      </trkpt>
      <trkpt lat="46.59111" lon="6.12758">
        <ele>1343.1</ele>
        <time>2015-06-30T09:05:36Z</time>
      </trkpt>
      <trkpt lat="46.5911" lon="6.12758">
        <ele>1342.62</ele>
        <time>2015-06-30T09:06:09Z</time>
      </trkpt>
      <trkpt lat="46.59111" lon="6.12756">
        <ele>1343.1</ele>
        <time>2015-06-30T09:06:44Z</time>
      </trkpt>
      <trkpt lat="46.5911" lon="6.12756">
        <ele>1343.1</ele>
        <time>2015-06-30T09:07:17Z</time>
      </trkpt>
      <trkpt lat="46.5911" lon="6.12755">
        <ele>1343.58</ele>
        <time>2015-06-30T09:07:51Z</time>
      </trkpt>
      <trkpt lat="46.59109" lon="6.12753">
        <ele>1343.1</ele>
        <time>2015-06-30T09:08:18Z</time>
      </trkpt>
      <trkpt lat="46.59109" lon="6.12752">
        <ele>1343.58</ele>
        <time>2015-06-30T09:08:42Z</time>
      </trkpt>
      <trkpt lat="46.59109" lon="6.1275">
        <ele>1344.06</ele>
        <time>2015-06-30T09:09:11Z</time>
      </trkpt>
      <trkpt lat="46.59109" lon="6.1275">
        <ele>1343.58</ele>
        <time>2015-06-30T09:09:34Z</time>
      </trkpt>
      <trkpt lat="46.59108" lon="6.1275">
        <ele>1343.1</ele>
        <time>2015-06-30T09:10:02Z</time>
      </trkpt>
      <trkpt lat="46.59108" lon="6.12749">
        <ele>1344.06</ele>
        <time>2015-06-30T09:10:33Z</time>
      </trkpt>
      <trkpt lat="46.59108" lon="6.12749">
        <ele>1344.06</ele>
        <time>2015-06-30T09:11:03Z</time>
      </trkpt>
      <trkpt lat="46.59107" lon="6.12749">
        <ele>1344.06</ele>
        <time>2015-06-30T09:11:30Z</time>
      </trkpt>
      <trkpt lat="46.59108" lon="6.12749">
        <ele>1344.54</ele>
        <time>2015-06-30T09:12:04Z</time>
      </trkpt>
      <trkpt lat="46.59107" lon="6.12749">
        <ele>1344.06</ele>
        <time>2015-06-30T09:12:28Z</time>
      </trkpt>
      <trkpt lat="46.59107" lon="6.12749">
        <ele>1344.54</ele>
        <time>2015-06-30T09:12:40Z</time>
      </trkpt>
      <trkpt lat="46.59108" lon="6.12739">
        <ele>1343.58</ele>
        <time>2015-06-30T09:12:48Z</time>
      </trkpt>
      <trkpt lat="46.5911" lon="6.12736">
        <ele>1343.1</ele>
        <time>2015-06-30T09:12:49Z</time>
      </trkpt>
      <trkpt lat="46.5911" lon="6.12731">
        <ele>1342.62</ele>
        <time>2015-06-30T09:12:50Z</time>
      </trkpt>
      <trkpt lat="46.59111" lon="6.12726">
        <ele>1342.62</ele>
        <time>2015-06-30T09:12:51Z</time>
      </trkpt>
      <trkpt lat="46.59112" lon="6.12723">
        <ele>1343.1</ele>
        <time>2015-06-30T09:12:52Z</time>
      </trkpt>
      <trkpt lat="46.59113" lon="6.12718">
        <ele>1343.58</ele>
        <time>2015-06-30T09:12:54Z</time>
      </trkpt>
      <trkpt lat="46.59109" lon="6.12686">
        <ele>1343.1</ele>
        <time>2015-06-30T09:13:04Z</time>
      </trkpt>
      <trkpt lat="46.59107" lon="6.12683">
        <ele>1343.1</ele>
        <time>2015-06-30T09:13:06Z</time>
      </trkpt>
      <trkpt lat="46.59105" lon="6.12682">
        <ele>1343.1</ele>
        <time>2015-06-30T09:13:07Z</time>
      </trkpt>
      <trkpt lat="46.59103" lon="6.12681">
        <ele>1342.62</ele>
        <time>2015-06-30T09:13:08Z</time>
      </trkpt>
      <trkpt lat="46.59102" lon="6.12679">
        <ele>1343.1</ele>
        <time>2015-06-30T09:13:09Z</time>
      </trkpt>
      <trkpt lat="46.591" lon="6.12677">
        <ele>1342.62</ele>
        <time>2015-06-30T09:13:10Z</time>
      </trkpt>
      <trkpt lat="46.59089" lon="6.12657">
        <ele>1342.62</ele>
        <time>2015-06-30T09:13:18Z</time>
      </trkpt>
      <trkpt lat="46.59063" lon="6.12636">
        <ele>1343.1</ele>
        <time>2015-06-30T09:13:29Z</time>
      </trkpt>
      <trkpt lat="46.59059" lon="6.12634">
        <ele>1344.06</ele>
        <time>2015-06-30T09:13:31Z</time>
      </trkpt>
      <trkpt lat="46.59039" lon="6.12618">
        <ele>1344.06</ele>
        <time>2015-06-30T09:13:42Z</time>
      </trkpt>
      <trkpt lat="46.59019" lon="6.12589">
        <ele>1344.06</ele>
        <time>2015-06-30T09:13:52Z</time>
      </trkpt>
      <trkpt lat="46.59006" lon="6.12574">
        <ele>1344.06</ele>
        <time>2015-06-30T09:14:05Z</time>
      </trkpt>
      <trkpt lat="46.59005" lon="6.12572">
        <ele>1344.54</ele>
        <time>2015-06-30T09:14:16Z</time>
      </trkpt>
      <trkpt lat="46.59005" lon="6.1257">
        <ele>1344.54</ele>
        <time>2015-06-30T09:14:31Z</time>
      </trkpt>
      <trkpt lat="46.59005" lon="6.12564">
        <ele>1344.06</ele>
        <time>2015-06-30T09:14:46Z</time>
      </trkpt>
      <trkpt lat="46.59004" lon="6.12565">
        <ele>1344.54</ele>
        <time>2015-06-30T09:15:16Z</time>
      </trkpt>
      <trkpt lat="46.59005" lon="6.12562">
        <ele>1344.06</ele>
        <time>2015-06-30T09:15:27Z</time>
      </trkpt>
      <trkpt lat="46.59004" lon="6.12555">
        <ele>1342.62</ele>
        <time>2015-06-30T09:15:41Z</time>
      </trkpt>
      <trkpt lat="46.59003" lon="6.1255">
        <ele>1340.22</ele>
        <time>2015-06-30T09:15:53Z</time>
      </trkpt>
      <trkpt lat="46.59004" lon="6.12541">
        <ele>1337.33</ele>
        <time>2015-06-30T09:16:05Z</time>
      </trkpt>
      <trkpt lat="46.59001" lon="6.12533">
        <ele>1334.45</ele>
        <time>2015-06-30T09:16:19Z</time>
      </trkpt>
      <trkpt lat="46.59" lon="6.12519">
        <ele>1333.49</ele>
        <time>2015-06-30T09:16:27Z</time>
      </trkpt>
      <trkpt lat="46.59001" lon="6.12514">
        <ele>1333.01</ele>
        <time>2015-06-30T09:16:31Z</time>
      </trkpt>
      <trkpt lat="46.59001" lon="6.12512">
        <ele>1333.49</ele>
        <time>2015-06-30T09:16:32Z</time>
      </trkpt>
      <trkpt lat="46.59001" lon="6.1251">
        <ele>1333.01</ele>
        <time>2015-06-30T09:16:33Z</time>
      </trkpt>
      <trkpt lat="46.59001" lon="6.12508">
        <ele>1333.01</ele>
        <time>2015-06-30T09:16:34Z</time>
      </trkpt>
      <trkpt lat="46.59001" lon="6.12507">
        <ele>1333.01</ele>
        <time>2015-06-30T09:16:35Z</time>
      </trkpt>
      <trkpt lat="46.59001" lon="6.12504">
        <ele>1332.52</ele>
        <time>2015-06-30T09:16:37Z</time>
      </trkpt>
      <trkpt lat="46.59" lon="6.12502">
        <ele>1333.01</ele>
        <time>2015-06-30T09:16:38Z</time>
      </trkpt>
      <trkpt lat="46.59" lon="6.125">
        <ele>1332.52</ele>
        <time>2015-06-30T09:16:39Z</time>
      </trkpt>
      <trkpt lat="46.58998" lon="6.12484">
        <ele>1332.04</ele>
        <time>2015-06-30T09:16:50Z</time>
      </trkpt>
      <trkpt lat="46.58997" lon="6.12478">
        <ele>1332.52</ele>
        <time>2015-06-30T09:17:03Z</time>
      </trkpt>
      <trkpt lat="46.58997" lon="6.12476">
        <ele>1331.56</ele>
        <time>2015-06-30T09:17:31Z</time>
      </trkpt>
      <trkpt lat="46.58998" lon="6.12475">
        <ele>1332.52</ele>
        <time>2015-06-30T09:18:01Z</time>
      </trkpt>
      <trkpt lat="46.58998" lon="6.12476">
        <ele>1331.56</ele>
        <time>2015-06-30T09:18:39Z</time>
      </trkpt>
      <trkpt lat="46.58998" lon="6.12475">
        <ele>1332.04</ele>
        <time>2015-06-30T09:19:20Z</time>
      </trkpt>
      <trkpt lat="46.58997" lon="6.12478">
        <ele>1331.56</ele>
        <time>2015-06-30T09:19:56Z</time>
      </trkpt>
      <trkpt lat="46.58998" lon="6.12476">
        <ele>1331.56</ele>
        <time>2015-06-30T09:20:39Z</time>
      </trkpt>
      <trkpt lat="46.58997" lon="6.12477">
        <ele>1332.52</ele>
        <time>2015-06-30T09:21:18Z</time>
      </trkpt>
      <trkpt lat="46.58997" lon="6.12475">
        <ele>1331.56</ele>
        <time>2015-06-30T09:22:01Z</time>
      </trkpt>
      <trkpt lat="46.58997" lon="6.12475">
        <ele>1331.56</ele>
        <time>2015-06-30T09:22:40Z</time>
      </trkpt>
      <trkpt lat="46.58997" lon="6.12474">
        <ele>1332.04</ele>
        <time>2015-06-30T09:23:20Z</time>
      </trkpt>
      <trkpt lat="46.58996" lon="6.12475">
        <ele>1332.04</ele>
        <time>2015-06-30T09:23:52Z</time>
      </trkpt>
      <trkpt lat="46.58996" lon="6.12476">
        <ele>1331.56</ele>
        <time>2015-06-30T09:24:20Z</time>
      </trkpt>
      <trkpt lat="46.58997" lon="6.12476">
        <ele>1331.56</ele>
        <time>2015-06-30T09:24:48Z</time>
      </trkpt>
      <trkpt lat="46.58998" lon="6.12475">
        <ele>1332.04</ele>
        <time>2015-06-30T09:25:19Z</time>
      </trkpt>
      <trkpt lat="46.58998" lon="6.12475">
        <ele>1331.56</ele>
        <time>2015-06-30T09:25:48Z</time>
      </trkpt>
      <trkpt lat="46.58998" lon="6.12475">
        <ele>1332.04</ele>
        <time>2015-06-30T09:25:53Z</time>
      </trkpt>
      <trkpt lat="46.58998" lon="6.12476">
        <ele>1332.04</ele>
        <time>2015-06-30T09:26:28Z</time>
      </trkpt>
      <trkpt lat="46.58998" lon="6.12473">
        <ele>1331.56</ele>
        <time>2015-06-30T09:27:07Z</time>
      </trkpt>
      <trkpt lat="46.58998" lon="6.12475">
        <ele>1331.08</ele>
        <time>2015-06-30T09:27:50Z</time>
      </trkpt>
      <trkpt lat="46.58998" lon="6.12475">
        <ele>1331.08</ele>
        <time>2015-06-30T09:28:34Z</time>
      </trkpt>
      <trkpt lat="46.58998" lon="6.12476">
        <ele>1331.56</ele>
        <time>2015-06-30T09:29:15Z</time>
      </trkpt>
      <trkpt lat="46.58998" lon="6.12475">
        <ele>1331.56</ele>
        <time>2015-06-30T09:29:51Z</time>
      </trkpt>
      <trkpt lat="46.58997" lon="6.12476">
        <ele>1332.04</ele>
        <time>2015-06-30T09:30:28Z</time>
      </trkpt>
      <trkpt lat="46.58998" lon="6.12477">
        <ele>1331.56</ele>
        <time>2015-06-30T09:31:11Z</time>
      </trkpt>
      <trkpt lat="46.58997" lon="6.12478">
        <ele>1331.56</ele>
        <time>2015-06-30T09:31:46Z</time>
      </trkpt>
      <trkpt lat="46.58998" lon="6.12476">
        <ele>1331.56</ele>
        <time>2015-06-30T09:32:30Z</time>
      </trkpt>
      <trkpt lat="46.58998" lon="6.12477">
        <ele>1331.08</ele>
        <time>2015-06-30T09:33:17Z</time>
      </trkpt>
      <trkpt lat="46.58997" lon="6.12477">
        <ele>1331.08</ele>
        <time>2015-06-30T09:34:03Z</time>
      </trkpt>
      <trkpt lat="46.58996" lon="6.12476">
        <ele>1331.08</ele>
        <time>2015-06-30T09:34:42Z</time>
      </trkpt>
      <trkpt lat="46.58997" lon="6.12477">
        <ele>1331.08</ele>
        <time>2015-06-30T09:35:22Z</time>
      </trkpt>
      <trkpt lat="46.58997" lon="6.12477">
        <ele>1331.08</ele>
        <time>2015-06-30T09:36:09Z</time>
      </trkpt>
      <trkpt lat="46.58997" lon="6.12477">
        <ele>1330.6</ele>
        <time>2015-06-30T09:36:51Z</time>
      </trkpt>
      <trkpt lat="46.58998" lon="6.12477">
        <ele>1330.6</ele>
        <time>2015-06-30T09:37:29Z</time>
      </trkpt>
      <trkpt lat="46.58997" lon="6.12476">
        <ele>1330.6</ele>
        <time>2015-06-30T09:38:05Z</time>
      </trkpt>
      <trkpt lat="46.58997" lon="6.12476">
        <ele>1330.6</ele>
        <time>2015-06-30T09:38:39Z</time>
      </trkpt>
      <trkpt lat="46.58997" lon="6.12475">
        <ele>1330.6</ele>
        <time>2015-06-30T09:39:21Z</time>
      </trkpt>
      <trkpt lat="46.58998" lon="6.12476">
        <ele>1330.6</ele>
        <time>2015-06-30T09:40:00Z</time>
      </trkpt>
      <trkpt lat="46.58995" lon="6.12478">
        <ele>1330.6</ele>
        <time>2015-06-30T09:40:10Z</time>
      </trkpt>
      <trkpt lat="46.58991" lon="6.1248">
        <ele>1331.08</ele>
        <time>2015-06-30T09:40:23Z</time>
      </trkpt>
      <trkpt lat="46.58991" lon="6.1248">
        <ele>1331.08</ele>
        <time>2015-06-30T09:40:27Z</time>
      </trkpt>
      <trkpt lat="46.58989" lon="6.12481">
        <ele>1331.08</ele>
        <time>2015-06-30T09:40:29Z</time>
      </trkpt>
      <trkpt lat="46.58987" lon="6.12482">
        <ele>1331.56</ele>
        <time>2015-06-30T09:40:30Z</time>
      </trkpt>
      <trkpt lat="46.58982" lon="6.1249">
        <ele>1332.04</ele>
        <time>2015-06-30T09:40:34Z</time>
      </trkpt>
      <trkpt lat="46.5898" lon="6.12491">
        <ele>1332.04</ele>
        <time>2015-06-30T09:40:35Z</time>
      </trkpt>
      <trkpt lat="46.58966" lon="6.12498">
        <ele>1332.52</ele>
        <time>2015-06-30T09:40:44Z</time>
      </trkpt>
      <trkpt lat="46.5896" lon="6.12497">
        <ele>1332.52</ele>
        <time>2015-06-30T09:40:51Z</time>
      </trkpt>
      <trkpt lat="46.58958" lon="6.12496">
        <ele>1332.04</ele>
        <time>2015-06-30T09:40:53Z</time>
      </trkpt>
      <trkpt lat="46.58956" lon="6.12496">
        <ele>1332.04</ele>
        <time>2015-06-30T09:40:54Z</time>
      </trkpt>
      <trkpt lat="46.58955" lon="6.12497">
        <ele>1332.52</ele>
        <time>2015-06-30T09:40:55Z</time>
      </trkpt>
      <trkpt lat="46.58952" lon="6.12495">
        <ele>1333.49</ele>
        <time>2015-06-30T09:40:57Z</time>
      </trkpt>
      <trkpt lat="46.58951" lon="6.12494">
        <ele>1333.97</ele>
        <time>2015-06-30T09:40:58Z</time>
      </trkpt>
      <trkpt lat="46.58949" lon="6.12493">
        <ele>1334.45</ele>
        <time>2015-06-30T09:41:01Z</time>
      </trkpt>
      <trkpt lat="46.58948" lon="6.12494">
        <ele>1334.93</ele>
        <time>2015-06-30T09:41:02Z</time>
      </trkpt>
      <trkpt lat="46.58946" lon="6.12492">
        <ele>1334.93</ele>
        <time>2015-06-30T09:41:05Z</time>
      </trkpt>
      <trkpt lat="46.58935" lon="6.1249">
        <ele>1336.37</ele>
        <time>2015-06-30T09:41:17Z</time>
      </trkpt>
      <trkpt lat="46.58934" lon="6.12489">
        <ele>1336.85</ele>
        <time>2015-06-30T09:41:18Z</time>
      </trkpt>
      <trkpt lat="46.5893" lon="6.12484">
        <ele>1336.37</ele>
        <time>2015-06-30T09:41:21Z</time>
      </trkpt>
      <trkpt lat="46.58927" lon="6.12481">
        <ele>1336.37</ele>
        <time>2015-06-30T09:41:23Z</time>
      </trkpt>
      <trkpt lat="46.58926" lon="6.12478">
        <ele>1336.37</ele>
        <time>2015-06-30T09:41:24Z</time>
      </trkpt>
      <trkpt lat="46.58925" lon="6.12476">
        <ele>1336.85</ele>
        <time>2015-06-30T09:41:25Z</time>
      </trkpt>
      <trkpt lat="46.58924" lon="6.12474">
        <ele>1336.85</ele>
        <time>2015-06-30T09:41:26Z</time>
      </trkpt>
      <trkpt lat="46.58922" lon="6.12474">
        <ele>1337.33</ele>
        <time>2015-06-30T09:41:27Z</time>
      </trkpt>
      <trkpt lat="46.58921" lon="6.12473">
        <ele>1336.37</ele>
        <time>2015-06-30T09:41:28Z</time>
      </trkpt>
      <trkpt lat="46.58919" lon="6.12472">
        <ele>1336.85</ele>
        <time>2015-06-30T09:41:29Z</time>
      </trkpt>
      <trkpt lat="46.58917" lon="6.12471">
        <ele>1336.85</ele>
        <time>2015-06-30T09:41:30Z</time>
      </trkpt>
      <trkpt lat="46.58913" lon="6.12468">
        <ele>1336.85</ele>
        <time>2015-06-30T09:41:33Z</time>
      </trkpt>
      <trkpt lat="46.58912" lon="6.12467">
        <ele>1337.33</ele>
        <time>2015-06-30T09:41:34Z</time>
      </trkpt>
      <trkpt lat="46.5891" lon="6.12466">
        <ele>1336.85</ele>
        <time>2015-06-30T09:41:35Z</time>
      </trkpt>
      <trkpt lat="46.58907" lon="6.12464">
        <ele>1336.85</ele>
        <time>2015-06-30T09:41:36Z</time>
      </trkpt>
      <trkpt lat="46.58905" lon="6.12463">
        <ele>1336.85</ele>
        <time>2015-06-30T09:41:37Z</time>
      </trkpt>
      <trkpt lat="46.58903" lon="6.12462">
        <ele>1337.33</ele>
        <time>2015-06-30T09:41:38Z</time>
      </trkpt>
      <trkpt lat="46.58901" lon="6.1246">
        <ele>1337.33</ele>
        <time>2015-06-30T09:41:39Z</time>
      </trkpt>
      <trkpt lat="46.58899" lon="6.12459">
        <ele>1337.33</ele>
        <time>2015-06-30T09:41:40Z</time>
      </trkpt>
      <trkpt lat="46.58897" lon="6.12457">
        <ele>1336.85</ele>
        <time>2015-06-30T09:41:41Z</time>
      </trkpt>
      <trkpt lat="46.58895" lon="6.12456">
        <ele>1336.85</ele>
        <time>2015-06-30T09:41:42Z</time>
      </trkpt>
      <trkpt lat="46.58884" lon="6.12445">
        <ele>1336.37</ele>
        <time>2015-06-30T09:41:49Z</time>
      </trkpt>
      <trkpt lat="46.58882" lon="6.12442">
        <ele>1336.85</ele>
        <time>2015-06-30T09:41:50Z</time>
      </trkpt>
      <trkpt lat="46.58881" lon="6.12439">
        <ele>1336.85</ele>
        <time>2015-06-30T09:41:51Z</time>
      </trkpt>
      <trkpt lat="46.5888" lon="6.12435">
        <ele>1336.85</ele>
        <time>2015-06-30T09:41:52Z</time>
      </trkpt>
      <trkpt lat="46.58879" lon="6.12431">
        <ele>1336.37</ele>
        <time>2015-06-30T09:41:53Z</time>
      </trkpt>
      <trkpt lat="46.58878" lon="6.12427">
        <ele>1336.37</ele>
        <time>2015-06-30T09:41:54Z</time>
      </trkpt>
      <trkpt lat="46.58877" lon="6.12424">
        <ele>1336.37</ele>
        <time>2015-06-30T09:41:55Z</time>
      </trkpt>
      <trkpt lat="46.58862" lon="6.124">
        <ele>1336.85</ele>
        <time>2015-06-30T09:42:04Z</time>
      </trkpt>
      <trkpt lat="46.58848" lon="6.12375">
        <ele>1336.37</ele>
        <time>2015-06-30T09:42:14Z</time>
      </trkpt>
      <trkpt lat="46.58848" lon="6.12373">
        <ele>1336.37</ele>
        <time>2015-06-30T09:42:15Z</time>
      </trkpt>
      <trkpt lat="46.58846" lon="6.1237">
        <ele>1336.37</ele>
        <time>2015-06-30T09:42:16Z</time>
      </trkpt>
      <trkpt lat="46.58845" lon="6.12367">
        <ele>1336.37</ele>
        <time>2015-06-30T09:42:17Z</time>
      </trkpt>
      <trkpt lat="46.58845" lon="6.12364">
        <ele>1336.37</ele>
        <time>2015-06-30T09:42:18Z</time>
      </trkpt>
      <trkpt lat="46.58844" lon="6.12361">
        <ele>1336.37</ele>
        <time>2015-06-30T09:42:19Z</time>
      </trkpt>
      <trkpt lat="46.58842" lon="6.12358">
        <ele>1336.37</ele>
        <time>2015-06-30T09:42:20Z</time>
      </trkpt>
      <trkpt lat="46.58818" lon="6.12321">
        <ele>1335.89</ele>
        <time>2015-06-30T09:42:31Z</time>
      </trkpt>
      <trkpt lat="46.588" lon="6.1231">
        <ele>1336.37</ele>
        <time>2015-06-30T09:42:39Z</time>
      </trkpt>
      <trkpt lat="46.58791" lon="6.12311">
        <ele>1337.33</ele>
        <time>2015-06-30T09:42:43Z</time>
      </trkpt>
      <trkpt lat="46.58789" lon="6.12311">
        <ele>1337.81</ele>
        <time>2015-06-30T09:42:44Z</time>
      </trkpt>
      <trkpt lat="46.58776" lon="6.12302">
        <ele>1338.29</ele>
        <time>2015-06-30T09:42:50Z</time>
      </trkpt>
      <trkpt lat="46.58774" lon="6.12301">
        <ele>1338.77</ele>
        <time>2015-06-30T09:42:51Z</time>
      </trkpt>
      <trkpt lat="46.58771" lon="6.123">
        <ele>1338.29</ele>
        <time>2015-06-30T09:42:52Z</time>
      </trkpt>
      <trkpt lat="46.58765" lon="6.123">
        <ele>1338.29</ele>
        <time>2015-06-30T09:42:54Z</time>
      </trkpt>
      <trkpt lat="46.58761" lon="6.12298">
        <ele>1338.29</ele>
        <time>2015-06-30T09:42:55Z</time>
      </trkpt>
      <trkpt lat="46.58759" lon="6.12295">
        <ele>1337.81</ele>
        <time>2015-06-30T09:42:56Z</time>
      </trkpt>
      <trkpt lat="46.58754" lon="6.12285">
        <ele>1336.85</ele>
        <time>2015-06-30T09:42:59Z</time>
      </trkpt>
      <trkpt lat="46.58752" lon="6.12284">
        <ele>1337.33</ele>
        <time>2015-06-30T09:43:00Z</time>
      </trkpt>
      <trkpt lat="46.5875" lon="6.12283">
        <ele>1337.33</ele>
        <time>2015-06-30T09:43:01Z</time>
      </trkpt>
      <trkpt lat="46.58745" lon="6.1228">
        <ele>1337.33</ele>
        <time>2015-06-30T09:43:04Z</time>
      </trkpt>
      <trkpt lat="46.58743" lon="6.12279">
        <ele>1336.85</ele>
        <time>2015-06-30T09:43:05Z</time>
      </trkpt>
      <trkpt lat="46.5874" lon="6.12281">
        <ele>1337.33</ele>
        <time>2015-06-30T09:43:07Z</time>
      </trkpt>
      <trkpt lat="46.58735" lon="6.12289">
        <ele>1337.33</ele>
        <time>2015-06-30T09:43:13Z</time>
      </trkpt>
      <trkpt lat="46.5873" lon="6.12293">
        <ele>1337.33</ele>
        <time>2015-06-30T09:43:16Z</time>
      </trkpt>
      <trkpt lat="46.58728" lon="6.12295">
        <ele>1337.33</ele>
        <time>2015-06-30T09:43:18Z</time>
      </trkpt>
      <trkpt lat="46.58726" lon="6.12303">
        <ele>1337.33</ele>
        <time>2015-06-30T09:43:30Z</time>
      </trkpt>
      <trkpt lat="46.58719" lon="6.1231">
        <ele>1337.33</ele>
        <time>2015-06-30T09:43:39Z</time>
      </trkpt>
      <trkpt lat="46.58716" lon="6.12311">
        <ele>1337.33</ele>
        <time>2015-06-30T09:43:45Z</time>
      </trkpt>
      <trkpt lat="46.58713" lon="6.12315">
        <ele>1338.29</ele>
        <time>2015-06-30T09:43:48Z</time>
      </trkpt>
      <trkpt lat="46.58698" lon="6.12314">
        <ele>1336.85</ele>
        <time>2015-06-30T09:43:58Z</time>
      </trkpt>
      <trkpt lat="46.58686" lon="6.12304">
        <ele>1337.81</ele>
        <time>2015-06-30T09:44:06Z</time>
      </trkpt>
      <trkpt lat="46.5868" lon="6.12298">
        <ele>1338.29</ele>
        <time>2015-06-30T09:44:09Z</time>
      </trkpt>
      <trkpt lat="46.58674" lon="6.12294">
        <ele>1338.29</ele>
        <time>2015-06-30T09:44:12Z</time>
      </trkpt>
      <trkpt lat="46.58668" lon="6.12281">
        <ele>1338.29</ele>
        <time>2015-06-30T09:44:17Z</time>
      </trkpt>
      <trkpt lat="46.58664" lon="6.12252">
        <ele>1337.81</ele>
        <time>2015-06-30T09:44:25Z</time>
      </trkpt>
      <trkpt lat="46.58664" lon="6.1224">
        <ele>1337.81</ele>
        <time>2015-06-30T09:44:29Z</time>
      </trkpt>
      <trkpt lat="46.58661" lon="6.12223">
        <ele>1337.81</ele>
        <time>2015-06-30T09:44:34Z</time>
      </trkpt>
      <trkpt lat="46.58647" lon="6.12206">
        <ele>1337.33</ele>
        <time>2015-06-30T09:44:44Z</time>
      </trkpt>
      <trkpt lat="46.58643" lon="6.12204">
        <ele>1337.81</ele>
        <time>2015-06-30T09:44:46Z</time>
      </trkpt>
      <trkpt lat="46.58628" lon="6.12192">
        <ele>1338.77</ele>
        <time>2015-06-30T09:44:54Z</time>
      </trkpt>
      <trkpt lat="46.58617" lon="6.12185">
        <ele>1338.29</ele>
        <time>2015-06-30T09:44:59Z</time>
      </trkpt>
      <trkpt lat="46.58614" lon="6.12181">
        <ele>1339.25</ele>
        <time>2015-06-30T09:45:01Z</time>
      </trkpt>
      <trkpt lat="46.58606" lon="6.1219">
        <ele>1338.77</ele>
        <time>2015-06-30T09:45:07Z</time>
      </trkpt>
      <trkpt lat="46.58597" lon="6.12196">
        <ele>1338.77</ele>
        <time>2015-06-30T09:45:14Z</time>
      </trkpt>
      <trkpt lat="46.58585" lon="6.12206">
        <ele>1337.33</ele>
        <time>2015-06-30T09:45:22Z</time>
      </trkpt>
      <trkpt lat="46.5858" lon="6.12208">
        <ele>1336.85</ele>
        <time>2015-06-30T09:45:25Z</time>
      </trkpt>
      <trkpt lat="46.58573" lon="6.12204">
        <ele>1336.85</ele>
        <time>2015-06-30T09:45:30Z</time>
      </trkpt>
      <trkpt lat="46.58561" lon="6.12189">
        <ele>1337.33</ele>
        <time>2015-06-30T09:45:38Z</time>
      </trkpt>
      <trkpt lat="46.58537" lon="6.12183">
        <ele>1336.37</ele>
        <time>2015-06-30T09:45:50Z</time>
      </trkpt>
      <trkpt lat="46.58534" lon="6.12183">
        <ele>1335.89</ele>
        <time>2015-06-30T09:45:51Z</time>
      </trkpt>
      <trkpt lat="46.58531" lon="6.12182">
        <ele>1335.89</ele>
        <time>2015-06-30T09:45:53Z</time>
      </trkpt>
      <trkpt lat="46.58516" lon="6.12193">
        <ele>1338.77</ele>
        <time>2015-06-30T09:46:01Z</time>
      </trkpt>
      <trkpt lat="46.58495" lon="6.122">
        <ele>1337.81</ele>
        <time>2015-06-30T09:46:09Z</time>
      </trkpt>
      <trkpt lat="46.58478" lon="6.1219">
        <ele>1337.33</ele>
        <time>2015-06-30T09:46:17Z</time>
      </trkpt>
      <trkpt lat="46.58465" lon="6.12175">
        <ele>1337.81</ele>
        <time>2015-06-30T09:46:25Z</time>
      </trkpt>
      <trkpt lat="46.58451" lon="6.12145">
        <ele>1338.29</ele>
        <time>2015-06-30T09:46:37Z</time>
      </trkpt>
      <trkpt lat="46.5845" lon="6.12143">
        <ele>1337.33</ele>
        <time>2015-06-30T09:46:39Z</time>
      </trkpt>
      <trkpt lat="46.58439" lon="6.1214">
        <ele>1339.73</ele>
        <time>2015-06-30T09:46:43Z</time>
      </trkpt>
      <trkpt lat="46.58436" lon="6.12141">
        <ele>1340.22</ele>
        <time>2015-06-30T09:46:44Z</time>
      </trkpt>
      <trkpt lat="46.5841" lon="6.12144">
        <ele>1341.18</ele>
        <time>2015-06-30T09:46:57Z</time>
      </trkpt>
      <trkpt lat="46.58409" lon="6.12143">
        <ele>1340.22</ele>
        <time>2015-06-30T09:46:59Z</time>
      </trkpt>
      <trkpt lat="46.58408" lon="6.12134">
        <ele>1340.22</ele>
        <time>2015-06-30T09:47:04Z</time>
      </trkpt>
      <trkpt lat="46.58402" lon="6.12118">
        <ele>1338.29</ele>
        <time>2015-06-30T09:47:12Z</time>
      </trkpt>
      <trkpt lat="46.58393" lon="6.12104">
        <ele>1336.37</ele>
        <time>2015-06-30T09:47:19Z</time>
      </trkpt>
      <trkpt lat="46.58389" lon="6.12104">
        <ele>1336.85</ele>
        <time>2015-06-30T09:47:22Z</time>
      </trkpt>
      <trkpt lat="46.58381" lon="6.12096">
        <ele>1336.85</ele>
        <time>2015-06-30T09:47:28Z</time>
      </trkpt>
      <trkpt lat="46.58373" lon="6.12094">
        <ele>1336.85</ele>
        <time>2015-06-30T09:47:32Z</time>
      </trkpt>
      <trkpt lat="46.58365" lon="6.12088">
        <ele>1336.85</ele>
        <time>2015-06-30T09:47:35Z</time>
      </trkpt>
      <trkpt lat="46.58358" lon="6.12085">
        <ele>1336.85</ele>
        <time>2015-06-30T09:47:38Z</time>
      </trkpt>
      <trkpt lat="46.58334" lon="6.12084">
        <ele>1335.89</ele>
        <time>2015-06-30T09:47:49Z</time>
      </trkpt>
      <trkpt lat="46.58331" lon="6.12085">
        <ele>1334.93</ele>
        <time>2015-06-30T09:47:51Z</time>
      </trkpt>
      <trkpt lat="46.58328" lon="6.12085">
        <ele>1334.45</ele>
        <time>2015-06-30T09:47:53Z</time>
      </trkpt>
      <trkpt lat="46.58318" lon="6.1208">
        <ele>1330.6</ele>
        <time>2015-06-30T09:48:00Z</time>
      </trkpt>
      <trkpt lat="46.58317" lon="6.12078">
        <ele>1330.12</ele>
        <time>2015-06-30T09:48:01Z</time>
      </trkpt>
      <trkpt lat="46.58316" lon="6.12072">
        <ele>1330.6</ele>
        <time>2015-06-30T09:48:04Z</time>
      </trkpt>
      <trkpt lat="46.58317" lon="6.12063">
        <ele>1331.56</ele>
        <time>2015-06-30T09:48:08Z</time>
      </trkpt>
      <trkpt lat="46.58318" lon="6.12057">
        <ele>1331.08</ele>
        <time>2015-06-30T09:48:25Z</time>
      </trkpt>
      <trkpt lat="46.58318" lon="6.12057">
        <ele>1330.12</ele>
        <time>2015-06-30T09:48:54Z</time>
      </trkpt>
      <trkpt lat="46.58321" lon="6.12058">
        <ele>1331.56</ele>
        <time>2015-06-30T09:49:25Z</time>
      </trkpt>
      <trkpt lat="46.58321" lon="6.12057">
        <ele>1332.04</ele>
        <time>2015-06-30T09:49:53Z</time>
      </trkpt>
      <trkpt lat="46.58321" lon="6.12057">
        <ele>1331.56</ele>
        <time>2015-06-30T09:50:17Z</time>
      </trkpt>
      <trkpt lat="46.58321" lon="6.12054">
        <ele>1331.56</ele>
        <time>2015-06-30T09:50:47Z</time>
      </trkpt>
      <trkpt lat="46.58328" lon="6.12035">
        <ele>1330.6</ele>
        <time>2015-06-30T09:50:55Z</time>
      </trkpt>
      <trkpt lat="46.58331" lon="6.12013">
        <ele>1327.72</ele>
        <time>2015-06-30T09:50:59Z</time>
      </trkpt>
      <trkpt lat="46.58335" lon="6.12">
        <ele>1326.28</ele>
        <time>2015-06-30T09:51:01Z</time>
      </trkpt>
      <trkpt lat="46.58336" lon="6.11994">
        <ele>1325.8</ele>
        <time>2015-06-30T09:51:02Z</time>
      </trkpt>
      <trkpt lat="46.58337" lon="6.11989">
        <ele>1324.83</ele>
        <time>2015-06-30T09:51:03Z</time>
      </trkpt>
      <trkpt lat="46.58337" lon="6.11984">
        <ele>1324.83</ele>
        <time>2015-06-30T09:51:04Z</time>
      </trkpt>
      <trkpt lat="46.58337" lon="6.1198">
        <ele>1324.35</ele>
        <time>2015-06-30T09:51:05Z</time>
      </trkpt>
      <trkpt lat="46.58337" lon="6.11976">
        <ele>1324.35</ele>
        <time>2015-06-30T09:51:06Z</time>
      </trkpt>
      <trkpt lat="46.58337" lon="6.11973">
        <ele>1323.87</ele>
        <time>2015-06-30T09:51:07Z</time>
      </trkpt>
      <trkpt lat="46.58336" lon="6.11969">
        <ele>1323.39</ele>
        <time>2015-06-30T09:51:08Z</time>
      </trkpt>
      <trkpt lat="46.58335" lon="6.11963">
        <ele>1322.43</ele>
        <time>2015-06-30T09:51:09Z</time>
      </trkpt>
      <trkpt lat="46.58333" lon="6.11958">
        <ele>1321.95</ele>
        <time>2015-06-30T09:51:10Z</time>
      </trkpt>
      <trkpt lat="46.58329" lon="6.11947">
        <ele>1320.51</ele>
        <time>2015-06-30T09:51:12Z</time>
      </trkpt>
      <trkpt lat="46.58326" lon="6.11941">
        <ele>1319.55</ele>
        <time>2015-06-30T09:51:13Z</time>
      </trkpt>
      <trkpt lat="46.58323" lon="6.11934">
        <ele>1319.07</ele>
        <time>2015-06-30T09:51:14Z</time>
      </trkpt>
      <trkpt lat="46.58323" lon="6.11927">
        <ele>1319.07</ele>
        <time>2015-06-30T09:51:15Z</time>
      </trkpt>
      <trkpt lat="46.58316" lon="6.11891">
        <ele>1319.07</ele>
        <time>2015-06-30T09:51:21Z</time>
      </trkpt>
      <trkpt lat="46.58293" lon="6.11853">
        <ele>1319.07</ele>
        <time>2015-06-30T09:51:32Z</time>
      </trkpt>
      <trkpt lat="46.58278" lon="6.11842">
        <ele>1320.99</ele>
        <time>2015-06-30T09:51:47Z</time>
      </trkpt>
      <trkpt lat="46.58274" lon="6.1184">
        <ele>1320.99</ele>
        <time>2015-06-30T09:51:54Z</time>
      </trkpt>
      <trkpt lat="46.58264" lon="6.11845">
        <ele>1321.47</ele>
        <time>2015-06-30T09:52:05Z</time>
      </trkpt>
      <trkpt lat="46.5826" lon="6.11849">
        <ele>1322.91</ele>
        <time>2015-06-30T09:52:17Z</time>
      </trkpt>
      <trkpt lat="46.58257" lon="6.11852">
        <ele>1324.83</ele>
        <time>2015-06-30T09:52:30Z</time>
      </trkpt>
      <trkpt lat="46.58253" lon="6.1185">
        <ele>1325.8</ele>
        <time>2015-06-30T09:52:42Z</time>
      </trkpt>
      <trkpt lat="46.58251" lon="6.11847">
        <ele>1327.72</ele>
        <time>2015-06-30T09:52:54Z</time>
      </trkpt>
      <trkpt lat="46.58246" lon="6.11838">
        <ele>1328.68</ele>
        <time>2015-06-30T09:53:10Z</time>
      </trkpt>
      <trkpt lat="46.58242" lon="6.11834">
        <ele>1330.6</ele>
        <time>2015-06-30T09:53:23Z</time>
      </trkpt>
      <trkpt lat="46.58243" lon="6.1183">
        <ele>1332.04</ele>
        <time>2015-06-30T09:53:33Z</time>
      </trkpt>
      <trkpt lat="46.58242" lon="6.11827">
        <ele>1334.45</ele>
        <time>2015-06-30T09:53:46Z</time>
      </trkpt>
      <trkpt lat="46.58242" lon="6.11825">
        <ele>1335.41</ele>
        <time>2015-06-30T09:54:04Z</time>
      </trkpt>
      <trkpt lat="46.58241" lon="6.11821">
        <ele>1336.37</ele>
        <time>2015-06-30T09:54:12Z</time>
      </trkpt>
      <trkpt lat="46.58239" lon="6.11816">
        <ele>1337.81</ele>
        <time>2015-06-30T09:54:23Z</time>
      </trkpt>
      <trkpt lat="46.58234" lon="6.1181">
        <ele>1339.25</ele>
        <time>2015-06-30T09:54:36Z</time>
      </trkpt>
      <trkpt lat="46.58225" lon="6.11796">
        <ele>1340.7</ele>
        <time>2015-06-30T09:54:49Z</time>
      </trkpt>
      <trkpt lat="46.58218" lon="6.11781">
        <ele>1341.18</ele>
        <time>2015-06-30T09:55:00Z</time>
      </trkpt>
      <trkpt lat="46.58213" lon="6.11772">
        <ele>1341.66</ele>
        <time>2015-06-30T09:55:12Z</time>
      </trkpt>
      <trkpt lat="46.58211" lon="6.11769">
        <ele>1342.62</ele>
        <time>2015-06-30T09:55:24Z</time>
      </trkpt>
      <trkpt lat="46.58208" lon="6.11769">
        <ele>1342.62</ele>
        <time>2015-06-30T09:55:49Z</time>
      </trkpt>
      <trkpt lat="46.58208" lon="6.11767">
        <ele>1342.62</ele>
        <time>2015-06-30T09:56:04Z</time>
      </trkpt>
      <trkpt lat="46.58205" lon="6.11765">
        <ele>1342.14</ele>
        <time>2015-06-30T09:56:24Z</time>
      </trkpt>
      <trkpt lat="46.58204" lon="6.11764">
        <ele>1342.14</ele>
        <time>2015-06-30T09:56:51Z</time>
      </trkpt>
      <trkpt lat="46.58204" lon="6.11762">
        <ele>1342.62</ele>
        <time>2015-06-30T09:57:18Z</time>
      </trkpt>
      <trkpt lat="46.582" lon="6.11759">
        <ele>1341.66</ele>
        <time>2015-06-30T09:57:31Z</time>
      </trkpt>
      <trkpt lat="46.58191" lon="6.11758">
        <ele>1342.14</ele>
        <time>2015-06-30T09:57:36Z</time>
      </trkpt>
      <trkpt lat="46.58184" lon="6.1175">
        <ele>1341.66</ele>
        <time>2015-06-30T09:57:41Z</time>
      </trkpt>
      <trkpt lat="46.58173" lon="6.11736">
        <ele>1342.62</ele>
        <time>2015-06-30T09:57:47Z</time>
      </trkpt>
      <trkpt lat="46.58165" lon="6.11734">
        <ele>1342.14</ele>
        <time>2015-06-30T09:57:50Z</time>
      </trkpt>
      <trkpt lat="46.58161" lon="6.11734">
        <ele>1343.1</ele>
        <time>2015-06-30T09:57:51Z</time>
      </trkpt>
      <trkpt lat="46.58157" lon="6.11734">
        <ele>1343.1</ele>
        <time>2015-06-30T09:57:52Z</time>
      </trkpt>
      <trkpt lat="46.58154" lon="6.11734">
        <ele>1343.58</ele>
        <time>2015-06-30T09:57:53Z</time>
      </trkpt>
      <trkpt lat="46.58152" lon="6.11735">
        <ele>1344.06</ele>
        <time>2015-06-30T09:57:54Z</time>
      </trkpt>
      <trkpt lat="46.5815" lon="6.11735">
        <ele>1344.06</ele>
        <time>2015-06-30T09:57:55Z</time>
      </trkpt>
      <trkpt lat="46.58148" lon="6.11736">
        <ele>1344.54</ele>
        <time>2015-06-30T09:57:56Z</time>
      </trkpt>
      <trkpt lat="46.58146" lon="6.11736">
        <ele>1344.54</ele>
        <time>2015-06-30T09:57:57Z</time>
      </trkpt>
      <trkpt lat="46.58143" lon="6.11738">
        <ele>1345.02</ele>
        <time>2015-06-30T09:57:58Z</time>
      </trkpt>
      <trkpt lat="46.58141" lon="6.1174">
        <ele>1345.02</ele>
        <time>2015-06-30T09:57:59Z</time>
      </trkpt>
      <trkpt lat="46.5814" lon="6.11742">
        <ele>1345.5</ele>
        <time>2015-06-30T09:58:00Z</time>
      </trkpt>
      <trkpt lat="46.58138" lon="6.11745">
        <ele>1345.5</ele>
        <time>2015-06-30T09:58:02Z</time>
      </trkpt>
      <trkpt lat="46.58136" lon="6.11745">
        <ele>1345.98</ele>
        <time>2015-06-30T09:58:03Z</time>
      </trkpt>
      <trkpt lat="46.58134" lon="6.11746">
        <ele>1345.5</ele>
        <time>2015-06-30T09:58:04Z</time>
      </trkpt>
      <trkpt lat="46.58133" lon="6.11747">
        <ele>1345.98</ele>
        <time>2015-06-30T09:58:05Z</time>
      </trkpt>
      <trkpt lat="46.58131" lon="6.11748">
        <ele>1345.98</ele>
        <time>2015-06-30T09:58:06Z</time>
      </trkpt>
      <trkpt lat="46.58121" lon="6.11753">
        <ele>1347.91</ele>
        <time>2015-06-30T09:58:17Z</time>
      </trkpt>
      <trkpt lat="46.58119" lon="6.11746">
        <ele>1348.39</ele>
        <time>2015-06-30T09:58:24Z</time>
      </trkpt>
      <trkpt lat="46.58118" lon="6.11744">
        <ele>1349.35</ele>
        <time>2015-06-30T09:58:25Z</time>
      </trkpt>
      <trkpt lat="46.58117" lon="6.1174">
        <ele>1348.39</ele>
        <time>2015-06-30T09:58:26Z</time>
      </trkpt>
      <trkpt lat="46.58116" lon="6.11735">
        <ele>1347.91</ele>
        <time>2015-06-30T09:58:27Z</time>
      </trkpt>
      <trkpt lat="46.58114" lon="6.1173">
        <ele>1348.39</ele>
        <time>2015-06-30T09:58:28Z</time>
      </trkpt>
      <trkpt lat="46.58108" lon="6.11717">
        <ele>1348.87</ele>
        <time>2015-06-30T09:58:31Z</time>
      </trkpt>
      <trkpt lat="46.58109" lon="6.11714">
        <ele>1348.87</ele>
        <time>2015-06-30T09:58:32Z</time>
      </trkpt>
      <trkpt lat="46.58109" lon="6.11712">
        <ele>1350.31</ele>
        <time>2015-06-30T09:58:33Z</time>
      </trkpt>
      <trkpt lat="46.58109" lon="6.11709">
        <ele>1349.83</ele>
        <time>2015-06-30T09:58:34Z</time>
      </trkpt>
      <trkpt lat="46.58108" lon="6.11707">
        <ele>1349.83</ele>
        <time>2015-06-30T09:58:35Z</time>
      </trkpt>
      <trkpt lat="46.58109" lon="6.11699">
        <ele>1350.31</ele>
        <time>2015-06-30T09:58:38Z</time>
      </trkpt>
      <trkpt lat="46.58108" lon="6.11698">
        <ele>1349.83</ele>
        <time>2015-06-30T09:58:39Z</time>
      </trkpt>
      <trkpt lat="46.58108" lon="6.11695">
        <ele>1350.31</ele>
        <time>2015-06-30T09:58:40Z</time>
      </trkpt>
      <trkpt lat="46.58108" lon="6.11693">
        <ele>1350.31</ele>
        <time>2015-06-30T09:58:41Z</time>
      </trkpt>
      <trkpt lat="46.58108" lon="6.1169">
        <ele>1350.31</ele>
        <time>2015-06-30T09:58:42Z</time>
      </trkpt>
      <trkpt lat="46.58107" lon="6.11688">
        <ele>1350.31</ele>
        <time>2015-06-30T09:58:43Z</time>
      </trkpt>
      <trkpt lat="46.58106" lon="6.11685">
        <ele>1350.31</ele>
        <time>2015-06-30T09:58:44Z</time>
      </trkpt>
      <trkpt lat="46.58106" lon="6.11682">
        <ele>1350.31</ele>
        <time>2015-06-30T09:58:45Z</time>
      </trkpt>
      <trkpt lat="46.58105" lon="6.11668">
        <ele>1351.75</ele>
        <time>2015-06-30T09:58:50Z</time>
      </trkpt>
      <trkpt lat="46.58104" lon="6.11665">
        <ele>1351.27</ele>
        <time>2015-06-30T09:58:51Z</time>
      </trkpt>
      <trkpt lat="46.581" lon="6.11642">
        <ele>1350.79</ele>
        <time>2015-06-30T09:58:58Z</time>
      </trkpt>
      <trkpt lat="46.58098" lon="6.11637">
        <ele>1350.79</ele>
        <time>2015-06-30T09:58:59Z</time>
      </trkpt>
      <trkpt lat="46.58097" lon="6.11632">
        <ele>1350.31</ele>
        <time>2015-06-30T09:59:00Z</time>
      </trkpt>
      <trkpt lat="46.58096" lon="6.11628">
        <ele>1350.31</ele>
        <time>2015-06-30T09:59:01Z</time>
      </trkpt>
      <trkpt lat="46.58096" lon="6.11624">
        <ele>1350.31</ele>
        <time>2015-06-30T09:59:02Z</time>
      </trkpt>
      <trkpt lat="46.58095" lon="6.11621">
        <ele>1350.79</ele>
        <time>2015-06-30T09:59:03Z</time>
      </trkpt>
      <trkpt lat="46.58094" lon="6.11618">
        <ele>1350.31</ele>
        <time>2015-06-30T09:59:04Z</time>
      </trkpt>
      <trkpt lat="46.58089" lon="6.11607">
        <ele>1347.43</ele>
        <time>2015-06-30T09:59:12Z</time>
      </trkpt>
      <trkpt lat="46.58087" lon="6.11607">
        <ele>1345.98</ele>
        <time>2015-06-30T09:59:14Z</time>
      </trkpt>
      <trkpt lat="46.58076" lon="6.11591">
        <ele>1345.5</ele>
        <time>2015-06-30T09:59:19Z</time>
      </trkpt>
      <trkpt lat="46.58074" lon="6.11588">
        <ele>1345.5</ele>
        <time>2015-06-30T09:59:20Z</time>
      </trkpt>
      <trkpt lat="46.58071" lon="6.11585">
        <ele>1345.5</ele>
        <time>2015-06-30T09:59:21Z</time>
      </trkpt>
      <trkpt lat="46.58069" lon="6.11581">
        <ele>1345.98</ele>
        <time>2015-06-30T09:59:22Z</time>
      </trkpt>
      <trkpt lat="46.58066" lon="6.11578">
        <ele>1345.98</ele>
        <time>2015-06-30T09:59:23Z</time>
      </trkpt>
      <trkpt lat="46.58063" lon="6.11575">
        <ele>1346.46</ele>
        <time>2015-06-30T09:59:24Z</time>
      </trkpt>
      <trkpt lat="46.58057" lon="6.11568">
        <ele>1345.02</ele>
        <time>2015-06-30T09:59:27Z</time>
      </trkpt>
      <trkpt lat="46.58056" lon="6.11565">
        <ele>1344.06</ele>
        <time>2015-06-30T09:59:28Z</time>
      </trkpt>
      <trkpt lat="46.58054" lon="6.11563">
        <ele>1344.06</ele>
        <time>2015-06-30T09:59:29Z</time>
      </trkpt>
      <trkpt lat="46.58028" lon="6.11527">
        <ele>1342.62</ele>
        <time>2015-06-30T09:59:36Z</time>
      </trkpt>
      <trkpt lat="46.58025" lon="6.11519">
        <ele>1342.14</ele>
        <time>2015-06-30T09:59:37Z</time>
      </trkpt>
      <trkpt lat="46.58022" lon="6.11512">
        <ele>1341.18</ele>
        <time>2015-06-30T09:59:38Z</time>
      </trkpt>
      <trkpt lat="46.58021" lon="6.11507">
        <ele>1341.18</ele>
        <time>2015-06-30T09:59:39Z</time>
      </trkpt>
      <trkpt lat="46.58019" lon="6.11502">
        <ele>1340.7</ele>
        <time>2015-06-30T09:59:40Z</time>
      </trkpt>
      <trkpt lat="46.58018" lon="6.11498">
        <ele>1339.73</ele>
        <time>2015-06-30T09:59:41Z</time>
      </trkpt>
      <trkpt lat="46.58018" lon="6.11494">
        <ele>1339.25</ele>
        <time>2015-06-30T09:59:42Z</time>
      </trkpt>
      <trkpt lat="46.58017" lon="6.11491">
        <ele>1338.77</ele>
        <time>2015-06-30T09:59:43Z</time>
      </trkpt>
      <trkpt lat="46.58017" lon="6.11488">
        <ele>1338.29</ele>
        <time>2015-06-30T09:59:44Z</time>
      </trkpt>
      <trkpt lat="46.58016" lon="6.11485">
        <ele>1337.33</ele>
        <time>2015-06-30T09:59:45Z</time>
      </trkpt>
      <trkpt lat="46.58015" lon="6.11482">
        <ele>1336.85</ele>
        <time>2015-06-30T09:59:46Z</time>
      </trkpt>
      <trkpt lat="46.58014" lon="6.11479">
        <ele>1336.37</ele>
        <time>2015-06-30T09:59:47Z</time>
      </trkpt>
      <trkpt lat="46.58013" lon="6.11475">
        <ele>1335.41</ele>
        <time>2015-06-30T09:59:48Z</time>
      </trkpt>
      <trkpt lat="46.58013" lon="6.1147">
        <ele>1334.93</ele>
        <time>2015-06-30T09:59:49Z</time>
      </trkpt>
      <trkpt lat="46.58012" lon="6.11464">
        <ele>1333.97</ele>
        <time>2015-06-30T09:59:50Z</time>
      </trkpt>
      <trkpt lat="46.58011" lon="6.11458">
        <ele>1333.49</ele>
        <time>2015-06-30T09:59:51Z</time>
      </trkpt>
      <trkpt lat="46.57998" lon="6.11434">
        <ele>1330.12</ele>
        <time>2015-06-30T09:59:57Z</time>
      </trkpt>
      <trkpt lat="46.57986" lon="6.11427">
        <ele>1328.68</ele>
        <time>2015-06-30T09:59:59Z</time>
      </trkpt>
      <trkpt lat="46.57979" lon="6.11424">
        <ele>1328.2</ele>
        <time>2015-06-30T10:00:00Z</time>
      </trkpt>
      <trkpt lat="46.57975" lon="6.11421">
        <ele>1327.24</ele>
        <time>2015-06-30T10:00:01Z</time>
      </trkpt>
      <trkpt lat="46.57971" lon="6.11417">
        <ele>1327.72</ele>
        <time>2015-06-30T10:00:02Z</time>
      </trkpt>
      <trkpt lat="46.57968" lon="6.11415">
        <ele>1327.72</ele>
        <time>2015-06-30T10:00:03Z</time>
      </trkpt>
      <trkpt lat="46.57966" lon="6.11413">
        <ele>1326.76</ele>
        <time>2015-06-30T10:00:04Z</time>
      </trkpt>
      <trkpt lat="46.57965" lon="6.11411">
        <ele>1326.76</ele>
        <time>2015-06-30T10:00:05Z</time>
      </trkpt>
      <trkpt lat="46.57963" lon="6.11409">
        <ele>1325.8</ele>
        <time>2015-06-30T10:00:06Z</time>
      </trkpt>
      <trkpt lat="46.57961" lon="6.11406">
        <ele>1325.8</ele>
        <time>2015-06-30T10:00:07Z</time>
      </trkpt>
      <trkpt lat="46.57959" lon="6.11403">
        <ele>1325.8</ele>
        <time>2015-06-30T10:00:08Z</time>
      </trkpt>
      <trkpt lat="46.57955" lon="6.11398">
        <ele>1325.8</ele>
        <time>2015-06-30T10:00:10Z</time>
      </trkpt>
      <trkpt lat="46.57953" lon="6.11397">
        <ele>1325.8</ele>
        <time>2015-06-30T10:00:11Z</time>
      </trkpt>
      <trkpt lat="46.57952" lon="6.11395">
        <ele>1326.28</ele>
        <time>2015-06-30T10:00:12Z</time>
      </trkpt>
      <trkpt lat="46.57945" lon="6.11383">
        <ele>1325.31</ele>
        <time>2015-06-30T10:00:18Z</time>
      </trkpt>
      <trkpt lat="46.57944" lon="6.11378">
        <ele>1324.83</ele>
        <time>2015-06-30T10:00:19Z</time>
      </trkpt>
      <trkpt lat="46.57942" lon="6.11372">
        <ele>1323.87</ele>
        <time>2015-06-30T10:00:20Z</time>
      </trkpt>
      <trkpt lat="46.5794" lon="6.11367">
        <ele>1324.35</ele>
        <time>2015-06-30T10:00:21Z</time>
      </trkpt>
      <trkpt lat="46.57938" lon="6.11363">
        <ele>1323.87</ele>
        <time>2015-06-30T10:00:22Z</time>
      </trkpt>
      <trkpt lat="46.57936" lon="6.1136">
        <ele>1323.87</ele>
        <time>2015-06-30T10:00:23Z</time>
      </trkpt>
      <trkpt lat="46.57934" lon="6.11357">
        <ele>1322.91</ele>
        <time>2015-06-30T10:00:24Z</time>
      </trkpt>
      <trkpt lat="46.57924" lon="6.11341">
        <ele>1320.03</ele>
        <time>2015-06-30T10:00:32Z</time>
      </trkpt>
      <trkpt lat="46.5792" lon="6.11336">
        <ele>1319.55</ele>
        <time>2015-06-30T10:00:35Z</time>
      </trkpt>
      <trkpt lat="46.57918" lon="6.11335">
        <ele>1319.55</ele>
        <time>2015-06-30T10:00:36Z</time>
      </trkpt>
      <trkpt lat="46.57916" lon="6.11335">
        <ele>1319.55</ele>
        <time>2015-06-30T10:00:37Z</time>
      </trkpt>
      <trkpt lat="46.57912" lon="6.11335">
        <ele>1319.55</ele>
        <time>2015-06-30T10:00:38Z</time>
      </trkpt>
      <trkpt lat="46.57909" lon="6.11335">
        <ele>1319.07</ele>
        <time>2015-06-30T10:00:39Z</time>
      </trkpt>
      <trkpt lat="46.57907" lon="6.11335">
        <ele>1319.07</ele>
        <time>2015-06-30T10:00:40Z</time>
      </trkpt>
      <trkpt lat="46.57895" lon="6.11321">
        <ele>1318.1</ele>
        <time>2015-06-30T10:00:48Z</time>
      </trkpt>
      <trkpt lat="46.57888" lon="6.11315">
        <ele>1317.62</ele>
        <time>2015-06-30T10:00:51Z</time>
      </trkpt>
      <trkpt lat="46.57877" lon="6.11307">
        <ele>1319.07</ele>
        <time>2015-06-30T10:00:55Z</time>
      </trkpt>
      <trkpt lat="46.57876" lon="6.11304">
        <ele>1319.07</ele>
        <time>2015-06-30T10:00:56Z</time>
      </trkpt>
      <trkpt lat="46.57874" lon="6.11301">
        <ele>1319.07</ele>
        <time>2015-06-30T10:00:57Z</time>
      </trkpt>
      <trkpt lat="46.57873" lon="6.11297">
        <ele>1320.03</ele>
        <time>2015-06-30T10:00:58Z</time>
      </trkpt>
      <trkpt lat="46.57872" lon="6.11294">
        <ele>1320.51</ele>
        <time>2015-06-30T10:00:59Z</time>
      </trkpt>
      <trkpt lat="46.57871" lon="6.1129">
        <ele>1320.03</ele>
        <time>2015-06-30T10:01:00Z</time>
      </trkpt>
      <trkpt lat="46.5787" lon="6.11287">
        <ele>1320.99</ele>
        <time>2015-06-30T10:01:01Z</time>
      </trkpt>
      <trkpt lat="46.57868" lon="6.11284">
        <ele>1321.47</ele>
        <time>2015-06-30T10:01:02Z</time>
      </trkpt>
      <trkpt lat="46.57866" lon="6.11281">
        <ele>1320.99</ele>
        <time>2015-06-30T10:01:03Z</time>
      </trkpt>
      <trkpt lat="46.57863" lon="6.11275">
        <ele>1321.47</ele>
        <time>2015-06-30T10:01:05Z</time>
      </trkpt>
      <trkpt lat="46.57861" lon="6.1127">
        <ele>1321.47</ele>
        <time>2015-06-30T10:01:07Z</time>
      </trkpt>
      <trkpt lat="46.5786" lon="6.11268">
        <ele>1321.95</ele>
        <time>2015-06-30T10:01:08Z</time>
      </trkpt>
      <trkpt lat="46.57846" lon="6.11255">
        <ele>1322.43</ele>
        <time>2015-06-30T10:01:14Z</time>
      </trkpt>
      <trkpt lat="46.57843" lon="6.11254">
        <ele>1320.99</ele>
        <time>2015-06-30T10:01:15Z</time>
      </trkpt>
      <trkpt lat="46.5784" lon="6.11251">
        <ele>1321.47</ele>
        <time>2015-06-30T10:01:16Z</time>
      </trkpt>
      <trkpt lat="46.57838" lon="6.11247">
        <ele>1320.99</ele>
        <time>2015-06-30T10:01:17Z</time>
      </trkpt>
      <trkpt lat="46.57835" lon="6.11243">
        <ele>1321.47</ele>
        <time>2015-06-30T10:01:18Z</time>
      </trkpt>
      <trkpt lat="46.57833" lon="6.11239">
        <ele>1321.47</ele>
        <time>2015-06-30T10:01:19Z</time>
      </trkpt>
      <trkpt lat="46.57815" lon="6.11216">
        <ele>1322.43</ele>
        <time>2015-06-30T10:01:26Z</time>
      </trkpt>
      <trkpt lat="46.57812" lon="6.11214">
        <ele>1321.95</ele>
        <time>2015-06-30T10:01:27Z</time>
      </trkpt>
      <trkpt lat="46.5781" lon="6.11211">
        <ele>1321.95</ele>
        <time>2015-06-30T10:01:28Z</time>
      </trkpt>
      <trkpt lat="46.57808" lon="6.11208">
        <ele>1322.43</ele>
        <time>2015-06-30T10:01:29Z</time>
      </trkpt>
      <trkpt lat="46.57806" lon="6.11204">
        <ele>1321.95</ele>
        <time>2015-06-30T10:01:30Z</time>
      </trkpt>
      <trkpt lat="46.57799" lon="6.11187">
        <ele>1321.47</ele>
        <time>2015-06-30T10:01:34Z</time>
      </trkpt>
      <trkpt lat="46.57779" lon="6.11153">
        <ele>1321.95</ele>
        <time>2015-06-30T10:01:44Z</time>
      </trkpt>
      <trkpt lat="46.57776" lon="6.11148">
        <ele>1321.95</ele>
        <time>2015-06-30T10:01:47Z</time>
      </trkpt>
      <trkpt lat="46.57774" lon="6.11146">
        <ele>1321.47</ele>
        <time>2015-06-30T10:01:48Z</time>
      </trkpt>
      <trkpt lat="46.57771" lon="6.11144">
        <ele>1321.47</ele>
        <time>2015-06-30T10:01:49Z</time>
      </trkpt>
      <trkpt lat="46.57769" lon="6.11142">
        <ele>1321.47</ele>
        <time>2015-06-30T10:01:50Z</time>
      </trkpt>
      <trkpt lat="46.57767" lon="6.1114">
        <ele>1321.47</ele>
        <time>2015-06-30T10:01:51Z</time>
      </trkpt>
      <trkpt lat="46.57761" lon="6.11138">
        <ele>1321.47</ele>
        <time>2015-06-30T10:01:53Z</time>
      </trkpt>
      <trkpt lat="46.57758" lon="6.11138">
        <ele>1320.99</ele>
        <time>2015-06-30T10:01:54Z</time>
      </trkpt>
      <trkpt lat="46.57753" lon="6.11136">
        <ele>1320.03</ele>
        <time>2015-06-30T10:01:55Z</time>
      </trkpt>
      <trkpt lat="46.57749" lon="6.11134">
        <ele>1319.55</ele>
        <time>2015-06-30T10:01:56Z</time>
      </trkpt>
      <trkpt lat="46.57745" lon="6.11132">
        <ele>1318.59</ele>
        <time>2015-06-30T10:01:57Z</time>
      </trkpt>
      <trkpt lat="46.5774" lon="6.11129">
        <ele>1318.1</ele>
        <time>2015-06-30T10:01:58Z</time>
      </trkpt>
      <trkpt lat="46.57724" lon="6.11117">
        <ele>1317.14</ele>
        <time>2015-06-30T10:02:02Z</time>
      </trkpt>
      <trkpt lat="46.5772" lon="6.11113">
        <ele>1315.7</ele>
        <time>2015-06-30T10:02:03Z</time>
      </trkpt>
      <trkpt lat="46.57716" lon="6.11108">
        <ele>1314.74</ele>
        <time>2015-06-30T10:02:04Z</time>
      </trkpt>
      <trkpt lat="46.57713" lon="6.11103">
        <ele>1314.26</ele>
        <time>2015-06-30T10:02:05Z</time>
      </trkpt>
      <trkpt lat="46.57711" lon="6.11101">
        <ele>1314.74</ele>
        <time>2015-06-30T10:02:06Z</time>
      </trkpt>
      <trkpt lat="46.57707" lon="6.11097">
        <ele>1314.74</ele>
        <time>2015-06-30T10:02:08Z</time>
      </trkpt>
      <trkpt lat="46.57705" lon="6.11095">
        <ele>1314.26</ele>
        <time>2015-06-30T10:02:09Z</time>
      </trkpt>
      <trkpt lat="46.57701" lon="6.11091">
        <ele>1314.74</ele>
        <time>2015-06-30T10:02:11Z</time>
      </trkpt>
      <trkpt lat="46.57699" lon="6.11086">
        <ele>1314.74</ele>
        <time>2015-06-30T10:02:13Z</time>
      </trkpt>
      <trkpt lat="46.57697" lon="6.11083">
        <ele>1314.26</ele>
        <time>2015-06-30T10:02:14Z</time>
      </trkpt>
      <trkpt lat="46.57695" lon="6.1108">
        <ele>1314.26</ele>
        <time>2015-06-30T10:02:15Z</time>
      </trkpt>
      <trkpt lat="46.5769" lon="6.11073">
        <ele>1314.74</ele>
        <time>2015-06-30T10:02:17Z</time>
      </trkpt>
      <trkpt lat="46.57686" lon="6.11062">
        <ele>1314.74</ele>
        <time>2015-06-30T10:02:21Z</time>
      </trkpt>
      <trkpt lat="46.57684" lon="6.11059">
        <ele>1315.22</ele>
        <time>2015-06-30T10:02:22Z</time>
      </trkpt>
      <trkpt lat="46.57683" lon="6.11056">
        <ele>1314.74</ele>
        <time>2015-06-30T10:02:23Z</time>
      </trkpt>
      <trkpt lat="46.57681" lon="6.11054">
        <ele>1315.22</ele>
        <time>2015-06-30T10:02:24Z</time>
      </trkpt>
      <trkpt lat="46.5768" lon="6.11051">
        <ele>1315.7</ele>
        <time>2015-06-30T10:02:25Z</time>
      </trkpt>
      <trkpt lat="46.57678" lon="6.11048">
        <ele>1315.22</ele>
        <time>2015-06-30T10:02:26Z</time>
      </trkpt>
      <trkpt lat="46.57677" lon="6.11046">
        <ele>1315.22</ele>
        <time>2015-06-30T10:02:27Z</time>
      </trkpt>
      <trkpt lat="46.57672" lon="6.11042">
        <ele>1315.7</ele>
        <time>2015-06-30T10:02:30Z</time>
      </trkpt>
      <trkpt lat="46.57665" lon="6.11033">
        <ele>1316.66</ele>
        <time>2015-06-30T10:02:44Z</time>
      </trkpt>
      <trkpt lat="46.57665" lon="6.11032">
        <ele>1316.66</ele>
        <time>2015-06-30T10:02:49Z</time>
      </trkpt>
      <trkpt lat="46.57665" lon="6.11032">
        <ele>1315.22</ele>
        <time>2015-06-30T10:02:51Z</time>
      </trkpt>
      <trkpt lat="46.57661" lon="6.11028">
        <ele>1315.7</ele>
        <time>2015-06-30T10:03:07Z</time>
      </trkpt>
      <trkpt lat="46.5766" lon="6.11028">
        <ele>1315.22</ele>
        <time>2015-06-30T10:03:24Z</time>
      </trkpt>
      <trkpt lat="46.57658" lon="6.11025">
        <ele>1313.3</ele>
        <time>2015-06-30T10:03:37Z</time>
      </trkpt>
      <trkpt lat="46.57652" lon="6.11014">
        <ele>1311.38</ele>
        <time>2015-06-30T10:03:49Z</time>
      </trkpt>
      <trkpt lat="46.57647" lon="6.1101">
        <ele>1309.45</ele>
        <time>2015-06-30T10:04:00Z</time>
      </trkpt>
      <trkpt lat="46.5764" lon="6.11006">
        <ele>1308.97</ele>
        <time>2015-06-30T10:04:12Z</time>
      </trkpt>
      <trkpt lat="46.57633" lon="6.10999">
        <ele>1308.97</ele>
        <time>2015-06-30T10:04:41Z</time>
      </trkpt>
      <trkpt lat="46.57632" lon="6.10996">
        <ele>1308.49</ele>
        <time>2015-06-30T10:04:46Z</time>
      </trkpt>
      <trkpt lat="46.57631" lon="6.10994">
        <ele>1308.01</ele>
        <time>2015-06-30T10:04:47Z</time>
      </trkpt>
      <trkpt lat="46.57629" lon="6.10993">
        <ele>1307.05</ele>
        <time>2015-06-30T10:04:49Z</time>
      </trkpt>
      <trkpt lat="46.57617" lon="6.10999">
        <ele>1306.09</ele>
        <time>2015-06-30T10:04:59Z</time>
      </trkpt>
      <trkpt lat="46.57601" lon="6.10986">
        <ele>1305.13</ele>
        <time>2015-06-30T10:05:09Z</time>
      </trkpt>
      <trkpt lat="46.57591" lon="6.10977">
        <ele>1304.65</ele>
        <time>2015-06-30T10:05:13Z</time>
      </trkpt>
      <trkpt lat="46.57567" lon="6.10956">
        <ele>1306.09</ele>
        <time>2015-06-30T10:05:24Z</time>
      </trkpt>
      <trkpt lat="46.57552" lon="6.10953">
        <ele>1307.53</ele>
        <time>2015-06-30T10:05:30Z</time>
      </trkpt>
      <trkpt lat="46.57535" lon="6.10925">
        <ele>1305.61</ele>
        <time>2015-06-30T10:05:38Z</time>
      </trkpt>
      <trkpt lat="46.57531" lon="6.10909">
        <ele>1305.61</ele>
        <time>2015-06-30T10:05:43Z</time>
      </trkpt>
      <trkpt lat="46.57509" lon="6.10893">
        <ele>1305.13</ele>
        <time>2015-06-30T10:05:51Z</time>
      </trkpt>
      <trkpt lat="46.57499" lon="6.10873">
        <ele>1303.69</ele>
        <time>2015-06-30T10:05:58Z</time>
      </trkpt>
      <trkpt lat="46.57495" lon="6.10868">
        <ele>1302.72</ele>
        <time>2015-06-30T10:06:00Z</time>
      </trkpt>
      <trkpt lat="46.57474" lon="6.10858">
        <ele>1302.24</ele>
        <time>2015-06-30T10:06:09Z</time>
      </trkpt>
      <trkpt lat="46.57467" lon="6.10846">
        <ele>1302.72</ele>
        <time>2015-06-30T10:06:14Z</time>
      </trkpt>
      <trkpt lat="46.57442" lon="6.10825">
        <ele>1301.28</ele>
        <time>2015-06-30T10:06:25Z</time>
      </trkpt>
      <trkpt lat="46.57417" lon="6.10792">
        <ele>1297.44</ele>
        <time>2015-06-30T10:06:36Z</time>
      </trkpt>
      <trkpt lat="46.5741" lon="6.10782">
        <ele>1294.55</ele>
        <time>2015-06-30T10:06:41Z</time>
      </trkpt>
      <trkpt lat="46.57406" lon="6.10774">
        <ele>1292.63</ele>
        <time>2015-06-30T10:06:45Z</time>
      </trkpt>
      <trkpt lat="46.57391" lon="6.10774">
        <ele>1291.19</ele>
        <time>2015-06-30T10:06:49Z</time>
      </trkpt>
      <trkpt lat="46.57386" lon="6.10774">
        <ele>1290.71</ele>
        <time>2015-06-30T10:06:50Z</time>
      </trkpt>
      <trkpt lat="46.57381" lon="6.10774">
        <ele>1290.23</ele>
        <time>2015-06-30T10:06:51Z</time>
      </trkpt>
      <trkpt lat="46.57376" lon="6.10774">
        <ele>1290.23</ele>
        <time>2015-06-30T10:06:52Z</time>
      </trkpt>
      <trkpt lat="46.57373" lon="6.10773">
        <ele>1289.75</ele>
        <time>2015-06-30T10:06:53Z</time>
      </trkpt>
      <trkpt lat="46.57371" lon="6.1077">
        <ele>1289.75</ele>
        <time>2015-06-30T10:06:54Z</time>
      </trkpt>
      <trkpt lat="46.57371" lon="6.10769">
        <ele>1289.75</ele>
        <time>2015-06-30T10:06:55Z</time>
      </trkpt>
      <trkpt lat="46.57369" lon="6.10767">
        <ele>1289.75</ele>
        <time>2015-06-30T10:06:56Z</time>
      </trkpt>
      <trkpt lat="46.57367" lon="6.10765">
        <ele>1289.75</ele>
        <time>2015-06-30T10:06:57Z</time>
      </trkpt>
      <trkpt lat="46.57365" lon="6.10763">
        <ele>1289.75</ele>
        <time>2015-06-30T10:06:58Z</time>
      </trkpt>
      <trkpt lat="46.57363" lon="6.10761">
        <ele>1289.75</ele>
        <time>2015-06-30T10:06:59Z</time>
      </trkpt>
      <trkpt lat="46.57361" lon="6.10759">
        <ele>1289.27</ele>
        <time>2015-06-30T10:07:00Z</time>
      </trkpt>
      <trkpt lat="46.57358" lon="6.10758">
        <ele>1289.27</ele>
        <time>2015-06-30T10:07:01Z</time>
      </trkpt>
      <trkpt lat="46.57355" lon="6.10757">
        <ele>1288.3</ele>
        <time>2015-06-30T10:07:02Z</time>
      </trkpt>
      <trkpt lat="46.57353" lon="6.10756">
        <ele>1288.78</ele>
        <time>2015-06-30T10:07:03Z</time>
      </trkpt>
      <trkpt lat="46.57342" lon="6.10756">
        <ele>1287.82</ele>
        <time>2015-06-30T10:07:06Z</time>
      </trkpt>
      <trkpt lat="46.57337" lon="6.10758">
        <ele>1287.82</ele>
        <time>2015-06-30T10:07:07Z</time>
      </trkpt>
      <trkpt lat="46.57333" lon="6.10761">
        <ele>1287.82</ele>
        <time>2015-06-30T10:07:08Z</time>
      </trkpt>
      <trkpt lat="46.57328" lon="6.10763">
        <ele>1287.34</ele>
        <time>2015-06-30T10:07:09Z</time>
      </trkpt>
      <trkpt lat="46.57323" lon="6.10765">
        <ele>1287.34</ele>
        <time>2015-06-30T10:07:10Z</time>
      </trkpt>
      <trkpt lat="46.57317" lon="6.10766">
        <ele>1285.9</ele>
        <time>2015-06-30T10:07:11Z</time>
      </trkpt>
      <trkpt lat="46.57311" lon="6.10769">
        <ele>1285.9</ele>
        <time>2015-06-30T10:07:12Z</time>
      </trkpt>
      <trkpt lat="46.57306" lon="6.10775">
        <ele>1284.94</ele>
        <time>2015-06-30T10:07:13Z</time>
      </trkpt>
      <trkpt lat="46.573" lon="6.10781">
        <ele>1284.94</ele>
        <time>2015-06-30T10:07:14Z</time>
      </trkpt>
      <trkpt lat="46.57294" lon="6.10787">
        <ele>1284.46</ele>
        <time>2015-06-30T10:07:15Z</time>
      </trkpt>
      <trkpt lat="46.57284" lon="6.10799">
        <ele>1283.02</ele>
        <time>2015-06-30T10:07:17Z</time>
      </trkpt>
      <trkpt lat="46.57262" lon="6.10837">
        <ele>1280.61</ele>
        <time>2015-06-30T10:07:22Z</time>
      </trkpt>
      <trkpt lat="46.57244" lon="6.10888">
        <ele>1277.73</ele>
        <time>2015-06-30T10:07:28Z</time>
      </trkpt>
      <trkpt lat="46.57234" lon="6.10912">
        <ele>1275.81</ele>
        <time>2015-06-30T10:07:31Z</time>
      </trkpt>
      <trkpt lat="46.57218" lon="6.10951">
        <ele>1272.92</ele>
        <time>2015-06-30T10:07:36Z</time>
      </trkpt>
      <trkpt lat="46.57214" lon="6.10963">
        <ele>1272.44</ele>
        <time>2015-06-30T10:07:39Z</time>
      </trkpt>
      <trkpt lat="46.57192" lon="6.10987">
        <ele>1271</ele>
        <time>2015-06-30T10:07:48Z</time>
      </trkpt>
      <trkpt lat="46.57193" lon="6.10993">
        <ele>1271.48</ele>
        <time>2015-06-30T10:07:55Z</time>
      </trkpt>
      <trkpt lat="46.57195" lon="6.10992">
        <ele>1270.52</ele>
        <time>2015-06-30T10:07:56Z</time>
      </trkpt>
      <trkpt lat="46.57199" lon="6.1099">
        <ele>1271.48</ele>
        <time>2015-06-30T10:07:58Z</time>
      </trkpt>
      <trkpt lat="46.57201" lon="6.10989">
        <ele>1271.48</ele>
        <time>2015-06-30T10:07:59Z</time>
      </trkpt>
      <trkpt lat="46.57205" lon="6.10988">
        <ele>1271</ele>
        <time>2015-06-30T10:08:00Z</time>
      </trkpt>
      <trkpt lat="46.57215" lon="6.1098">
        <ele>1271.48</ele>
        <time>2015-06-30T10:08:05Z</time>
      </trkpt>
      <trkpt lat="46.57216" lon="6.10977">
        <ele>1271.96</ele>
        <time>2015-06-30T10:08:06Z</time>
      </trkpt>
      <trkpt lat="46.57217" lon="6.10974">
        <ele>1272.44</ele>
        <time>2015-06-30T10:08:07Z</time>
      </trkpt>
      <trkpt lat="46.57217" lon="6.10971">
        <ele>1271.96</ele>
        <time>2015-06-30T10:08:08Z</time>
      </trkpt>
      <trkpt lat="46.57217" lon="6.10969">
        <ele>1272.44</ele>
        <time>2015-06-30T10:08:09Z</time>
      </trkpt>
      <trkpt lat="46.57217" lon="6.10967">
        <ele>1271.96</ele>
        <time>2015-06-30T10:08:10Z</time>
      </trkpt>
      <trkpt lat="46.57217" lon="6.10963">
        <ele>1271.96</ele>
        <time>2015-06-30T10:08:19Z</time>
      </trkpt>
      <trkpt lat="46.5722" lon="6.10964">
        <ele>1271.48</ele>
        <time>2015-06-30T10:08:48Z</time>
      </trkpt>
      <trkpt lat="46.57221" lon="6.10957">
        <ele>1271.48</ele>
        <time>2015-06-30T10:09:20Z</time>
      </trkpt>
      <trkpt lat="46.57221" lon="6.10952">
        <ele>1271.48</ele>
        <time>2015-06-30T10:09:49Z</time>
      </trkpt>
      <trkpt lat="46.57222" lon="6.10949">
        <ele>1271</ele>
        <time>2015-06-30T10:10:18Z</time>
      </trkpt>
      <trkpt lat="46.57221" lon="6.10951">
        <ele>1271</ele>
        <time>2015-06-30T10:10:49Z</time>
      </trkpt>
      <trkpt lat="46.5722" lon="6.10953">
        <ele>1271.48</ele>
        <time>2015-06-30T10:11:28Z</time>
      </trkpt>
      <trkpt lat="46.57218" lon="6.10953">
        <ele>1271.48</ele>
        <time>2015-06-30T10:12:00Z</time>
      </trkpt>
      <trkpt lat="46.57218" lon="6.10952">
        <ele>1271.48</ele>
        <time>2015-06-30T10:12:30Z</time>
      </trkpt>
      <trkpt lat="46.57218" lon="6.10951">
        <ele>1271</ele>
        <time>2015-06-30T10:13:01Z</time>
      </trkpt>
      <trkpt lat="46.57217" lon="6.10952">
        <ele>1271.48</ele>
        <time>2015-06-30T10:13:38Z</time>
      </trkpt>
      <trkpt lat="46.57218" lon="6.10954">
        <ele>1271</ele>
        <time>2015-06-30T10:14:09Z</time>
      </trkpt>
      <trkpt lat="46.57218" lon="6.10955">
        <ele>1271.48</ele>
        <time>2015-06-30T10:14:40Z</time>
      </trkpt>
      <trkpt lat="46.57219" lon="6.10954">
        <ele>1271.48</ele>
        <time>2015-06-30T10:15:11Z</time>
      </trkpt>
      <trkpt lat="46.5722" lon="6.10955">
        <ele>1271.48</ele>
        <time>2015-06-30T10:15:41Z</time>
      </trkpt>
      <trkpt lat="46.57221" lon="6.10953">
        <ele>1271.48</ele>
        <time>2015-06-30T10:16:11Z</time>
      </trkpt>
      <trkpt lat="46.57223" lon="6.10955">
        <ele>1271</ele>
        <time>2015-06-30T10:16:46Z</time>
      </trkpt>
      <trkpt lat="46.57225" lon="6.10957">
        <ele>1271</ele>
        <time>2015-06-30T10:17:18Z</time>
      </trkpt>
      <trkpt lat="46.57225" lon="6.1096">
        <ele>1271.96</ele>
        <time>2015-06-30T10:17:49Z</time>
      </trkpt>
      <trkpt lat="46.57227" lon="6.10956">
        <ele>1271.48</ele>
        <time>2015-06-30T10:18:27Z</time>
      </trkpt>
      <trkpt lat="46.57224" lon="6.10958">
        <ele>1271.96</ele>
        <time>2015-06-30T10:19:03Z</time>
      </trkpt>
      <trkpt lat="46.57223" lon="6.1096">
        <ele>1271.96</ele>
        <time>2015-06-30T10:19:31Z</time>
      </trkpt>
      <trkpt lat="46.57224" lon="6.10959">
        <ele>1272.44</ele>
        <time>2015-06-30T10:20:09Z</time>
      </trkpt>
      <trkpt lat="46.57222" lon="6.10956">
        <ele>1272.92</ele>
        <time>2015-06-30T10:20:39Z</time>
      </trkpt>
      <trkpt lat="46.57222" lon="6.10954">
        <ele>1276.29</ele>
        <time>2015-06-30T10:20:56Z</time>
      </trkpt>
      <trkpt lat="46.57222" lon="6.10954">
        <ele>1270.04</ele>
        <time>2015-06-30T10:20:57Z</time>
      </trkpt>
      <trkpt lat="46.57222" lon="6.10951">
        <ele>1273.4</ele>
        <time>2015-06-30T10:21:02Z</time>
      </trkpt>
      <trkpt lat="46.57223" lon="6.10949">
        <ele>1273.4</ele>
        <time>2015-06-30T10:21:03Z</time>
      </trkpt>
      <trkpt lat="46.57223" lon="6.10947">
        <ele>1273.4</ele>
        <time>2015-06-30T10:21:04Z</time>
      </trkpt>
      <trkpt lat="46.57224" lon="6.10945">
        <ele>1273.4</ele>
        <time>2015-06-30T10:21:05Z</time>
      </trkpt>
      <trkpt lat="46.57225" lon="6.10943">
        <ele>1273.88</ele>
        <time>2015-06-30T10:21:06Z</time>
      </trkpt>
      <trkpt lat="46.57227" lon="6.10941">
        <ele>1273.4</ele>
        <time>2015-06-30T10:21:07Z</time>
      </trkpt>
      <trkpt lat="46.57229" lon="6.1094">
        <ele>1273.88</ele>
        <time>2015-06-30T10:21:08Z</time>
      </trkpt>
      <trkpt lat="46.57231" lon="6.10937">
        <ele>1274.36</ele>
        <time>2015-06-30T10:21:09Z</time>
      </trkpt>
      <trkpt lat="46.57232" lon="6.10935">
        <ele>1274.36</ele>
        <time>2015-06-30T10:21:10Z</time>
      </trkpt>
      <trkpt lat="46.57233" lon="6.10933">
        <ele>1274.85</ele>
        <time>2015-06-30T10:21:11Z</time>
      </trkpt>
      <trkpt lat="46.57234" lon="6.1093">
        <ele>1274.85</ele>
        <time>2015-06-30T10:21:12Z</time>
      </trkpt>
      <trkpt lat="46.57234" lon="6.10925">
        <ele>1275.33</ele>
        <time>2015-06-30T10:21:14Z</time>
      </trkpt>
      <trkpt lat="46.57235" lon="6.10923">
        <ele>1275.33</ele>
        <time>2015-06-30T10:21:15Z</time>
      </trkpt>
      <trkpt lat="46.57235" lon="6.1092">
        <ele>1275.33</ele>
        <time>2015-06-30T10:21:16Z</time>
      </trkpt>
      <trkpt lat="46.57246" lon="6.10894">
        <ele>1277.73</ele>
        <time>2015-06-30T10:21:27Z</time>
      </trkpt>
      <trkpt lat="46.5725" lon="6.10888">
        <ele>1277.73</ele>
        <time>2015-06-30T10:21:30Z</time>
      </trkpt>
      <trkpt lat="46.57251" lon="6.10886">
        <ele>1278.21</ele>
        <time>2015-06-30T10:21:31Z</time>
      </trkpt>
      <trkpt lat="46.57253" lon="6.10885">
        <ele>1278.21</ele>
        <time>2015-06-30T10:21:32Z</time>
      </trkpt>
      <trkpt lat="46.57254" lon="6.10883">
        <ele>1278.21</ele>
        <time>2015-06-30T10:21:33Z</time>
      </trkpt>
      <trkpt lat="46.57255" lon="6.10881">
        <ele>1278.21</ele>
        <time>2015-06-30T10:21:34Z</time>
      </trkpt>
      <trkpt lat="46.57256" lon="6.10879">
        <ele>1278.21</ele>
        <time>2015-06-30T10:21:35Z</time>
      </trkpt>
      <trkpt lat="46.57267" lon="6.10852">
        <ele>1279.65</ele>
        <time>2015-06-30T10:21:47Z</time>
      </trkpt>
      <trkpt lat="46.57267" lon="6.1085">
        <ele>1280.13</ele>
        <time>2015-06-30T10:21:48Z</time>
      </trkpt>
      <trkpt lat="46.57268" lon="6.10849">
        <ele>1280.61</ele>
        <time>2015-06-30T10:21:49Z</time>
      </trkpt>
      <trkpt lat="46.5727" lon="6.10847">
        <ele>1280.61</ele>
        <time>2015-06-30T10:21:50Z</time>
      </trkpt>
      <trkpt lat="46.5727" lon="6.10846">
        <ele>1280.61</ele>
        <time>2015-06-30T10:21:51Z</time>
      </trkpt>
      <trkpt lat="46.57271" lon="6.10843">
        <ele>1281.09</ele>
        <time>2015-06-30T10:21:52Z</time>
      </trkpt>
      <trkpt lat="46.57272" lon="6.10842">
        <ele>1281.09</ele>
        <time>2015-06-30T10:21:53Z</time>
      </trkpt>
      <trkpt lat="46.57282" lon="6.1082">
        <ele>1282.54</ele>
        <time>2015-06-30T10:22:05Z</time>
      </trkpt>
      <trkpt lat="46.57282" lon="6.10819">
        <ele>1283.02</ele>
        <time>2015-06-30T10:22:06Z</time>
      </trkpt>
      <trkpt lat="46.57282" lon="6.10817">
        <ele>1283.02</ele>
        <time>2015-06-30T10:22:07Z</time>
      </trkpt>
      <trkpt lat="46.57283" lon="6.10815">
        <ele>1282.54</ele>
        <time>2015-06-30T10:22:08Z</time>
      </trkpt>
      <trkpt lat="46.57285" lon="6.10814">
        <ele>1283.02</ele>
        <time>2015-06-30T10:22:09Z</time>
      </trkpt>
      <trkpt lat="46.57287" lon="6.10813">
        <ele>1283.02</ele>
        <time>2015-06-30T10:22:10Z</time>
      </trkpt>
      <trkpt lat="46.57288" lon="6.10812">
        <ele>1283.02</ele>
        <time>2015-06-30T10:22:11Z</time>
      </trkpt>
      <trkpt lat="46.57302" lon="6.1079">
        <ele>1284.46</ele>
        <time>2015-06-30T10:22:24Z</time>
      </trkpt>
      <trkpt lat="46.57309" lon="6.10782">
        <ele>1285.42</ele>
        <time>2015-06-30T10:22:29Z</time>
      </trkpt>
      <trkpt lat="46.5731" lon="6.10781">
        <ele>1284.94</ele>
        <time>2015-06-30T10:22:31Z</time>
      </trkpt>
      <trkpt lat="46.57311" lon="6.10778">
        <ele>1285.9</ele>
        <time>2015-06-30T10:22:32Z</time>
      </trkpt>
      <trkpt lat="46.5731" lon="6.10775">
        <ele>1285.42</ele>
        <time>2015-06-30T10:22:33Z</time>
      </trkpt>
      <trkpt lat="46.5731" lon="6.10772">
        <ele>1286.38</ele>
        <time>2015-06-30T10:22:34Z</time>
      </trkpt>
      <trkpt lat="46.57312" lon="6.10759">
        <ele>1287.34</ele>
        <time>2015-06-30T10:22:42Z</time>
      </trkpt>
      <trkpt lat="46.57314" lon="6.10758">
        <ele>1287.34</ele>
        <time>2015-06-30T10:22:43Z</time>
      </trkpt>
      <trkpt lat="46.57315" lon="6.10757">
        <ele>1287.34</ele>
        <time>2015-06-30T10:22:44Z</time>
      </trkpt>
      <trkpt lat="46.57315" lon="6.10755">
        <ele>1287.34</ele>
        <time>2015-06-30T10:22:45Z</time>
      </trkpt>
      <trkpt lat="46.57316" lon="6.10753">
        <ele>1287.34</ele>
        <time>2015-06-30T10:22:46Z</time>
      </trkpt>
      <trkpt lat="46.57318" lon="6.10751">
        <ele>1287.82</ele>
        <time>2015-06-30T10:22:48Z</time>
      </trkpt>
      <trkpt lat="46.57319" lon="6.10749">
        <ele>1287.82</ele>
        <time>2015-06-30T10:22:49Z</time>
      </trkpt>
      <trkpt lat="46.57321" lon="6.10743">
        <ele>1287.34</ele>
        <time>2015-06-30T10:23:01Z</time>
      </trkpt>
      <trkpt lat="46.57319" lon="6.10743">
        <ele>1287.82</ele>
        <time>2015-06-30T10:23:04Z</time>
      </trkpt>
      <trkpt lat="46.57317" lon="6.10743">
        <ele>1287.82</ele>
        <time>2015-06-30T10:23:06Z</time>
      </trkpt>
      <trkpt lat="46.57315" lon="6.10743">
        <ele>1287.82</ele>
        <time>2015-06-30T10:23:21Z</time>
      </trkpt>
      <trkpt lat="46.57317" lon="6.10747">
        <ele>1287.34</ele>
        <time>2015-06-30T10:23:39Z</time>
      </trkpt>
      <trkpt lat="46.57318" lon="6.10749">
        <ele>1287.82</ele>
        <time>2015-06-30T10:24:09Z</time>
      </trkpt>
      <trkpt lat="46.57321" lon="6.1075">
        <ele>1287.34</ele>
        <time>2015-06-30T10:24:39Z</time>
      </trkpt>
      <trkpt lat="46.57321" lon="6.10751">
        <ele>1287.34</ele>
        <time>2015-06-30T10:25:02Z</time>
      </trkpt>
      <trkpt lat="46.5732" lon="6.10753">
        <ele>1287.34</ele>
        <time>2015-06-30T10:25:15Z</time>
      </trkpt>
      <trkpt lat="46.57321" lon="6.10753">
        <ele>1287.34</ele>
        <time>2015-06-30T10:25:27Z</time>
      </trkpt>
      <trkpt lat="46.57319" lon="6.10754">
        <ele>1287.82</ele>
        <time>2015-06-30T10:25:28Z</time>
      </trkpt>
      <trkpt lat="46.57317" lon="6.10755">
        <ele>1287.34</ele>
        <time>2015-06-30T10:25:29Z</time>
      </trkpt>
      <trkpt lat="46.57316" lon="6.10755">
        <ele>1287.82</ele>
        <time>2015-06-30T10:25:40Z</time>
      </trkpt>
      <trkpt lat="46.57314" lon="6.10753">
        <ele>1287.34</ele>
        <time>2015-06-30T10:25:46Z</time>
      </trkpt>
      <trkpt lat="46.57313" lon="6.10752">
        <ele>1287.82</ele>
        <time>2015-06-30T10:25:47Z</time>
      </trkpt>
      <trkpt lat="46.57302" lon="6.10741">
        <ele>1288.3</ele>
        <time>2015-06-30T10:25:55Z</time>
      </trkpt>
      <trkpt lat="46.5729" lon="6.10732">
        <ele>1289.75</ele>
        <time>2015-06-30T10:26:06Z</time>
      </trkpt>
      <trkpt lat="46.57284" lon="6.10728">
        <ele>1291.19</ele>
        <time>2015-06-30T10:26:16Z</time>
      </trkpt>
      <trkpt lat="46.57282" lon="6.10726">
        <ele>1293.11</ele>
        <time>2015-06-30T10:26:29Z</time>
      </trkpt>
      <trkpt lat="46.57281" lon="6.10723">
        <ele>1295.51</ele>
        <time>2015-06-30T10:26:42Z</time>
      </trkpt>
      <trkpt lat="46.57268" lon="6.10708">
        <ele>1296.48</ele>
        <time>2015-06-30T10:26:55Z</time>
      </trkpt>
      <trkpt lat="46.57259" lon="6.10697">
        <ele>1297.92</ele>
        <time>2015-06-30T10:27:08Z</time>
      </trkpt>
      <trkpt lat="46.57252" lon="6.10688">
        <ele>1298.4</ele>
        <time>2015-06-30T10:27:19Z</time>
      </trkpt>
      <trkpt lat="46.5725" lon="6.10686">
        <ele>1298.88</ele>
        <time>2015-06-30T10:27:22Z</time>
      </trkpt>
      <trkpt lat="46.57244" lon="6.10678">
        <ele>1298.4</ele>
        <time>2015-06-30T10:27:27Z</time>
      </trkpt>
      <trkpt lat="46.57231" lon="6.10644">
        <ele>1296.48</ele>
        <time>2015-06-30T10:27:35Z</time>
      </trkpt>
      <trkpt lat="46.57227" lon="6.10625">
        <ele>1296.48</ele>
        <time>2015-06-30T10:27:40Z</time>
      </trkpt>
      <trkpt lat="46.57228" lon="6.10609">
        <ele>1295.99</ele>
        <time>2015-06-30T10:27:44Z</time>
      </trkpt>
      <trkpt lat="46.57233" lon="6.10562">
        <ele>1295.51</ele>
        <time>2015-06-30T10:27:54Z</time>
      </trkpt>
      <trkpt lat="46.57238" lon="6.10552">
        <ele>1295.51</ele>
        <time>2015-06-30T10:27:57Z</time>
      </trkpt>
      <trkpt lat="46.57248" lon="6.10538">
        <ele>1294.55</ele>
        <time>2015-06-30T10:28:03Z</time>
      </trkpt>
      <trkpt lat="46.57249" lon="6.10537">
        <ele>1294.55</ele>
        <time>2015-06-30T10:28:04Z</time>
      </trkpt>
      <trkpt lat="46.57251" lon="6.10534">
        <ele>1295.51</ele>
        <time>2015-06-30T10:28:06Z</time>
      </trkpt>
      <trkpt lat="46.57265" lon="6.10522">
        <ele>1296.48</ele>
        <time>2015-06-30T10:28:11Z</time>
      </trkpt>
      <trkpt lat="46.57278" lon="6.10509">
        <ele>1296.48</ele>
        <time>2015-06-30T10:28:18Z</time>
      </trkpt>
      <trkpt lat="46.57285" lon="6.10499">
        <ele>1295.03</ele>
        <time>2015-06-30T10:28:22Z</time>
      </trkpt>
      <trkpt lat="46.57293" lon="6.10486">
        <ele>1294.55</ele>
        <time>2015-06-30T10:28:26Z</time>
      </trkpt>
      <trkpt lat="46.57294" lon="6.10467">
        <ele>1295.03</ele>
        <time>2015-06-30T10:28:32Z</time>
      </trkpt>
      <trkpt lat="46.57294" lon="6.10453">
        <ele>1295.99</ele>
        <time>2015-06-30T10:28:37Z</time>
      </trkpt>
      <trkpt lat="46.57289" lon="6.10439">
        <ele>1294.55</ele>
        <time>2015-06-30T10:28:48Z</time>
      </trkpt>
      <trkpt lat="46.57289" lon="6.10439">
        <ele>1294.07</ele>
        <time>2015-06-30T10:29:06Z</time>
      </trkpt>
      <trkpt lat="46.57289" lon="6.10437">
        <ele>1294.55</ele>
        <time>2015-06-30T10:29:20Z</time>
      </trkpt>
      <trkpt lat="46.57289" lon="6.10435">
        <ele>1293.59</ele>
        <time>2015-06-30T10:29:34Z</time>
      </trkpt>
      <trkpt lat="46.57289" lon="6.10429">
        <ele>1292.15</ele>
        <time>2015-06-30T10:29:37Z</time>
      </trkpt>
      <trkpt lat="46.5729" lon="6.10424">
        <ele>1292.15</ele>
        <time>2015-06-30T10:29:47Z</time>
      </trkpt>
      <trkpt lat="46.57291" lon="6.10423">
        <ele>1292.15</ele>
        <time>2015-06-30T10:30:14Z</time>
      </trkpt>
      <trkpt lat="46.57291" lon="6.10424">
        <ele>1291.67</ele>
        <time>2015-06-30T10:30:47Z</time>
      </trkpt>
      <trkpt lat="46.57291" lon="6.10423">
        <ele>1291.67</ele>
        <time>2015-06-30T10:31:18Z</time>
      </trkpt>
      <trkpt lat="46.57292" lon="6.1042">
        <ele>1291.67</ele>
        <time>2015-06-30T10:31:52Z</time>
      </trkpt>
      <trkpt lat="46.57293" lon="6.10419">
        <ele>1291.67</ele>
        <time>2015-06-30T10:32:24Z</time>
      </trkpt>
      <trkpt lat="46.57293" lon="6.1042">
        <ele>1291.67</ele>
        <time>2015-06-30T10:33:00Z</time>
      </trkpt>
      <trkpt lat="46.57294" lon="6.10421">
        <ele>1291.67</ele>
        <time>2015-06-30T10:33:36Z</time>
      </trkpt>
      <trkpt lat="46.57295" lon="6.1042">
        <ele>1292.15</ele>
        <time>2015-06-30T10:34:07Z</time>
      </trkpt>
      <trkpt lat="46.57295" lon="6.1042">
        <ele>1291.67</ele>
        <time>2015-06-30T10:34:42Z</time>
      </trkpt>
      <trkpt lat="46.57294" lon="6.1042">
        <ele>1292.15</ele>
        <time>2015-06-30T10:35:17Z</time>
      </trkpt>
      <trkpt lat="46.57294" lon="6.10418">
        <ele>1291.67</ele>
        <time>2015-06-30T10:35:52Z</time>
      </trkpt>
      <trkpt lat="46.57295" lon="6.10418">
        <ele>1292.15</ele>
        <time>2015-06-30T10:36:25Z</time>
      </trkpt>
      <trkpt lat="46.57295" lon="6.10417">
        <ele>1292.15</ele>
        <time>2015-06-30T10:36:57Z</time>
      </trkpt>
      <trkpt lat="46.57296" lon="6.1042">
        <ele>1292.15</ele>
        <time>2015-06-30T10:37:33Z</time>
      </trkpt>
      <trkpt lat="46.57296" lon="6.1042">
        <ele>1291.67</ele>
        <time>2015-06-30T10:38:06Z</time>
      </trkpt>
      <trkpt lat="46.57297" lon="6.10419">
        <ele>1291.67</ele>
        <time>2015-06-30T10:38:40Z</time>
      </trkpt>
      <trkpt lat="46.57297" lon="6.10418">
        <ele>1291.67</ele>
        <time>2015-06-30T10:39:13Z</time>
      </trkpt>
      <trkpt lat="46.57295" lon="6.10419">
        <ele>1291.19</ele>
        <time>2015-06-30T10:39:51Z</time>
      </trkpt>
      <trkpt lat="46.57294" lon="6.10419">
        <ele>1291.67</ele>
        <time>2015-06-30T10:40:27Z</time>
      </trkpt>
      <trkpt lat="46.57294" lon="6.10418">
        <ele>1291.19</ele>
        <time>2015-06-30T10:41:03Z</time>
      </trkpt>
      <trkpt lat="46.57294" lon="6.10418">
        <ele>1291.19</ele>
        <time>2015-06-30T10:41:46Z</time>
      </trkpt>
      <trkpt lat="46.57294" lon="6.10421">
        <ele>1291.19</ele>
        <time>2015-06-30T10:42:22Z</time>
      </trkpt>
      <trkpt lat="46.57294" lon="6.10423">
        <ele>1292.15</ele>
        <time>2015-06-30T10:42:57Z</time>
      </trkpt>
      <trkpt lat="46.57296" lon="6.10423">
        <ele>1291.67</ele>
        <time>2015-06-30T10:43:36Z</time>
      </trkpt>
      <trkpt lat="46.57294" lon="6.10421">
        <ele>1292.15</ele>
        <time>2015-06-30T10:44:13Z</time>
      </trkpt>
      <trkpt lat="46.57293" lon="6.10419">
        <ele>1291.67</ele>
        <time>2015-06-30T10:44:54Z</time>
      </trkpt>
      <trkpt lat="46.5729" lon="6.10418">
        <ele>1292.15</ele>
        <time>2015-06-30T10:45:31Z</time>
      </trkpt>
      <trkpt lat="46.5729" lon="6.1042">
        <ele>1292.15</ele>
        <time>2015-06-30T10:46:06Z</time>
      </trkpt>
      <trkpt lat="46.5729" lon="6.1042">
        <ele>1292.15</ele>
        <time>2015-06-30T10:46:44Z</time>
      </trkpt>
      <trkpt lat="46.57289" lon="6.10418">
        <ele>1292.15</ele>
        <time>2015-06-30T10:47:20Z</time>
      </trkpt>
      <trkpt lat="46.57289" lon="6.10417">
        <ele>1292.63</ele>
        <time>2015-06-30T10:47:58Z</time>
      </trkpt>
      <trkpt lat="46.5729" lon="6.10418">
        <ele>1292.15</ele>
        <time>2015-06-30T10:48:39Z</time>
      </trkpt>
      <trkpt lat="46.57289" lon="6.10419">
        <ele>1292.63</ele>
        <time>2015-06-30T10:49:20Z</time>
      </trkpt>
      <trkpt lat="46.57286" lon="6.10417">
        <ele>1292.63</ele>
        <time>2015-06-30T10:50:00Z</time>
      </trkpt>
      <trkpt lat="46.57286" lon="6.10419">
        <ele>1293.11</ele>
        <time>2015-06-30T10:50:36Z</time>
      </trkpt>
      <trkpt lat="46.57287" lon="6.10418">
        <ele>1293.11</ele>
        <time>2015-06-30T10:51:11Z</time>
      </trkpt>
      <trkpt lat="46.57287" lon="6.10419">
        <ele>1293.11</ele>
        <time>2015-06-30T10:51:54Z</time>
      </trkpt>
      <trkpt lat="46.57288" lon="6.10417">
        <ele>1293.11</ele>
        <time>2015-06-30T10:52:33Z</time>
      </trkpt>
      <trkpt lat="46.57288" lon="6.10416">
        <ele>1293.59</ele>
        <time>2015-06-30T10:53:10Z</time>
      </trkpt>
      <trkpt lat="46.57288" lon="6.10417">
        <ele>1293.11</ele>
        <time>2015-06-30T10:53:42Z</time>
      </trkpt>
      <trkpt lat="46.57288" lon="6.10417">
        <ele>1293.59</ele>
        <time>2015-06-30T10:54:14Z</time>
      </trkpt>
      <trkpt lat="46.57289" lon="6.10415">
        <ele>1293.11</ele>
        <time>2015-06-30T10:54:51Z</time>
      </trkpt>
      <trkpt lat="46.5729" lon="6.10417">
        <ele>1293.59</ele>
        <time>2015-06-30T10:55:27Z</time>
      </trkpt>
      <trkpt lat="46.57291" lon="6.10415">
        <ele>1293.59</ele>
        <time>2015-06-30T10:56:06Z</time>
      </trkpt>
      <trkpt lat="46.57292" lon="6.10416">
        <ele>1293.59</ele>
        <time>2015-06-30T10:56:44Z</time>
      </trkpt>
      <trkpt lat="46.57292" lon="6.10415">
        <ele>1293.59</ele>
        <time>2015-06-30T10:57:23Z</time>
      </trkpt>
      <trkpt lat="46.57292" lon="6.10419">
        <ele>1293.59</ele>
        <time>2015-06-30T10:58:01Z</time>
      </trkpt>
      <trkpt lat="46.57292" lon="6.1042">
        <ele>1294.07</ele>
        <time>2015-06-30T10:58:37Z</time>
      </trkpt>
      <trkpt lat="46.57292" lon="6.10418">
        <ele>1294.07</ele>
        <time>2015-06-30T10:59:15Z</time>
      </trkpt>
      <trkpt lat="46.57292" lon="6.1042">
        <ele>1294.07</ele>
        <time>2015-06-30T10:59:52Z</time>
      </trkpt>
      <trkpt lat="46.57292" lon="6.1042">
        <ele>1294.55</ele>
        <time>2015-06-30T11:00:28Z</time>
      </trkpt>
      <trkpt lat="46.57291" lon="6.1042">
        <ele>1294.07</ele>
        <time>2015-06-30T11:01:06Z</time>
      </trkpt>
      <trkpt lat="46.57291" lon="6.10421">
        <ele>1294.55</ele>
        <time>2015-06-30T11:01:44Z</time>
      </trkpt>
      <trkpt lat="46.57291" lon="6.10419">
        <ele>1294.07</ele>
        <time>2015-06-30T11:02:24Z</time>
      </trkpt>
      <trkpt lat="46.57291" lon="6.10419">
        <ele>1294.55</ele>
        <time>2015-06-30T11:02:59Z</time>
      </trkpt>
      <trkpt lat="46.57291" lon="6.10419">
        <ele>1294.55</ele>
        <time>2015-06-30T11:03:34Z</time>
      </trkpt>
      <trkpt lat="46.5729" lon="6.10419">
        <ele>1294.55</ele>
        <time>2015-06-30T11:04:13Z</time>
      </trkpt>
      <trkpt lat="46.57289" lon="6.10419">
        <ele>1294.55</ele>
        <time>2015-06-30T11:04:54Z</time>
      </trkpt>
      <trkpt lat="46.57292" lon="6.10419">
        <ele>1294.55</ele>
        <time>2015-06-30T11:05:32Z</time>
      </trkpt>
      <trkpt lat="46.57291" lon="6.10419">
        <ele>1294.55</ele>
        <time>2015-06-30T11:06:07Z</time>
      </trkpt>
      <trkpt lat="46.57291" lon="6.1042">
        <ele>1295.03</ele>
        <time>2015-06-30T11:06:45Z</time>
      </trkpt>
      <trkpt lat="46.57292" lon="6.1042">
        <ele>1295.51</ele>
        <time>2015-06-30T11:07:24Z</time>
      </trkpt>
      <trkpt lat="46.57289" lon="6.10419">
        <ele>1295.03</ele>
        <time>2015-06-30T11:08:08Z</time>
      </trkpt>
      <trkpt lat="46.5729" lon="6.10416">
        <ele>1295.03</ele>
        <time>2015-06-30T11:08:43Z</time>
      </trkpt>
      <trkpt lat="46.57289" lon="6.10415">
        <ele>1295.03</ele>
        <time>2015-06-30T11:09:21Z</time>
      </trkpt>
      <trkpt lat="46.57288" lon="6.10415">
        <ele>1295.03</ele>
        <time>2015-06-30T11:10:01Z</time>
      </trkpt>
      <trkpt lat="46.57288" lon="6.10415">
        <ele>1295.51</ele>
        <time>2015-06-30T11:10:40Z</time>
      </trkpt>
      <trkpt lat="46.57288" lon="6.10416">
        <ele>1295.51</ele>
        <time>2015-06-30T11:11:20Z</time>
      </trkpt>
      <trkpt lat="46.57288" lon="6.10415">
        <ele>1295.99</ele>
        <time>2015-06-30T11:11:56Z</time>
      </trkpt>
      <trkpt lat="46.5729" lon="6.10416">
        <ele>1295.51</ele>
        <time>2015-06-30T11:12:36Z</time>
      </trkpt>
      <trkpt lat="46.57291" lon="6.10418">
        <ele>1295.99</ele>
        <time>2015-06-30T11:13:12Z</time>
      </trkpt>
      <trkpt lat="46.5729" lon="6.10417">
        <ele>1295.99</ele>
        <time>2015-06-30T11:13:46Z</time>
      </trkpt>
      <trkpt lat="46.57291" lon="6.10415">
        <ele>1295.99</ele>
        <time>2015-06-30T11:14:25Z</time>
      </trkpt>
      <trkpt lat="46.57292" lon="6.10418">
        <ele>1296.48</ele>
        <time>2015-06-30T11:15:03Z</time>
      </trkpt>
      <trkpt lat="46.57292" lon="6.1042">
        <ele>1296.48</ele>
        <time>2015-06-30T11:15:37Z</time>
      </trkpt>
      <trkpt lat="46.57294" lon="6.10421">
        <ele>1296.96</ele>
        <time>2015-06-30T11:16:09Z</time>
      </trkpt>
      <trkpt lat="46.57293" lon="6.10417">
        <ele>1296.96</ele>
        <time>2015-06-30T11:16:43Z</time>
      </trkpt>
      <trkpt lat="46.57293" lon="6.10416">
        <ele>1297.44</ele>
        <time>2015-06-30T11:17:16Z</time>
      </trkpt>
      <trkpt lat="46.57293" lon="6.10416">
        <ele>1297.44</ele>
        <time>2015-06-30T11:17:49Z</time>
      </trkpt>
      <trkpt lat="46.57292" lon="6.10416">
        <ele>1297.44</ele>
        <time>2015-06-30T11:18:28Z</time>
      </trkpt>
      <trkpt lat="46.57293" lon="6.10418">
        <ele>1297.44</ele>
        <time>2015-06-30T11:19:03Z</time>
      </trkpt>
      <trkpt lat="46.57293" lon="6.10418">
        <ele>1297.92</ele>
        <time>2015-06-30T11:19:36Z</time>
      </trkpt>
      <trkpt lat="46.57294" lon="6.10418">
        <ele>1297.92</ele>
        <time>2015-06-30T11:20:04Z</time>
      </trkpt>
      <trkpt lat="46.57295" lon="6.10418">
        <ele>1297.92</ele>
        <time>2015-06-30T11:20:39Z</time>
      </trkpt>
      <trkpt lat="46.57294" lon="6.10419">
        <ele>1298.4</ele>
        <time>2015-06-30T11:21:19Z</time>
      </trkpt>
      <trkpt lat="46.57295" lon="6.10421">
        <ele>1298.88</ele>
        <time>2015-06-30T11:21:56Z</time>
      </trkpt>
      <trkpt lat="46.57295" lon="6.10421">
        <ele>1298.88</ele>
        <time>2015-06-30T11:22:33Z</time>
      </trkpt>
      <trkpt lat="46.57296" lon="6.10422">
        <ele>1299.36</ele>
        <time>2015-06-30T11:23:06Z</time>
      </trkpt>
      <trkpt lat="46.57297" lon="6.10422">
        <ele>1298.88</ele>
        <time>2015-06-30T11:23:41Z</time>
      </trkpt>
      <trkpt lat="46.57297" lon="6.10423">
        <ele>1299.36</ele>
        <time>2015-06-30T11:24:16Z</time>
      </trkpt>
      <trkpt lat="46.57295" lon="6.10421">
        <ele>1299.36</ele>
        <time>2015-06-30T11:24:53Z</time>
      </trkpt>
      <trkpt lat="46.57292" lon="6.1042">
        <ele>1299.84</ele>
        <time>2015-06-30T11:25:28Z</time>
      </trkpt>
      <trkpt lat="46.57292" lon="6.10417">
        <ele>1299.84</ele>
        <time>2015-06-30T11:26:06Z</time>
      </trkpt>
      <trkpt lat="46.57294" lon="6.10417">
        <ele>1300.32</ele>
        <time>2015-06-30T11:26:37Z</time>
      </trkpt>
      <trkpt lat="46.57293" lon="6.10416">
        <ele>1299.84</ele>
        <time>2015-06-30T11:27:11Z</time>
      </trkpt>
      <trkpt lat="46.57294" lon="6.10416">
        <ele>1300.8</ele>
        <time>2015-06-30T11:27:51Z</time>
      </trkpt>
      <trkpt lat="46.57293" lon="6.10415">
        <ele>1300.8</ele>
        <time>2015-06-30T11:28:36Z</time>
      </trkpt>
      <trkpt lat="46.57296" lon="6.10415">
        <ele>1301.28</ele>
        <time>2015-06-30T11:29:21Z</time>
      </trkpt>
      <trkpt lat="46.57297" lon="6.10413">
        <ele>1300.8</ele>
        <time>2015-06-30T11:29:56Z</time>
      </trkpt>
      <trkpt lat="46.57297" lon="6.10414">
        <ele>1301.28</ele>
        <time>2015-06-30T11:30:35Z</time>
      </trkpt>
      <trkpt lat="46.57296" lon="6.10414">
        <ele>1301.76</ele>
        <time>2015-06-30T11:31:15Z</time>
      </trkpt>
      <trkpt lat="46.57296" lon="6.10415">
        <ele>1301.76</ele>
        <time>2015-06-30T11:31:55Z</time>
      </trkpt>
      <trkpt lat="46.57294" lon="6.10416">
        <ele>1302.24</ele>
        <time>2015-06-30T11:32:37Z</time>
      </trkpt>
      <trkpt lat="46.57293" lon="6.10417">
        <ele>1301.76</ele>
        <time>2015-06-30T11:33:20Z</time>
      </trkpt>
      <trkpt lat="46.57294" lon="6.10416">
        <ele>1301.76</ele>
        <time>2015-06-30T11:33:52Z</time>
      </trkpt>
      <trkpt lat="46.57296" lon="6.10418">
        <ele>1301.28</ele>
        <time>2015-06-30T11:34:31Z</time>
      </trkpt>
      <trkpt lat="46.57294" lon="6.10417">
        <ele>1301.28</ele>
        <time>2015-06-30T11:35:03Z</time>
      </trkpt>
      <trkpt lat="46.57293" lon="6.10415">
        <ele>1301.28</ele>
        <time>2015-06-30T11:35:40Z</time>
      </trkpt>
      <trkpt lat="46.57294" lon="6.10417">
        <ele>1301.76</ele>
        <time>2015-06-30T11:36:19Z</time>
      </trkpt>
      <trkpt lat="46.57294" lon="6.10418">
        <ele>1301.28</ele>
        <time>2015-06-30T11:36:50Z</time>
      </trkpt>
      <trkpt lat="46.57293" lon="6.10417">
        <ele>1301.28</ele>
        <time>2015-06-30T11:37:20Z</time>
      </trkpt>
      <trkpt lat="46.57292" lon="6.10417">
        <ele>1301.76</ele>
        <time>2015-06-30T11:37:53Z</time>
      </trkpt>
      <trkpt lat="46.57291" lon="6.10418">
        <ele>1300.8</ele>
        <time>2015-06-30T11:38:28Z</time>
      </trkpt>
      <trkpt lat="46.57291" lon="6.10417">
        <ele>1301.28</ele>
        <time>2015-06-30T11:39:00Z</time>
      </trkpt>
      <trkpt lat="46.57291" lon="6.10414">
        <ele>1300.8</ele>
        <time>2015-06-30T11:39:28Z</time>
      </trkpt>
      <trkpt lat="46.57293" lon="6.10414">
        <ele>1300.8</ele>
        <time>2015-06-30T11:40:06Z</time>
      </trkpt>
      <trkpt lat="46.57293" lon="6.10414">
        <ele>1301.28</ele>
        <time>2015-06-30T11:40:25Z</time>
      </trkpt>
      <trkpt lat="46.57294" lon="6.10413">
        <ele>1301.76</ele>
        <time>2015-06-30T11:41:05Z</time>
      </trkpt>
      <trkpt lat="46.57294" lon="6.10413">
        <ele>1301.28</ele>
        <time>2015-06-30T11:41:25Z</time>
      </trkpt>
      <trkpt lat="46.57293" lon="6.10414">
        <ele>1301.28</ele>
        <time>2015-06-30T11:41:43Z</time>
      </trkpt>
      <trkpt lat="46.57294" lon="6.10415">
        <ele>1301.28</ele>
        <time>2015-06-30T11:42:09Z</time>
      </trkpt>
      <trkpt lat="46.57294" lon="6.10416">
        <ele>1301.28</ele>
        <time>2015-06-30T11:42:18Z</time>
      </trkpt>
      <trkpt lat="46.57285" lon="6.10412">
        <ele>1298.88</ele>
        <time>2015-06-30T11:42:30Z</time>
      </trkpt>
      <trkpt lat="46.57276" lon="6.10409">
        <ele>1296.96</ele>
        <time>2015-06-30T11:42:35Z</time>
      </trkpt>
      <trkpt lat="46.57254" lon="6.10408">
        <ele>1294.07</ele>
        <time>2015-06-30T11:42:44Z</time>
      </trkpt>
      <trkpt lat="46.5725" lon="6.10408">
        <ele>1293.59</ele>
        <time>2015-06-30T11:42:45Z</time>
      </trkpt>
      <trkpt lat="46.5724" lon="6.10406">
        <ele>1294.55</ele>
        <time>2015-06-30T11:42:50Z</time>
      </trkpt>
      <trkpt lat="46.57219" lon="6.10399">
        <ele>1294.55</ele>
        <time>2015-06-30T11:43:00Z</time>
      </trkpt>
      <trkpt lat="46.57213" lon="6.10396">
        <ele>1294.07</ele>
        <time>2015-06-30T11:43:03Z</time>
      </trkpt>
      <trkpt lat="46.57209" lon="6.10394">
        <ele>1293.59</ele>
        <time>2015-06-30T11:43:06Z</time>
      </trkpt>
      <trkpt lat="46.57191" lon="6.10391">
        <ele>1291.67</ele>
        <time>2015-06-30T11:43:16Z</time>
      </trkpt>
      <trkpt lat="46.57183" lon="6.10388">
        <ele>1291.67</ele>
        <time>2015-06-30T11:43:28Z</time>
      </trkpt>
      <trkpt lat="46.57182" lon="6.10389">
        <ele>1291.67</ele>
        <time>2015-06-30T11:43:52Z</time>
      </trkpt>
      <trkpt lat="46.57177" lon="6.10382">
        <ele>1289.75</ele>
        <time>2015-06-30T11:44:02Z</time>
      </trkpt>
      <trkpt lat="46.57163" lon="6.10378">
        <ele>1287.34</ele>
        <time>2015-06-30T11:44:12Z</time>
      </trkpt>
      <trkpt lat="46.5716" lon="6.10377">
        <ele>1286.38</ele>
        <time>2015-06-30T11:44:14Z</time>
      </trkpt>
      <trkpt lat="46.57156" lon="6.10379">
        <ele>1285.9</ele>
        <time>2015-06-30T11:44:18Z</time>
      </trkpt>
      <trkpt lat="46.57146" lon="6.10376">
        <ele>1283.5</ele>
        <time>2015-06-30T11:44:23Z</time>
      </trkpt>
      <trkpt lat="46.57143" lon="6.10373">
        <ele>1283.98</ele>
        <time>2015-06-30T11:44:31Z</time>
      </trkpt>
      <trkpt lat="46.57134" lon="6.10372">
        <ele>1284.94</ele>
        <time>2015-06-30T11:44:44Z</time>
      </trkpt>
      <trkpt lat="46.57126" lon="6.10368">
        <ele>1286.86</ele>
        <time>2015-06-30T11:44:56Z</time>
      </trkpt>
      <trkpt lat="46.5712" lon="6.10363">
        <ele>1288.3</ele>
        <time>2015-06-30T11:45:08Z</time>
      </trkpt>
      <trkpt lat="46.57116" lon="6.10358">
        <ele>1289.75</ele>
        <time>2015-06-30T11:45:20Z</time>
      </trkpt>
      <trkpt lat="46.57114" lon="6.10356">
        <ele>1289.27</ele>
        <time>2015-06-30T11:45:23Z</time>
      </trkpt>
      <trkpt lat="46.57107" lon="6.10353">
        <ele>1288.3</ele>
        <time>2015-06-30T11:45:27Z</time>
      </trkpt>
      <trkpt lat="46.571" lon="6.10352">
        <ele>1287.82</ele>
        <time>2015-06-30T11:45:30Z</time>
      </trkpt>
      <trkpt lat="46.57084" lon="6.10357">
        <ele>1287.82</ele>
        <time>2015-06-30T11:45:43Z</time>
      </trkpt>
      <trkpt lat="46.57078" lon="6.1036">
        <ele>1289.27</ele>
        <time>2015-06-30T11:45:54Z</time>
      </trkpt>
      <trkpt lat="46.57071" lon="6.10365">
        <ele>1289.27</ele>
        <time>2015-06-30T11:46:06Z</time>
      </trkpt>
      <trkpt lat="46.57064" lon="6.10364">
        <ele>1290.71</ele>
        <time>2015-06-30T11:46:17Z</time>
      </trkpt>
      <trkpt lat="46.57058" lon="6.10353">
        <ele>1291.67</ele>
        <time>2015-06-30T11:46:31Z</time>
      </trkpt>
      <trkpt lat="46.57052" lon="6.10341">
        <ele>1293.59</ele>
        <time>2015-06-30T11:46:44Z</time>
      </trkpt>
      <trkpt lat="46.57049" lon="6.10339">
        <ele>1294.07</ele>
        <time>2015-06-30T11:46:55Z</time>
      </trkpt>
      <trkpt lat="46.57048" lon="6.10338">
        <ele>1293.59</ele>
        <time>2015-06-30T11:46:57Z</time>
      </trkpt>
      <trkpt lat="46.57037" lon="6.10321">
        <ele>1294.55</ele>
        <time>2015-06-30T11:47:08Z</time>
      </trkpt>
      <trkpt lat="46.57019" lon="6.10308">
        <ele>1295.03</ele>
        <time>2015-06-30T11:47:20Z</time>
      </trkpt>
      <trkpt lat="46.57012" lon="6.103">
        <ele>1294.07</ele>
        <time>2015-06-30T11:47:25Z</time>
      </trkpt>
      <trkpt lat="46.57006" lon="6.10299">
        <ele>1293.11</ele>
        <time>2015-06-30T11:47:27Z</time>
      </trkpt>
      <trkpt lat="46.56995" lon="6.10288">
        <ele>1294.07</ele>
        <time>2015-06-30T11:47:33Z</time>
      </trkpt>
      <trkpt lat="46.56979" lon="6.10277">
        <ele>1292.63</ele>
        <time>2015-06-30T11:47:43Z</time>
      </trkpt>
      <trkpt lat="46.56957" lon="6.10268">
        <ele>1289.27</ele>
        <time>2015-06-30T11:47:50Z</time>
      </trkpt>
      <trkpt lat="46.56952" lon="6.10265">
        <ele>1288.78</ele>
        <time>2015-06-30T11:47:52Z</time>
      </trkpt>
      <trkpt lat="46.56947" lon="6.10261">
        <ele>1288.3</ele>
        <time>2015-06-30T11:47:55Z</time>
      </trkpt>
      <trkpt lat="46.56943" lon="6.10256">
        <ele>1286.86</ele>
        <time>2015-06-30T11:47:59Z</time>
      </trkpt>
      <trkpt lat="46.56941" lon="6.10256">
        <ele>1285.9</ele>
        <time>2015-06-30T11:48:00Z</time>
      </trkpt>
      <trkpt lat="46.56935" lon="6.10256">
        <ele>1284.94</ele>
        <time>2015-06-30T11:48:02Z</time>
      </trkpt>
      <trkpt lat="46.56928" lon="6.10257">
        <ele>1283.02</ele>
        <time>2015-06-30T11:48:04Z</time>
      </trkpt>
      <trkpt lat="46.56902" lon="6.10231">
        <ele>1284.46</ele>
        <time>2015-06-30T11:48:14Z</time>
      </trkpt>
      <trkpt lat="46.56896" lon="6.10216">
        <ele>1284.46</ele>
        <time>2015-06-30T11:48:20Z</time>
      </trkpt>
      <trkpt lat="46.56892" lon="6.10204">
        <ele>1285.42</ele>
        <time>2015-06-30T11:48:25Z</time>
      </trkpt>
      <trkpt lat="46.56888" lon="6.10199">
        <ele>1285.9</ele>
        <time>2015-06-30T11:48:28Z</time>
      </trkpt>
      <trkpt lat="46.56885" lon="6.10188">
        <ele>1285.9</ele>
        <time>2015-06-30T11:48:33Z</time>
      </trkpt>
      <trkpt lat="46.56873" lon="6.10156">
        <ele>1287.34</ele>
        <time>2015-06-30T11:48:47Z</time>
      </trkpt>
      <trkpt lat="46.56858" lon="6.10145">
        <ele>1286.86</ele>
        <time>2015-06-30T11:48:53Z</time>
      </trkpt>
      <trkpt lat="46.56833" lon="6.10118">
        <ele>1286.38</ele>
        <time>2015-06-30T11:49:05Z</time>
      </trkpt>
      <trkpt lat="46.56825" lon="6.1008">
        <ele>1286.86</ele>
        <time>2015-06-30T11:49:16Z</time>
      </trkpt>
      <trkpt lat="46.56807" lon="6.10048">
        <ele>1286.86</ele>
        <time>2015-06-30T11:49:27Z</time>
      </trkpt>
      <trkpt lat="46.56796" lon="6.10035">
        <ele>1285.9</ele>
        <time>2015-06-30T11:49:32Z</time>
      </trkpt>
      <trkpt lat="46.56762" lon="6.10016">
        <ele>1283.02</ele>
        <time>2015-06-30T11:49:42Z</time>
      </trkpt>
      <trkpt lat="46.56729" lon="6.10006">
        <ele>1281.09</ele>
        <time>2015-06-30T11:49:52Z</time>
      </trkpt>
      <trkpt lat="46.56717" lon="6.10002">
        <ele>1278.69</ele>
        <time>2015-06-30T11:49:57Z</time>
      </trkpt>
      <trkpt lat="46.567" lon="6.09993">
        <ele>1278.21</ele>
        <time>2015-06-30T11:50:03Z</time>
      </trkpt>
      <trkpt lat="46.56698" lon="6.09992">
        <ele>1277.73</ele>
        <time>2015-06-30T11:50:04Z</time>
      </trkpt>
      <trkpt lat="46.56696" lon="6.0999">
        <ele>1277.73</ele>
        <time>2015-06-30T11:50:05Z</time>
      </trkpt>
      <trkpt lat="46.56694" lon="6.09988">
        <ele>1277.25</ele>
        <time>2015-06-30T11:50:06Z</time>
      </trkpt>
      <trkpt lat="46.56693" lon="6.09987">
        <ele>1277.73</ele>
        <time>2015-06-30T11:50:07Z</time>
      </trkpt>
      <trkpt lat="46.56691" lon="6.09986">
        <ele>1277.73</ele>
        <time>2015-06-30T11:50:08Z</time>
      </trkpt>
      <trkpt lat="46.56689" lon="6.09985">
        <ele>1278.21</ele>
        <time>2015-06-30T11:50:09Z</time>
      </trkpt>
      <trkpt lat="46.56687" lon="6.09985">
        <ele>1278.69</ele>
        <time>2015-06-30T11:50:10Z</time>
      </trkpt>
      <trkpt lat="46.56685" lon="6.09985">
        <ele>1278.69</ele>
        <time>2015-06-30T11:50:11Z</time>
      </trkpt>
      <trkpt lat="46.56684" lon="6.09985">
        <ele>1278.69</ele>
        <time>2015-06-30T11:50:12Z</time>
      </trkpt>
      <trkpt lat="46.56679" lon="6.09988">
        <ele>1279.17</ele>
        <time>2015-06-30T11:50:15Z</time>
      </trkpt>
      <trkpt lat="46.56678" lon="6.0999">
        <ele>1279.65</ele>
        <time>2015-06-30T11:50:16Z</time>
      </trkpt>
      <trkpt lat="46.5667" lon="6.10001">
        <ele>1280.61</ele>
        <time>2015-06-30T11:50:24Z</time>
      </trkpt>
      <trkpt lat="46.56669" lon="6.10003">
        <ele>1280.61</ele>
        <time>2015-06-30T11:50:25Z</time>
      </trkpt>
      <trkpt lat="46.56668" lon="6.10004">
        <ele>1280.61</ele>
        <time>2015-06-30T11:50:26Z</time>
      </trkpt>
      <trkpt lat="46.56656" lon="6.1002">
        <ele>1282.06</ele>
        <time>2015-06-30T11:50:36Z</time>
      </trkpt>
      <trkpt lat="46.56654" lon="6.10027">
        <ele>1282.54</ele>
        <time>2015-06-30T11:50:45Z</time>
      </trkpt>
      <trkpt lat="46.56653" lon="6.10034">
        <ele>1283.98</ele>
        <time>2015-06-30T11:50:56Z</time>
      </trkpt>
      <trkpt lat="46.56653" lon="6.10049">
        <ele>1285.42</ele>
        <time>2015-06-30T11:51:07Z</time>
      </trkpt>
      <trkpt lat="46.56652" lon="6.10055">
        <ele>1285.9</ele>
        <time>2015-06-30T11:51:16Z</time>
      </trkpt>
      <trkpt lat="46.56653" lon="6.10072">
        <ele>1287.34</ele>
        <time>2015-06-30T11:51:26Z</time>
      </trkpt>
      <trkpt lat="46.56654" lon="6.10081">
        <ele>1289.27</ele>
        <time>2015-06-30T11:51:37Z</time>
      </trkpt>
      <trkpt lat="46.56654" lon="6.10089">
        <ele>1290.71</ele>
        <time>2015-06-30T11:51:48Z</time>
      </trkpt>
      <trkpt lat="46.56652" lon="6.10095">
        <ele>1291.19</ele>
        <time>2015-06-30T11:51:52Z</time>
      </trkpt>
      <trkpt lat="46.56644" lon="6.10108">
        <ele>1292.63</ele>
        <time>2015-06-30T11:52:04Z</time>
      </trkpt>
      <trkpt lat="46.56632" lon="6.10114">
        <ele>1293.59</ele>
        <time>2015-06-30T11:52:17Z</time>
      </trkpt>
      <trkpt lat="46.56623" lon="6.10117">
        <ele>1295.99</ele>
        <time>2015-06-30T11:52:31Z</time>
      </trkpt>
      <trkpt lat="46.56615" lon="6.10107">
        <ele>1297.92</ele>
        <time>2015-06-30T11:52:46Z</time>
      </trkpt>
      <trkpt lat="46.56614" lon="6.10103">
        <ele>1298.4</ele>
        <time>2015-06-30T11:52:49Z</time>
      </trkpt>
      <trkpt lat="46.56614" lon="6.10102">
        <ele>1297.44</ele>
        <time>2015-06-30T11:52:50Z</time>
      </trkpt>
      <trkpt lat="46.56611" lon="6.10088">
        <ele>1298.88</ele>
        <time>2015-06-30T11:53:03Z</time>
      </trkpt>
      <trkpt lat="46.56609" lon="6.10077">
        <ele>1300.32</ele>
        <time>2015-06-30T11:53:15Z</time>
      </trkpt>
      <trkpt lat="46.56607" lon="6.10064">
        <ele>1301.28</ele>
        <time>2015-06-30T11:53:27Z</time>
      </trkpt>
      <trkpt lat="46.56598" lon="6.10055">
        <ele>1302.24</ele>
        <time>2015-06-30T11:53:39Z</time>
      </trkpt>
      <trkpt lat="46.56591" lon="6.10051">
        <ele>1304.17</ele>
        <time>2015-06-30T11:53:52Z</time>
      </trkpt>
      <trkpt lat="46.56581" lon="6.10052">
        <ele>1305.13</ele>
        <time>2015-06-30T11:54:03Z</time>
      </trkpt>
      <trkpt lat="46.56576" lon="6.10055">
        <ele>1304.17</ele>
        <time>2015-06-30T11:54:15Z</time>
      </trkpt>
      <trkpt lat="46.56576" lon="6.10053">
        <ele>1304.65</ele>
        <time>2015-06-30T11:54:44Z</time>
      </trkpt>
      <trkpt lat="46.56574" lon="6.10051">
        <ele>1303.69</ele>
        <time>2015-06-30T11:55:16Z</time>
      </trkpt>
      <trkpt lat="46.56571" lon="6.10053">
        <ele>1306.09</ele>
        <time>2015-06-30T11:55:35Z</time>
      </trkpt>
      <trkpt lat="46.56565" lon="6.10057">
        <ele>1307.05</ele>
        <time>2015-06-30T11:55:45Z</time>
      </trkpt>
      <trkpt lat="46.56552" lon="6.10067">
        <ele>1307.53</ele>
        <time>2015-06-30T11:55:58Z</time>
      </trkpt>
      <trkpt lat="46.56531" lon="6.1008">
        <ele>1305.61</ele>
        <time>2015-06-30T11:56:08Z</time>
      </trkpt>
      <trkpt lat="46.56527" lon="6.10081">
        <ele>1305.61</ele>
        <time>2015-06-30T11:56:21Z</time>
      </trkpt>
      <trkpt lat="46.56526" lon="6.10081">
        <ele>1305.13</ele>
        <time>2015-06-30T11:56:36Z</time>
      </trkpt>
      <trkpt lat="46.5652" lon="6.10074">
        <ele>1305.61</ele>
        <time>2015-06-30T11:56:43Z</time>
      </trkpt>
      <trkpt lat="46.56518" lon="6.10064">
        <ele>1304.17</ele>
        <time>2015-06-30T11:56:47Z</time>
      </trkpt>
      <trkpt lat="46.56517" lon="6.10056">
        <ele>1303.69</ele>
        <time>2015-06-30T11:56:49Z</time>
      </trkpt>
      <trkpt lat="46.56504" lon="6.10041">
        <ele>1303.2</ele>
        <time>2015-06-30T11:56:54Z</time>
      </trkpt>
      <trkpt lat="46.56486" lon="6.10035">
        <ele>1303.69</ele>
        <time>2015-06-30T11:57:01Z</time>
      </trkpt>
      <trkpt lat="46.56464" lon="6.10057">
        <ele>1301.76</ele>
        <time>2015-06-30T11:57:12Z</time>
      </trkpt>
      <trkpt lat="46.56448" lon="6.10072">
        <ele>1298.4</ele>
        <time>2015-06-30T11:57:20Z</time>
      </trkpt>
      <trkpt lat="46.56445" lon="6.10077">
        <ele>1297.44</ele>
        <time>2015-06-30T11:57:22Z</time>
      </trkpt>
      <trkpt lat="46.56444" lon="6.1008">
        <ele>1297.44</ele>
        <time>2015-06-30T11:57:23Z</time>
      </trkpt>
      <trkpt lat="46.56437" lon="6.10133">
        <ele>1295.03</ele>
        <time>2015-06-30T11:57:34Z</time>
      </trkpt>
      <trkpt lat="46.56436" lon="6.10144">
        <ele>1293.59</ele>
        <time>2015-06-30T11:57:36Z</time>
      </trkpt>
      <trkpt lat="46.56436" lon="6.1015">
        <ele>1293.59</ele>
        <time>2015-06-30T11:57:37Z</time>
      </trkpt>
      <trkpt lat="46.56436" lon="6.10188">
        <ele>1291.67</ele>
        <time>2015-06-30T11:57:45Z</time>
      </trkpt>
      <trkpt lat="46.56435" lon="6.1019">
        <ele>1291.67</ele>
        <time>2015-06-30T11:57:46Z</time>
      </trkpt>
      <trkpt lat="46.56419" lon="6.10201">
        <ele>1289.27</ele>
        <time>2015-06-30T11:57:52Z</time>
      </trkpt>
      <trkpt lat="46.56406" lon="6.10227">
        <ele>1286.86</ele>
        <time>2015-06-30T11:58:00Z</time>
      </trkpt>
      <trkpt lat="46.56405" lon="6.10229">
        <ele>1286.38</ele>
        <time>2015-06-30T11:58:01Z</time>
      </trkpt>
      <trkpt lat="46.56405" lon="6.10232">
        <ele>1285.9</ele>
        <time>2015-06-30T11:58:02Z</time>
      </trkpt>
      <trkpt lat="46.56404" lon="6.10236">
        <ele>1284.94</ele>
        <time>2015-06-30T11:58:03Z</time>
      </trkpt>
      <trkpt lat="46.56403" lon="6.10239">
        <ele>1284.94</ele>
        <time>2015-06-30T11:58:04Z</time>
      </trkpt>
      <trkpt lat="46.56399" lon="6.10255">
        <ele>1283.02</ele>
        <time>2015-06-30T11:58:09Z</time>
      </trkpt>
      <trkpt lat="46.56382" lon="6.10277">
        <ele>1280.13</ele>
        <time>2015-06-30T11:58:17Z</time>
      </trkpt>
      <trkpt lat="46.56379" lon="6.10282">
        <ele>1279.17</ele>
        <time>2015-06-30T11:58:18Z</time>
      </trkpt>
      <trkpt lat="46.56371" lon="6.10289">
        <ele>1278.21</ele>
        <time>2015-06-30T11:58:20Z</time>
      </trkpt>
      <trkpt lat="46.56366" lon="6.10293">
        <ele>1277.73</ele>
        <time>2015-06-30T11:58:21Z</time>
      </trkpt>
      <trkpt lat="46.56361" lon="6.10295">
        <ele>1276.77</ele>
        <time>2015-06-30T11:58:22Z</time>
      </trkpt>
      <trkpt lat="46.56357" lon="6.10297">
        <ele>1277.73</ele>
        <time>2015-06-30T11:58:23Z</time>
      </trkpt>
      <trkpt lat="46.56352" lon="6.10297">
        <ele>1277.73</ele>
        <time>2015-06-30T11:58:24Z</time>
      </trkpt>
      <trkpt lat="46.56328" lon="6.10291">
        <ele>1279.17</ele>
        <time>2015-06-30T11:58:32Z</time>
      </trkpt>
      <trkpt lat="46.56315" lon="6.10277">
        <ele>1279.65</ele>
        <time>2015-06-30T11:58:38Z</time>
      </trkpt>
      <trkpt lat="46.56313" lon="6.10275">
        <ele>1279.17</ele>
        <time>2015-06-30T11:58:39Z</time>
      </trkpt>
      <trkpt lat="46.56308" lon="6.1027">
        <ele>1278.69</ele>
        <time>2015-06-30T11:58:51Z</time>
      </trkpt>
      <trkpt lat="46.56301" lon="6.10272">
        <ele>1278.69</ele>
        <time>2015-06-30T11:59:15Z</time>
      </trkpt>
      <trkpt lat="46.56301" lon="6.10267">
        <ele>1278.69</ele>
        <time>2015-06-30T11:59:27Z</time>
      </trkpt>
      <trkpt lat="46.56299" lon="6.10266">
        <ele>1278.69</ele>
        <time>2015-06-30T11:59:28Z</time>
      </trkpt>
      <trkpt lat="46.56298" lon="6.10264">
        <ele>1278.21</ele>
        <time>2015-06-30T11:59:29Z</time>
      </trkpt>
      <trkpt lat="46.56295" lon="6.10262">
        <ele>1277.73</ele>
        <time>2015-06-30T11:59:30Z</time>
      </trkpt>
      <trkpt lat="46.56292" lon="6.10259">
        <ele>1277.25</ele>
        <time>2015-06-30T11:59:31Z</time>
      </trkpt>
      <trkpt lat="46.56289" lon="6.10257">
        <ele>1277.25</ele>
        <time>2015-06-30T11:59:32Z</time>
      </trkpt>
      <trkpt lat="46.56284" lon="6.10255">
        <ele>1276.29</ele>
        <time>2015-06-30T11:59:33Z</time>
      </trkpt>
      <trkpt lat="46.56276" lon="6.10253">
        <ele>1275.81</ele>
        <time>2015-06-30T11:59:35Z</time>
      </trkpt>
      <trkpt lat="46.5626" lon="6.10255">
        <ele>1273.88</ele>
        <time>2015-06-30T11:59:39Z</time>
      </trkpt>
      <trkpt lat="46.56256" lon="6.10254">
        <ele>1273.4</ele>
        <time>2015-06-30T11:59:40Z</time>
      </trkpt>
      <trkpt lat="46.56251" lon="6.10253">
        <ele>1272.92</ele>
        <time>2015-06-30T11:59:41Z</time>
      </trkpt>
      <trkpt lat="46.56247" lon="6.10251">
        <ele>1272.92</ele>
        <time>2015-06-30T11:59:42Z</time>
      </trkpt>
      <trkpt lat="46.56242" lon="6.10248">
        <ele>1271.96</ele>
        <time>2015-06-30T11:59:43Z</time>
      </trkpt>
      <trkpt lat="46.56238" lon="6.10244">
        <ele>1272.44</ele>
        <time>2015-06-30T11:59:44Z</time>
      </trkpt>
      <trkpt lat="46.56234" lon="6.1024">
        <ele>1271.96</ele>
        <time>2015-06-30T11:59:45Z</time>
      </trkpt>
      <trkpt lat="46.5623" lon="6.10236">
        <ele>1271.48</ele>
        <time>2015-06-30T11:59:46Z</time>
      </trkpt>
      <trkpt lat="46.56209" lon="6.10211">
        <ele>1268.12</ele>
        <time>2015-06-30T11:59:51Z</time>
      </trkpt>
      <trkpt lat="46.56203" lon="6.10206">
        <ele>1267.64</ele>
        <time>2015-06-30T11:59:52Z</time>
      </trkpt>
      <trkpt lat="46.56177" lon="6.10185">
        <ele>1264.27</ele>
        <time>2015-06-30T11:59:56Z</time>
      </trkpt>
      <trkpt lat="46.5617" lon="6.10178">
        <ele>1264.27</ele>
        <time>2015-06-30T11:59:57Z</time>
      </trkpt>
      <trkpt lat="46.56163" lon="6.10169">
        <ele>1263.31</ele>
        <time>2015-06-30T11:59:58Z</time>
      </trkpt>
      <trkpt lat="46.56142" lon="6.10133">
        <ele>1264.27</ele>
        <time>2015-06-30T12:00:02Z</time>
      </trkpt>
      <trkpt lat="46.5614" lon="6.10127">
        <ele>1264.75</ele>
        <time>2015-06-30T12:00:03Z</time>
      </trkpt>
      <trkpt lat="46.56138" lon="6.1012">
        <ele>1264.27</ele>
        <time>2015-06-30T12:00:04Z</time>
      </trkpt>
      <trkpt lat="46.56136" lon="6.10115">
        <ele>1264.75</ele>
        <time>2015-06-30T12:00:05Z</time>
      </trkpt>
      <trkpt lat="46.56134" lon="6.1011">
        <ele>1265.23</ele>
        <time>2015-06-30T12:00:06Z</time>
      </trkpt>
      <trkpt lat="46.56133" lon="6.10105">
        <ele>1264.75</ele>
        <time>2015-06-30T12:00:07Z</time>
      </trkpt>
      <trkpt lat="46.56121" lon="6.10059">
        <ele>1266.67</ele>
        <time>2015-06-30T12:00:17Z</time>
      </trkpt>
      <trkpt lat="46.5612" lon="6.10013">
        <ele>1268.6</ele>
        <time>2015-06-30T12:00:30Z</time>
      </trkpt>
      <trkpt lat="46.56119" lon="6.10004">
        <ele>1269.08</ele>
        <time>2015-06-30T12:00:33Z</time>
      </trkpt>
      <trkpt lat="46.56119" lon="6.10001">
        <ele>1269.08</ele>
        <time>2015-06-30T12:00:34Z</time>
      </trkpt>
      <trkpt lat="46.56118" lon="6.09999">
        <ele>1269.56</ele>
        <time>2015-06-30T12:00:35Z</time>
      </trkpt>
      <trkpt lat="46.56118" lon="6.09995">
        <ele>1269.56</ele>
        <time>2015-06-30T12:00:36Z</time>
      </trkpt>
      <trkpt lat="46.56117" lon="6.09991">
        <ele>1269.56</ele>
        <time>2015-06-30T12:00:37Z</time>
      </trkpt>
      <trkpt lat="46.56117" lon="6.09988">
        <ele>1269.56</ele>
        <time>2015-06-30T12:00:38Z</time>
      </trkpt>
      <trkpt lat="46.56116" lon="6.09984">
        <ele>1269.08</ele>
        <time>2015-06-30T12:00:39Z</time>
      </trkpt>
      <trkpt lat="46.56115" lon="6.0998">
        <ele>1269.08</ele>
        <time>2015-06-30T12:00:40Z</time>
      </trkpt>
      <trkpt lat="46.56114" lon="6.09976">
        <ele>1269.08</ele>
        <time>2015-06-30T12:00:41Z</time>
      </trkpt>
      <trkpt lat="46.56113" lon="6.09972">
        <ele>1268.6</ele>
        <time>2015-06-30T12:00:42Z</time>
      </trkpt>
      <trkpt lat="46.56112" lon="6.09968">
        <ele>1268.6</ele>
        <time>2015-06-30T12:00:43Z</time>
      </trkpt>
      <trkpt lat="46.5611" lon="6.09964">
        <ele>1268.6</ele>
        <time>2015-06-30T12:00:44Z</time>
      </trkpt>
      <trkpt lat="46.56108" lon="6.09959">
        <ele>1268.6</ele>
        <time>2015-06-30T12:00:45Z</time>
      </trkpt>
      <trkpt lat="46.56105" lon="6.09955">
        <ele>1268.12</ele>
        <time>2015-06-30T12:00:46Z</time>
      </trkpt>
      <trkpt lat="46.56101" lon="6.09949">
        <ele>1267.64</ele>
        <time>2015-06-30T12:00:47Z</time>
      </trkpt>
      <trkpt lat="46.56097" lon="6.09943">
        <ele>1266.67</ele>
        <time>2015-06-30T12:00:48Z</time>
      </trkpt>
      <trkpt lat="46.56092" lon="6.09938">
        <ele>1266.19</ele>
        <time>2015-06-30T12:00:49Z</time>
      </trkpt>
      <trkpt lat="46.56087" lon="6.09933">
        <ele>1265.71</ele>
        <time>2015-06-30T12:00:50Z</time>
      </trkpt>
      <trkpt lat="46.56081" lon="6.09929">
        <ele>1265.71</ele>
        <time>2015-06-30T12:00:51Z</time>
      </trkpt>
      <trkpt lat="46.56076" lon="6.09928">
        <ele>1266.67</ele>
        <time>2015-06-30T12:00:52Z</time>
      </trkpt>
      <trkpt lat="46.56071" lon="6.09926">
        <ele>1266.67</ele>
        <time>2015-06-30T12:00:53Z</time>
      </trkpt>
      <trkpt lat="46.56055" lon="6.09923">
        <ele>1267.64</ele>
        <time>2015-06-30T12:00:56Z</time>
      </trkpt>
      <trkpt lat="46.56051" lon="6.09921">
        <ele>1267.64</ele>
        <time>2015-06-30T12:00:57Z</time>
      </trkpt>
      <trkpt lat="46.56047" lon="6.0992">
        <ele>1267.64</ele>
        <time>2015-06-30T12:00:58Z</time>
      </trkpt>
      <trkpt lat="46.56043" lon="6.09918">
        <ele>1268.6</ele>
        <time>2015-06-30T12:00:59Z</time>
      </trkpt>
      <trkpt lat="46.5604" lon="6.09917">
        <ele>1268.6</ele>
        <time>2015-06-30T12:01:00Z</time>
      </trkpt>
      <trkpt lat="46.56036" lon="6.09914">
        <ele>1268.12</ele>
        <time>2015-06-30T12:01:01Z</time>
      </trkpt>
      <trkpt lat="46.56033" lon="6.0991">
        <ele>1268.12</ele>
        <time>2015-06-30T12:01:02Z</time>
      </trkpt>
      <trkpt lat="46.5603" lon="6.09906">
        <ele>1268.6</ele>
        <time>2015-06-30T12:01:03Z</time>
      </trkpt>
      <trkpt lat="46.56027" lon="6.09902">
        <ele>1268.6</ele>
        <time>2015-06-30T12:01:04Z</time>
      </trkpt>
      <trkpt lat="46.56025" lon="6.09898">
        <ele>1269.08</ele>
        <time>2015-06-30T12:01:05Z</time>
      </trkpt>
      <trkpt lat="46.56011" lon="6.09849">
        <ele>1270.04</ele>
        <time>2015-06-30T12:01:16Z</time>
      </trkpt>
      <trkpt lat="46.56" lon="6.09819">
        <ele>1270.04</ele>
        <time>2015-06-30T12:01:23Z</time>
      </trkpt>
      <trkpt lat="46.55997" lon="6.09813">
        <ele>1269.08</ele>
        <time>2015-06-30T12:01:24Z</time>
      </trkpt>
      <trkpt lat="46.55994" lon="6.09807">
        <ele>1269.08</ele>
        <time>2015-06-30T12:01:25Z</time>
      </trkpt>
      <trkpt lat="46.55981" lon="6.09786">
        <ele>1267.16</ele>
        <time>2015-06-30T12:01:28Z</time>
      </trkpt>
      <trkpt lat="46.55976" lon="6.0978">
        <ele>1267.16</ele>
        <time>2015-06-30T12:01:29Z</time>
      </trkpt>
      <trkpt lat="46.55964" lon="6.09766">
        <ele>1265.71</ele>
        <time>2015-06-30T12:01:31Z</time>
      </trkpt>
      <trkpt lat="46.55959" lon="6.09761">
        <ele>1265.71</ele>
        <time>2015-06-30T12:01:32Z</time>
      </trkpt>
      <trkpt lat="46.55954" lon="6.09759">
        <ele>1265.71</ele>
        <time>2015-06-30T12:01:33Z</time>
      </trkpt>
      <trkpt lat="46.5595" lon="6.09758">
        <ele>1265.23</ele>
        <time>2015-06-30T12:01:34Z</time>
      </trkpt>
      <trkpt lat="46.55945" lon="6.09757">
        <ele>1264.75</ele>
        <time>2015-06-30T12:01:35Z</time>
      </trkpt>
      <trkpt lat="46.55939" lon="6.09757">
        <ele>1264.27</ele>
        <time>2015-06-30T12:01:36Z</time>
      </trkpt>
      <trkpt lat="46.55934" lon="6.09756">
        <ele>1264.27</ele>
        <time>2015-06-30T12:01:37Z</time>
      </trkpt>
      <trkpt lat="46.55923" lon="6.09754">
        <ele>1262.35</ele>
        <time>2015-06-30T12:01:39Z</time>
      </trkpt>
      <trkpt lat="46.55917" lon="6.09751">
        <ele>1260.91</ele>
        <time>2015-06-30T12:01:40Z</time>
      </trkpt>
      <trkpt lat="46.55911" lon="6.09747">
        <ele>1259.94</ele>
        <time>2015-06-30T12:01:41Z</time>
      </trkpt>
      <trkpt lat="46.55907" lon="6.09741">
        <ele>1259.94</ele>
        <time>2015-06-30T12:01:42Z</time>
      </trkpt>
      <trkpt lat="46.55904" lon="6.09735">
        <ele>1259.46</ele>
        <time>2015-06-30T12:01:43Z</time>
      </trkpt>
      <trkpt lat="46.55902" lon="6.09729">
        <ele>1259.46</ele>
        <time>2015-06-30T12:01:44Z</time>
      </trkpt>
      <trkpt lat="46.55901" lon="6.09723">
        <ele>1258.98</ele>
        <time>2015-06-30T12:01:45Z</time>
      </trkpt>
      <trkpt lat="46.559" lon="6.09718">
        <ele>1258.98</ele>
        <time>2015-06-30T12:01:46Z</time>
      </trkpt>
      <trkpt lat="46.55901" lon="6.09712">
        <ele>1258.5</ele>
        <time>2015-06-30T12:01:47Z</time>
      </trkpt>
      <trkpt lat="46.55902" lon="6.09704">
        <ele>1258.02</ele>
        <time>2015-06-30T12:01:48Z</time>
      </trkpt>
      <trkpt lat="46.55904" lon="6.09695">
        <ele>1256.58</ele>
        <time>2015-06-30T12:01:49Z</time>
      </trkpt>
      <trkpt lat="46.5591" lon="6.09666">
        <ele>1255.14</ele>
        <time>2015-06-30T12:01:52Z</time>
      </trkpt>
      <trkpt lat="46.55911" lon="6.09658">
        <ele>1254.66</ele>
        <time>2015-06-30T12:01:53Z</time>
      </trkpt>
      <trkpt lat="46.55911" lon="6.09649">
        <ele>1254.66</ele>
        <time>2015-06-30T12:01:54Z</time>
      </trkpt>
      <trkpt lat="46.5591" lon="6.09641">
        <ele>1254.66</ele>
        <time>2015-06-30T12:01:55Z</time>
      </trkpt>
      <trkpt lat="46.55907" lon="6.09635">
        <ele>1254.18</ele>
        <time>2015-06-30T12:01:56Z</time>
      </trkpt>
      <trkpt lat="46.55903" lon="6.09629">
        <ele>1254.18</ele>
        <time>2015-06-30T12:01:57Z</time>
      </trkpt>
      <trkpt lat="46.55899" lon="6.09623">
        <ele>1255.14</ele>
        <time>2015-06-30T12:01:58Z</time>
      </trkpt>
      <trkpt lat="46.55895" lon="6.09617">
        <ele>1253.7</ele>
        <time>2015-06-30T12:01:59Z</time>
      </trkpt>
      <trkpt lat="46.55891" lon="6.0961">
        <ele>1253.7</ele>
        <time>2015-06-30T12:02:00Z</time>
      </trkpt>
      <trkpt lat="46.55887" lon="6.09604">
        <ele>1253.22</ele>
        <time>2015-06-30T12:02:01Z</time>
      </trkpt>
      <trkpt lat="46.55884" lon="6.09597">
        <ele>1253.7</ele>
        <time>2015-06-30T12:02:02Z</time>
      </trkpt>
      <trkpt lat="46.55881" lon="6.09589">
        <ele>1253.22</ele>
        <time>2015-06-30T12:02:03Z</time>
      </trkpt>
      <trkpt lat="46.55872" lon="6.09565">
        <ele>1251.77</ele>
        <time>2015-06-30T12:02:06Z</time>
      </trkpt>
      <trkpt lat="46.55868" lon="6.09559">
        <ele>1251.77</ele>
        <time>2015-06-30T12:02:07Z</time>
      </trkpt>
      <trkpt lat="46.55865" lon="6.09553">
        <ele>1252.74</ele>
        <time>2015-06-30T12:02:08Z</time>
      </trkpt>
      <trkpt lat="46.5585" lon="6.09524">
        <ele>1253.22</ele>
        <time>2015-06-30T12:02:13Z</time>
      </trkpt>
      <trkpt lat="46.55848" lon="6.09518">
        <ele>1253.22</ele>
        <time>2015-06-30T12:02:14Z</time>
      </trkpt>
      <trkpt lat="46.55846" lon="6.09513">
        <ele>1253.7</ele>
        <time>2015-06-30T12:02:15Z</time>
      </trkpt>
      <trkpt lat="46.55845" lon="6.09507">
        <ele>1253.7</ele>
        <time>2015-06-30T12:02:16Z</time>
      </trkpt>
      <trkpt lat="46.55845" lon="6.09502">
        <ele>1253.22</ele>
        <time>2015-06-30T12:02:17Z</time>
      </trkpt>
      <trkpt lat="46.55845" lon="6.09496">
        <ele>1253.7</ele>
        <time>2015-06-30T12:02:18Z</time>
      </trkpt>
      <trkpt lat="46.55846" lon="6.09492">
        <ele>1254.18</ele>
        <time>2015-06-30T12:02:19Z</time>
      </trkpt>
      <trkpt lat="46.55847" lon="6.09489">
        <ele>1254.18</ele>
        <time>2015-06-30T12:02:20Z</time>
      </trkpt>
      <trkpt lat="46.55848" lon="6.09487">
        <ele>1254.66</ele>
        <time>2015-06-30T12:02:21Z</time>
      </trkpt>
      <trkpt lat="46.55848" lon="6.09485">
        <ele>1255.14</ele>
        <time>2015-06-30T12:02:22Z</time>
      </trkpt>
      <trkpt lat="46.55849" lon="6.09482">
        <ele>1255.14</ele>
        <time>2015-06-30T12:02:23Z</time>
      </trkpt>
      <trkpt lat="46.55854" lon="6.09449">
        <ele>1256.1</ele>
        <time>2015-06-30T12:02:32Z</time>
      </trkpt>
      <trkpt lat="46.5586" lon="6.09398">
        <ele>1257.06</ele>
        <time>2015-06-30T12:02:44Z</time>
      </trkpt>
      <trkpt lat="46.55864" lon="6.09353">
        <ele>1259.46</ele>
        <time>2015-06-30T12:02:57Z</time>
      </trkpt>
      <trkpt lat="46.55867" lon="6.09309">
        <ele>1260.43</ele>
        <time>2015-06-30T12:03:10Z</time>
      </trkpt>
      <trkpt lat="46.55869" lon="6.09289">
        <ele>1260.91</ele>
        <time>2015-06-30T12:03:17Z</time>
      </trkpt>
      <trkpt lat="46.5587" lon="6.09285">
        <ele>1261.39</ele>
        <time>2015-06-30T12:03:18Z</time>
      </trkpt>
      <trkpt lat="46.55871" lon="6.09282">
        <ele>1260.91</ele>
        <time>2015-06-30T12:03:19Z</time>
      </trkpt>
      <trkpt lat="46.55871" lon="6.09261">
        <ele>1262.35</ele>
        <time>2015-06-30T12:03:26Z</time>
      </trkpt>
      <trkpt lat="46.55871" lon="6.09258">
        <ele>1262.35</ele>
        <time>2015-06-30T12:03:27Z</time>
      </trkpt>
      <trkpt lat="46.55871" lon="6.09254">
        <ele>1262.35</ele>
        <time>2015-06-30T12:03:28Z</time>
      </trkpt>
      <trkpt lat="46.55871" lon="6.09253">
        <ele>1262.35</ele>
        <time>2015-06-30T12:03:29Z</time>
      </trkpt>
      <trkpt lat="46.5587" lon="6.09224">
        <ele>1263.31</ele>
        <time>2015-06-30T12:03:37Z</time>
      </trkpt>
      <trkpt lat="46.5587" lon="6.09221">
        <ele>1263.31</ele>
        <time>2015-06-30T12:03:38Z</time>
      </trkpt>
      <trkpt lat="46.5587" lon="6.09218">
        <ele>1263.31</ele>
        <time>2015-06-30T12:03:39Z</time>
      </trkpt>
      <trkpt lat="46.5587" lon="6.09215">
        <ele>1263.79</ele>
        <time>2015-06-30T12:03:40Z</time>
      </trkpt>
      <trkpt lat="46.5587" lon="6.09212">
        <ele>1263.79</ele>
        <time>2015-06-30T12:03:41Z</time>
      </trkpt>
      <trkpt lat="46.55869" lon="6.09209">
        <ele>1263.31</ele>
        <time>2015-06-30T12:03:42Z</time>
      </trkpt>
      <trkpt lat="46.55869" lon="6.09207">
        <ele>1263.79</ele>
        <time>2015-06-30T12:03:43Z</time>
      </trkpt>
      <trkpt lat="46.55868" lon="6.09205">
        <ele>1263.79</ele>
        <time>2015-06-30T12:03:44Z</time>
      </trkpt>
      <trkpt lat="46.55869" lon="6.09189">
        <ele>1264.75</ele>
        <time>2015-06-30T12:03:49Z</time>
      </trkpt>
      <trkpt lat="46.5587" lon="6.09186">
        <ele>1264.27</ele>
        <time>2015-06-30T12:03:50Z</time>
      </trkpt>
      <trkpt lat="46.5587" lon="6.09183">
        <ele>1264.75</ele>
        <time>2015-06-30T12:03:51Z</time>
      </trkpt>
      <trkpt lat="46.55869" lon="6.09179">
        <ele>1265.23</ele>
        <time>2015-06-30T12:03:52Z</time>
      </trkpt>
      <trkpt lat="46.55869" lon="6.09175">
        <ele>1265.23</ele>
        <time>2015-06-30T12:03:53Z</time>
      </trkpt>
      <trkpt lat="46.55868" lon="6.09173">
        <ele>1265.23</ele>
        <time>2015-06-30T12:03:54Z</time>
      </trkpt>
      <trkpt lat="46.55867" lon="6.0917">
        <ele>1265.71</ele>
        <time>2015-06-30T12:03:55Z</time>
      </trkpt>
      <trkpt lat="46.55867" lon="6.09167">
        <ele>1265.23</ele>
        <time>2015-06-30T12:03:56Z</time>
      </trkpt>
      <trkpt lat="46.55867" lon="6.09125">
        <ele>1265.71</ele>
        <time>2015-06-30T12:04:07Z</time>
      </trkpt>
      <trkpt lat="46.55872" lon="6.09088">
        <ele>1267.16</ele>
        <time>2015-06-30T12:04:17Z</time>
      </trkpt>
      <trkpt lat="46.55874" lon="6.09072">
        <ele>1267.64</ele>
        <time>2015-06-30T12:04:22Z</time>
      </trkpt>
      <trkpt lat="46.55867" lon="6.09053">
        <ele>1268.6</ele>
        <time>2015-06-30T12:04:28Z</time>
      </trkpt>
      <trkpt lat="46.55865" lon="6.09051">
        <ele>1268.6</ele>
        <time>2015-06-30T12:04:29Z</time>
      </trkpt>
      <trkpt lat="46.55837" lon="6.09039">
        <ele>1269.56</ele>
        <time>2015-06-30T12:04:42Z</time>
      </trkpt>
      <trkpt lat="46.55815" lon="6.09047">
        <ele>1271</ele>
        <time>2015-06-30T12:04:54Z</time>
      </trkpt>
      <trkpt lat="46.55809" lon="6.09051">
        <ele>1271.48</ele>
        <time>2015-06-30T12:04:58Z</time>
      </trkpt>
      <trkpt lat="46.55788" lon="6.09071">
        <ele>1272.92</ele>
        <time>2015-06-30T12:05:10Z</time>
      </trkpt>
      <trkpt lat="46.55765" lon="6.09075">
        <ele>1273.4</ele>
        <time>2015-06-30T12:05:20Z</time>
      </trkpt>
      <trkpt lat="46.55746" lon="6.09041">
        <ele>1272.92</ele>
        <time>2015-06-30T12:05:30Z</time>
      </trkpt>
      <trkpt lat="46.55745" lon="6.09035">
        <ele>1272.92</ele>
        <time>2015-06-30T12:05:31Z</time>
      </trkpt>
      <trkpt lat="46.55744" lon="6.09028">
        <ele>1272.44</ele>
        <time>2015-06-30T12:05:32Z</time>
      </trkpt>
      <trkpt lat="46.55744" lon="6.09021">
        <ele>1271.96</ele>
        <time>2015-06-30T12:05:33Z</time>
      </trkpt>
      <trkpt lat="46.55742" lon="6.09013">
        <ele>1271.96</ele>
        <time>2015-06-30T12:05:34Z</time>
      </trkpt>
      <trkpt lat="46.5574" lon="6.09006">
        <ele>1271.48</ele>
        <time>2015-06-30T12:05:35Z</time>
      </trkpt>
      <trkpt lat="46.55737" lon="6.08998">
        <ele>1271</ele>
        <time>2015-06-30T12:05:36Z</time>
      </trkpt>
      <trkpt lat="46.55732" lon="6.08992">
        <ele>1271</ele>
        <time>2015-06-30T12:05:37Z</time>
      </trkpt>
      <trkpt lat="46.55726" lon="6.08988">
        <ele>1270.52</ele>
        <time>2015-06-30T12:05:38Z</time>
      </trkpt>
      <trkpt lat="46.55719" lon="6.08989">
        <ele>1269.56</ele>
        <time>2015-06-30T12:05:39Z</time>
      </trkpt>
      <trkpt lat="46.55713" lon="6.08993">
        <ele>1269.56</ele>
        <time>2015-06-30T12:05:40Z</time>
      </trkpt>
      <trkpt lat="46.55706" lon="6.08998">
        <ele>1269.56</ele>
        <time>2015-06-30T12:05:41Z</time>
      </trkpt>
      <trkpt lat="46.55701" lon="6.09002">
        <ele>1269.08</ele>
        <time>2015-06-30T12:05:42Z</time>
      </trkpt>
      <trkpt lat="46.55696" lon="6.09006">
        <ele>1268.6</ele>
        <time>2015-06-30T12:05:43Z</time>
      </trkpt>
      <trkpt lat="46.5569" lon="6.09009">
        <ele>1268.12</ele>
        <time>2015-06-30T12:05:44Z</time>
      </trkpt>
      <trkpt lat="46.55683" lon="6.0901">
        <ele>1267.16</ele>
        <time>2015-06-30T12:05:45Z</time>
      </trkpt>
      <trkpt lat="46.55676" lon="6.0901">
        <ele>1266.19</ele>
        <time>2015-06-30T12:05:46Z</time>
      </trkpt>
      <trkpt lat="46.55669" lon="6.09007">
        <ele>1265.71</ele>
        <time>2015-06-30T12:05:47Z</time>
      </trkpt>
      <trkpt lat="46.55661" lon="6.09004">
        <ele>1265.23</ele>
        <time>2015-06-30T12:05:48Z</time>
      </trkpt>
      <trkpt lat="46.55653" lon="6.09002">
        <ele>1264.27</ele>
        <time>2015-06-30T12:05:49Z</time>
      </trkpt>
      <trkpt lat="46.55645" lon="6.09001">
        <ele>1262.83</ele>
        <time>2015-06-30T12:05:50Z</time>
      </trkpt>
      <trkpt lat="46.55632" lon="6.09002">
        <ele>1262.35</ele>
        <time>2015-06-30T12:05:52Z</time>
      </trkpt>
      <trkpt lat="46.55627" lon="6.09001">
        <ele>1261.87</ele>
        <time>2015-06-30T12:05:53Z</time>
      </trkpt>
      <trkpt lat="46.55622" lon="6.08998">
        <ele>1260.91</ele>
        <time>2015-06-30T12:05:54Z</time>
      </trkpt>
      <trkpt lat="46.55618" lon="6.08994">
        <ele>1260.43</ele>
        <time>2015-06-30T12:05:55Z</time>
      </trkpt>
      <trkpt lat="46.55614" lon="6.08988">
        <ele>1260.43</ele>
        <time>2015-06-30T12:05:56Z</time>
      </trkpt>
      <trkpt lat="46.55611" lon="6.0898">
        <ele>1259.46</ele>
        <time>2015-06-30T12:05:57Z</time>
      </trkpt>
      <trkpt lat="46.55607" lon="6.08972">
        <ele>1258.5</ele>
        <time>2015-06-30T12:05:58Z</time>
      </trkpt>
      <trkpt lat="46.55602" lon="6.08966">
        <ele>1258.02</ele>
        <time>2015-06-30T12:05:59Z</time>
      </trkpt>
      <trkpt lat="46.55597" lon="6.08963">
        <ele>1257.54</ele>
        <time>2015-06-30T12:06:00Z</time>
      </trkpt>
      <trkpt lat="46.55592" lon="6.08962">
        <ele>1256.58</ele>
        <time>2015-06-30T12:06:01Z</time>
      </trkpt>
      <trkpt lat="46.55586" lon="6.08967">
        <ele>1256.1</ele>
        <time>2015-06-30T12:06:02Z</time>
      </trkpt>
      <trkpt lat="46.55581" lon="6.08973">
        <ele>1256.1</ele>
        <time>2015-06-30T12:06:03Z</time>
      </trkpt>
      <trkpt lat="46.55575" lon="6.0898">
        <ele>1255.14</ele>
        <time>2015-06-30T12:06:04Z</time>
      </trkpt>
      <trkpt lat="46.55569" lon="6.08985">
        <ele>1254.18</ele>
        <time>2015-06-30T12:06:05Z</time>
      </trkpt>
      <trkpt lat="46.55562" lon="6.08988">
        <ele>1254.18</ele>
        <time>2015-06-30T12:06:06Z</time>
      </trkpt>
      <trkpt lat="46.55554" lon="6.08991">
        <ele>1253.7</ele>
        <time>2015-06-30T12:06:07Z</time>
      </trkpt>
      <trkpt lat="46.55547" lon="6.08991">
        <ele>1253.22</ele>
        <time>2015-06-30T12:06:08Z</time>
      </trkpt>
      <trkpt lat="46.55527" lon="6.08992">
        <ele>1252.74</ele>
        <time>2015-06-30T12:06:12Z</time>
      </trkpt>
      <trkpt lat="46.55507" lon="6.0899">
        <ele>1251.77</ele>
        <time>2015-06-30T12:06:16Z</time>
      </trkpt>
      <trkpt lat="46.55487" lon="6.08982">
        <ele>1250.81</ele>
        <time>2015-06-30T12:06:20Z</time>
      </trkpt>
      <trkpt lat="46.55471" lon="6.08978">
        <ele>1249.85</ele>
        <time>2015-06-30T12:06:23Z</time>
      </trkpt>
      <trkpt lat="46.55467" lon="6.08976">
        <ele>1249.85</ele>
        <time>2015-06-30T12:06:24Z</time>
      </trkpt>
      <trkpt lat="46.55455" lon="6.0897">
        <ele>1248.41</ele>
        <time>2015-06-30T12:06:32Z</time>
      </trkpt>
      <trkpt lat="46.55454" lon="6.08964">
        <ele>1248.41</ele>
        <time>2015-06-30T12:06:35Z</time>
      </trkpt>
      <trkpt lat="46.55449" lon="6.08926">
        <ele>1247.45</ele>
        <time>2015-06-30T12:06:43Z</time>
      </trkpt>
      <trkpt lat="46.55446" lon="6.08922">
        <ele>1247.45</ele>
        <time>2015-06-30T12:06:44Z</time>
      </trkpt>
      <trkpt lat="46.55442" lon="6.08918">
        <ele>1246.97</ele>
        <time>2015-06-30T12:06:45Z</time>
      </trkpt>
      <trkpt lat="46.55434" lon="6.08909">
        <ele>1246.01</ele>
        <time>2015-06-30T12:06:47Z</time>
      </trkpt>
      <trkpt lat="46.55431" lon="6.08902">
        <ele>1246.01</ele>
        <time>2015-06-30T12:06:48Z</time>
      </trkpt>
      <trkpt lat="46.5543" lon="6.08894">
        <ele>1245.04</ele>
        <time>2015-06-30T12:06:49Z</time>
      </trkpt>
      <trkpt lat="46.55431" lon="6.08885">
        <ele>1245.04</ele>
        <time>2015-06-30T12:06:50Z</time>
      </trkpt>
      <trkpt lat="46.55434" lon="6.08876">
        <ele>1244.56</ele>
        <time>2015-06-30T12:06:51Z</time>
      </trkpt>
      <trkpt lat="46.55438" lon="6.0887">
        <ele>1243.6</ele>
        <time>2015-06-30T12:06:52Z</time>
      </trkpt>
      <trkpt lat="46.55443" lon="6.08865">
        <ele>1244.08</ele>
        <time>2015-06-30T12:06:53Z</time>
      </trkpt>
      <trkpt lat="46.55449" lon="6.08861">
        <ele>1243.6</ele>
        <time>2015-06-30T12:06:54Z</time>
      </trkpt>
      <trkpt lat="46.55454" lon="6.08857">
        <ele>1243.12</ele>
        <time>2015-06-30T12:06:55Z</time>
      </trkpt>
      <trkpt lat="46.55459" lon="6.08854">
        <ele>1243.6</ele>
        <time>2015-06-30T12:06:56Z</time>
      </trkpt>
      <trkpt lat="46.55463" lon="6.08848">
        <ele>1242.64</ele>
        <time>2015-06-30T12:06:57Z</time>
      </trkpt>
      <trkpt lat="46.55465" lon="6.08842">
        <ele>1242.64</ele>
        <time>2015-06-30T12:06:58Z</time>
      </trkpt>
      <trkpt lat="46.55467" lon="6.08836">
        <ele>1242.16</ele>
        <time>2015-06-30T12:06:59Z</time>
      </trkpt>
      <trkpt lat="46.55468" lon="6.08829">
        <ele>1241.68</ele>
        <time>2015-06-30T12:07:00Z</time>
      </trkpt>
      <trkpt lat="46.55475" lon="6.08757">
        <ele>1240.24</ele>
        <time>2015-06-30T12:07:08Z</time>
      </trkpt>
      <trkpt lat="46.55474" lon="6.08747">
        <ele>1240.24</ele>
        <time>2015-06-30T12:07:09Z</time>
      </trkpt>
      <trkpt lat="46.55472" lon="6.08737">
        <ele>1239.28</ele>
        <time>2015-06-30T12:07:10Z</time>
      </trkpt>
      <trkpt lat="46.55469" lon="6.08728">
        <ele>1238.8</ele>
        <time>2015-06-30T12:07:11Z</time>
      </trkpt>
      <trkpt lat="46.55465" lon="6.0872">
        <ele>1238.8</ele>
        <time>2015-06-30T12:07:12Z</time>
      </trkpt>
      <trkpt lat="46.55461" lon="6.08712">
        <ele>1238.32</ele>
        <time>2015-06-30T12:07:13Z</time>
      </trkpt>
      <trkpt lat="46.55456" lon="6.08705">
        <ele>1238.32</ele>
        <time>2015-06-30T12:07:14Z</time>
      </trkpt>
      <trkpt lat="46.55451" lon="6.08698">
        <ele>1238.32</ele>
        <time>2015-06-30T12:07:15Z</time>
      </trkpt>
      <trkpt lat="46.55447" lon="6.08691">
        <ele>1238.32</ele>
        <time>2015-06-30T12:07:16Z</time>
      </trkpt>
      <trkpt lat="46.55444" lon="6.08682">
        <ele>1237.83</ele>
        <time>2015-06-30T12:07:17Z</time>
      </trkpt>
      <trkpt lat="46.55442" lon="6.08674">
        <ele>1237.35</ele>
        <time>2015-06-30T12:07:18Z</time>
      </trkpt>
      <trkpt lat="46.55442" lon="6.08664">
        <ele>1236.87</ele>
        <time>2015-06-30T12:07:19Z</time>
      </trkpt>
      <trkpt lat="46.55441" lon="6.08655">
        <ele>1236.87</ele>
        <time>2015-06-30T12:07:20Z</time>
      </trkpt>
      <trkpt lat="46.5544" lon="6.08645">
        <ele>1236.39</ele>
        <time>2015-06-30T12:07:21Z</time>
      </trkpt>
      <trkpt lat="46.55439" lon="6.08636">
        <ele>1236.39</ele>
        <time>2015-06-30T12:07:22Z</time>
      </trkpt>
      <trkpt lat="46.55435" lon="6.08628">
        <ele>1235.91</ele>
        <time>2015-06-30T12:07:23Z</time>
      </trkpt>
      <trkpt lat="46.55432" lon="6.08621">
        <ele>1235.43</ele>
        <time>2015-06-30T12:07:24Z</time>
      </trkpt>
      <trkpt lat="46.55417" lon="6.08587">
        <ele>1234.47</ele>
        <time>2015-06-30T12:07:33Z</time>
      </trkpt>
      <trkpt lat="46.55407" lon="6.08571">
        <ele>1234.95</ele>
        <time>2015-06-30T12:07:44Z</time>
      </trkpt>
      <trkpt lat="46.55407" lon="6.08566">
        <ele>1234.47</ele>
        <time>2015-06-30T12:08:03Z</time>
      </trkpt>
      <trkpt lat="46.55405" lon="6.08566">
        <ele>1237.35</ele>
        <time>2015-06-30T12:08:29Z</time>
      </trkpt>
      <trkpt lat="46.55405" lon="6.08566">
        <ele>1237.35</ele>
        <time>2015-06-30T12:08:30Z</time>
      </trkpt>
      <trkpt lat="46.55405" lon="6.08566">
        <ele>1232.55</ele>
        <time>2015-06-30T12:08:32Z</time>
      </trkpt>
      <trkpt lat="46.55405" lon="6.08566">
        <ele>1234.47</ele>
        <time>2015-06-30T12:08:33Z</time>
      </trkpt>
      <trkpt lat="46.55405" lon="6.08568">
        <ele>1234.47</ele>
        <time>2015-06-30T12:08:57Z</time>
      </trkpt>
      <trkpt lat="46.55406" lon="6.08567">
        <ele>1234.47</ele>
        <time>2015-06-30T12:09:20Z</time>
      </trkpt>
      <trkpt lat="46.55407" lon="6.08567">
        <ele>1234.47</ele>
        <time>2015-06-30T12:09:33Z</time>
      </trkpt>
      <trkpt lat="46.55409" lon="6.08568">
        <ele>1234.47</ele>
        <time>2015-06-30T12:09:55Z</time>
      </trkpt>
      <trkpt lat="46.5541" lon="6.08567">
        <ele>1234.95</ele>
        <time>2015-06-30T12:10:16Z</time>
      </trkpt>
      <trkpt lat="46.55411" lon="6.08564">
        <ele>1234.95</ele>
        <time>2015-06-30T12:10:28Z</time>
      </trkpt>
      <trkpt lat="46.55415" lon="6.08563">
        <ele>1234.95</ele>
        <time>2015-06-30T12:10:37Z</time>
      </trkpt>
      <trkpt lat="46.55416" lon="6.08563">
        <ele>1234.47</ele>
        <time>2015-06-30T12:10:38Z</time>
      </trkpt>
      <trkpt lat="46.55417" lon="6.08563">
        <ele>1234.95</ele>
        <time>2015-06-30T12:10:39Z</time>
      </trkpt>
      <trkpt lat="46.5544" lon="6.08553">
        <ele>1233.99</ele>
        <time>2015-06-30T12:10:51Z</time>
      </trkpt>
      <trkpt lat="46.55478" lon="6.0853">
        <ele>1234.47</ele>
        <time>2015-06-30T12:11:06Z</time>
      </trkpt>
      <trkpt lat="46.55523" lon="6.08511">
        <ele>1233.99</ele>
        <time>2015-06-30T12:11:19Z</time>
      </trkpt>
      <trkpt lat="46.55528" lon="6.08504">
        <ele>1234.47</ele>
        <time>2015-06-30T12:11:21Z</time>
      </trkpt>
      <trkpt lat="46.5553" lon="6.085">
        <ele>1234.47</ele>
        <time>2015-06-30T12:11:22Z</time>
      </trkpt>
      <trkpt lat="46.55539" lon="6.08483">
        <ele>1233.51</ele>
        <time>2015-06-30T12:11:34Z</time>
      </trkpt>
      <trkpt lat="46.55545" lon="6.08468">
        <ele>1232.55</ele>
        <time>2015-06-30T12:11:45Z</time>
      </trkpt>
      <trkpt lat="46.55545" lon="6.08466">
        <ele>1232.07</ele>
        <time>2015-06-30T12:11:46Z</time>
      </trkpt>
      <trkpt lat="46.55546" lon="6.08464">
        <ele>1232.55</ele>
        <time>2015-06-30T12:11:47Z</time>
      </trkpt>
      <trkpt lat="46.55559" lon="6.08434">
        <ele>1230.62</ele>
        <time>2015-06-30T12:12:02Z</time>
      </trkpt>
      <trkpt lat="46.55563" lon="6.08424">
        <ele>1230.62</ele>
        <time>2015-06-30T12:12:13Z</time>
      </trkpt>
      <trkpt lat="46.55565" lon="6.08422">
        <ele>1230.62</ele>
        <time>2015-06-30T12:12:15Z</time>
      </trkpt>
      <trkpt lat="46.55566" lon="6.08421">
        <ele>1230.14</ele>
        <time>2015-06-30T12:12:16Z</time>
      </trkpt>
      <trkpt lat="46.55567" lon="6.08419">
        <ele>1230.14</ele>
        <time>2015-06-30T12:12:17Z</time>
      </trkpt>
      <trkpt lat="46.55567" lon="6.08418">
        <ele>1230.14</ele>
        <time>2015-06-30T12:12:18Z</time>
      </trkpt>
      <trkpt lat="46.55569" lon="6.08412">
        <ele>1229.18</ele>
        <time>2015-06-30T12:12:28Z</time>
      </trkpt>
      <trkpt lat="46.5557" lon="6.08412">
        <ele>1228.7</ele>
        <time>2015-06-30T12:12:43Z</time>
      </trkpt>
      <trkpt lat="46.55566" lon="6.08415">
        <ele>1229.18</ele>
        <time>2015-06-30T12:12:51Z</time>
      </trkpt>
      <trkpt lat="46.55564" lon="6.08416">
        <ele>1229.66</ele>
        <time>2015-06-30T12:12:54Z</time>
      </trkpt>
      <trkpt lat="46.55564" lon="6.0842">
        <ele>1229.66</ele>
        <time>2015-06-30T12:12:56Z</time>
      </trkpt>
      <trkpt lat="46.55557" lon="6.08423">
        <ele>1230.14</ele>
        <time>2015-06-30T12:13:02Z</time>
      </trkpt>
      <trkpt lat="46.55551" lon="6.08432">
        <ele>1230.62</ele>
        <time>2015-06-30T12:13:18Z</time>
      </trkpt>
      <trkpt lat="46.55551" lon="6.08432">
        <ele>1230.62</ele>
        <time>2015-06-30T12:13:19Z</time>
      </trkpt>
      <trkpt lat="46.55556" lon="6.08431">
        <ele>1229.18</ele>
        <time>2015-06-30T12:13:32Z</time>
      </trkpt>
      <trkpt lat="46.55557" lon="6.08429">
        <ele>1229.66</ele>
        <time>2015-06-30T12:13:56Z</time>
      </trkpt>
      <trkpt lat="46.55561" lon="6.0843">
        <ele>1228.7</ele>
        <time>2015-06-30T12:14:22Z</time>
      </trkpt>
      <trkpt lat="46.55563" lon="6.08431">
        <ele>1228.7</ele>
        <time>2015-06-30T12:14:48Z</time>
      </trkpt>
      <trkpt lat="46.55563" lon="6.08432">
        <ele>1228.22</ele>
        <time>2015-06-30T12:15:12Z</time>
      </trkpt>
      <trkpt lat="46.55563" lon="6.08431">
        <ele>1228.22</ele>
        <time>2015-06-30T12:15:41Z</time>
      </trkpt>
      <trkpt lat="46.55567" lon="6.08432">
        <ele>1228.22</ele>
        <time>2015-06-30T12:16:13Z</time>
      </trkpt>
      <trkpt lat="46.55567" lon="6.08429">
        <ele>1228.22</ele>
        <time>2015-06-30T12:16:42Z</time>
      </trkpt>
      <trkpt lat="46.55568" lon="6.08428">
        <ele>1228.22</ele>
        <time>2015-06-30T12:17:12Z</time>
      </trkpt>
      <trkpt lat="46.55567" lon="6.08429">
        <ele>1228.7</ele>
        <time>2015-06-30T12:17:44Z</time>
      </trkpt>
      <trkpt lat="46.55567" lon="6.08429">
        <ele>1228.7</ele>
        <time>2015-06-30T12:18:12Z</time>
      </trkpt>
      <trkpt lat="46.55569" lon="6.08426">
        <ele>1228.22</ele>
        <time>2015-06-30T12:18:41Z</time>
      </trkpt>
      <trkpt lat="46.55568" lon="6.08427">
        <ele>1228.7</ele>
        <time>2015-06-30T12:19:12Z</time>
      </trkpt>
      <trkpt lat="46.55569" lon="6.08427">
        <ele>1228.22</ele>
        <time>2015-06-30T12:19:43Z</time>
      </trkpt>
      <trkpt lat="46.55569" lon="6.0843">
        <ele>1228.7</ele>
        <time>2015-06-30T12:20:19Z</time>
      </trkpt>
      <trkpt lat="46.55569" lon="6.08429">
        <ele>1228.22</ele>
        <time>2015-06-30T12:20:54Z</time>
      </trkpt>
      <trkpt lat="46.55569" lon="6.08428">
        <ele>1228.7</ele>
        <time>2015-06-30T12:21:25Z</time>
      </trkpt>
      <trkpt lat="46.55569" lon="6.08428">
        <ele>1228.7</ele>
        <time>2015-06-30T12:21:57Z</time>
      </trkpt>
      <trkpt lat="46.55568" lon="6.08431">
        <ele>1228.7</ele>
        <time>2015-06-30T12:22:26Z</time>
      </trkpt>
      <trkpt lat="46.55567" lon="6.08431">
        <ele>1228.7</ele>
        <time>2015-06-30T12:22:57Z</time>
      </trkpt>
      <trkpt lat="46.55566" lon="6.08431">
        <ele>1228.7</ele>
        <time>2015-06-30T12:23:26Z</time>
      </trkpt>
      <trkpt lat="46.55566" lon="6.08431">
        <ele>1228.7</ele>
        <time>2015-06-30T12:23:51Z</time>
      </trkpt>
      <trkpt lat="46.55567" lon="6.08433">
        <ele>1228.22</ele>
        <time>2015-06-30T12:24:20Z</time>
      </trkpt>
      <trkpt lat="46.55567" lon="6.08431">
        <ele>1228.22</ele>
        <time>2015-06-30T12:24:49Z</time>
      </trkpt>
      <trkpt lat="46.55567" lon="6.08428">
        <ele>1227.74</ele>
        <time>2015-06-30T12:25:21Z</time>
      </trkpt>
      <trkpt lat="46.55567" lon="6.0843">
        <ele>1228.22</ele>
        <time>2015-06-30T12:25:52Z</time>
      </trkpt>
      <trkpt lat="46.55566" lon="6.08429">
        <ele>1229.18</ele>
        <time>2015-06-30T12:26:13Z</time>
      </trkpt>
      <trkpt lat="46.55566" lon="6.08429">
        <ele>1228.22</ele>
        <time>2015-06-30T12:26:16Z</time>
      </trkpt>
      <trkpt lat="46.55574" lon="6.08415">
        <ele>1227.26</ele>
        <time>2015-06-30T12:26:22Z</time>
      </trkpt>
      <trkpt lat="46.55577" lon="6.08411">
        <ele>1227.26</ele>
        <time>2015-06-30T12:26:23Z</time>
      </trkpt>
      <trkpt lat="46.55581" lon="6.08408">
        <ele>1226.78</ele>
        <time>2015-06-30T12:26:24Z</time>
      </trkpt>
      <trkpt lat="46.55587" lon="6.08406">
        <ele>1226.3</ele>
        <time>2015-06-30T12:26:25Z</time>
      </trkpt>
      <trkpt lat="46.55593" lon="6.08404">
        <ele>1224.86</ele>
        <time>2015-06-30T12:26:26Z</time>
      </trkpt>
      <trkpt lat="46.556" lon="6.08405">
        <ele>1224.38</ele>
        <time>2015-06-30T12:26:27Z</time>
      </trkpt>
      <trkpt lat="46.55607" lon="6.08408">
        <ele>1223.9</ele>
        <time>2015-06-30T12:26:28Z</time>
      </trkpt>
      <trkpt lat="46.55615" lon="6.08412">
        <ele>1222.93</ele>
        <time>2015-06-30T12:26:29Z</time>
      </trkpt>
      <trkpt lat="46.55623" lon="6.08416">
        <ele>1222.45</ele>
        <time>2015-06-30T12:26:30Z</time>
      </trkpt>
      <trkpt lat="46.55632" lon="6.08418">
        <ele>1221.49</ele>
        <time>2015-06-30T12:26:31Z</time>
      </trkpt>
      <trkpt lat="46.55641" lon="6.0842">
        <ele>1220.53</ele>
        <time>2015-06-30T12:26:32Z</time>
      </trkpt>
      <trkpt lat="46.55651" lon="6.08421">
        <ele>1219.57</ele>
        <time>2015-06-30T12:26:33Z</time>
      </trkpt>
      <trkpt lat="46.55662" lon="6.08424">
        <ele>1218.61</ele>
        <time>2015-06-30T12:26:34Z</time>
      </trkpt>
      <trkpt lat="46.55673" lon="6.08427">
        <ele>1218.13</ele>
        <time>2015-06-30T12:26:35Z</time>
      </trkpt>
      <trkpt lat="46.55705" lon="6.08442">
        <ele>1214.76</ele>
        <time>2015-06-30T12:26:38Z</time>
      </trkpt>
      <trkpt lat="46.55714" lon="6.08448">
        <ele>1213.8</ele>
        <time>2015-06-30T12:26:39Z</time>
      </trkpt>
      <trkpt lat="46.55743" lon="6.0847">
        <ele>1211.4</ele>
        <time>2015-06-30T12:26:43Z</time>
      </trkpt>
      <trkpt lat="46.5575" lon="6.08472">
        <ele>1209.96</ele>
        <time>2015-06-30T12:26:44Z</time>
      </trkpt>
      <trkpt lat="46.55757" lon="6.08474">
        <ele>1209</ele>
        <time>2015-06-30T12:26:45Z</time>
      </trkpt>
      <trkpt lat="46.55764" lon="6.08475">
        <ele>1209</ele>
        <time>2015-06-30T12:26:46Z</time>
      </trkpt>
      <trkpt lat="46.55771" lon="6.08475">
        <ele>1208.51</ele>
        <time>2015-06-30T12:26:47Z</time>
      </trkpt>
      <trkpt lat="46.55784" lon="6.08475">
        <ele>1206.59</ele>
        <time>2015-06-30T12:26:49Z</time>
      </trkpt>
      <trkpt lat="46.55789" lon="6.08473">
        <ele>1206.59</ele>
        <time>2015-06-30T12:26:50Z</time>
      </trkpt>
      <trkpt lat="46.55793" lon="6.0847">
        <ele>1206.11</ele>
        <time>2015-06-30T12:26:51Z</time>
      </trkpt>
      <trkpt lat="46.55795" lon="6.08464">
        <ele>1205.15</ele>
        <time>2015-06-30T12:26:52Z</time>
      </trkpt>
      <trkpt lat="46.55795" lon="6.08458">
        <ele>1204.67</ele>
        <time>2015-06-30T12:26:53Z</time>
      </trkpt>
      <trkpt lat="46.55795" lon="6.08451">
        <ele>1204.19</ele>
        <time>2015-06-30T12:26:54Z</time>
      </trkpt>
      <trkpt lat="46.55795" lon="6.08445">
        <ele>1203.71</ele>
        <time>2015-06-30T12:26:55Z</time>
      </trkpt>
      <trkpt lat="46.55792" lon="6.0844">
        <ele>1204.19</ele>
        <time>2015-06-30T12:26:56Z</time>
      </trkpt>
      <trkpt lat="46.55788" lon="6.08434">
        <ele>1203.71</ele>
        <time>2015-06-30T12:26:57Z</time>
      </trkpt>
      <trkpt lat="46.55783" lon="6.0843">
        <ele>1203.23</ele>
        <time>2015-06-30T12:26:58Z</time>
      </trkpt>
      <trkpt lat="46.55777" lon="6.08426">
        <ele>1202.75</ele>
        <time>2015-06-30T12:26:59Z</time>
      </trkpt>
      <trkpt lat="46.55771" lon="6.08423">
        <ele>1203.23</ele>
        <time>2015-06-30T12:27:00Z</time>
      </trkpt>
      <trkpt lat="46.55761" lon="6.08418">
        <ele>1202.27</ele>
        <time>2015-06-30T12:27:02Z</time>
      </trkpt>
      <trkpt lat="46.55756" lon="6.08416">
        <ele>1202.27</ele>
        <time>2015-06-30T12:27:03Z</time>
      </trkpt>
      <trkpt lat="46.55724" lon="6.08405">
        <ele>1199.86</ele>
        <time>2015-06-30T12:27:09Z</time>
      </trkpt>
      <trkpt lat="46.5572" lon="6.08401">
        <ele>1199.38</ele>
        <time>2015-06-30T12:27:10Z</time>
      </trkpt>
      <trkpt lat="46.55718" lon="6.08396">
        <ele>1199.38</ele>
        <time>2015-06-30T12:27:11Z</time>
      </trkpt>
      <trkpt lat="46.55716" lon="6.0839">
        <ele>1198.9</ele>
        <time>2015-06-30T12:27:12Z</time>
      </trkpt>
      <trkpt lat="46.55714" lon="6.08384">
        <ele>1197.46</ele>
        <time>2015-06-30T12:27:13Z</time>
      </trkpt>
      <trkpt lat="46.55716" lon="6.08378">
        <ele>1197.94</ele>
        <time>2015-06-30T12:27:14Z</time>
      </trkpt>
      <trkpt lat="46.55718" lon="6.08373">
        <ele>1197.46</ele>
        <time>2015-06-30T12:27:15Z</time>
      </trkpt>
      <trkpt lat="46.55722" lon="6.08369">
        <ele>1196.98</ele>
        <time>2015-06-30T12:27:16Z</time>
      </trkpt>
      <trkpt lat="46.55727" lon="6.08368">
        <ele>1196.5</ele>
        <time>2015-06-30T12:27:17Z</time>
      </trkpt>
      <trkpt lat="46.55732" lon="6.08369">
        <ele>1196.02</ele>
        <time>2015-06-30T12:27:18Z</time>
      </trkpt>
      <trkpt lat="46.55737" lon="6.08371">
        <ele>1195.06</ele>
        <time>2015-06-30T12:27:19Z</time>
      </trkpt>
      <trkpt lat="46.55743" lon="6.08376">
        <ele>1194.58</ele>
        <time>2015-06-30T12:27:20Z</time>
      </trkpt>
      <trkpt lat="46.55748" lon="6.08381">
        <ele>1193.61</ele>
        <time>2015-06-30T12:27:21Z</time>
      </trkpt>
      <trkpt lat="46.55754" lon="6.08385">
        <ele>1193.13</ele>
        <time>2015-06-30T12:27:22Z</time>
      </trkpt>
      <trkpt lat="46.55761" lon="6.08388">
        <ele>1192.65</ele>
        <time>2015-06-30T12:27:23Z</time>
      </trkpt>
      <trkpt lat="46.55777" lon="6.0839">
        <ele>1191.69</ele>
        <time>2015-06-30T12:27:25Z</time>
      </trkpt>
      <trkpt lat="46.55793" lon="6.08389">
        <ele>1190.73</ele>
        <time>2015-06-30T12:27:27Z</time>
      </trkpt>
      <trkpt lat="46.55827" lon="6.08392">
        <ele>1186.88</ele>
        <time>2015-06-30T12:27:31Z</time>
      </trkpt>
      <trkpt lat="46.55857" lon="6.08401">
        <ele>1184</ele>
        <time>2015-06-30T12:27:35Z</time>
      </trkpt>
      <trkpt lat="46.55863" lon="6.08407">
        <ele>1183.52</ele>
        <time>2015-06-30T12:27:36Z</time>
      </trkpt>
      <trkpt lat="46.5587" lon="6.08415">
        <ele>1183.04</ele>
        <time>2015-06-30T12:27:37Z</time>
      </trkpt>
      <trkpt lat="46.55881" lon="6.08433">
        <ele>1181.6</ele>
        <time>2015-06-30T12:27:39Z</time>
      </trkpt>
      <trkpt lat="46.55889" lon="6.0844">
        <ele>1180.64</ele>
        <time>2015-06-30T12:27:40Z</time>
      </trkpt>
      <trkpt lat="46.55913" lon="6.08458">
        <ele>1178.23</ele>
        <time>2015-06-30T12:27:43Z</time>
      </trkpt>
      <trkpt lat="46.5592" lon="6.08466">
        <ele>1177.27</ele>
        <time>2015-06-30T12:27:44Z</time>
      </trkpt>
      <trkpt lat="46.55927" lon="6.08474">
        <ele>1176.79</ele>
        <time>2015-06-30T12:27:45Z</time>
      </trkpt>
      <trkpt lat="46.55939" lon="6.08486">
        <ele>1174.87</ele>
        <time>2015-06-30T12:27:47Z</time>
      </trkpt>
      <trkpt lat="46.55944" lon="6.0849">
        <ele>1174.39</ele>
        <time>2015-06-30T12:27:48Z</time>
      </trkpt>
      <trkpt lat="46.55949" lon="6.08493">
        <ele>1173.91</ele>
        <time>2015-06-30T12:27:49Z</time>
      </trkpt>
      <trkpt lat="46.55954" lon="6.08494">
        <ele>1173.43</ele>
        <time>2015-06-30T12:27:50Z</time>
      </trkpt>
      <trkpt lat="46.5596" lon="6.08494">
        <ele>1173.43</ele>
        <time>2015-06-30T12:27:51Z</time>
      </trkpt>
      <trkpt lat="46.55966" lon="6.08493">
        <ele>1172.95</ele>
        <time>2015-06-30T12:27:52Z</time>
      </trkpt>
      <trkpt lat="46.55972" lon="6.08492">
        <ele>1171.98</ele>
        <time>2015-06-30T12:27:53Z</time>
      </trkpt>
      <trkpt lat="46.55977" lon="6.08491">
        <ele>1171.98</ele>
        <time>2015-06-30T12:27:54Z</time>
      </trkpt>
      <trkpt lat="46.55983" lon="6.08491">
        <ele>1171.5</ele>
        <time>2015-06-30T12:27:55Z</time>
      </trkpt>
      <trkpt lat="46.5599" lon="6.08491">
        <ele>1170.54</ele>
        <time>2015-06-30T12:27:56Z</time>
      </trkpt>
      <trkpt lat="46.55996" lon="6.08494">
        <ele>1170.06</ele>
        <time>2015-06-30T12:27:57Z</time>
      </trkpt>
      <trkpt lat="46.56002" lon="6.08499">
        <ele>1169.58</ele>
        <time>2015-06-30T12:27:58Z</time>
      </trkpt>
      <trkpt lat="46.56007" lon="6.08506">
        <ele>1168.62</ele>
        <time>2015-06-30T12:27:59Z</time>
      </trkpt>
      <trkpt lat="46.56013" lon="6.08514">
        <ele>1168.62</ele>
        <time>2015-06-30T12:28:00Z</time>
      </trkpt>
      <trkpt lat="46.56018" lon="6.08521">
        <ele>1168.14</ele>
        <time>2015-06-30T12:28:01Z</time>
      </trkpt>
      <trkpt lat="46.56024" lon="6.08528">
        <ele>1167.18</ele>
        <time>2015-06-30T12:28:02Z</time>
      </trkpt>
      <trkpt lat="46.56031" lon="6.08533">
        <ele>1166.7</ele>
        <time>2015-06-30T12:28:03Z</time>
      </trkpt>
      <trkpt lat="46.56037" lon="6.08538">
        <ele>1166.7</ele>
        <time>2015-06-30T12:28:04Z</time>
      </trkpt>
      <trkpt lat="46.56044" lon="6.08542">
        <ele>1166.22</ele>
        <time>2015-06-30T12:28:05Z</time>
      </trkpt>
      <trkpt lat="46.5605" lon="6.08545">
        <ele>1165.26</ele>
        <time>2015-06-30T12:28:06Z</time>
      </trkpt>
      <trkpt lat="46.56056" lon="6.08547">
        <ele>1165.26</ele>
        <time>2015-06-30T12:28:07Z</time>
      </trkpt>
      <trkpt lat="46.56068" lon="6.08547">
        <ele>1165.26</ele>
        <time>2015-06-30T12:28:09Z</time>
      </trkpt>
      <trkpt lat="46.56074" lon="6.08545">
        <ele>1164.77</ele>
        <time>2015-06-30T12:28:10Z</time>
      </trkpt>
      <trkpt lat="46.56081" lon="6.08543">
        <ele>1164.29</ele>
        <time>2015-06-30T12:28:11Z</time>
      </trkpt>
      <trkpt lat="46.56093" lon="6.08535">
        <ele>1163.33</ele>
        <time>2015-06-30T12:28:13Z</time>
      </trkpt>
      <trkpt lat="46.56103" lon="6.08526">
        <ele>1162.85</ele>
        <time>2015-06-30T12:28:15Z</time>
      </trkpt>
      <trkpt lat="46.56107" lon="6.0852">
        <ele>1162.85</ele>
        <time>2015-06-30T12:28:16Z</time>
      </trkpt>
      <trkpt lat="46.5611" lon="6.08513">
        <ele>1161.41</ele>
        <time>2015-06-30T12:28:17Z</time>
      </trkpt>
      <trkpt lat="46.56118" lon="6.08485">
        <ele>1160.45</ele>
        <time>2015-06-30T12:28:20Z</time>
      </trkpt>
      <trkpt lat="46.56122" lon="6.08476">
        <ele>1159.01</ele>
        <time>2015-06-30T12:28:21Z</time>
      </trkpt>
      <trkpt lat="46.56127" lon="6.08468">
        <ele>1158.53</ele>
        <time>2015-06-30T12:28:22Z</time>
      </trkpt>
      <trkpt lat="46.56132" lon="6.0846">
        <ele>1158.05</ele>
        <time>2015-06-30T12:28:23Z</time>
      </trkpt>
      <trkpt lat="46.56136" lon="6.08452">
        <ele>1156.6</ele>
        <time>2015-06-30T12:28:24Z</time>
      </trkpt>
      <trkpt lat="46.5614" lon="6.08443">
        <ele>1156.12</ele>
        <time>2015-06-30T12:28:25Z</time>
      </trkpt>
      <trkpt lat="46.56152" lon="6.08409">
        <ele>1154.2</ele>
        <time>2015-06-30T12:28:29Z</time>
      </trkpt>
      <trkpt lat="46.56153" lon="6.084">
        <ele>1153.24</ele>
        <time>2015-06-30T12:28:30Z</time>
      </trkpt>
      <trkpt lat="46.56153" lon="6.0839">
        <ele>1152.76</ele>
        <time>2015-06-30T12:28:31Z</time>
      </trkpt>
      <trkpt lat="46.56152" lon="6.08381">
        <ele>1152.28</ele>
        <time>2015-06-30T12:28:32Z</time>
      </trkpt>
      <trkpt lat="46.5615" lon="6.08372">
        <ele>1151.32</ele>
        <time>2015-06-30T12:28:33Z</time>
      </trkpt>
      <trkpt lat="46.56148" lon="6.08362">
        <ele>1151.32</ele>
        <time>2015-06-30T12:28:34Z</time>
      </trkpt>
      <trkpt lat="46.56147" lon="6.08352">
        <ele>1150.35</ele>
        <time>2015-06-30T12:28:35Z</time>
      </trkpt>
      <trkpt lat="46.56145" lon="6.08342">
        <ele>1149.39</ele>
        <time>2015-06-30T12:28:36Z</time>
      </trkpt>
      <trkpt lat="46.56143" lon="6.08324">
        <ele>1147.95</ele>
        <time>2015-06-30T12:28:38Z</time>
      </trkpt>
      <trkpt lat="46.56141" lon="6.08295">
        <ele>1145.55</ele>
        <time>2015-06-30T12:28:41Z</time>
      </trkpt>
      <trkpt lat="46.56146" lon="6.08232">
        <ele>1142.18</ele>
        <time>2015-06-30T12:28:46Z</time>
      </trkpt>
      <trkpt lat="46.56147" lon="6.08218">
        <ele>1141.22</ele>
        <time>2015-06-30T12:28:47Z</time>
      </trkpt>
      <trkpt lat="46.56146" lon="6.08188">
        <ele>1138.82</ele>
        <time>2015-06-30T12:28:49Z</time>
      </trkpt>
      <trkpt lat="46.5614" lon="6.0812">
        <ele>1134.97</ele>
        <time>2015-06-30T12:28:53Z</time>
      </trkpt>
      <trkpt lat="46.56135" lon="6.08056">
        <ele>1132.09</ele>
        <time>2015-06-30T12:28:57Z</time>
      </trkpt>
      <trkpt lat="46.56135" lon="6.07999">
        <ele>1128.73</ele>
        <time>2015-06-30T12:29:01Z</time>
      </trkpt>
      <trkpt lat="46.56137" lon="6.07974">
        <ele>1126.8</ele>
        <time>2015-06-30T12:29:03Z</time>
      </trkpt>
      <trkpt lat="46.56139" lon="6.07962">
        <ele>1126.32</ele>
        <time>2015-06-30T12:29:04Z</time>
      </trkpt>
      <trkpt lat="46.56142" lon="6.07951">
        <ele>1124.88</ele>
        <time>2015-06-30T12:29:05Z</time>
      </trkpt>
      <trkpt lat="46.56146" lon="6.0794">
        <ele>1124.88</ele>
        <time>2015-06-30T12:29:06Z</time>
      </trkpt>
      <trkpt lat="46.56152" lon="6.07931">
        <ele>1124.88</ele>
        <time>2015-06-30T12:29:07Z</time>
      </trkpt>
      <trkpt lat="46.56157" lon="6.07922">
        <ele>1123.44</ele>
        <time>2015-06-30T12:29:08Z</time>
      </trkpt>
      <trkpt lat="46.56171" lon="6.07905">
        <ele>1122</ele>
        <time>2015-06-30T12:29:10Z</time>
      </trkpt>
      <trkpt lat="46.5619" lon="6.07878">
        <ele>1120.55</ele>
        <time>2015-06-30T12:29:13Z</time>
      </trkpt>
      <trkpt lat="46.56195" lon="6.07868">
        <ele>1119.11</ele>
        <time>2015-06-30T12:29:14Z</time>
      </trkpt>
      <trkpt lat="46.56212" lon="6.07824">
        <ele>1115.75</ele>
        <time>2015-06-30T12:29:18Z</time>
      </trkpt>
      <trkpt lat="46.56226" lon="6.07769">
        <ele>1111.9</ele>
        <time>2015-06-30T12:29:22Z</time>
      </trkpt>
      <trkpt lat="46.56241" lon="6.07693">
        <ele>1108.54</ele>
        <time>2015-06-30T12:29:27Z</time>
      </trkpt>
      <trkpt lat="46.56253" lon="6.07641">
        <ele>1104.21</ele>
        <time>2015-06-30T12:29:31Z</time>
      </trkpt>
      <trkpt lat="46.5626" lon="6.07619">
        <ele>1103.25</ele>
        <time>2015-06-30T12:29:33Z</time>
      </trkpt>
      <trkpt lat="46.56267" lon="6.076">
        <ele>1101.81</ele>
        <time>2015-06-30T12:29:35Z</time>
      </trkpt>
      <trkpt lat="46.56275" lon="6.07582">
        <ele>1100.85</ele>
        <time>2015-06-30T12:29:37Z</time>
      </trkpt>
      <trkpt lat="46.5629" lon="6.07555">
        <ele>1098.44</ele>
        <time>2015-06-30T12:29:41Z</time>
      </trkpt>
      <trkpt lat="46.56295" lon="6.07551">
        <ele>1098.44</ele>
        <time>2015-06-30T12:29:42Z</time>
      </trkpt>
      <trkpt lat="46.56299" lon="6.07549">
        <ele>1097.96</ele>
        <time>2015-06-30T12:29:43Z</time>
      </trkpt>
      <trkpt lat="46.56303" lon="6.07548">
        <ele>1097.48</ele>
        <time>2015-06-30T12:29:44Z</time>
      </trkpt>
      <trkpt lat="46.56307" lon="6.07548">
        <ele>1096.52</ele>
        <time>2015-06-30T12:29:45Z</time>
      </trkpt>
      <trkpt lat="46.56311" lon="6.07548">
        <ele>1096.04</ele>
        <time>2015-06-30T12:29:46Z</time>
      </trkpt>
      <trkpt lat="46.56314" lon="6.0755">
        <ele>1095.56</ele>
        <time>2015-06-30T12:29:47Z</time>
      </trkpt>
      <trkpt lat="46.56316" lon="6.07551">
        <ele>1096.04</ele>
        <time>2015-06-30T12:29:48Z</time>
      </trkpt>
      <trkpt lat="46.56317" lon="6.07552">
        <ele>1095.56</ele>
        <time>2015-06-30T12:29:49Z</time>
      </trkpt>
      <trkpt lat="46.56322" lon="6.07558">
        <ele>1094.12</ele>
        <time>2015-06-30T12:29:53Z</time>
      </trkpt>
      <trkpt lat="46.56323" lon="6.0756">
        <ele>1094.12</ele>
        <time>2015-06-30T12:29:54Z</time>
      </trkpt>
      <trkpt lat="46.56325" lon="6.07562">
        <ele>1093.64</ele>
        <time>2015-06-30T12:30:04Z</time>
      </trkpt>
      <trkpt lat="46.56326" lon="6.07563">
        <ele>1093.64</ele>
        <time>2015-06-30T12:30:10Z</time>
      </trkpt>
      <trkpt lat="46.56327" lon="6.07564">
        <ele>1093.64</ele>
        <time>2015-06-30T12:30:11Z</time>
      </trkpt>
      <trkpt lat="46.56327" lon="6.07564">
        <ele>1092.68</ele>
        <time>2015-06-30T12:30:22Z</time>
      </trkpt>
      <trkpt lat="46.56334" lon="6.07562">
        <ele>1092.68</ele>
        <time>2015-06-30T12:30:28Z</time>
      </trkpt>
      <trkpt lat="46.56336" lon="6.0756">
        <ele>1093.16</ele>
        <time>2015-06-30T12:30:29Z</time>
      </trkpt>
      <trkpt lat="46.56338" lon="6.07558">
        <ele>1092.68</ele>
        <time>2015-06-30T12:30:30Z</time>
      </trkpt>
      <trkpt lat="46.56341" lon="6.07555">
        <ele>1092.68</ele>
        <time>2015-06-30T12:30:31Z</time>
      </trkpt>
      <trkpt lat="46.56344" lon="6.07552">
        <ele>1093.16</ele>
        <time>2015-06-30T12:30:32Z</time>
      </trkpt>
      <trkpt lat="46.56346" lon="6.07549">
        <ele>1092.68</ele>
        <time>2015-06-30T12:30:33Z</time>
      </trkpt>
      <trkpt lat="46.56349" lon="6.07545">
        <ele>1092.2</ele>
        <time>2015-06-30T12:30:34Z</time>
      </trkpt>
      <trkpt lat="46.56352" lon="6.07541">
        <ele>1092.68</ele>
        <time>2015-06-30T12:30:35Z</time>
      </trkpt>
      <trkpt lat="46.56358" lon="6.07535">
        <ele>1092.2</ele>
        <time>2015-06-30T12:30:38Z</time>
      </trkpt>
      <trkpt lat="46.56359" lon="6.07536">
        <ele>1091.71</ele>
        <time>2015-06-30T12:30:39Z</time>
      </trkpt>
      <trkpt lat="46.56361" lon="6.07537">
        <ele>1091.71</ele>
        <time>2015-06-30T12:30:40Z</time>
      </trkpt>
      <trkpt lat="46.56363" lon="6.0754">
        <ele>1090.75</ele>
        <time>2015-06-30T12:30:41Z</time>
      </trkpt>
      <trkpt lat="46.56365" lon="6.07544">
        <ele>1090.27</ele>
        <time>2015-06-30T12:30:42Z</time>
      </trkpt>
      <trkpt lat="46.56366" lon="6.07549">
        <ele>1088.83</ele>
        <time>2015-06-30T12:30:43Z</time>
      </trkpt>
      <trkpt lat="46.56368" lon="6.07556">
        <ele>1088.35</ele>
        <time>2015-06-30T12:30:44Z</time>
      </trkpt>
      <trkpt lat="46.5637" lon="6.07564">
        <ele>1087.39</ele>
        <time>2015-06-30T12:30:45Z</time>
      </trkpt>
      <trkpt lat="46.56372" lon="6.07578">
        <ele>1086.91</ele>
        <time>2015-06-30T12:30:47Z</time>
      </trkpt>
      <trkpt lat="46.56374" lon="6.0759">
        <ele>1085.95</ele>
        <time>2015-06-30T12:30:49Z</time>
      </trkpt>
      <trkpt lat="46.56375" lon="6.07595">
        <ele>1084.99</ele>
        <time>2015-06-30T12:30:50Z</time>
      </trkpt>
      <trkpt lat="46.56377" lon="6.07598">
        <ele>1084.5</ele>
        <time>2015-06-30T12:30:51Z</time>
      </trkpt>
      <trkpt lat="46.56379" lon="6.076">
        <ele>1084.5</ele>
        <time>2015-06-30T12:30:52Z</time>
      </trkpt>
      <trkpt lat="46.5638" lon="6.07603">
        <ele>1083.54</ele>
        <time>2015-06-30T12:30:53Z</time>
      </trkpt>
      <trkpt lat="46.56385" lon="6.07609">
        <ele>1082.1</ele>
        <time>2015-06-30T12:30:56Z</time>
      </trkpt>
      <trkpt lat="46.56387" lon="6.0761">
        <ele>1081.62</ele>
        <time>2015-06-30T12:30:57Z</time>
      </trkpt>
      <trkpt lat="46.56388" lon="6.07611">
        <ele>1081.14</ele>
        <time>2015-06-30T12:30:58Z</time>
      </trkpt>
      <trkpt lat="46.56389" lon="6.07611">
        <ele>1081.14</ele>
        <time>2015-06-30T12:30:59Z</time>
      </trkpt>
      <trkpt lat="46.5639" lon="6.0761">
        <ele>1080.66</ele>
        <time>2015-06-30T12:31:00Z</time>
      </trkpt>
      <trkpt lat="46.56391" lon="6.07608">
        <ele>1080.66</ele>
        <time>2015-06-30T12:31:01Z</time>
      </trkpt>
      <trkpt lat="46.56391" lon="6.07606">
        <ele>1080.18</ele>
        <time>2015-06-30T12:31:02Z</time>
      </trkpt>
      <trkpt lat="46.56391" lon="6.07603">
        <ele>1079.7</ele>
        <time>2015-06-30T12:31:03Z</time>
      </trkpt>
      <trkpt lat="46.56392" lon="6.076">
        <ele>1079.7</ele>
        <time>2015-06-30T12:31:04Z</time>
      </trkpt>
      <trkpt lat="46.56392" lon="6.07597">
        <ele>1079.22</ele>
        <time>2015-06-30T12:31:05Z</time>
      </trkpt>
      <trkpt lat="46.56392" lon="6.07594">
        <ele>1079.22</ele>
        <time>2015-06-30T12:31:06Z</time>
      </trkpt>
      <trkpt lat="46.56392" lon="6.07591">
        <ele>1078.74</ele>
        <time>2015-06-30T12:31:07Z</time>
      </trkpt>
      <trkpt lat="46.56392" lon="6.07588">
        <ele>1078.26</ele>
        <time>2015-06-30T12:31:08Z</time>
      </trkpt>
      <trkpt lat="46.56392" lon="6.07583">
        <ele>1078.26</ele>
        <time>2015-06-30T12:31:09Z</time>
      </trkpt>
      <trkpt lat="46.56391" lon="6.07572">
        <ele>1076.81</ele>
        <time>2015-06-30T12:31:11Z</time>
      </trkpt>
      <trkpt lat="46.56389" lon="6.07567">
        <ele>1076.81</ele>
        <time>2015-06-30T12:31:12Z</time>
      </trkpt>
      <trkpt lat="46.56387" lon="6.07554">
        <ele>1076.81</ele>
        <time>2015-06-30T12:31:14Z</time>
      </trkpt>
      <trkpt lat="46.56385" lon="6.07547">
        <ele>1075.85</ele>
        <time>2015-06-30T12:31:15Z</time>
      </trkpt>
      <trkpt lat="46.56383" lon="6.07541">
        <ele>1075.85</ele>
        <time>2015-06-30T12:31:16Z</time>
      </trkpt>
      <trkpt lat="46.56376" lon="6.07512">
        <ele>1074.89</ele>
        <time>2015-06-30T12:31:21Z</time>
      </trkpt>
      <trkpt lat="46.56375" lon="6.07507">
        <ele>1074.89</ele>
        <time>2015-06-30T12:31:22Z</time>
      </trkpt>
      <trkpt lat="46.56373" lon="6.07501">
        <ele>1073.93</ele>
        <time>2015-06-30T12:31:23Z</time>
      </trkpt>
      <trkpt lat="46.5637" lon="6.07495">
        <ele>1073.93</ele>
        <time>2015-06-30T12:31:24Z</time>
      </trkpt>
      <trkpt lat="46.56364" lon="6.07482">
        <ele>1072.49</ele>
        <time>2015-06-30T12:31:26Z</time>
      </trkpt>
      <trkpt lat="46.56355" lon="6.07464">
        <ele>1071.53</ele>
        <time>2015-06-30T12:31:29Z</time>
      </trkpt>
      <trkpt lat="46.56351" lon="6.0746">
        <ele>1071.05</ele>
        <time>2015-06-30T12:31:30Z</time>
      </trkpt>
      <trkpt lat="46.56347" lon="6.07457">
        <ele>1071.05</ele>
        <time>2015-06-30T12:31:31Z</time>
      </trkpt>
      <trkpt lat="46.56342" lon="6.07452">
        <ele>1070.57</ele>
        <time>2015-06-30T12:31:32Z</time>
      </trkpt>
      <trkpt lat="46.56339" lon="6.07446">
        <ele>1070.08</ele>
        <time>2015-06-30T12:31:33Z</time>
      </trkpt>
      <trkpt lat="46.56335" lon="6.07441">
        <ele>1070.08</ele>
        <time>2015-06-30T12:31:34Z</time>
      </trkpt>
      <trkpt lat="46.56326" lon="6.07432">
        <ele>1068.64</ele>
        <time>2015-06-30T12:31:36Z</time>
      </trkpt>
      <trkpt lat="46.56314" lon="6.07419">
        <ele>1067.68</ele>
        <time>2015-06-30T12:31:39Z</time>
      </trkpt>
      <trkpt lat="46.5631" lon="6.07416">
        <ele>1066.72</ele>
        <time>2015-06-30T12:31:40Z</time>
      </trkpt>
      <trkpt lat="46.56305" lon="6.07414">
        <ele>1066.24</ele>
        <time>2015-06-30T12:31:41Z</time>
      </trkpt>
      <trkpt lat="46.563" lon="6.07412">
        <ele>1066.24</ele>
        <time>2015-06-30T12:31:42Z</time>
      </trkpt>
      <trkpt lat="46.56296" lon="6.07408">
        <ele>1066.24</ele>
        <time>2015-06-30T12:31:43Z</time>
      </trkpt>
      <trkpt lat="46.56291" lon="6.07404">
        <ele>1065.76</ele>
        <time>2015-06-30T12:31:44Z</time>
      </trkpt>
      <trkpt lat="46.56286" lon="6.074">
        <ele>1065.76</ele>
        <time>2015-06-30T12:31:45Z</time>
      </trkpt>
      <trkpt lat="46.56282" lon="6.07395">
        <ele>1064.8</ele>
        <time>2015-06-30T12:31:46Z</time>
      </trkpt>
      <trkpt lat="46.56277" lon="6.0739">
        <ele>1064.8</ele>
        <time>2015-06-30T12:31:47Z</time>
      </trkpt>
      <trkpt lat="46.56268" lon="6.07382">
        <ele>1064.32</ele>
        <time>2015-06-30T12:31:49Z</time>
      </trkpt>
      <trkpt lat="46.56263" lon="6.07378">
        <ele>1063.84</ele>
        <time>2015-06-30T12:31:50Z</time>
      </trkpt>
      <trkpt lat="46.56239" lon="6.07354">
        <ele>1062.87</ele>
        <time>2015-06-30T12:31:55Z</time>
      </trkpt>
      <trkpt lat="46.56235" lon="6.0735">
        <ele>1062.39</ele>
        <time>2015-06-30T12:31:56Z</time>
      </trkpt>
      <trkpt lat="46.56232" lon="6.07346">
        <ele>1061.91</ele>
        <time>2015-06-30T12:31:57Z</time>
      </trkpt>
      <trkpt lat="46.56228" lon="6.07341">
        <ele>1062.39</ele>
        <time>2015-06-30T12:31:58Z</time>
      </trkpt>
      <trkpt lat="46.56225" lon="6.07338">
        <ele>1061.43</ele>
        <time>2015-06-30T12:31:59Z</time>
      </trkpt>
      <trkpt lat="46.56222" lon="6.07334">
        <ele>1061.91</ele>
        <time>2015-06-30T12:32:00Z</time>
      </trkpt>
      <trkpt lat="46.56219" lon="6.0733">
        <ele>1061.43</ele>
        <time>2015-06-30T12:32:01Z</time>
      </trkpt>
      <trkpt lat="46.56208" lon="6.07316">
        <ele>1060.47</ele>
        <time>2015-06-30T12:32:04Z</time>
      </trkpt>
      <trkpt lat="46.56201" lon="6.07306">
        <ele>1059.99</ele>
        <time>2015-06-30T12:32:06Z</time>
      </trkpt>
      <trkpt lat="46.56197" lon="6.07304">
        <ele>1059.51</ele>
        <time>2015-06-30T12:32:07Z</time>
      </trkpt>
      <trkpt lat="46.56191" lon="6.07303">
        <ele>1059.03</ele>
        <time>2015-06-30T12:32:08Z</time>
      </trkpt>
      <trkpt lat="46.5617" lon="6.07287">
        <ele>1057.11</ele>
        <time>2015-06-30T12:32:14Z</time>
      </trkpt>
      <trkpt lat="46.56163" lon="6.07273">
        <ele>1056.15</ele>
        <time>2015-06-30T12:32:16Z</time>
      </trkpt>
      <trkpt lat="46.56131" lon="6.07225">
        <ele>1052.78</ele>
        <time>2015-06-30T12:32:23Z</time>
      </trkpt>
      <trkpt lat="46.56111" lon="6.07196">
        <ele>1051.34</ele>
        <time>2015-06-30T12:32:27Z</time>
      </trkpt>
      <trkpt lat="46.56107" lon="6.07188">
        <ele>1051.34</ele>
        <time>2015-06-30T12:32:28Z</time>
      </trkpt>
      <trkpt lat="46.561" lon="6.07174">
        <ele>1050.86</ele>
        <time>2015-06-30T12:32:30Z</time>
      </trkpt>
      <trkpt lat="46.56096" lon="6.07168">
        <ele>1050.86</ele>
        <time>2015-06-30T12:32:31Z</time>
      </trkpt>
      <trkpt lat="46.56091" lon="6.07164">
        <ele>1050.38</ele>
        <time>2015-06-30T12:32:32Z</time>
      </trkpt>
      <trkpt lat="46.56082" lon="6.07155">
        <ele>1049.42</ele>
        <time>2015-06-30T12:32:34Z</time>
      </trkpt>
      <trkpt lat="46.56077" lon="6.0715">
        <ele>1049.42</ele>
        <time>2015-06-30T12:32:35Z</time>
      </trkpt>
      <trkpt lat="46.56074" lon="6.07144">
        <ele>1048.94</ele>
        <time>2015-06-30T12:32:36Z</time>
      </trkpt>
      <trkpt lat="46.56072" lon="6.07137">
        <ele>1049.42</ele>
        <time>2015-06-30T12:32:37Z</time>
      </trkpt>
      <trkpt lat="46.5607" lon="6.07132">
        <ele>1049.42</ele>
        <time>2015-06-30T12:32:38Z</time>
      </trkpt>
      <trkpt lat="46.56066" lon="6.07129">
        <ele>1048.94</ele>
        <time>2015-06-30T12:32:39Z</time>
      </trkpt>
      <trkpt lat="46.56063" lon="6.07125">
        <ele>1048.45</ele>
        <time>2015-06-30T12:32:40Z</time>
      </trkpt>
      <trkpt lat="46.5606" lon="6.07121">
        <ele>1048.45</ele>
        <time>2015-06-30T12:32:41Z</time>
      </trkpt>
      <trkpt lat="46.56058" lon="6.07117">
        <ele>1048.45</ele>
        <time>2015-06-30T12:32:42Z</time>
      </trkpt>
      <trkpt lat="46.56056" lon="6.07114">
        <ele>1048.45</ele>
        <time>2015-06-30T12:32:43Z</time>
      </trkpt>
      <trkpt lat="46.56052" lon="6.07112">
        <ele>1048.45</ele>
        <time>2015-06-30T12:32:44Z</time>
      </trkpt>
      <trkpt lat="46.56049" lon="6.07111">
        <ele>1048.45</ele>
        <time>2015-06-30T12:32:45Z</time>
      </trkpt>
      <trkpt lat="46.56047" lon="6.07109">
        <ele>1047.49</ele>
        <time>2015-06-30T12:32:46Z</time>
      </trkpt>
      <trkpt lat="46.56044" lon="6.07107">
        <ele>1047.49</ele>
        <time>2015-06-30T12:32:47Z</time>
      </trkpt>
      <trkpt lat="46.56041" lon="6.07105">
        <ele>1047.01</ele>
        <time>2015-06-30T12:32:48Z</time>
      </trkpt>
      <trkpt lat="46.56037" lon="6.07104">
        <ele>1047.01</ele>
        <time>2015-06-30T12:32:49Z</time>
      </trkpt>
      <trkpt lat="46.56031" lon="6.071">
        <ele>1047.01</ele>
        <time>2015-06-30T12:32:52Z</time>
      </trkpt>
      <trkpt lat="46.5603" lon="6.07098">
        <ele>1046.53</ele>
        <time>2015-06-30T12:32:53Z</time>
      </trkpt>
      <trkpt lat="46.56029" lon="6.07097">
        <ele>1046.53</ele>
        <time>2015-06-30T12:32:54Z</time>
      </trkpt>
      <trkpt lat="46.56015" lon="6.07073">
        <ele>1045.57</ele>
        <time>2015-06-30T12:33:03Z</time>
      </trkpt>
      <trkpt lat="46.56013" lon="6.07061">
        <ele>1044.61</ele>
        <time>2015-06-30T12:33:06Z</time>
      </trkpt>
      <trkpt lat="46.56008" lon="6.0705">
        <ele>1044.13</ele>
        <time>2015-06-30T12:33:09Z</time>
      </trkpt>
      <trkpt lat="46.55995" lon="6.07018">
        <ele>1044.13</ele>
        <time>2015-06-30T12:33:20Z</time>
      </trkpt>
      <trkpt lat="46.55987" lon="6.06991">
        <ele>1043.17</ele>
        <time>2015-06-30T12:33:29Z</time>
      </trkpt>
      <trkpt lat="46.55975" lon="6.06962">
        <ele>1042.21</ele>
        <time>2015-06-30T12:33:37Z</time>
      </trkpt>
      <trkpt lat="46.55967" lon="6.06935">
        <ele>1041.25</ele>
        <time>2015-06-30T12:33:46Z</time>
      </trkpt>
      <trkpt lat="46.55963" lon="6.06919">
        <ele>1041.25</ele>
        <time>2015-06-30T12:33:52Z</time>
      </trkpt>
      <trkpt lat="46.55952" lon="6.0688">
        <ele>1040.28</ele>
        <time>2015-06-30T12:34:02Z</time>
      </trkpt>
      <trkpt lat="46.55944" lon="6.06853">
        <ele>1040.76</ele>
        <time>2015-06-30T12:34:08Z</time>
      </trkpt>
      <trkpt lat="46.55945" lon="6.0685">
        <ele>1040.76</ele>
        <time>2015-06-30T12:34:09Z</time>
      </trkpt>
      <trkpt lat="46.55947" lon="6.06848">
        <ele>1040.76</ele>
        <time>2015-06-30T12:34:10Z</time>
      </trkpt>
      <trkpt lat="46.55948" lon="6.06847">
        <ele>1040.28</ele>
        <time>2015-06-30T12:34:11Z</time>
      </trkpt>
      <trkpt lat="46.5595" lon="6.06846">
        <ele>1040.76</ele>
        <time>2015-06-30T12:34:12Z</time>
      </trkpt>
      <trkpt lat="46.55964" lon="6.0684">
        <ele>1040.76</ele>
        <time>2015-06-30T12:34:19Z</time>
      </trkpt>
      <trkpt lat="46.55965" lon="6.06841">
        <ele>1040.76</ele>
        <time>2015-06-30T12:34:20Z</time>
      </trkpt>
      <trkpt lat="46.55966" lon="6.06842">
        <ele>1040.76</ele>
        <time>2015-06-30T12:34:21Z</time>
      </trkpt>
      <trkpt lat="46.55965" lon="6.06842">
        <ele>1040.76</ele>
        <time>2015-06-30T12:34:34Z</time>
      </trkpt>
      <trkpt lat="46.55965" lon="6.06843">
        <ele>1040.28</ele>
        <time>2015-06-30T12:34:53Z</time>
      </trkpt>
      <trkpt lat="46.55962" lon="6.06847">
        <ele>1040.28</ele>
        <time>2015-06-30T12:34:56Z</time>
      </trkpt>
      <trkpt lat="46.55943" lon="6.06844">
        <ele>1039.8</ele>
        <time>2015-06-30T12:35:09Z</time>
      </trkpt>
      <trkpt lat="46.55915" lon="6.06831">
        <ele>1039.8</ele>
        <time>2015-06-30T12:35:24Z</time>
      </trkpt>
      <trkpt lat="46.55896" lon="6.06794">
        <ele>1041.73</ele>
        <time>2015-06-30T12:35:38Z</time>
      </trkpt>
      <trkpt lat="46.55883" lon="6.06739">
        <ele>1043.65</ele>
        <time>2015-06-30T12:35:52Z</time>
      </trkpt>
      <trkpt lat="46.55873" lon="6.06699">
        <ele>1045.57</ele>
        <time>2015-06-30T12:36:04Z</time>
      </trkpt>
      <trkpt lat="46.55858" lon="6.0667">
        <ele>1047.01</ele>
        <time>2015-06-30T12:36:18Z</time>
      </trkpt>
      <trkpt lat="46.55857" lon="6.0667">
        <ele>1047.01</ele>
        <time>2015-06-30T12:36:27Z</time>
      </trkpt>
      <trkpt lat="46.55851" lon="6.06671">
        <ele>1047.01</ele>
        <time>2015-06-30T12:36:33Z</time>
      </trkpt>
      <trkpt lat="46.55854" lon="6.06663">
        <ele>1047.01</ele>
        <time>2015-06-30T12:36:47Z</time>
      </trkpt>
      <trkpt lat="46.55855" lon="6.06663">
        <ele>1046.53</ele>
        <time>2015-06-30T12:37:15Z</time>
      </trkpt>
      <trkpt lat="46.55854" lon="6.06663">
        <ele>1046.53</ele>
        <time>2015-06-30T12:37:43Z</time>
      </trkpt>
      <trkpt lat="46.55854" lon="6.06664">
        <ele>1046.05</ele>
        <time>2015-06-30T12:38:12Z</time>
      </trkpt>
      <trkpt lat="46.55852" lon="6.06665">
        <ele>1046.53</ele>
        <time>2015-06-30T12:38:46Z</time>
      </trkpt>
      <trkpt lat="46.55853" lon="6.06663">
        <ele>1046.05</ele>
        <time>2015-06-30T12:39:21Z</time>
      </trkpt>
      <trkpt lat="46.55854" lon="6.06663">
        <ele>1046.05</ele>
        <time>2015-06-30T12:39:51Z</time>
      </trkpt>
      <trkpt lat="46.55854" lon="6.06661">
        <ele>1046.05</ele>
        <time>2015-06-30T12:40:25Z</time>
      </trkpt>
      <trkpt lat="46.55854" lon="6.06663">
        <ele>1045.57</ele>
        <time>2015-06-30T12:41:05Z</time>
      </trkpt>
      <trkpt lat="46.55855" lon="6.06661">
        <ele>1045.57</ele>
        <time>2015-06-30T12:41:43Z</time>
      </trkpt>
      <trkpt lat="46.55854" lon="6.06664">
        <ele>1045.09</ele>
        <time>2015-06-30T12:42:14Z</time>
      </trkpt>
      <trkpt lat="46.55853" lon="6.06664">
        <ele>1044.61</ele>
        <time>2015-06-30T12:42:49Z</time>
      </trkpt>
      <trkpt lat="46.55853" lon="6.06664">
        <ele>1045.09</ele>
        <time>2015-06-30T12:43:25Z</time>
      </trkpt>
      <trkpt lat="46.55855" lon="6.06662">
        <ele>1044.61</ele>
        <time>2015-06-30T12:43:58Z</time>
      </trkpt>
      <trkpt lat="46.55855" lon="6.06663">
        <ele>1044.61</ele>
        <time>2015-06-30T12:44:34Z</time>
      </trkpt>
      <trkpt lat="46.55855" lon="6.06662">
        <ele>1044.61</ele>
        <time>2015-06-30T12:45:03Z</time>
      </trkpt>
      <trkpt lat="46.55856" lon="6.06665">
        <ele>1044.61</ele>
        <time>2015-06-30T12:45:13Z</time>
      </trkpt>
      <trkpt lat="46.55855" lon="6.06665">
        <ele>1044.13</ele>
        <time>2015-06-30T12:45:29Z</time>
      </trkpt>
      <trkpt lat="46.55852" lon="6.06686">
        <ele>1045.57</ele>
        <time>2015-06-30T12:45:36Z</time>
      </trkpt>
      <trkpt lat="46.55852" lon="6.06691">
        <ele>1045.09</ele>
        <time>2015-06-30T12:45:37Z</time>
      </trkpt>
      <trkpt lat="46.55832" lon="6.0676">
        <ele>1047.01</ele>
        <time>2015-06-30T12:45:52Z</time>
      </trkpt>
      <trkpt lat="46.55819" lon="6.06809">
        <ele>1046.53</ele>
        <time>2015-06-30T12:46:02Z</time>
      </trkpt>
      <trkpt lat="46.55817" lon="6.06815">
        <ele>1047.01</ele>
        <time>2015-06-30T12:46:03Z</time>
      </trkpt>
      <trkpt lat="46.55797" lon="6.06895">
        <ele>1047.49</ele>
        <time>2015-06-30T12:46:19Z</time>
      </trkpt>
      <trkpt lat="46.55782" lon="6.06955">
        <ele>1047.97</ele>
        <time>2015-06-30T12:46:31Z</time>
      </trkpt>
      <trkpt lat="46.5579" lon="6.07007">
        <ele>1049.9</ele>
        <time>2015-06-30T12:46:43Z</time>
      </trkpt>
      <trkpt lat="46.55822" lon="6.07049">
        <ele>1051.34</ele>
        <time>2015-06-30T12:46:57Z</time>
      </trkpt>
      <trkpt lat="46.55861" lon="6.07091">
        <ele>1052.3</ele>
        <time>2015-06-30T12:47:13Z</time>
      </trkpt>
      <trkpt lat="46.5589" lon="6.07128">
        <ele>1052.3</ele>
        <time>2015-06-30T12:47:25Z</time>
      </trkpt>
      <trkpt lat="46.55896" lon="6.07136">
        <ele>1051.82</ele>
        <time>2015-06-30T12:47:27Z</time>
      </trkpt>
      <trkpt lat="46.55899" lon="6.07141">
        <ele>1051.82</ele>
        <time>2015-06-30T12:47:28Z</time>
      </trkpt>
      <trkpt lat="46.55901" lon="6.07145">
        <ele>1052.3</ele>
        <time>2015-06-30T12:47:29Z</time>
      </trkpt>
      <trkpt lat="46.55937" lon="6.07201">
        <ele>1052.3</ele>
        <time>2015-06-30T12:47:43Z</time>
      </trkpt>
      <trkpt lat="46.55958" lon="6.07243">
        <ele>1053.26</ele>
        <time>2015-06-30T12:47:53Z</time>
      </trkpt>
      <trkpt lat="46.5596" lon="6.07249">
        <ele>1053.26</ele>
        <time>2015-06-30T12:47:54Z</time>
      </trkpt>
      <trkpt lat="46.5596" lon="6.07255">
        <ele>1053.26</ele>
        <time>2015-06-30T12:47:55Z</time>
      </trkpt>
      <trkpt lat="46.55961" lon="6.07261">
        <ele>1052.78</ele>
        <time>2015-06-30T12:47:56Z</time>
      </trkpt>
      <trkpt lat="46.55961" lon="6.07267">
        <ele>1053.26</ele>
        <time>2015-06-30T12:47:57Z</time>
      </trkpt>
      <trkpt lat="46.5596" lon="6.07273">
        <ele>1053.26</ele>
        <time>2015-06-30T12:47:58Z</time>
      </trkpt>
      <trkpt lat="46.55957" lon="6.07298">
        <ele>1052.3</ele>
        <time>2015-06-30T12:48:02Z</time>
      </trkpt>
      <trkpt lat="46.55966" lon="6.07356">
        <ele>1054.22</ele>
        <time>2015-06-30T12:48:14Z</time>
      </trkpt>
      <trkpt lat="46.56003" lon="6.07396">
        <ele>1056.15</ele>
        <time>2015-06-30T12:48:29Z</time>
      </trkpt>
      <trkpt lat="46.56037" lon="6.07424">
        <ele>1058.55</ele>
        <time>2015-06-30T12:48:45Z</time>
      </trkpt>
      <trkpt lat="46.56039" lon="6.07425">
        <ele>1058.55</ele>
        <time>2015-06-30T12:48:46Z</time>
      </trkpt>
      <trkpt lat="46.5604" lon="6.07426">
        <ele>1058.55</ele>
        <time>2015-06-30T12:48:47Z</time>
      </trkpt>
      <trkpt lat="46.56043" lon="6.07427">
        <ele>1058.55</ele>
        <time>2015-06-30T12:48:48Z</time>
      </trkpt>
      <trkpt lat="46.56045" lon="6.07429">
        <ele>1059.03</ele>
        <time>2015-06-30T12:48:49Z</time>
      </trkpt>
      <trkpt lat="46.5605" lon="6.07431">
        <ele>1059.99</ele>
        <time>2015-06-30T12:48:51Z</time>
      </trkpt>
      <trkpt lat="46.56078" lon="6.07435">
        <ele>1061.43</ele>
        <time>2015-06-30T12:49:05Z</time>
      </trkpt>
      <trkpt lat="46.56103" lon="6.07428">
        <ele>1063.84</ele>
        <time>2015-06-30T12:49:18Z</time>
      </trkpt>
      <trkpt lat="46.56122" lon="6.07416">
        <ele>1064.8</ele>
        <time>2015-06-30T12:49:28Z</time>
      </trkpt>
      <trkpt lat="46.56124" lon="6.07415">
        <ele>1065.28</ele>
        <time>2015-06-30T12:49:29Z</time>
      </trkpt>
      <trkpt lat="46.56126" lon="6.07413">
        <ele>1065.76</ele>
        <time>2015-06-30T12:49:30Z</time>
      </trkpt>
      <trkpt lat="46.56127" lon="6.07411">
        <ele>1065.76</ele>
        <time>2015-06-30T12:49:31Z</time>
      </trkpt>
      <trkpt lat="46.56129" lon="6.0741">
        <ele>1065.28</ele>
        <time>2015-06-30T12:49:32Z</time>
      </trkpt>
      <trkpt lat="46.56152" lon="6.07387">
        <ele>1068.16</ele>
        <time>2015-06-30T12:49:46Z</time>
      </trkpt>
      <trkpt lat="46.56177" lon="6.07383">
        <ele>1070.08</ele>
        <time>2015-06-30T12:50:01Z</time>
      </trkpt>
      <trkpt lat="46.56202" lon="6.07399">
        <ele>1072.01</ele>
        <time>2015-06-30T12:50:15Z</time>
      </trkpt>
      <trkpt lat="46.5622" lon="6.0742">
        <ele>1073.93</ele>
        <time>2015-06-30T12:50:27Z</time>
      </trkpt>
      <trkpt lat="46.56241" lon="6.07442">
        <ele>1075.37</ele>
        <time>2015-06-30T12:50:41Z</time>
      </trkpt>
      <trkpt lat="46.56264" lon="6.0746">
        <ele>1077.78</ele>
        <time>2015-06-30T12:50:55Z</time>
      </trkpt>
      <trkpt lat="46.5629" lon="6.0748">
        <ele>1080.18</ele>
        <time>2015-06-30T12:51:11Z</time>
      </trkpt>
      <trkpt lat="46.56315" lon="6.07491">
        <ele>1082.58</ele>
        <time>2015-06-30T12:51:25Z</time>
      </trkpt>
      <trkpt lat="46.56331" lon="6.07501">
        <ele>1084.02</ele>
        <time>2015-06-30T12:51:35Z</time>
      </trkpt>
      <trkpt lat="46.56332" lon="6.07503">
        <ele>1084.02</ele>
        <time>2015-06-30T12:51:36Z</time>
      </trkpt>
      <trkpt lat="46.56333" lon="6.07505">
        <ele>1084.02</ele>
        <time>2015-06-30T12:51:37Z</time>
      </trkpt>
      <trkpt lat="46.5634" lon="6.07539">
        <ele>1086.43</ele>
        <time>2015-06-30T12:51:51Z</time>
      </trkpt>
      <trkpt lat="46.56325" lon="6.07572">
        <ele>1086.91</ele>
        <time>2015-06-30T12:52:04Z</time>
      </trkpt>
      <trkpt lat="46.56304" lon="6.0762">
        <ele>1088.35</ele>
        <time>2015-06-30T12:52:18Z</time>
      </trkpt>
      <trkpt lat="46.56296" lon="6.07674">
        <ele>1090.27</ele>
        <time>2015-06-30T12:52:33Z</time>
      </trkpt>
      <trkpt lat="46.56307" lon="6.07724">
        <ele>1089.79</ele>
        <time>2015-06-30T12:52:46Z</time>
      </trkpt>
      <trkpt lat="46.56315" lon="6.07762">
        <ele>1089.31</ele>
        <time>2015-06-30T12:52:52Z</time>
      </trkpt>
      <trkpt lat="46.56317" lon="6.07769">
        <ele>1088.83</ele>
        <time>2015-06-30T12:52:53Z</time>
      </trkpt>
      <trkpt lat="46.56318" lon="6.07777">
        <ele>1088.83</ele>
        <time>2015-06-30T12:52:54Z</time>
      </trkpt>
      <trkpt lat="46.5632" lon="6.07784">
        <ele>1088.35</ele>
        <time>2015-06-30T12:52:55Z</time>
      </trkpt>
      <trkpt lat="46.56323" lon="6.07792">
        <ele>1087.87</ele>
        <time>2015-06-30T12:52:56Z</time>
      </trkpt>
      <trkpt lat="46.56326" lon="6.07799">
        <ele>1087.87</ele>
        <time>2015-06-30T12:52:57Z</time>
      </trkpt>
      <trkpt lat="46.56329" lon="6.07807">
        <ele>1087.39</ele>
        <time>2015-06-30T12:52:58Z</time>
      </trkpt>
      <trkpt lat="46.56333" lon="6.07813">
        <ele>1087.87</ele>
        <time>2015-06-30T12:52:59Z</time>
      </trkpt>
      <trkpt lat="46.56338" lon="6.0782">
        <ele>1087.39</ele>
        <time>2015-06-30T12:53:00Z</time>
      </trkpt>
      <trkpt lat="46.56343" lon="6.07826">
        <ele>1086.91</ele>
        <time>2015-06-30T12:53:01Z</time>
      </trkpt>
      <trkpt lat="46.56349" lon="6.07832">
        <ele>1086.91</ele>
        <time>2015-06-30T12:53:02Z</time>
      </trkpt>
      <trkpt lat="46.56355" lon="6.07837">
        <ele>1086.43</ele>
        <time>2015-06-30T12:53:03Z</time>
      </trkpt>
      <trkpt lat="46.56362" lon="6.07841">
        <ele>1085.47</ele>
        <time>2015-06-30T12:53:04Z</time>
      </trkpt>
      <trkpt lat="46.56369" lon="6.07845">
        <ele>1085.47</ele>
        <time>2015-06-30T12:53:05Z</time>
      </trkpt>
      <trkpt lat="46.564" lon="6.07861">
        <ele>1084.02</ele>
        <time>2015-06-30T12:53:09Z</time>
      </trkpt>
      <trkpt lat="46.56447" lon="6.07874">
        <ele>1084.02</ele>
        <time>2015-06-30T12:53:15Z</time>
      </trkpt>
      <trkpt lat="46.56454" lon="6.07873">
        <ele>1084.02</ele>
        <time>2015-06-30T12:53:16Z</time>
      </trkpt>
      <trkpt lat="46.5646" lon="6.0787">
        <ele>1084.5</ele>
        <time>2015-06-30T12:53:17Z</time>
      </trkpt>
      <trkpt lat="46.56519" lon="6.07847">
        <ele>1087.39</ele>
        <time>2015-06-30T12:53:30Z</time>
      </trkpt>
      <trkpt lat="46.56547" lon="6.07861">
        <ele>1090.27</ele>
        <time>2015-06-30T12:53:42Z</time>
      </trkpt>
      <trkpt lat="46.56566" lon="6.07894">
        <ele>1092.68</ele>
        <time>2015-06-30T12:53:57Z</time>
      </trkpt>
      <trkpt lat="46.56585" lon="6.07932">
        <ele>1094.6</ele>
        <time>2015-06-30T12:54:15Z</time>
      </trkpt>
      <trkpt lat="46.566" lon="6.0797">
        <ele>1097.48</ele>
        <time>2015-06-30T12:54:32Z</time>
      </trkpt>
      <trkpt lat="46.56607" lon="6.07989">
        <ele>1098.92</ele>
        <time>2015-06-30T12:54:41Z</time>
      </trkpt>
      <trkpt lat="46.56631" lon="6.0801">
        <ele>1100.85</ele>
        <time>2015-06-30T12:54:56Z</time>
      </trkpt>
      <trkpt lat="46.5666" lon="6.07997">
        <ele>1101.81</ele>
        <time>2015-06-30T12:55:11Z</time>
      </trkpt>
      <trkpt lat="46.56689" lon="6.07965">
        <ele>1102.77</ele>
        <time>2015-06-30T12:55:26Z</time>
      </trkpt>
      <trkpt lat="46.56707" lon="6.07983">
        <ele>1101.33</ele>
        <time>2015-06-30T12:55:36Z</time>
      </trkpt>
      <trkpt lat="46.56708" lon="6.07988">
        <ele>1101.33</ele>
        <time>2015-06-30T12:55:48Z</time>
      </trkpt>
      <trkpt lat="46.56707" lon="6.07988">
        <ele>1101.81</ele>
        <time>2015-06-30T12:56:07Z</time>
      </trkpt>
      <trkpt lat="46.56708" lon="6.0799">
        <ele>1101.33</ele>
        <time>2015-06-30T12:56:20Z</time>
      </trkpt>
      <trkpt lat="46.56709" lon="6.07991">
        <ele>1101.33</ele>
        <time>2015-06-30T12:56:21Z</time>
      </trkpt>
      <trkpt lat="46.5671" lon="6.07992">
        <ele>1101.33</ele>
        <time>2015-06-30T12:56:22Z</time>
      </trkpt>
      <trkpt lat="46.56711" lon="6.07994">
        <ele>1101.33</ele>
        <time>2015-06-30T12:56:23Z</time>
      </trkpt>
      <trkpt lat="46.56712" lon="6.07995">
        <ele>1100.85</ele>
        <time>2015-06-30T12:56:24Z</time>
      </trkpt>
      <trkpt lat="46.56713" lon="6.07997">
        <ele>1100.37</ele>
        <time>2015-06-30T12:56:25Z</time>
      </trkpt>
      <trkpt lat="46.56714" lon="6.08">
        <ele>1100.85</ele>
        <time>2015-06-30T12:56:26Z</time>
      </trkpt>
      <trkpt lat="46.56716" lon="6.08003">
        <ele>1100.37</ele>
        <time>2015-06-30T12:56:27Z</time>
      </trkpt>
      <trkpt lat="46.56718" lon="6.08006">
        <ele>1100.85</ele>
        <time>2015-06-30T12:56:28Z</time>
      </trkpt>
      <trkpt lat="46.5672" lon="6.0801">
        <ele>1100.37</ele>
        <time>2015-06-30T12:56:29Z</time>
      </trkpt>
      <trkpt lat="46.56722" lon="6.08014">
        <ele>1100.37</ele>
        <time>2015-06-30T12:56:30Z</time>
      </trkpt>
      <trkpt lat="46.56728" lon="6.08024">
        <ele>1099.89</ele>
        <time>2015-06-30T12:56:32Z</time>
      </trkpt>
      <trkpt lat="46.5673" lon="6.0803">
        <ele>1098.92</ele>
        <time>2015-06-30T12:56:33Z</time>
      </trkpt>
      <trkpt lat="46.56732" lon="6.08036">
        <ele>1099.4</ele>
        <time>2015-06-30T12:56:34Z</time>
      </trkpt>
      <trkpt lat="46.56733" lon="6.08044">
        <ele>1099.4</ele>
        <time>2015-06-30T12:56:35Z</time>
      </trkpt>
      <trkpt lat="46.56733" lon="6.08051">
        <ele>1098.92</ele>
        <time>2015-06-30T12:56:36Z</time>
      </trkpt>
      <trkpt lat="46.56733" lon="6.08059">
        <ele>1098.44</ele>
        <time>2015-06-30T12:56:37Z</time>
      </trkpt>
      <trkpt lat="46.56733" lon="6.08067">
        <ele>1098.44</ele>
        <time>2015-06-30T12:56:38Z</time>
      </trkpt>
      <trkpt lat="46.56731" lon="6.08075">
        <ele>1098.44</ele>
        <time>2015-06-30T12:56:39Z</time>
      </trkpt>
      <trkpt lat="46.56729" lon="6.08091">
        <ele>1097.96</ele>
        <time>2015-06-30T12:56:41Z</time>
      </trkpt>
      <trkpt lat="46.56727" lon="6.081">
        <ele>1097.48</ele>
        <time>2015-06-30T12:56:42Z</time>
      </trkpt>
      <trkpt lat="46.56706" lon="6.08152">
        <ele>1097.48</ele>
        <time>2015-06-30T12:56:49Z</time>
      </trkpt>
      <trkpt lat="46.56704" lon="6.08157">
        <ele>1097.48</ele>
        <time>2015-06-30T12:56:50Z</time>
      </trkpt>
      <trkpt lat="46.56702" lon="6.08161">
        <ele>1097.96</ele>
        <time>2015-06-30T12:56:51Z</time>
      </trkpt>
      <trkpt lat="46.56681" lon="6.08216">
        <ele>1100.37</ele>
        <time>2015-06-30T12:57:06Z</time>
      </trkpt>
      <trkpt lat="46.56658" lon="6.08284">
        <ele>1102.29</ele>
        <time>2015-06-30T12:57:23Z</time>
      </trkpt>
      <trkpt lat="46.5664" lon="6.0833">
        <ele>1103.73</ele>
        <time>2015-06-30T12:57:36Z</time>
      </trkpt>
      <trkpt lat="46.56616" lon="6.08386">
        <ele>1105.65</ele>
        <time>2015-06-30T12:57:54Z</time>
      </trkpt>
      <trkpt lat="46.56603" lon="6.08432">
        <ele>1106.13</ele>
        <time>2015-06-30T12:58:08Z</time>
      </trkpt>
      <trkpt lat="46.56603" lon="6.08493">
        <ele>1105.65</ele>
        <time>2015-06-30T12:58:20Z</time>
      </trkpt>
      <trkpt lat="46.56609" lon="6.08524">
        <ele>1104.69</ele>
        <time>2015-06-30T12:58:24Z</time>
      </trkpt>
      <trkpt lat="46.56619" lon="6.08556">
        <ele>1103.73</ele>
        <time>2015-06-30T12:58:28Z</time>
      </trkpt>
      <trkpt lat="46.56622" lon="6.08563">
        <ele>1103.25</ele>
        <time>2015-06-30T12:58:29Z</time>
      </trkpt>
      <trkpt lat="46.56628" lon="6.08577">
        <ele>1103.25</ele>
        <time>2015-06-30T12:58:31Z</time>
      </trkpt>
      <trkpt lat="46.56632" lon="6.08585">
        <ele>1103.25</ele>
        <time>2015-06-30T12:58:32Z</time>
      </trkpt>
      <trkpt lat="46.56635" lon="6.08592">
        <ele>1103.25</ele>
        <time>2015-06-30T12:58:33Z</time>
      </trkpt>
      <trkpt lat="46.56682" lon="6.08705">
        <ele>1102.29</ele>
        <time>2015-06-30T12:58:49Z</time>
      </trkpt>
      <trkpt lat="46.56691" lon="6.0873">
        <ele>1103.25</ele>
        <time>2015-06-30T12:58:53Z</time>
      </trkpt>
      <trkpt lat="46.56694" lon="6.08736">
        <ele>1102.77</ele>
        <time>2015-06-30T12:58:54Z</time>
      </trkpt>
      <trkpt lat="46.56696" lon="6.08742">
        <ele>1102.77</ele>
        <time>2015-06-30T12:58:55Z</time>
      </trkpt>
      <trkpt lat="46.56698" lon="6.08747">
        <ele>1103.25</ele>
        <time>2015-06-30T12:58:56Z</time>
      </trkpt>
      <trkpt lat="46.567" lon="6.08753">
        <ele>1102.77</ele>
        <time>2015-06-30T12:58:57Z</time>
      </trkpt>
      <trkpt lat="46.56722" lon="6.08816">
        <ele>1104.21</ele>
        <time>2015-06-30T12:59:10Z</time>
      </trkpt>
      <trkpt lat="46.56747" lon="6.08885">
        <ele>1107.58</ele>
        <time>2015-06-30T12:59:26Z</time>
      </trkpt>
      <trkpt lat="46.56772" lon="6.08919">
        <ele>1108.54</ele>
        <time>2015-06-30T12:59:37Z</time>
      </trkpt>
      <trkpt lat="46.56803" lon="6.08967">
        <ele>1109.02</ele>
        <time>2015-06-30T12:59:51Z</time>
      </trkpt>
      <trkpt lat="46.56826" lon="6.09033">
        <ele>1109.5</ele>
        <time>2015-06-30T13:00:06Z</time>
      </trkpt>
      <trkpt lat="46.56853" lon="6.09103">
        <ele>1109.98</ele>
        <time>2015-06-30T13:00:20Z</time>
      </trkpt>
      <trkpt lat="46.56857" lon="6.0911">
        <ele>1110.46</ele>
        <time>2015-06-30T13:00:22Z</time>
      </trkpt>
      <trkpt lat="46.5686" lon="6.09115">
        <ele>1110.46</ele>
        <time>2015-06-30T13:00:23Z</time>
      </trkpt>
      <trkpt lat="46.56873" lon="6.09137">
        <ele>1109.02</ele>
        <time>2015-06-30T13:00:27Z</time>
      </trkpt>
      <trkpt lat="46.56878" lon="6.09142">
        <ele>1108.54</ele>
        <time>2015-06-30T13:00:28Z</time>
      </trkpt>
      <trkpt lat="46.56882" lon="6.09149">
        <ele>1108.06</ele>
        <time>2015-06-30T13:00:29Z</time>
      </trkpt>
      <trkpt lat="46.56916" lon="6.09194">
        <ele>1107.1</ele>
        <time>2015-06-30T13:00:36Z</time>
      </trkpt>
      <trkpt lat="46.56921" lon="6.09197">
        <ele>1106.61</ele>
        <time>2015-06-30T13:00:37Z</time>
      </trkpt>
      <trkpt lat="46.56926" lon="6.092">
        <ele>1106.61</ele>
        <time>2015-06-30T13:00:38Z</time>
      </trkpt>
      <trkpt lat="46.56931" lon="6.09203">
        <ele>1107.1</ele>
        <time>2015-06-30T13:00:39Z</time>
      </trkpt>
      <trkpt lat="46.56936" lon="6.09205">
        <ele>1107.1</ele>
        <time>2015-06-30T13:00:40Z</time>
      </trkpt>
      <trkpt lat="46.56941" lon="6.09208">
        <ele>1106.61</ele>
        <time>2015-06-30T13:00:41Z</time>
      </trkpt>
      <trkpt lat="46.56961" lon="6.09216">
        <ele>1107.1</ele>
        <time>2015-06-30T13:00:45Z</time>
      </trkpt>
      <trkpt lat="46.56966" lon="6.09217">
        <ele>1107.58</ele>
        <time>2015-06-30T13:00:46Z</time>
      </trkpt>
      <trkpt lat="46.56971" lon="6.0922">
        <ele>1107.58</ele>
        <time>2015-06-30T13:00:47Z</time>
      </trkpt>
      <trkpt lat="46.56975" lon="6.09223">
        <ele>1107.58</ele>
        <time>2015-06-30T13:00:48Z</time>
      </trkpt>
      <trkpt lat="46.5698" lon="6.09226">
        <ele>1107.58</ele>
        <time>2015-06-30T13:00:49Z</time>
      </trkpt>
      <trkpt lat="46.56985" lon="6.09229">
        <ele>1107.1</ele>
        <time>2015-06-30T13:00:50Z</time>
      </trkpt>
      <trkpt lat="46.57" lon="6.09239">
        <ele>1105.65</ele>
        <time>2015-06-30T13:00:53Z</time>
      </trkpt>
      <trkpt lat="46.57016" lon="6.09256">
        <ele>1104.69</ele>
        <time>2015-06-30T13:00:56Z</time>
      </trkpt>
      <trkpt lat="46.57028" lon="6.09273">
        <ele>1103.25</ele>
        <time>2015-06-30T13:00:58Z</time>
      </trkpt>
      <trkpt lat="46.57039" lon="6.0929">
        <ele>1103.25</ele>
        <time>2015-06-30T13:01:00Z</time>
      </trkpt>
      <trkpt lat="46.57078" lon="6.09335">
        <ele>1103.73</ele>
        <time>2015-06-30T13:01:07Z</time>
      </trkpt>
      <trkpt lat="46.57092" lon="6.0935">
        <ele>1104.21</ele>
        <time>2015-06-30T13:01:10Z</time>
      </trkpt>
      <trkpt lat="46.57096" lon="6.09355">
        <ele>1104.69</ele>
        <time>2015-06-30T13:01:11Z</time>
      </trkpt>
      <trkpt lat="46.571" lon="6.0936">
        <ele>1104.69</ele>
        <time>2015-06-30T13:01:12Z</time>
      </trkpt>
      <trkpt lat="46.57104" lon="6.09365">
        <ele>1105.17</ele>
        <time>2015-06-30T13:01:13Z</time>
      </trkpt>
      <trkpt lat="46.57107" lon="6.0937">
        <ele>1105.65</ele>
        <time>2015-06-30T13:01:14Z</time>
      </trkpt>
      <trkpt lat="46.5711" lon="6.09374">
        <ele>1105.65</ele>
        <time>2015-06-30T13:01:15Z</time>
      </trkpt>
      <trkpt lat="46.57149" lon="6.0942">
        <ele>1107.1</ele>
        <time>2015-06-30T13:01:29Z</time>
      </trkpt>
      <trkpt lat="46.57177" lon="6.09448">
        <ele>1109.98</ele>
        <time>2015-06-30T13:01:43Z</time>
      </trkpt>
      <trkpt lat="46.57195" lon="6.09467">
        <ele>1112.86</ele>
        <time>2015-06-30T13:01:56Z</time>
      </trkpt>
      <trkpt lat="46.57209" lon="6.09496">
        <ele>1115.27</ele>
        <time>2015-06-30T13:02:11Z</time>
      </trkpt>
      <trkpt lat="46.57221" lon="6.09532">
        <ele>1116.23</ele>
        <time>2015-06-30T13:02:26Z</time>
      </trkpt>
      <trkpt lat="46.57237" lon="6.09568">
        <ele>1117.19</ele>
        <time>2015-06-30T13:02:41Z</time>
      </trkpt>
      <trkpt lat="46.57243" lon="6.09584">
        <ele>1118.15</ele>
        <time>2015-06-30T13:02:47Z</time>
      </trkpt>
      <trkpt lat="46.57244" lon="6.09586">
        <ele>1118.63</ele>
        <time>2015-06-30T13:02:48Z</time>
      </trkpt>
      <trkpt lat="46.57262" lon="6.09625">
        <ele>1119.59</ele>
        <time>2015-06-30T13:03:03Z</time>
      </trkpt>
      <trkpt lat="46.57278" lon="6.09667">
        <ele>1120.55</ele>
        <time>2015-06-30T13:03:16Z</time>
      </trkpt>
      <trkpt lat="46.57297" lon="6.09726">
        <ele>1121.52</ele>
        <time>2015-06-30T13:03:31Z</time>
      </trkpt>
      <trkpt lat="46.57319" lon="6.09748">
        <ele>1121.52</ele>
        <time>2015-06-30T13:03:40Z</time>
      </trkpt>
      <trkpt lat="46.57356" lon="6.09759">
        <ele>1122.48</ele>
        <time>2015-06-30T13:03:52Z</time>
      </trkpt>
      <trkpt lat="46.57397" lon="6.09768">
        <ele>1123.92</ele>
        <time>2015-06-30T13:04:06Z</time>
      </trkpt>
      <trkpt lat="46.574" lon="6.0977">
        <ele>1124.88</ele>
        <time>2015-06-30T13:04:07Z</time>
      </trkpt>
      <trkpt lat="46.57402" lon="6.09772">
        <ele>1124.4</ele>
        <time>2015-06-30T13:04:08Z</time>
      </trkpt>
      <trkpt lat="46.57405" lon="6.09773">
        <ele>1124.4</ele>
        <time>2015-06-30T13:04:09Z</time>
      </trkpt>
      <trkpt lat="46.57408" lon="6.09775">
        <ele>1125.36</ele>
        <time>2015-06-30T13:04:10Z</time>
      </trkpt>
      <trkpt lat="46.57453" lon="6.09798">
        <ele>1126.8</ele>
        <time>2015-06-30T13:04:27Z</time>
      </trkpt>
      <trkpt lat="46.57481" lon="6.09817">
        <ele>1127.76</ele>
        <time>2015-06-30T13:04:42Z</time>
      </trkpt>
      <trkpt lat="46.57485" lon="6.09817">
        <ele>1127.28</ele>
        <time>2015-06-30T13:04:47Z</time>
      </trkpt>
      <trkpt lat="46.57485" lon="6.09815">
        <ele>1127.28</ele>
        <time>2015-06-30T13:04:59Z</time>
      </trkpt>
      <trkpt lat="46.57484" lon="6.09814">
        <ele>1127.28</ele>
        <time>2015-06-30T13:05:28Z</time>
      </trkpt>
      <trkpt lat="46.57484" lon="6.09811">
        <ele>1126.8</ele>
        <time>2015-06-30T13:05:35Z</time>
      </trkpt>
      <trkpt lat="46.57485" lon="6.09808">
        <ele>1126.8</ele>
        <time>2015-06-30T13:05:36Z</time>
      </trkpt>
      <trkpt lat="46.57486" lon="6.09805">
        <ele>1126.32</ele>
        <time>2015-06-30T13:05:37Z</time>
      </trkpt>
      <trkpt lat="46.57485" lon="6.09777">
        <ele>1123.44</ele>
        <time>2015-06-30T13:05:46Z</time>
      </trkpt>
      <trkpt lat="46.57484" lon="6.09774">
        <ele>1122.48</ele>
        <time>2015-06-30T13:05:48Z</time>
      </trkpt>
      <trkpt lat="46.57485" lon="6.09771">
        <ele>1122.48</ele>
        <time>2015-06-30T13:05:49Z</time>
      </trkpt>
      <trkpt lat="46.57488" lon="6.09754">
        <ele>1120.55</ele>
        <time>2015-06-30T13:05:55Z</time>
      </trkpt>
      <trkpt lat="46.57489" lon="6.0975">
        <ele>1119.59</ele>
        <time>2015-06-30T13:05:59Z</time>
      </trkpt>
      <trkpt lat="46.57489" lon="6.09748">
        <ele>1119.11</ele>
        <time>2015-06-30T13:06:00Z</time>
      </trkpt>
      <trkpt lat="46.57497" lon="6.09719">
        <ele>1115.75</ele>
        <time>2015-06-30T13:06:08Z</time>
      </trkpt>
      <trkpt lat="46.575" lon="6.09707">
        <ele>1114.31</ele>
        <time>2015-06-30T13:06:11Z</time>
      </trkpt>
      <trkpt lat="46.57503" lon="6.09696">
        <ele>1112.86</ele>
        <time>2015-06-30T13:06:14Z</time>
      </trkpt>
      <trkpt lat="46.57506" lon="6.09685">
        <ele>1111.42</ele>
        <time>2015-06-30T13:06:17Z</time>
      </trkpt>
      <trkpt lat="46.57514" lon="6.09664">
        <ele>1108.06</ele>
        <time>2015-06-30T13:06:23Z</time>
      </trkpt>
      <trkpt lat="46.57521" lon="6.09648">
        <ele>1106.61</ele>
        <time>2015-06-30T13:06:27Z</time>
      </trkpt>
      <trkpt lat="46.57529" lon="6.09633">
        <ele>1103.73</ele>
        <time>2015-06-30T13:06:32Z</time>
      </trkpt>
      <trkpt lat="46.57539" lon="6.09618">
        <ele>1100.37</ele>
        <time>2015-06-30T13:06:38Z</time>
      </trkpt>
      <trkpt lat="46.57546" lon="6.09607">
        <ele>1098.92</ele>
        <time>2015-06-30T13:06:42Z</time>
      </trkpt>
      <trkpt lat="46.57546" lon="6.09603">
        <ele>1099.4</ele>
        <time>2015-06-30T13:06:43Z</time>
      </trkpt>
      <trkpt lat="46.57542" lon="6.09546">
        <ele>1099.4</ele>
        <time>2015-06-30T13:06:55Z</time>
      </trkpt>
      <trkpt lat="46.57541" lon="6.09513">
        <ele>1098.92</ele>
        <time>2015-06-30T13:07:04Z</time>
      </trkpt>
      <trkpt lat="46.57543" lon="6.09509">
        <ele>1098.44</ele>
        <time>2015-06-30T13:07:07Z</time>
      </trkpt>
      <trkpt lat="46.57543" lon="6.09507">
        <ele>1098.92</ele>
        <time>2015-06-30T13:07:08Z</time>
      </trkpt>
      <trkpt lat="46.57543" lon="6.09504">
        <ele>1098.44</ele>
        <time>2015-06-30T13:07:09Z</time>
      </trkpt>
      <trkpt lat="46.57543" lon="6.09501">
        <ele>1098.44</ele>
        <time>2015-06-30T13:07:10Z</time>
      </trkpt>
      <trkpt lat="46.57544" lon="6.09498">
        <ele>1098.44</ele>
        <time>2015-06-30T13:07:11Z</time>
      </trkpt>
      <trkpt lat="46.57544" lon="6.09495">
        <ele>1098.92</ele>
        <time>2015-06-30T13:07:12Z</time>
      </trkpt>
      <trkpt lat="46.57545" lon="6.09492">
        <ele>1098.92</ele>
        <time>2015-06-30T13:07:13Z</time>
      </trkpt>
      <trkpt lat="46.57561" lon="6.09445">
        <ele>1098.92</ele>
        <time>2015-06-30T13:07:27Z</time>
      </trkpt>
      <trkpt lat="46.57569" lon="6.094">
        <ele>1097.96</ele>
        <time>2015-06-30T13:07:38Z</time>
      </trkpt>
      <trkpt lat="46.57568" lon="6.09399">
        <ele>1097.96</ele>
        <time>2015-06-30T13:07:39Z</time>
      </trkpt>
      <trkpt lat="46.57566" lon="6.09397">
        <ele>1097.96</ele>
        <time>2015-06-30T13:07:40Z</time>
      </trkpt>
      <trkpt lat="46.57565" lon="6.09394">
        <ele>1098.44</ele>
        <time>2015-06-30T13:07:41Z</time>
      </trkpt>
      <trkpt lat="46.57565" lon="6.09392">
        <ele>1097.96</ele>
        <time>2015-06-30T13:07:42Z</time>
      </trkpt>
      <trkpt lat="46.57566" lon="6.09389">
        <ele>1097.96</ele>
        <time>2015-06-30T13:07:43Z</time>
      </trkpt>
      <trkpt lat="46.57567" lon="6.09387">
        <ele>1097.48</ele>
        <time>2015-06-30T13:07:44Z</time>
      </trkpt>
      <trkpt lat="46.57568" lon="6.09385">
        <ele>1097.96</ele>
        <time>2015-06-30T13:07:45Z</time>
      </trkpt>
      <trkpt lat="46.57569" lon="6.09383">
        <ele>1098.44</ele>
        <time>2015-06-30T13:07:46Z</time>
      </trkpt>
      <trkpt lat="46.5757" lon="6.09381">
        <ele>1097.96</ele>
        <time>2015-06-30T13:07:47Z</time>
      </trkpt>
      <trkpt lat="46.57572" lon="6.09379">
        <ele>1097.96</ele>
        <time>2015-06-30T13:07:48Z</time>
      </trkpt>
      <trkpt lat="46.57573" lon="6.09376">
        <ele>1097.96</ele>
        <time>2015-06-30T13:07:49Z</time>
      </trkpt>
      <trkpt lat="46.57575" lon="6.09373">
        <ele>1098.44</ele>
        <time>2015-06-30T13:07:50Z</time>
      </trkpt>
      <trkpt lat="46.57582" lon="6.09351">
        <ele>1098.44</ele>
        <time>2015-06-30T13:07:59Z</time>
      </trkpt>
      <trkpt lat="46.5759" lon="6.09324">
        <ele>1098.44</ele>
        <time>2015-06-30T13:08:10Z</time>
      </trkpt>
      <trkpt lat="46.57591" lon="6.09322">
        <ele>1098.92</ele>
        <time>2015-06-30T13:08:12Z</time>
      </trkpt>
      <trkpt lat="46.5759" lon="6.09323">
        <ele>1098.92</ele>
        <time>2015-06-30T13:08:21Z</time>
      </trkpt>
      <trkpt lat="46.57591" lon="6.09324">
        <ele>1098.92</ele>
        <time>2015-06-30T13:08:27Z</time>
      </trkpt>
      <trkpt lat="46.57592" lon="6.09325">
        <ele>1098.92</ele>
        <time>2015-06-30T13:08:28Z</time>
      </trkpt>
      <trkpt lat="46.57595" lon="6.09326">
        <ele>1099.4</ele>
        <time>2015-06-30T13:08:30Z</time>
      </trkpt>
      <trkpt lat="46.57596" lon="6.09327">
        <ele>1098.92</ele>
        <time>2015-06-30T13:08:31Z</time>
      </trkpt>
      <trkpt lat="46.57615" lon="6.09341">
        <ele>1098.92</ele>
        <time>2015-06-30T13:08:42Z</time>
      </trkpt>
      <trkpt lat="46.57618" lon="6.09341">
        <ele>1099.4</ele>
        <time>2015-06-30T13:08:46Z</time>
      </trkpt>
      <trkpt lat="46.57619" lon="6.09344">
        <ele>1098.92</ele>
        <time>2015-06-30T13:08:48Z</time>
      </trkpt>
      <trkpt lat="46.57626" lon="6.09357">
        <ele>1098.92</ele>
        <time>2015-06-30T13:08:54Z</time>
      </trkpt>
      <trkpt lat="46.57651" lon="6.09387">
        <ele>1098.44</ele>
        <time>2015-06-30T13:09:07Z</time>
      </trkpt>
      <trkpt lat="46.57665" lon="6.0942">
        <ele>1099.4</ele>
        <time>2015-06-30T13:09:20Z</time>
      </trkpt>
      <trkpt lat="46.57682" lon="6.09439">
        <ele>1098.92</ele>
        <time>2015-06-30T13:09:31Z</time>
      </trkpt>
      <trkpt lat="46.57687" lon="6.09447">
        <ele>1098.92</ele>
        <time>2015-06-30T13:09:35Z</time>
      </trkpt>
      <trkpt lat="46.57701" lon="6.09463">
        <ele>1099.4</ele>
        <time>2015-06-30T13:09:46Z</time>
      </trkpt>
      <trkpt lat="46.57716" lon="6.09474">
        <ele>1099.4</ele>
        <time>2015-06-30T13:09:58Z</time>
      </trkpt>
      <trkpt lat="46.57717" lon="6.09476">
        <ele>1099.89</ele>
        <time>2015-06-30T13:10:00Z</time>
      </trkpt>
      <trkpt lat="46.5772" lon="6.09483">
        <ele>1096.04</ele>
        <time>2015-06-30T13:10:05Z</time>
      </trkpt>
      <trkpt lat="46.57721" lon="6.09484">
        <ele>1102.77</ele>
        <time>2015-06-30T13:10:06Z</time>
      </trkpt>
      <trkpt lat="46.57722" lon="6.09487">
        <ele>1099.4</ele>
        <time>2015-06-30T13:10:08Z</time>
      </trkpt>
      <trkpt lat="46.57724" lon="6.09492">
        <ele>1100.37</ele>
        <time>2015-06-30T13:10:11Z</time>
      </trkpt>
      <trkpt lat="46.57741" lon="6.09517">
        <ele>1099.89</ele>
        <time>2015-06-30T13:10:25Z</time>
      </trkpt>
      <trkpt lat="46.57749" lon="6.09526">
        <ele>1100.37</ele>
        <time>2015-06-30T13:10:31Z</time>
      </trkpt>
      <trkpt lat="46.57753" lon="6.09533">
        <ele>1100.37</ele>
        <time>2015-06-30T13:10:35Z</time>
      </trkpt>
      <trkpt lat="46.57764" lon="6.09563">
        <ele>1099.89</ele>
        <time>2015-06-30T13:10:49Z</time>
      </trkpt>
      <trkpt lat="46.57769" lon="6.09574">
        <ele>1100.37</ele>
        <time>2015-06-30T13:10:55Z</time>
      </trkpt>
      <trkpt lat="46.57772" lon="6.09578">
        <ele>1099.89</ele>
        <time>2015-06-30T13:11:11Z</time>
      </trkpt>
      <trkpt lat="46.57772" lon="6.09578">
        <ele>1099.89</ele>
        <time>2015-06-30T13:11:12Z</time>
      </trkpt>
      <trkpt lat="46.57762" lon="6.09585">
        <ele>1099.4</ele>
        <time>2015-06-30T13:11:24Z</time>
      </trkpt>
      <trkpt lat="46.57755" lon="6.09592">
        <ele>1099.4</ele>
        <time>2015-06-30T13:11:32Z</time>
      </trkpt>
      <trkpt lat="46.57745" lon="6.09593">
        <ele>1098.92</ele>
        <time>2015-06-30T13:11:43Z</time>
      </trkpt>
      <trkpt lat="46.57739" lon="6.09591">
        <ele>1098.44</ele>
        <time>2015-06-30T13:11:50Z</time>
      </trkpt>
      <trkpt lat="46.57734" lon="6.09586">
        <ele>1097.96</ele>
        <time>2015-06-30T13:12:02Z</time>
      </trkpt>
      <trkpt lat="46.57734" lon="6.09585">
        <ele>1098.44</ele>
        <time>2015-06-30T13:12:03Z</time>
      </trkpt>
      <trkpt lat="46.57735" lon="6.09584">
        <ele>1097.96</ele>
        <time>2015-06-30T13:12:17Z</time>
      </trkpt>
      <trkpt lat="46.57735" lon="6.09585">
        <ele>1097.48</ele>
        <time>2015-06-30T13:12:36Z</time>
      </trkpt>
      <trkpt lat="46.57733" lon="6.09584">
        <ele>1097</ele>
        <time>2015-06-30T13:12:48Z</time>
      </trkpt>
      <trkpt lat="46.57733" lon="6.09585">
        <ele>1097</ele>
        <time>2015-06-30T13:13:28Z</time>
      </trkpt>
      <trkpt lat="46.57733" lon="6.09586">
        <ele>1097</ele>
        <time>2015-06-30T13:14:09Z</time>
      </trkpt>
      <trkpt lat="46.57732" lon="6.09586">
        <ele>1097</ele>
        <time>2015-06-30T13:14:54Z</time>
      </trkpt>
      <trkpt lat="46.57732" lon="6.09584">
        <ele>1097</ele>
        <time>2015-06-30T13:15:37Z</time>
      </trkpt>
      <trkpt lat="46.57732" lon="6.09582">
        <ele>1097</ele>
        <time>2015-06-30T13:16:18Z</time>
      </trkpt>
      <trkpt lat="46.57731" lon="6.09583">
        <ele>1097</ele>
        <time>2015-06-30T13:17:05Z</time>
      </trkpt>
      <trkpt lat="46.57732" lon="6.09582">
        <ele>1096.52</ele>
        <time>2015-06-30T13:17:55Z</time>
      </trkpt>
      <trkpt lat="46.57732" lon="6.09582">
        <ele>1097</ele>
        <time>2015-06-30T13:18:39Z</time>
      </trkpt>
      <trkpt lat="46.57732" lon="6.09582">
        <ele>1096.52</ele>
        <time>2015-06-30T13:19:24Z</time>
      </trkpt>
      <trkpt lat="46.57732" lon="6.09582">
        <ele>1096.04</ele>
        <time>2015-06-30T13:20:07Z</time>
      </trkpt>
      <trkpt lat="46.57732" lon="6.09582">
        <ele>1096.52</ele>
        <time>2015-06-30T13:20:53Z</time>
      </trkpt>
      <trkpt lat="46.57732" lon="6.09582">
        <ele>1096.52</ele>
        <time>2015-06-30T13:21:40Z</time>
      </trkpt>
      <trkpt lat="46.57733" lon="6.09582">
        <ele>1096.52</ele>
        <time>2015-06-30T13:22:23Z</time>
      </trkpt>
      <trkpt lat="46.57731" lon="6.09581">
        <ele>1096.52</ele>
        <time>2015-06-30T13:23:09Z</time>
      </trkpt>
      <trkpt lat="46.5773" lon="6.09581">
        <ele>1096.04</ele>
        <time>2015-06-30T13:23:50Z</time>
      </trkpt>
      <trkpt lat="46.5773" lon="6.09581">
        <ele>1096.52</ele>
        <time>2015-06-30T13:24:33Z</time>
      </trkpt>
      <trkpt lat="46.5773" lon="6.09582">
        <ele>1096.04</ele>
        <time>2015-06-30T13:25:16Z</time>
      </trkpt>
      <trkpt lat="46.5773" lon="6.09582">
        <ele>1096.52</ele>
        <time>2015-06-30T13:25:57Z</time>
      </trkpt>
      <trkpt lat="46.5773" lon="6.09582">
        <ele>1096.04</ele>
        <time>2015-06-30T13:26:44Z</time>
      </trkpt>
      <trkpt lat="46.57731" lon="6.09582">
        <ele>1096.04</ele>
        <time>2015-06-30T13:27:28Z</time>
      </trkpt>
      <trkpt lat="46.57731" lon="6.09581">
        <ele>1095.56</ele>
        <time>2015-06-30T13:28:14Z</time>
      </trkpt>
      <trkpt lat="46.5773" lon="6.09582">
        <ele>1096.04</ele>
        <time>2015-06-30T13:28:54Z</time>
      </trkpt>
      <trkpt lat="46.5773" lon="6.09582">
        <ele>1096.04</ele>
        <time>2015-06-30T13:29:36Z</time>
      </trkpt>
      <trkpt lat="46.5773" lon="6.09582">
        <ele>1096.04</ele>
        <time>2015-06-30T13:30:20Z</time>
      </trkpt>
      <trkpt lat="46.57729" lon="6.09581">
        <ele>1096.04</ele>
        <time>2015-06-30T13:31:08Z</time>
      </trkpt>
      <trkpt lat="46.57729" lon="6.09581">
        <ele>1095.56</ele>
        <time>2015-06-30T13:31:50Z</time>
      </trkpt>
      <trkpt lat="46.57729" lon="6.09582">
        <ele>1096.04</ele>
        <time>2015-06-30T13:32:42Z</time>
      </trkpt>
      <trkpt lat="46.57729" lon="6.09582">
        <ele>1096.04</ele>
        <time>2015-06-30T13:33:27Z</time>
      </trkpt>
      <trkpt lat="46.5773" lon="6.09582">
        <ele>1095.56</ele>
        <time>2015-06-30T13:34:12Z</time>
      </trkpt>
      <trkpt lat="46.57731" lon="6.09583">
        <ele>1096.04</ele>
        <time>2015-06-30T13:34:53Z</time>
      </trkpt>
      <trkpt lat="46.57731" lon="6.09582">
        <ele>1096.52</ele>
        <time>2015-06-30T13:35:31Z</time>
      </trkpt>
      <trkpt lat="46.57731" lon="6.09582">
        <ele>1096.52</ele>
        <time>2015-06-30T13:36:09Z</time>
      </trkpt>
      <trkpt lat="46.57732" lon="6.09582">
        <ele>1096.52</ele>
        <time>2015-06-30T13:36:49Z</time>
      </trkpt>
      <trkpt lat="46.57732" lon="6.09581">
        <ele>1096.52</ele>
        <time>2015-06-30T13:37:29Z</time>
      </trkpt>
      <trkpt lat="46.57731" lon="6.0958">
        <ele>1096.04</ele>
        <time>2015-06-30T13:38:10Z</time>
      </trkpt>
      <trkpt lat="46.57731" lon="6.0958">
        <ele>1096.04</ele>
        <time>2015-06-30T13:38:47Z</time>
      </trkpt>
      <trkpt lat="46.57731" lon="6.09581">
        <ele>1096.04</ele>
        <time>2015-06-30T13:39:29Z</time>
      </trkpt>
      <trkpt lat="46.57731" lon="6.09581">
        <ele>1096.52</ele>
        <time>2015-06-30T13:40:11Z</time>
      </trkpt>
      <trkpt lat="46.5773" lon="6.09582">
        <ele>1096.04</ele>
        <time>2015-06-30T13:40:54Z</time>
      </trkpt>
      <trkpt lat="46.5773" lon="6.09581">
        <ele>1096.04</ele>
        <time>2015-06-30T13:41:32Z</time>
      </trkpt>
      <trkpt lat="46.5773" lon="6.09581">
        <ele>1096.52</ele>
        <time>2015-06-30T13:42:12Z</time>
      </trkpt>
      <trkpt lat="46.57731" lon="6.09581">
        <ele>1097</ele>
        <time>2015-06-30T13:42:53Z</time>
      </trkpt>
      <trkpt lat="46.5773" lon="6.09581">
        <ele>1096.52</ele>
        <time>2015-06-30T13:43:34Z</time>
      </trkpt>
      <trkpt lat="46.5773" lon="6.09581">
        <ele>1097</ele>
        <time>2015-06-30T13:44:13Z</time>
      </trkpt>
      <trkpt lat="46.5773" lon="6.09581">
        <ele>1096.52</ele>
        <time>2015-06-30T13:44:48Z</time>
      </trkpt>
      <trkpt lat="46.5773" lon="6.09582">
        <ele>1097</ele>
        <time>2015-06-30T13:45:34Z</time>
      </trkpt>
      <trkpt lat="46.5773" lon="6.09582">
        <ele>1097</ele>
        <time>2015-06-30T13:46:18Z</time>
      </trkpt>
      <trkpt lat="46.5773" lon="6.09583">
        <ele>1096.52</ele>
        <time>2015-06-30T13:47:03Z</time>
      </trkpt>
      <trkpt lat="46.5773" lon="6.09583">
        <ele>1097</ele>
        <time>2015-06-30T13:47:48Z</time>
      </trkpt>
      <trkpt lat="46.5773" lon="6.09581">
        <ele>1097.48</ele>
        <time>2015-06-30T13:48:28Z</time>
      </trkpt>
      <trkpt lat="46.57731" lon="6.09581">
        <ele>1097.48</ele>
        <time>2015-06-30T13:49:05Z</time>
      </trkpt>
      <trkpt lat="46.57731" lon="6.09582">
        <ele>1097.96</ele>
        <time>2015-06-30T13:49:43Z</time>
      </trkpt>
      <trkpt lat="46.57731" lon="6.09583">
        <ele>1097.48</ele>
        <time>2015-06-30T13:50:21Z</time>
      </trkpt>
      <trkpt lat="46.57731" lon="6.09583">
        <ele>1097.96</ele>
        <time>2015-06-30T13:50:59Z</time>
      </trkpt>
      <trkpt lat="46.57731" lon="6.09583">
        <ele>1097.96</ele>
        <time>2015-06-30T13:51:34Z</time>
      </trkpt>
      <trkpt lat="46.57731" lon="6.09583">
        <ele>1098.44</ele>
        <time>2015-06-30T13:52:11Z</time>
      </trkpt>
      <trkpt lat="46.57731" lon="6.09582">
        <ele>1097.96</ele>
        <time>2015-06-30T13:52:45Z</time>
      </trkpt>
      <trkpt lat="46.5773" lon="6.09582">
        <ele>1098.44</ele>
        <time>2015-06-30T13:53:22Z</time>
      </trkpt>
      <trkpt lat="46.5773" lon="6.09582">
        <ele>1098.44</ele>
        <time>2015-06-30T13:54:03Z</time>
      </trkpt>
      <trkpt lat="46.5773" lon="6.09582">
        <ele>1097.96</ele>
        <time>2015-06-30T13:54:39Z</time>
      </trkpt>
      <trkpt lat="46.57731" lon="6.09582">
        <ele>1098.44</ele>
        <time>2015-06-30T13:55:16Z</time>
      </trkpt>
      <trkpt lat="46.57731" lon="6.09582">
        <ele>1098.92</ele>
        <time>2015-06-30T13:55:55Z</time>
      </trkpt>
      <trkpt lat="46.5773" lon="6.09583">
        <ele>1098.44</ele>
        <time>2015-06-30T13:56:36Z</time>
      </trkpt>
      <trkpt lat="46.57731" lon="6.09583">
        <ele>1098.44</ele>
        <time>2015-06-30T13:57:13Z</time>
      </trkpt>
      <trkpt lat="46.5773" lon="6.09581">
        <ele>1098.92</ele>
        <time>2015-06-30T13:57:50Z</time>
      </trkpt>
      <trkpt lat="46.57731" lon="6.09581">
        <ele>1098.92</ele>
        <time>2015-06-30T13:58:28Z</time>
      </trkpt>
      <trkpt lat="46.57731" lon="6.09582">
        <ele>1099.4</ele>
        <time>2015-06-30T13:59:05Z</time>
      </trkpt>
      <trkpt lat="46.57731" lon="6.09583">
        <ele>1099.4</ele>
        <time>2015-06-30T13:59:39Z</time>
      </trkpt>
      <trkpt lat="46.57731" lon="6.09581">
        <ele>1099.4</ele>
        <time>2015-06-30T14:00:18Z</time>
      </trkpt>
      <trkpt lat="46.5773" lon="6.09581">
        <ele>1099.4</ele>
        <time>2015-06-30T14:01:01Z</time>
      </trkpt>
      <trkpt lat="46.57731" lon="6.09582">
        <ele>1099.4</ele>
        <time>2015-06-30T14:01:38Z</time>
      </trkpt>
      <trkpt lat="46.57731" lon="6.09583">
        <ele>1099.4</ele>
        <time>2015-06-30T14:02:19Z</time>
      </trkpt>
      <trkpt lat="46.5773" lon="6.09582">
        <ele>1099.89</ele>
        <time>2015-06-30T14:02:55Z</time>
      </trkpt>
      <trkpt lat="46.57731" lon="6.09583">
        <ele>1100.37</ele>
        <time>2015-06-30T14:03:35Z</time>
      </trkpt>
      <trkpt lat="46.57731" lon="6.09583">
        <ele>1099.89</ele>
        <time>2015-06-30T14:04:16Z</time>
      </trkpt>
      <trkpt lat="46.57731" lon="6.09582">
        <ele>1099.89</ele>
        <time>2015-06-30T14:04:59Z</time>
      </trkpt>
      <trkpt lat="46.57732" lon="6.09583">
        <ele>1099.89</ele>
        <time>2015-06-30T14:05:43Z</time>
      </trkpt>
      <trkpt lat="46.57731" lon="6.09584">
        <ele>1099.4</ele>
        <time>2015-06-30T14:06:27Z</time>
      </trkpt>
      <trkpt lat="46.57732" lon="6.09584">
        <ele>1099.89</ele>
        <time>2015-06-30T14:07:11Z</time>
      </trkpt>
      <trkpt lat="46.57731" lon="6.09584">
        <ele>1100.37</ele>
        <time>2015-06-30T14:07:53Z</time>
      </trkpt>
      <trkpt lat="46.57732" lon="6.09582">
        <ele>1100.37</ele>
        <time>2015-06-30T14:08:33Z</time>
      </trkpt>
      <trkpt lat="46.57731" lon="6.09582">
        <ele>1099.89</ele>
        <time>2015-06-30T14:09:20Z</time>
      </trkpt>
      <trkpt lat="46.57732" lon="6.09583">
        <ele>1099.89</ele>
        <time>2015-06-30T14:10:06Z</time>
      </trkpt>
      <trkpt lat="46.57731" lon="6.09583">
        <ele>1099.89</ele>
        <time>2015-06-30T14:10:51Z</time>
      </trkpt>
      <trkpt lat="46.57732" lon="6.09583">
        <ele>1100.37</ele>
        <time>2015-06-30T14:11:34Z</time>
      </trkpt>
      <trkpt lat="46.57731" lon="6.09582">
        <ele>1099.89</ele>
        <time>2015-06-30T14:12:19Z</time>
      </trkpt>
      <trkpt lat="46.57731" lon="6.09583">
        <ele>1099.89</ele>
        <time>2015-06-30T14:13:04Z</time>
      </trkpt>
      <trkpt lat="46.5773" lon="6.09582">
        <ele>1100.37</ele>
        <time>2015-06-30T14:13:44Z</time>
      </trkpt>
      <trkpt lat="46.57731" lon="6.09582">
        <ele>1099.89</ele>
        <time>2015-06-30T14:14:29Z</time>
      </trkpt>
      <trkpt lat="46.57732" lon="6.09581">
        <ele>1099.89</ele>
        <time>2015-06-30T14:15:13Z</time>
      </trkpt>
      <trkpt lat="46.57731" lon="6.09581">
        <ele>1099.89</ele>
        <time>2015-06-30T14:15:59Z</time>
      </trkpt>
      <trkpt lat="46.5773" lon="6.09582">
        <ele>1099.4</ele>
        <time>2015-06-30T14:16:44Z</time>
      </trkpt>
      <trkpt lat="46.5773" lon="6.09582">
        <ele>1099.4</ele>
        <time>2015-06-30T14:17:33Z</time>
      </trkpt>
      <trkpt lat="46.5773" lon="6.09581">
        <ele>1098.92</ele>
        <time>2015-06-30T14:18:13Z</time>
      </trkpt>
      <trkpt lat="46.5773" lon="6.09582">
        <ele>1098.44</ele>
        <time>2015-06-30T14:19:04Z</time>
      </trkpt>
      <trkpt lat="46.5773" lon="6.09583">
        <ele>1098.92</ele>
        <time>2015-06-30T14:19:48Z</time>
      </trkpt>
      <trkpt lat="46.57731" lon="6.09581">
        <ele>1098.92</ele>
        <time>2015-06-30T14:20:33Z</time>
      </trkpt>
      <trkpt lat="46.5773" lon="6.0958">
        <ele>1098.44</ele>
        <time>2015-06-30T14:21:15Z</time>
      </trkpt>
      <trkpt lat="46.5773" lon="6.09581">
        <ele>1098.44</ele>
        <time>2015-06-30T14:22:02Z</time>
      </trkpt>
      <trkpt lat="46.57731" lon="6.09581">
        <ele>1098.44</ele>
        <time>2015-06-30T14:22:45Z</time>
      </trkpt>
      <trkpt lat="46.5773" lon="6.09581">
        <ele>1098.92</ele>
        <time>2015-06-30T14:23:30Z</time>
      </trkpt>
      <trkpt lat="46.5773" lon="6.09581">
        <ele>1098.92</ele>
        <time>2015-06-30T14:24:11Z</time>
      </trkpt>
      <trkpt lat="46.5773" lon="6.09581">
        <ele>1098.92</ele>
        <time>2015-06-30T14:24:49Z</time>
      </trkpt>
      <trkpt lat="46.57731" lon="6.09581">
        <ele>1098.92</ele>
        <time>2015-06-30T14:25:33Z</time>
      </trkpt>
      <trkpt lat="46.57731" lon="6.0958">
        <ele>1098.92</ele>
        <time>2015-06-30T14:26:15Z</time>
      </trkpt>
      <trkpt lat="46.57731" lon="6.0958">
        <ele>1098.92</ele>
        <time>2015-06-30T14:26:57Z</time>
      </trkpt>
      <trkpt lat="46.57731" lon="6.0958">
        <ele>1098.92</ele>
        <time>2015-06-30T14:27:43Z</time>
      </trkpt>
      <trkpt lat="46.57731" lon="6.09581">
        <ele>1098.44</ele>
        <time>2015-06-30T14:28:25Z</time>
      </trkpt>
      <trkpt lat="46.5773" lon="6.0958">
        <ele>1098.92</ele>
        <time>2015-06-30T14:29:09Z</time>
      </trkpt>
      <trkpt lat="46.5773" lon="6.09581">
        <ele>1098.44</ele>
        <time>2015-06-30T14:29:53Z</time>
      </trkpt>
      <trkpt lat="46.57731" lon="6.09581">
        <ele>1098.92</ele>
        <time>2015-06-30T14:30:34Z</time>
      </trkpt>
      <trkpt lat="46.57731" lon="6.09581">
        <ele>1098.92</ele>
        <time>2015-06-30T14:31:16Z</time>
      </trkpt>
      <trkpt lat="46.57731" lon="6.09581">
        <ele>1098.44</ele>
        <time>2015-06-30T14:31:58Z</time>
      </trkpt>
      <trkpt lat="46.57732" lon="6.09581">
        <ele>1098.44</ele>
        <time>2015-06-30T14:32:37Z</time>
      </trkpt>
      <trkpt lat="46.57732" lon="6.09581">
        <ele>1098.92</ele>
        <time>2015-06-30T14:33:18Z</time>
      </trkpt>
      <trkpt lat="46.57732" lon="6.09581">
        <ele>1098.92</ele>
        <time>2015-06-30T14:34:03Z</time>
      </trkpt>
      <trkpt lat="46.57732" lon="6.09581">
        <ele>1098.92</ele>
        <time>2015-06-30T14:34:42Z</time>
      </trkpt>
      <trkpt lat="46.57732" lon="6.09581">
        <ele>1098.92</ele>
        <time>2015-06-30T14:35:24Z</time>
      </trkpt>
      <trkpt lat="46.57731" lon="6.09582">
        <ele>1098.92</ele>
        <time>2015-06-30T14:36:01Z</time>
      </trkpt>
      <trkpt lat="46.57734" lon="6.09583">
        <ele>1099.4</ele>
        <time>2015-06-30T14:36:18Z</time>
      </trkpt>
      <trkpt lat="46.57735" lon="6.09588">
        <ele>1099.89</ele>
        <time>2015-06-30T14:36:31Z</time>
      </trkpt>
      <trkpt lat="46.57742" lon="6.09591">
        <ele>1100.37</ele>
        <time>2015-06-30T14:36:39Z</time>
      </trkpt>
      <trkpt lat="46.57753" lon="6.09593">
        <ele>1100.37</ele>
        <time>2015-06-30T14:36:54Z</time>
      </trkpt>
      <trkpt lat="46.57761" lon="6.09586">
        <ele>1100.37</ele>
        <time>2015-06-30T14:37:07Z</time>
      </trkpt>
      <trkpt lat="46.57769" lon="6.09586">
        <ele>1100.85</ele>
        <time>2015-06-30T14:37:20Z</time>
      </trkpt>
      <trkpt lat="46.57773" lon="6.0959">
        <ele>1100.85</ele>
        <time>2015-06-30T14:37:33Z</time>
      </trkpt>
      <trkpt lat="46.57775" lon="6.09592">
        <ele>1100.85</ele>
        <time>2015-06-30T14:37:47Z</time>
      </trkpt>
      <trkpt lat="46.57775" lon="6.09592">
        <ele>1101.33</ele>
        <time>2015-06-30T14:37:54Z</time>
      </trkpt>
      <trkpt lat="46.57775" lon="6.09599">
        <ele>1101.33</ele>
        <time>2015-06-30T14:37:59Z</time>
      </trkpt>
      <trkpt lat="46.57775" lon="6.09614">
        <ele>1100.85</ele>
        <time>2015-06-30T14:38:10Z</time>
      </trkpt>
      <trkpt lat="46.57779" lon="6.09622">
        <ele>1101.33</ele>
        <time>2015-06-30T14:38:20Z</time>
      </trkpt>
      <trkpt lat="46.57779" lon="6.09623">
        <ele>1101.33</ele>
        <time>2015-06-30T14:38:26Z</time>
      </trkpt>
      <trkpt lat="46.57782" lon="6.09633">
        <ele>1100.85</ele>
        <time>2015-06-30T14:38:33Z</time>
      </trkpt>
      <trkpt lat="46.57787" lon="6.09636">
        <ele>1100.85</ele>
        <time>2015-06-30T14:38:37Z</time>
      </trkpt>
      <trkpt lat="46.57789" lon="6.0964">
        <ele>1100.85</ele>
        <time>2015-06-30T14:38:48Z</time>
      </trkpt>
      <trkpt lat="46.57789" lon="6.09639">
        <ele>1100.37</ele>
        <time>2015-06-30T14:39:09Z</time>
      </trkpt>
      <trkpt lat="46.57795" lon="6.09639">
        <ele>1100.85</ele>
        <time>2015-06-30T14:39:22Z</time>
      </trkpt>
      <trkpt lat="46.57798" lon="6.09643">
        <ele>1100.85</ele>
        <time>2015-06-30T14:39:35Z</time>
      </trkpt>
      <trkpt lat="46.57802" lon="6.09649">
        <ele>1100.85</ele>
        <time>2015-06-30T14:39:45Z</time>
      </trkpt>
      <trkpt lat="46.57808" lon="6.09654">
        <ele>1100.37</ele>
        <time>2015-06-30T14:39:57Z</time>
      </trkpt>
      <trkpt lat="46.57809" lon="6.09659">
        <ele>1100.85</ele>
        <time>2015-06-30T14:40:03Z</time>
      </trkpt>
      <trkpt lat="46.57811" lon="6.09668">
        <ele>1100.37</ele>
        <time>2015-06-30T14:40:11Z</time>
      </trkpt>
      <trkpt lat="46.5782" lon="6.09679">
        <ele>1100.37</ele>
        <time>2015-06-30T14:40:22Z</time>
      </trkpt>
      <trkpt lat="46.57829" lon="6.0969">
        <ele>1100.37</ele>
        <time>2015-06-30T14:40:35Z</time>
      </trkpt>
      <trkpt lat="46.57838" lon="6.09696">
        <ele>1099.89</ele>
        <time>2015-06-30T14:40:47Z</time>
      </trkpt>
      <trkpt lat="46.57845" lon="6.09699">
        <ele>1099.4</ele>
        <time>2015-06-30T14:41:00Z</time>
      </trkpt>
      <trkpt lat="46.57846" lon="6.09702">
        <ele>1099.89</ele>
        <time>2015-06-30T14:41:16Z</time>
      </trkpt>
      <trkpt lat="46.57861" lon="6.09741">
        <ele>1100.37</ele>
        <time>2015-06-30T14:41:31Z</time>
      </trkpt>
      <trkpt lat="46.57883" lon="6.09768">
        <ele>1099.89</ele>
        <time>2015-06-30T14:41:46Z</time>
      </trkpt>
      <trkpt lat="46.57904" lon="6.09794">
        <ele>1100.37</ele>
        <time>2015-06-30T14:42:01Z</time>
      </trkpt>
      <trkpt lat="46.57923" lon="6.09821">
        <ele>1100.85</ele>
        <time>2015-06-30T14:42:15Z</time>
      </trkpt>
      <trkpt lat="46.57944" lon="6.09845">
        <ele>1102.29</ele>
        <time>2015-06-30T14:42:30Z</time>
      </trkpt>
      <trkpt lat="46.57973" lon="6.0988">
        <ele>1101.33</ele>
        <time>2015-06-30T14:42:47Z</time>
      </trkpt>
      <trkpt lat="46.57987" lon="6.09911">
        <ele>1100.85</ele>
        <time>2015-06-30T14:42:59Z</time>
      </trkpt>
      <trkpt lat="46.57989" lon="6.09914">
        <ele>1100.85</ele>
        <time>2015-06-30T14:43:00Z</time>
      </trkpt>
      <trkpt lat="46.58017" lon="6.09932">
        <ele>1100.37</ele>
        <time>2015-06-30T14:43:13Z</time>
      </trkpt>
      <trkpt lat="46.58047" lon="6.09919">
        <ele>1100.85</ele>
        <time>2015-06-30T14:43:27Z</time>
      </trkpt>
      <trkpt lat="46.58089" lon="6.099">
        <ele>1100.85</ele>
        <time>2015-06-30T14:43:44Z</time>
      </trkpt>
      <trkpt lat="46.58112" lon="6.09892">
        <ele>1099.4</ele>
        <time>2015-06-30T14:43:51Z</time>
      </trkpt>
      <trkpt lat="46.58115" lon="6.0989">
        <ele>1099.89</ele>
        <time>2015-06-30T14:43:52Z</time>
      </trkpt>
      <trkpt lat="46.58146" lon="6.09871">
        <ele>1099.89</ele>
        <time>2015-06-30T14:44:04Z</time>
      </trkpt>
      <trkpt lat="46.58166" lon="6.09833">
        <ele>1100.85</ele>
        <time>2015-06-30T14:44:16Z</time>
      </trkpt>
      <trkpt lat="46.58181" lon="6.09816">
        <ele>1100.85</ele>
        <time>2015-06-30T14:44:25Z</time>
      </trkpt>
      <trkpt lat="46.58183" lon="6.09817">
        <ele>1100.85</ele>
        <time>2015-06-30T14:44:26Z</time>
      </trkpt>
      <trkpt lat="46.58185" lon="6.09817">
        <ele>1099.4</ele>
        <time>2015-06-30T14:44:27Z</time>
      </trkpt>
      <trkpt lat="46.58186" lon="6.09818">
        <ele>1098.44</ele>
        <time>2015-06-30T14:44:28Z</time>
      </trkpt>
      <trkpt lat="46.58187" lon="6.09819">
        <ele>1102.77</ele>
        <time>2015-06-30T14:44:29Z</time>
      </trkpt>
      <trkpt lat="46.58188" lon="6.09819">
        <ele>1101.33</ele>
        <time>2015-06-30T14:44:30Z</time>
      </trkpt>
      <trkpt lat="46.58187" lon="6.0982">
        <ele>1100.85</ele>
        <time>2015-06-30T14:44:55Z</time>
      </trkpt>
      <trkpt lat="46.58188" lon="6.09821">
        <ele>1111.9</ele>
        <time>2015-06-30T14:45:03Z</time>
      </trkpt>
      <trkpt lat="46.58188" lon="6.09821">
        <ele>1101.81</ele>
        <time>2015-06-30T14:45:04Z</time>
      </trkpt>
      <trkpt lat="46.58189" lon="6.09821">
        <ele>1101.33</ele>
        <time>2015-06-30T14:45:06Z</time>
      </trkpt>
      <trkpt lat="46.58191" lon="6.09823">
        <ele>1101.33</ele>
        <time>2015-06-30T14:45:08Z</time>
      </trkpt>
      <trkpt lat="46.58213" lon="6.09828">
        <ele>1102.29</ele>
        <time>2015-06-30T14:45:21Z</time>
      </trkpt>
      <trkpt lat="46.58218" lon="6.09829">
        <ele>1102.29</ele>
        <time>2015-06-30T14:45:24Z</time>
      </trkpt>
      <trkpt lat="46.58219" lon="6.09837">
        <ele>1102.77</ele>
        <time>2015-06-30T14:45:28Z</time>
      </trkpt>
      <trkpt lat="46.58217" lon="6.09865">
        <ele>1103.73</ele>
        <time>2015-06-30T14:45:41Z</time>
      </trkpt>
      <trkpt lat="46.58216" lon="6.09881">
        <ele>1104.69</ele>
        <time>2015-06-30T14:45:48Z</time>
      </trkpt>
      <trkpt lat="46.58216" lon="6.09887">
        <ele>1104.69</ele>
        <time>2015-06-30T14:45:57Z</time>
      </trkpt>
      <trkpt lat="46.58216" lon="6.0988">
        <ele>1104.21</ele>
        <time>2015-06-30T14:46:01Z</time>
      </trkpt>
      <trkpt lat="46.58218" lon="6.09845">
        <ele>1103.25</ele>
        <time>2015-06-30T14:46:13Z</time>
      </trkpt>
      <trkpt lat="46.58218" lon="6.09793">
        <ele>1102.29</ele>
        <time>2015-06-30T14:46:25Z</time>
      </trkpt>
      <trkpt lat="46.58219" lon="6.09742">
        <ele>1101.33</ele>
        <time>2015-06-30T14:46:37Z</time>
      </trkpt>
      <trkpt lat="46.58221" lon="6.09692">
        <ele>1101.33</ele>
        <time>2015-06-30T14:46:51Z</time>
      </trkpt>
      <trkpt lat="46.58229" lon="6.09652">
        <ele>1101.33</ele>
        <time>2015-06-30T14:47:02Z</time>
      </trkpt>
      <trkpt lat="46.58239" lon="6.09646">
        <ele>1102.77</ele>
        <time>2015-06-30T14:47:08Z</time>
      </trkpt>
      <trkpt lat="46.58264" lon="6.09627">
        <ele>1104.21</ele>
        <time>2015-06-30T14:47:24Z</time>
      </trkpt>
      <trkpt lat="46.58284" lon="6.09604">
        <ele>1104.21</ele>
        <time>2015-06-30T14:47:39Z</time>
      </trkpt>
      <trkpt lat="46.58291" lon="6.0959">
        <ele>1104.21</ele>
        <time>2015-06-30T14:47:52Z</time>
      </trkpt>
      <trkpt lat="46.58293" lon="6.09589">
        <ele>1103.73</ele>
        <time>2015-06-30T14:47:55Z</time>
      </trkpt>
      <trkpt lat="46.58313" lon="6.09587">
        <ele>1104.21</ele>
        <time>2015-06-30T14:48:11Z</time>
      </trkpt>
      <trkpt lat="46.58335" lon="6.09594">
        <ele>1105.65</ele>
        <time>2015-06-30T14:48:29Z</time>
      </trkpt>
      <trkpt lat="46.58355" lon="6.09592">
        <ele>1107.58</ele>
        <time>2015-06-30T14:48:48Z</time>
      </trkpt>
      <trkpt lat="46.5837" lon="6.09579">
        <ele>1109.5</ele>
        <time>2015-06-30T14:49:04Z</time>
      </trkpt>
      <trkpt lat="46.58372" lon="6.09578">
        <ele>1109.5</ele>
        <time>2015-06-30T14:49:06Z</time>
      </trkpt>
      <trkpt lat="46.58379" lon="6.09577">
        <ele>1109.5</ele>
        <time>2015-06-30T14:49:18Z</time>
      </trkpt>
      <trkpt lat="46.58383" lon="6.09584">
        <ele>1109.5</ele>
        <time>2015-06-30T14:49:22Z</time>
      </trkpt>
      <trkpt lat="46.58388" lon="6.09591">
        <ele>1109.98</ele>
        <time>2015-06-30T14:49:25Z</time>
      </trkpt>
      <trkpt lat="46.58403" lon="6.09618">
        <ele>1111.42</ele>
        <time>2015-06-30T14:49:37Z</time>
      </trkpt>
      <trkpt lat="46.58427" lon="6.09662">
        <ele>1113.34</ele>
        <time>2015-06-30T14:49:54Z</time>
      </trkpt>
      <trkpt lat="46.58447" lon="6.09705">
        <ele>1115.75</ele>
        <time>2015-06-30T14:50:09Z</time>
      </trkpt>
      <trkpt lat="46.58471" lon="6.09759">
        <ele>1117.67</ele>
        <time>2015-06-30T14:50:26Z</time>
      </trkpt>
      <trkpt lat="46.58502" lon="6.09829">
        <ele>1120.07</ele>
        <time>2015-06-30T14:50:45Z</time>
      </trkpt>
      <trkpt lat="46.58535" lon="6.09908">
        <ele>1121.03</ele>
        <time>2015-06-30T14:51:03Z</time>
      </trkpt>
      <trkpt lat="46.5857" lon="6.09999">
        <ele>1119.59</ele>
        <time>2015-06-30T14:51:17Z</time>
      </trkpt>
      <trkpt lat="46.58607" lon="6.10105">
        <ele>1116.71</ele>
        <time>2015-06-30T14:51:28Z</time>
      </trkpt>
      <trkpt lat="46.58615" lon="6.10127">
        <ele>1115.75</ele>
        <time>2015-06-30T14:51:30Z</time>
      </trkpt>
      <trkpt lat="46.58668" lon="6.10256">
        <ele>1113.34</ele>
        <time>2015-06-30T14:51:42Z</time>
      </trkpt>
      <trkpt lat="46.58675" lon="6.10264">
        <ele>1113.34</ele>
        <time>2015-06-30T14:51:43Z</time>
      </trkpt>
      <trkpt lat="46.58681" lon="6.1027">
        <ele>1113.34</ele>
        <time>2015-06-30T14:51:44Z</time>
      </trkpt>
      <trkpt lat="46.58745" lon="6.10325">
        <ele>1110.46</ele>
        <time>2015-06-30T14:51:52Z</time>
      </trkpt>
      <trkpt lat="46.5879" lon="6.10362">
        <ele>1107.1</ele>
        <time>2015-06-30T14:51:57Z</time>
      </trkpt>
      <trkpt lat="46.5883" lon="6.10385">
        <ele>1105.17</ele>
        <time>2015-06-30T14:52:01Z</time>
      </trkpt>
      <trkpt lat="46.58943" lon="6.1043">
        <ele>1103.25</ele>
        <time>2015-06-30T14:52:13Z</time>
      </trkpt>
      <trkpt lat="46.58958" lon="6.10442">
        <ele>1102.77</ele>
        <time>2015-06-30T14:52:15Z</time>
      </trkpt>
      <trkpt lat="46.59068" lon="6.10537">
        <ele>1098.92</ele>
        <time>2015-06-30T14:52:29Z</time>
      </trkpt>
      <trkpt lat="46.59169" lon="6.10597">
        <ele>1098.44</ele>
        <time>2015-06-30T14:52:43Z</time>
      </trkpt>
      <trkpt lat="46.59293" lon="6.10687">
        <ele>1096.04</ele>
        <time>2015-06-30T14:53:03Z</time>
      </trkpt>
      <trkpt lat="46.59323" lon="6.10709">
        <ele>1094.12</ele>
        <time>2015-06-30T14:53:07Z</time>
      </trkpt>
      <trkpt lat="46.59364" lon="6.10741">
        <ele>1090.75</ele>
        <time>2015-06-30T14:53:12Z</time>
      </trkpt>
      <trkpt lat="46.59372" lon="6.10749">
        <ele>1090.75</ele>
        <time>2015-06-30T14:53:13Z</time>
      </trkpt>
      <trkpt lat="46.59449" lon="6.10858">
        <ele>1088.35</ele>
        <time>2015-06-30T14:53:25Z</time>
      </trkpt>
      <trkpt lat="46.59501" lon="6.10922">
        <ele>1085.47</ele>
        <time>2015-06-30T14:53:33Z</time>
      </trkpt>
      <trkpt lat="46.59508" lon="6.1093">
        <ele>1084.99</ele>
        <time>2015-06-30T14:53:34Z</time>
      </trkpt>
      <trkpt lat="46.59612" lon="6.11038">
        <ele>1082.58</ele>
        <time>2015-06-30T14:53:49Z</time>
      </trkpt>
      <trkpt lat="46.59684" lon="6.11152">
        <ele>1082.58</ele>
        <time>2015-06-30T14:54:04Z</time>
      </trkpt>
      <trkpt lat="46.59708" lon="6.11219">
        <ele>1085.95</ele>
        <time>2015-06-30T14:54:15Z</time>
      </trkpt>
      <trkpt lat="46.59726" lon="6.11278">
        <ele>1089.31</ele>
        <time>2015-06-30T14:54:29Z</time>
      </trkpt>
      <trkpt lat="46.59741" lon="6.1133">
        <ele>1091.71</ele>
        <time>2015-06-30T14:54:46Z</time>
      </trkpt>
      <trkpt lat="46.59751" lon="6.11347">
        <ele>1093.16</ele>
        <time>2015-06-30T14:55:01Z</time>
      </trkpt>
      <trkpt lat="46.59752" lon="6.11346">
        <ele>1092.2</ele>
        <time>2015-06-30T14:55:22Z</time>
      </trkpt>
      <trkpt lat="46.59752" lon="6.11344">
        <ele>1092.68</ele>
        <time>2015-06-30T14:55:50Z</time>
      </trkpt>
      <trkpt lat="46.59752" lon="6.11345">
        <ele>1092.2</ele>
        <time>2015-06-30T14:56:19Z</time>
      </trkpt>
      <trkpt lat="46.59751" lon="6.11344">
        <ele>1092.68</ele>
        <time>2015-06-30T14:56:51Z</time>
      </trkpt>
      <trkpt lat="46.59752" lon="6.11344">
        <ele>1092.2</ele>
        <time>2015-06-30T14:57:21Z</time>
      </trkpt>
      <trkpt lat="46.59751" lon="6.11344">
        <ele>1092.2</ele>
        <time>2015-06-30T14:57:54Z</time>
      </trkpt>
      <trkpt lat="46.59751" lon="6.11342">
        <ele>1092.2</ele>
        <time>2015-06-30T14:58:27Z</time>
      </trkpt>
      <trkpt lat="46.59751" lon="6.11342">
        <ele>1092.2</ele>
        <time>2015-06-30T14:58:59Z</time>
      </trkpt>
      <trkpt lat="46.5975" lon="6.11342">
        <ele>1092.2</ele>
        <time>2015-06-30T14:59:35Z</time>
      </trkpt>
      <trkpt lat="46.5975" lon="6.1134">
        <ele>1091.23</ele>
        <time>2015-06-30T15:00:01Z</time>
      </trkpt>
      <trkpt lat="46.59751" lon="6.11336">
        <ele>1091.71</ele>
        <time>2015-06-30T15:00:37Z</time>
      </trkpt>
      <trkpt lat="46.59751" lon="6.11336">
        <ele>1091.23</ele>
        <time>2015-06-30T15:01:08Z</time>
      </trkpt>
      <trkpt lat="46.59751" lon="6.11336">
        <ele>1091.71</ele>
        <time>2015-06-30T15:01:39Z</time>
      </trkpt>
      <trkpt lat="46.59756" lon="6.1134">
        <ele>1091.71</ele>
        <time>2015-06-30T15:01:54Z</time>
      </trkpt>
      <trkpt lat="46.59759" lon="6.11346">
        <ele>1091.71</ele>
        <time>2015-06-30T15:01:57Z</time>
      </trkpt>
      <trkpt lat="46.5976" lon="6.11348">
        <ele>1091.71</ele>
        <time>2015-06-30T15:01:58Z</time>
      </trkpt>
      <trkpt lat="46.59761" lon="6.11351">
        <ele>1092.2</ele>
        <time>2015-06-30T15:01:59Z</time>
      </trkpt>
      <trkpt lat="46.59787" lon="6.114">
        <ele>1094.12</ele>
        <time>2015-06-30T15:02:16Z</time>
      </trkpt>
      <trkpt lat="46.59814" lon="6.1141">
        <ele>1093.64</ele>
        <time>2015-06-30T15:02:26Z</time>
      </trkpt>
      <trkpt lat="46.59828" lon="6.11401">
        <ele>1093.16</ele>
        <time>2015-06-30T15:02:30Z</time>
      </trkpt>
      <trkpt lat="46.59833" lon="6.114">
        <ele>1092.68</ele>
        <time>2015-06-30T15:02:31Z</time>
      </trkpt>
      <trkpt lat="46.59907" lon="6.11398">
        <ele>1090.75</ele>
        <time>2015-06-30T15:02:44Z</time>
      </trkpt>
      <trkpt lat="46.59912" lon="6.114">
        <ele>1090.75</ele>
        <time>2015-06-30T15:02:45Z</time>
      </trkpt>
      <trkpt lat="46.59918" lon="6.11402">
        <ele>1090.75</ele>
        <time>2015-06-30T15:02:46Z</time>
      </trkpt>
      <trkpt lat="46.59948" lon="6.11425">
        <ele>1090.27</ele>
        <time>2015-06-30T15:02:52Z</time>
      </trkpt>
      <trkpt lat="46.59981" lon="6.11445">
        <ele>1090.27</ele>
        <time>2015-06-30T15:02:59Z</time>
      </trkpt>
      <trkpt lat="46.60068" lon="6.11465">
        <ele>1087.87</ele>
        <time>2015-06-30T15:03:12Z</time>
      </trkpt>
      <trkpt lat="46.60114" lon="6.11453">
        <ele>1088.35</ele>
        <time>2015-06-30T15:03:19Z</time>
      </trkpt>
      <trkpt lat="46.60121" lon="6.11449">
        <ele>1089.31</ele>
        <time>2015-06-30T15:03:20Z</time>
      </trkpt>
      <trkpt lat="46.6017" lon="6.11415">
        <ele>1091.71</ele>
        <time>2015-06-30T15:03:27Z</time>
      </trkpt>
      <trkpt lat="46.60175" lon="6.11409">
        <ele>1091.71</ele>
        <time>2015-06-30T15:03:28Z</time>
      </trkpt>
      <trkpt lat="46.60189" lon="6.11388">
        <ele>1091.23</ele>
        <time>2015-06-30T15:03:31Z</time>
      </trkpt>
      <trkpt lat="46.6019" lon="6.11379">
        <ele>1091.23</ele>
        <time>2015-06-30T15:03:32Z</time>
      </trkpt>
      <trkpt lat="46.60189" lon="6.1137">
        <ele>1090.75</ele>
        <time>2015-06-30T15:03:33Z</time>
      </trkpt>
      <trkpt lat="46.60186" lon="6.1135">
        <ele>1090.27</ele>
        <time>2015-06-30T15:03:35Z</time>
      </trkpt>
      <trkpt lat="46.60182" lon="6.1133">
        <ele>1089.31</ele>
        <time>2015-06-30T15:03:37Z</time>
      </trkpt>
      <trkpt lat="46.60179" lon="6.11322">
        <ele>1089.31</ele>
        <time>2015-06-30T15:03:38Z</time>
      </trkpt>
      <trkpt lat="46.60174" lon="6.11318">
        <ele>1088.35</ele>
        <time>2015-06-30T15:03:39Z</time>
      </trkpt>
      <trkpt lat="46.60168" lon="6.11319">
        <ele>1088.35</ele>
        <time>2015-06-30T15:03:40Z</time>
      </trkpt>
      <trkpt lat="46.60163" lon="6.11322">
        <ele>1088.35</ele>
        <time>2015-06-30T15:03:41Z</time>
      </trkpt>
      <trkpt lat="46.60158" lon="6.11325">
        <ele>1088.35</ele>
        <time>2015-06-30T15:03:42Z</time>
      </trkpt>
      <trkpt lat="46.60155" lon="6.11331">
        <ele>1087.87</ele>
        <time>2015-06-30T15:03:43Z</time>
      </trkpt>
      <trkpt lat="46.60154" lon="6.11336">
        <ele>1087.39</ele>
        <time>2015-06-30T15:03:44Z</time>
      </trkpt>
      <trkpt lat="46.60155" lon="6.1134">
        <ele>1087.39</ele>
        <time>2015-06-30T15:03:45Z</time>
      </trkpt>
      <trkpt lat="46.60156" lon="6.11344">
        <ele>1087.39</ele>
        <time>2015-06-30T15:03:46Z</time>
      </trkpt>
      <trkpt lat="46.60175" lon="6.11403">
        <ele>1087.39</ele>
        <time>2015-06-30T15:04:06Z</time>
      </trkpt>
      <trkpt lat="46.60181" lon="6.1142">
        <ele>1087.39</ele>
        <time>2015-06-30T15:04:23Z</time>
      </trkpt>
      <trkpt lat="46.602" lon="6.11453">
        <ele>1087.39</ele>
        <time>2015-06-30T15:04:47Z</time>
      </trkpt>
      <trkpt lat="46.60181" lon="6.11446">
        <ele>1087.87</ele>
        <time>2015-06-30T15:05:12Z</time>
      </trkpt>
      <trkpt lat="46.60158" lon="6.11402">
        <ele>1087.39</ele>
        <time>2015-06-30T15:05:40Z</time>
      </trkpt>
      <trkpt lat="46.60152" lon="6.11361">
        <ele>1087.87</ele>
        <time>2015-06-30T15:06:17Z</time>
      </trkpt>
    </trkseg>
  </trk>
</gpx>